<?xml version='1.0' encoding='UTF-8'?><gpx version="1.1" creator="JPX - https://github.com/jenetics/jpx" xmlns="http://www.topografix.com/GPX/1/1"><trk><trkseg><trkpt lat="44.950217" lon="8.0266615"><ele>242.49999999999997</ele><time>2026-04-19T12:19:19.49Z</time></trkpt><trkpt lat="44.95026" lon="8.0265155"><ele>241.0</ele><time>2026-04-19T12:19:21.49Z</time></trkpt><trkpt lat="44.9502951" lon="8.0264338"><ele>239.5</ele><time>2026-04-19T12:19:22.49Z</time></trkpt><trkpt lat="44.9503405" lon="8.0263521"><ele>238.0</ele><time>2026-04-19T12:19:23.49Z</time></trkpt><trkpt lat="44.9503687" lon="8.0262492"><ele>236.49999999999997</ele><time>2026-04-19T12:19:24.49Z</time></trkpt><trkpt lat="44.9503939" lon="8.0261553"><ele>235.0</ele><time>2026-04-19T12:19:25.49Z</time></trkpt><trkpt lat="44.9504082" lon="8.0260481"><ele>234.99999999999997</ele><time>2026-04-19T12:19:26.49Z</time></trkpt><trkpt lat="44.9504165" lon="8.0259357"><ele>235.0</ele><time>2026-04-19T12:19:27.49Z</time></trkpt><trkpt lat="44.9504107" lon="8.0258151"><ele>235.0</ele><time>2026-04-19T12:19:28.49Z</time></trkpt><trkpt lat="44.9504118" lon="8.0256845"><ele>235.0</ele><time>2026-04-19T12:19:29.49Z</time></trkpt><trkpt lat="44.9503975" lon="8.0255589"><ele>234.99999999999997</ele><time>2026-04-19T12:19:30.49Z</time></trkpt><trkpt lat="44.9503927" lon="8.025441"><ele>235.0</ele><time>2026-04-19T12:19:31.491Z</time></trkpt><trkpt lat="44.9503833" lon="8.0252871"><ele>234.0</ele><time>2026-04-19T12:19:32.49Z</time></trkpt><trkpt lat="44.9503684" lon="8.0251606"><ele>233.0</ele><time>2026-04-19T12:19:33.49Z</time></trkpt><trkpt lat="44.9503558" lon="8.024989"><ele>232.0</ele><time>2026-04-19T12:19:34.49Z</time></trkpt><trkpt lat="44.950339" lon="8.0248378"><ele>231.0</ele><time>2026-04-19T12:19:35.49Z</time></trkpt><trkpt lat="44.9503107" lon="8.0246948"><ele>230.0</ele><time>2026-04-19T12:19:36.49Z</time></trkpt><trkpt lat="44.9502915" lon="8.0245422"><ele>229.0</ele><time>2026-04-19T12:19:37.49Z</time></trkpt><trkpt lat="44.9502909" lon="8.0243575"><ele>228.0</ele><time>2026-04-19T12:19:38.49Z</time></trkpt><trkpt lat="44.9502925" lon="8.0241848"><ele>227.0</ele><time>2026-04-19T12:19:39.491Z</time></trkpt><trkpt lat="44.9503149" lon="8.0240875"><ele>226.0</ele><time>2026-04-19T12:19:40.49Z</time></trkpt><trkpt lat="44.9503161" lon="8.0239589"><ele>225.0</ele><time>2026-04-19T12:19:41.491Z</time></trkpt><trkpt lat="44.9502504" lon="8.0239744"><ele>225.0</ele><time>2026-04-19T12:19:43.49Z</time></trkpt><trkpt lat="44.9501697" lon="8.0241299"><ele>225.0</ele><time>2026-04-19T12:19:46.491Z</time></trkpt><trkpt lat="44.9501078" lon="8.0242504"><ele>225.0</ele><time>2026-04-19T12:19:47.49Z</time></trkpt><trkpt lat="44.9500469" lon="8.0243506"><ele>225.0</ele><time>2026-04-19T12:19:48.491Z</time></trkpt><trkpt lat="44.9499721" lon="8.0244192"><ele>225.0</ele><time>2026-04-19T12:19:49.49Z</time></trkpt><trkpt lat="44.9499004" lon="8.024487"><ele>221.6</ele><time>2026-04-19T12:19:50.49Z</time></trkpt><trkpt lat="44.9498207" lon="8.0244231"><ele>218.2</ele><time>2026-04-19T12:19:51.49Z</time></trkpt><trkpt lat="44.9497676" lon="8.0243733"><ele>214.8</ele><time>2026-04-19T12:19:52.49Z</time></trkpt><trkpt lat="44.9497315" lon="8.0242812"><ele>211.4</ele><time>2026-04-19T12:19:53.491Z</time></trkpt><trkpt lat="44.9497347" lon="8.0241774"><ele>208.0</ele><time>2026-04-19T12:19:54.49Z</time></trkpt><trkpt lat="44.9498484" lon="8.0240102"><ele>206.60000000000002</ele><time>2026-04-19T12:19:55.49Z</time></trkpt><trkpt lat="44.9498938" lon="8.023893"><ele>205.20000000000002</ele><time>2026-04-19T12:19:56.49Z</time></trkpt><trkpt lat="44.949951" lon="8.0237642"><ele>203.8</ele><time>2026-04-19T12:19:57.491Z</time></trkpt><trkpt lat="44.9499914" lon="8.0236082"><ele>202.4</ele><time>2026-04-19T12:19:58.491Z</time></trkpt><trkpt lat="44.9500148" lon="8.0234493"><ele>201.0</ele><time>2026-04-19T12:19:59.49Z</time></trkpt><trkpt lat="44.9500353" lon="8.0232564"><ele>204.33333333333331</ele><time>2026-04-19T12:20:00.491Z</time></trkpt><trkpt lat="44.9500436" lon="8.023007"><ele>207.66666666666666</ele><time>2026-04-19T12:20:01.49Z</time></trkpt><trkpt lat="44.9500748" lon="8.0227707"><ele>211.0</ele><time>2026-04-19T12:20:02.49Z</time></trkpt><trkpt lat="44.9500727" lon="8.0225572"><ele>208.33333333333331</ele><time>2026-04-19T12:20:03.49Z</time></trkpt><trkpt lat="44.950073" lon="8.0223442"><ele>205.66666666666669</ele><time>2026-04-19T12:20:04.491Z</time></trkpt><trkpt lat="44.9500605" lon="8.0221166"><ele>203.0</ele><time>2026-04-19T12:20:05.49Z</time></trkpt><trkpt lat="44.9500381" lon="8.0219013"><ele>199.0</ele><time>2026-04-19T12:20:06.49Z</time></trkpt><trkpt lat="44.9500281" lon="8.0216843"><ele>195.0</ele><time>2026-04-19T12:20:07.49Z</time></trkpt><trkpt lat="44.9500216" lon="8.021471"><ele>191.0</ele><time>2026-04-19T12:20:08.49Z</time></trkpt><trkpt lat="44.9500082" lon="8.0212651"><ele>188.75</ele><time>2026-04-19T12:20:09.491Z</time></trkpt><trkpt lat="44.9500011" lon="8.0210737"><ele>186.5</ele><time>2026-04-19T12:20:10.491Z</time></trkpt><trkpt lat="44.9499954" lon="8.0208951"><ele>184.25</ele><time>2026-04-19T12:20:11.49Z</time></trkpt><trkpt lat="44.9499873" lon="8.0207125"><ele>182.0</ele><time>2026-04-19T12:20:12.49Z</time></trkpt><trkpt lat="44.9499704" lon="8.0205521"><ele>181.66666666666666</ele><time>2026-04-19T12:20:13.491Z</time></trkpt><trkpt lat="44.9499664" lon="8.0204057"><ele>181.33333333333331</ele><time>2026-04-19T12:20:14.491Z</time></trkpt><trkpt lat="44.9499691" lon="8.0202758"><ele>181.0</ele><time>2026-04-19T12:20:15.49Z</time></trkpt><trkpt lat="44.9499769" lon="8.0201863"><ele>180.66666666666666</ele><time>2026-04-19T12:20:16.491Z</time></trkpt><trkpt lat="44.9500282" lon="8.020053"><ele>180.33333333333334</ele><time>2026-04-19T12:20:18.49Z</time></trkpt><trkpt lat="44.9500992" lon="8.0200443"><ele>180.0</ele><time>2026-04-19T12:20:19.491Z</time></trkpt><trkpt lat="44.9502849" lon="8.020026"><ele>180.0</ele><time>2026-04-19T12:20:21.49Z</time></trkpt><trkpt lat="44.9504098" lon="8.0200253"><ele>180.0</ele><time>2026-04-19T12:20:22.49Z</time></trkpt><trkpt lat="44.9505453" lon="8.020043"><ele>180.0</ele><time>2026-04-19T12:20:23.49Z</time></trkpt><trkpt lat="44.9506875" lon="8.0200475"><ele>180.0</ele><time>2026-04-19T12:20:24.491Z</time></trkpt><trkpt lat="44.9508564" lon="8.0200252"><ele>179.66666666666666</ele><time>2026-04-19T12:20:25.491Z</time></trkpt><trkpt lat="44.9510167" lon="8.0200156"><ele>179.33333333333331</ele><time>2026-04-19T12:20:26.491Z</time></trkpt><trkpt lat="44.95118" lon="8.0199932"><ele>179.0</ele><time>2026-04-19T12:20:27.491Z</time></trkpt><trkpt lat="44.9513632" lon="8.0199119"><ele>179.0</ele><time>2026-04-19T12:20:28.491Z</time></trkpt><trkpt lat="44.9515309" lon="8.0198324"><ele>179.0</ele><time>2026-04-19T12:20:29.49Z</time></trkpt><trkpt lat="44.9516994" lon="8.0197427"><ele>179.0</ele><time>2026-04-19T12:20:30.491Z</time></trkpt><trkpt lat="44.9518645" lon="8.0196462"><ele>179.33333333333331</ele><time>2026-04-19T12:20:31.49Z</time></trkpt><trkpt lat="44.9520353" lon="8.0195345"><ele>179.66666666666666</ele><time>2026-04-19T12:20:32.49Z</time></trkpt><trkpt lat="44.9521915" lon="8.019434"><ele>180.0</ele><time>2026-04-19T12:20:33.49Z</time></trkpt><trkpt lat="44.9523449" lon="8.0193352"><ele>180.0</ele><time>2026-04-19T12:20:34.491Z</time></trkpt><trkpt lat="44.9524936" lon="8.0192432"><ele>180.0</ele><time>2026-04-19T12:20:35.49Z</time></trkpt><trkpt lat="44.9526411" lon="8.019152"><ele>180.0</ele><time>2026-04-19T12:20:36.49Z</time></trkpt><trkpt lat="44.95279" lon="8.0190512"><ele>178.33333333333334</ele><time>2026-04-19T12:20:37.49Z</time></trkpt><trkpt lat="44.9529449" lon="8.0189567"><ele>176.66666666666669</ele><time>2026-04-19T12:20:38.49Z</time></trkpt><trkpt lat="44.9530993" lon="8.0188663"><ele>175.0</ele><time>2026-04-19T12:20:39.49Z</time></trkpt><trkpt lat="44.9532551" lon="8.0187705"><ele>176.66666666666669</ele><time>2026-04-19T12:20:40.49Z</time></trkpt><trkpt lat="44.9534073" lon="8.0186662"><ele>178.33333333333334</ele><time>2026-04-19T12:20:41.491Z</time></trkpt><trkpt lat="44.9535568" lon="8.0185655"><ele>180.0</ele><time>2026-04-19T12:20:42.49Z</time></trkpt><trkpt lat="44.9537104" lon="8.0184675"><ele>180.0</ele><time>2026-04-19T12:20:43.49Z</time></trkpt><trkpt lat="44.9538621" lon="8.0183686"><ele>180.0</ele><time>2026-04-19T12:20:44.491Z</time></trkpt><trkpt lat="44.9540121" lon="8.018276"><ele>180.0</ele><time>2026-04-19T12:20:45.491Z</time></trkpt><trkpt lat="44.9541667" lon="8.0181786"><ele>179.0</ele><time>2026-04-19T12:20:46.491Z</time></trkpt><trkpt lat="44.9543201" lon="8.0180859"><ele>178.0</ele><time>2026-04-19T12:20:47.49Z</time></trkpt><trkpt lat="44.9544764" lon="8.0179915"><ele>177.0</ele><time>2026-04-19T12:20:48.491Z</time></trkpt><trkpt lat="44.9546343" lon="8.0178939"><ele>177.0</ele><time>2026-04-19T12:20:49.49Z</time></trkpt><trkpt lat="44.9547871" lon="8.0178002"><ele>177.0</ele><time>2026-04-19T12:20:50.49Z</time></trkpt><trkpt lat="44.9549379" lon="8.0177004"><ele>177.0</ele><time>2026-04-19T12:20:51.491Z</time></trkpt><trkpt lat="44.9550899" lon="8.0176031"><ele>177.0</ele><time>2026-04-19T12:20:52.49Z</time></trkpt><trkpt lat="44.955243" lon="8.0175187"><ele>177.0</ele><time>2026-04-19T12:20:53.49Z</time></trkpt><trkpt lat="44.955407" lon="8.0174275"><ele>177.0</ele><time>2026-04-19T12:20:54.49Z</time></trkpt><trkpt lat="44.9555732" lon="8.0173735"><ele>177.0</ele><time>2026-04-19T12:20:55.49Z</time></trkpt><trkpt lat="44.9557335" lon="8.0173703"><ele>177.0</ele><time>2026-04-19T12:20:56.49Z</time></trkpt><trkpt lat="44.9558986" lon="8.0173853"><ele>177.0</ele><time>2026-04-19T12:20:57.49Z</time></trkpt><trkpt lat="44.9560693" lon="8.01743"><ele>177.0</ele><time>2026-04-19T12:20:58.49Z</time></trkpt><trkpt lat="44.9562358" lon="8.0174278"><ele>177.0</ele><time>2026-04-19T12:20:59.491Z</time></trkpt><trkpt lat="44.9563887" lon="8.0174936"><ele>177.0</ele><time>2026-04-19T12:21:00.491Z</time></trkpt><trkpt lat="44.9565281" lon="8.0175548"><ele>177.33333333333334</ele><time>2026-04-19T12:21:01.49Z</time></trkpt><trkpt lat="44.9566802" lon="8.0176209"><ele>177.66666666666669</ele><time>2026-04-19T12:21:02.49Z</time></trkpt><trkpt lat="44.9568292" lon="8.0176773"><ele>178.0</ele><time>2026-04-19T12:21:03.49Z</time></trkpt><trkpt lat="44.9569845" lon="8.0177323"><ele>178.0</ele><time>2026-04-19T12:21:04.49Z</time></trkpt><trkpt lat="44.957147" lon="8.0177902"><ele>178.0</ele><time>2026-04-19T12:21:05.49Z</time></trkpt><trkpt lat="44.9573016" lon="8.0178301"><ele>178.0</ele><time>2026-04-19T12:21:06.49Z</time></trkpt><trkpt lat="44.9574658" lon="8.0179234"><ele>178.33333333333334</ele><time>2026-04-19T12:21:07.491Z</time></trkpt><trkpt lat="44.9576228" lon="8.0179885"><ele>178.66666666666666</ele><time>2026-04-19T12:21:08.49Z</time></trkpt><trkpt lat="44.9577784" lon="8.0180523"><ele>179.0</ele><time>2026-04-19T12:21:09.491Z</time></trkpt><trkpt lat="44.957927" lon="8.018111"><ele>179.0</ele><time>2026-04-19T12:21:10.49Z</time></trkpt><trkpt lat="44.9580967" lon="8.0181446"><ele>179.0</ele><time>2026-04-19T12:21:11.49Z</time></trkpt><trkpt lat="44.9582463" lon="8.0181551"><ele>179.0</ele><time>2026-04-19T12:21:12.49Z</time></trkpt><trkpt lat="44.958406" lon="8.0180981"><ele>179.33333333333331</ele><time>2026-04-19T12:21:13.49Z</time></trkpt><trkpt lat="44.9585633" lon="8.0180213"><ele>179.66666666666666</ele><time>2026-04-19T12:21:14.49Z</time></trkpt><trkpt lat="44.9587098" lon="8.0179306"><ele>180.0</ele><time>2026-04-19T12:21:15.49Z</time></trkpt><trkpt lat="44.9588611" lon="8.0178414"><ele>180.0</ele><time>2026-04-19T12:21:16.49Z</time></trkpt><trkpt lat="44.958999" lon="8.0177378"><ele>180.0</ele><time>2026-04-19T12:21:17.49Z</time></trkpt><trkpt lat="44.9591446" lon="8.017647"><ele>180.0</ele><time>2026-04-19T12:21:18.49Z</time></trkpt><trkpt lat="44.9592881" lon="8.0175478"><ele>180.66666666666666</ele><time>2026-04-19T12:21:19.49Z</time></trkpt><trkpt lat="44.959432" lon="8.0174482"><ele>181.33333333333331</ele><time>2026-04-19T12:21:20.49Z</time></trkpt><trkpt lat="44.9595777" lon="8.0173546"><ele>182.0</ele><time>2026-04-19T12:21:21.49Z</time></trkpt><trkpt lat="44.9597204" lon="8.0172615"><ele>182.0</ele><time>2026-04-19T12:21:22.491Z</time></trkpt><trkpt lat="44.9598603" lon="8.0171658"><ele>182.0</ele><time>2026-04-19T12:21:23.49Z</time></trkpt><trkpt lat="44.960009" lon="8.0170756"><ele>182.0</ele><time>2026-04-19T12:21:24.49Z</time></trkpt><trkpt lat="44.9601519" lon="8.016976"><ele>181.66666666666666</ele><time>2026-04-19T12:21:25.491Z</time></trkpt><trkpt lat="44.9602957" lon="8.0168848"><ele>181.33333333333334</ele><time>2026-04-19T12:21:26.49Z</time></trkpt><trkpt lat="44.960444" lon="8.0167949"><ele>181.0</ele><time>2026-04-19T12:21:27.49Z</time></trkpt><trkpt lat="44.9605972" lon="8.0167124"><ele>180.0</ele><time>2026-04-19T12:21:28.49Z</time></trkpt><trkpt lat="44.9607458" lon="8.0166381"><ele>179.0</ele><time>2026-04-19T12:21:29.49Z</time></trkpt><trkpt lat="44.960898" lon="8.0165462"><ele>178.0</ele><time>2026-04-19T12:21:30.49Z</time></trkpt><trkpt lat="44.9610563" lon="8.0164709"><ele>178.0</ele><time>2026-04-19T12:21:31.49Z</time></trkpt><trkpt lat="44.961197" lon="8.0163981"><ele>178.0</ele><time>2026-04-19T12:21:32.49Z</time></trkpt><trkpt lat="44.9613467" lon="8.0163075"><ele>178.0</ele><time>2026-04-19T12:21:33.49Z</time></trkpt><trkpt lat="44.9614985" lon="8.0162306"><ele>178.0</ele><time>2026-04-19T12:21:34.491Z</time></trkpt><trkpt lat="44.9616523" lon="8.0161442"><ele>178.0</ele><time>2026-04-19T12:21:35.491Z</time></trkpt><trkpt lat="44.9618002" lon="8.016069"><ele>178.0</ele><time>2026-04-19T12:21:36.493Z</time></trkpt><trkpt lat="44.961962" lon="8.0159858"><ele>179.0</ele><time>2026-04-19T12:21:37.491Z</time></trkpt><trkpt lat="44.9621123" lon="8.0159113"><ele>180.0</ele><time>2026-04-19T12:21:38.49Z</time></trkpt><trkpt lat="44.9622647" lon="8.0158334"><ele>181.0</ele><time>2026-04-19T12:21:39.491Z</time></trkpt><trkpt lat="44.9624123" lon="8.0157591"><ele>182.33333333333334</ele><time>2026-04-19T12:21:40.489Z</time></trkpt><trkpt lat="44.9625748" lon="8.0156788"><ele>183.66666666666666</ele><time>2026-04-19T12:21:41.489Z</time></trkpt><trkpt lat="44.9627161" lon="8.0156101"><ele>185.0</ele><time>2026-04-19T12:21:42.489Z</time></trkpt><trkpt lat="44.9628434" lon="8.0155162"><ele>185.0</ele><time>2026-04-19T12:21:43.489Z</time></trkpt><trkpt lat="44.9629747" lon="8.0154496"><ele>185.0</ele><time>2026-04-19T12:21:44.489Z</time></trkpt><trkpt lat="44.9630928" lon="8.0153921"><ele>185.0</ele><time>2026-04-19T12:21:45.489Z</time></trkpt><trkpt lat="44.9631955" lon="8.0153374"><ele>185.0</ele><time>2026-04-19T12:21:46.49Z</time></trkpt><trkpt lat="44.9633058" lon="8.0152862"><ele>184.5</ele><time>2026-04-19T12:21:47.489Z</time></trkpt><trkpt lat="44.9634237" lon="8.015213"><ele>184.0</ele><time>2026-04-19T12:21:48.489Z</time></trkpt><trkpt lat="44.9635545" lon="8.015142"><ele>183.5</ele><time>2026-04-19T12:21:49.489Z</time></trkpt><trkpt lat="44.9636987" lon="8.0150474"><ele>183.0</ele><time>2026-04-19T12:21:50.489Z</time></trkpt><trkpt lat="44.9638249" lon="8.0149419"><ele>182.66666666666666</ele><time>2026-04-19T12:21:51.49Z</time></trkpt><trkpt lat="44.9639723" lon="8.0148357"><ele>182.33333333333331</ele><time>2026-04-19T12:21:52.49Z</time></trkpt><trkpt lat="44.9641156" lon="8.0147083"><ele>182.0</ele><time>2026-04-19T12:21:53.49Z</time></trkpt><trkpt lat="44.96425" lon="8.0145886"><ele>182.5</ele><time>2026-04-19T12:21:54.49Z</time></trkpt><trkpt lat="44.9643834" lon="8.014467"><ele>183.0</ele><time>2026-04-19T12:21:55.49Z</time></trkpt><trkpt lat="44.9645038" lon="8.0143564"><ele>183.5</ele><time>2026-04-19T12:21:56.489Z</time></trkpt><trkpt lat="44.9646269" lon="8.0142549"><ele>184.0</ele><time>2026-04-19T12:21:57.489Z</time></trkpt><trkpt lat="44.9647417" lon="8.014163"><ele>183.6</ele><time>2026-04-19T12:21:58.489Z</time></trkpt><trkpt lat="44.9648556" lon="8.0140763"><ele>183.2</ele><time>2026-04-19T12:21:59.49Z</time></trkpt><trkpt lat="44.9649248" lon="8.0140039"><ele>182.79999999999998</ele><time>2026-04-19T12:22:00.489Z</time></trkpt><trkpt lat="44.9650062" lon="8.013933"><ele>182.39999999999998</ele><time>2026-04-19T12:22:01.489Z</time></trkpt><trkpt lat="44.9650927" lon="8.0138756"><ele>182.0</ele><time>2026-04-19T12:22:02.489Z</time></trkpt><trkpt lat="44.9651604" lon="8.0138005"><ele>182.0</ele><time>2026-04-19T12:22:03.49Z</time></trkpt><trkpt lat="44.9652202" lon="8.0138418"><ele>182.0</ele><time>2026-04-19T12:22:07.489Z</time></trkpt><trkpt lat="44.9652386" lon="8.013929"><ele>182.0</ele><time>2026-04-19T12:22:10.489Z</time></trkpt><trkpt lat="44.9651404" lon="8.0140072"><ele>182.0</ele><time>2026-04-19T12:22:12.49Z</time></trkpt><trkpt lat="44.9650524" lon="8.0140662"><ele>182.0</ele><time>2026-04-19T12:22:14.49Z</time></trkpt><trkpt lat="44.9650166" lon="8.0142812"><ele>182.39999999999998</ele><time>2026-04-19T12:22:16.489Z</time></trkpt><trkpt lat="44.9650279" lon="8.0144117"><ele>182.79999999999998</ele><time>2026-04-19T12:22:17.489Z</time></trkpt><trkpt lat="44.9650355" lon="8.0145695"><ele>183.2</ele><time>2026-04-19T12:22:18.49Z</time></trkpt><trkpt lat="44.9650496" lon="8.0147276"><ele>183.6</ele><time>2026-04-19T12:22:19.489Z</time></trkpt><trkpt lat="44.9650645" lon="8.0148818"><ele>184.0</ele><time>2026-04-19T12:22:20.49Z</time></trkpt><trkpt lat="44.9650848" lon="8.0150349"><ele>186.25</ele><time>2026-04-19T12:22:21.489Z</time></trkpt><trkpt lat="44.9651146" lon="8.0152159"><ele>188.5</ele><time>2026-04-19T12:22:22.489Z</time></trkpt><trkpt lat="44.9651238" lon="8.0153977"><ele>190.75</ele><time>2026-04-19T12:22:23.489Z</time></trkpt><trkpt lat="44.965147" lon="8.0155526"><ele>193.0</ele><time>2026-04-19T12:22:24.489Z</time></trkpt><trkpt lat="44.9651573" lon="8.0157017"><ele>196.0</ele><time>2026-04-19T12:22:25.489Z</time></trkpt><trkpt lat="44.9651783" lon="8.015834"><ele>199.0</ele><time>2026-04-19T12:22:26.489Z</time></trkpt><trkpt lat="44.9651883" lon="8.015952"><ele>202.0</ele><time>2026-04-19T12:22:27.49Z</time></trkpt><trkpt lat="44.9652055" lon="8.0160653"><ele>205.0</ele><time>2026-04-19T12:22:28.49Z</time></trkpt><trkpt lat="44.9652623" lon="8.0161724"><ele>208.0</ele><time>2026-04-19T12:22:29.489Z</time></trkpt><trkpt lat="44.9653235" lon="8.016272"><ele>208.0</ele><time>2026-04-19T12:22:30.49Z</time></trkpt><trkpt lat="44.9654026" lon="8.0163668"><ele>208.0</ele><time>2026-04-19T12:22:31.489Z</time></trkpt><trkpt lat="44.965476" lon="8.0164697"><ele>208.0</ele><time>2026-04-19T12:22:32.49Z</time></trkpt><trkpt lat="44.9655585" lon="8.0165681"><ele>208.0</ele><time>2026-04-19T12:22:33.489Z</time></trkpt><trkpt lat="44.9656473" lon="8.0166374"><ele>208.0</ele><time>2026-04-19T12:22:34.489Z</time></trkpt><trkpt lat="44.9657779" lon="8.0166953"><ele>209.75</ele><time>2026-04-19T12:22:35.489Z</time></trkpt><trkpt lat="44.9658752" lon="8.0167481"><ele>211.5</ele><time>2026-04-19T12:22:36.489Z</time></trkpt><trkpt lat="44.9659969" lon="8.0168056"><ele>213.25</ele><time>2026-04-19T12:22:37.489Z</time></trkpt><trkpt lat="44.9661006" lon="8.0168909"><ele>215.0</ele><time>2026-04-19T12:22:38.489Z</time></trkpt><trkpt lat="44.9662102" lon="8.0169839"><ele>215.0</ele><time>2026-04-19T12:22:39.489Z</time></trkpt><trkpt lat="44.9663292" lon="8.0170487"><ele>215.0</ele><time>2026-04-19T12:22:40.489Z</time></trkpt><trkpt lat="44.9664365" lon="8.0170792"><ele>215.0</ele><time>2026-04-19T12:22:41.489Z</time></trkpt><trkpt lat="44.9665376" lon="8.0170957"><ele>215.0</ele><time>2026-04-19T12:22:42.49Z</time></trkpt><trkpt lat="44.9666406" lon="8.0171164"><ele>215.0</ele><time>2026-04-19T12:22:43.489Z</time></trkpt><trkpt lat="44.9667313" lon="8.0171604"><ele>214.8</ele><time>2026-04-19T12:22:44.49Z</time></trkpt><trkpt lat="44.9668096" lon="8.0171925"><ele>214.6</ele><time>2026-04-19T12:22:45.489Z</time></trkpt><trkpt lat="44.9668927" lon="8.0172955"><ele>214.39999999999998</ele><time>2026-04-19T12:22:46.489Z</time></trkpt><trkpt lat="44.966937" lon="8.0174058"><ele>214.2</ele><time>2026-04-19T12:22:47.49Z</time></trkpt><trkpt lat="44.9670017" lon="8.0175147"><ele>214.0</ele><time>2026-04-19T12:22:48.489Z</time></trkpt><trkpt lat="44.9670578" lon="8.0176514"><ele>215.2</ele><time>2026-04-19T12:22:49.489Z</time></trkpt><trkpt lat="44.9671233" lon="8.0177948"><ele>216.39999999999998</ele><time>2026-04-19T12:22:50.489Z</time></trkpt><trkpt lat="44.9671821" lon="8.0179009"><ele>217.6</ele><time>2026-04-19T12:22:51.49Z</time></trkpt><trkpt lat="44.9672258" lon="8.0180223"><ele>218.8</ele><time>2026-04-19T12:22:52.489Z</time></trkpt><trkpt lat="44.9673113" lon="8.0181514"><ele>220.0</ele><time>2026-04-19T12:22:53.489Z</time></trkpt><trkpt lat="44.9673945" lon="8.0182574"><ele>221.2</ele><time>2026-04-19T12:22:54.489Z</time></trkpt><trkpt lat="44.9674703" lon="8.0183597"><ele>222.4</ele><time>2026-04-19T12:22:55.489Z</time></trkpt><trkpt lat="44.9675679" lon="8.0184562"><ele>223.60000000000002</ele><time>2026-04-19T12:22:56.49Z</time></trkpt><trkpt lat="44.9676454" lon="8.0185622"><ele>224.8</ele><time>2026-04-19T12:22:57.489Z</time></trkpt><trkpt lat="44.9677083" lon="8.0186682"><ele>226.0</ele><time>2026-04-19T12:22:58.489Z</time></trkpt><trkpt lat="44.9677616" lon="8.0187383"><ele>227.20000000000002</ele><time>2026-04-19T12:22:59.489Z</time></trkpt><trkpt lat="44.9678266" lon="8.0187958"><ele>228.40000000000003</ele><time>2026-04-19T12:23:00.489Z</time></trkpt><trkpt lat="44.9679217" lon="8.0188165"><ele>229.6</ele><time>2026-04-19T12:23:01.489Z</time></trkpt><trkpt lat="44.9680329" lon="8.0188414"><ele>230.8</ele><time>2026-04-19T12:23:02.489Z</time></trkpt><trkpt lat="44.9681331" lon="8.0188732"><ele>232.0</ele><time>2026-04-19T12:23:03.489Z</time></trkpt><trkpt lat="44.9682426" lon="8.0188997"><ele>232.0</ele><time>2026-04-19T12:23:04.489Z</time></trkpt><trkpt lat="44.9683405" lon="8.0189413"><ele>232.0</ele><time>2026-04-19T12:23:05.489Z</time></trkpt><trkpt lat="44.9684187" lon="8.0189649"><ele>232.0</ele><time>2026-04-19T12:23:06.49Z</time></trkpt><trkpt lat="44.9685143" lon="8.0189627"><ele>232.0</ele><time>2026-04-19T12:23:07.489Z</time></trkpt><trkpt lat="44.9685869" lon="8.0189387"><ele>232.0</ele><time>2026-04-19T12:23:08.489Z</time></trkpt><trkpt lat="44.9687343" lon="8.0188158"><ele>234.0</ele><time>2026-04-19T12:23:10.49Z</time></trkpt><trkpt lat="44.9688441" lon="8.0187662"><ele>236.0</ele><time>2026-04-19T12:23:11.489Z</time></trkpt><trkpt lat="44.9689273" lon="8.0186902"><ele>238.0</ele><time>2026-04-19T12:23:12.489Z</time></trkpt><trkpt lat="44.9690192" lon="8.0186206"><ele>240.0</ele><time>2026-04-19T12:23:13.489Z</time></trkpt><trkpt lat="44.9691247" lon="8.0185603"><ele>242.0</ele><time>2026-04-19T12:23:14.489Z</time></trkpt><trkpt lat="44.969222" lon="8.018489"><ele>243.0</ele><time>2026-04-19T12:23:15.489Z</time></trkpt><trkpt lat="44.9693141" lon="8.0184181"><ele>244.0</ele><time>2026-04-19T12:23:16.489Z</time></trkpt><trkpt lat="44.9694305" lon="8.0183518"><ele>245.0</ele><time>2026-04-19T12:23:18.489Z</time></trkpt><trkpt lat="44.9695646" lon="8.0183914"><ele>246.0</ele><time>2026-04-19T12:23:20.489Z</time></trkpt><trkpt lat="44.9696306" lon="8.0184115"><ele>247.0</ele><time>2026-04-19T12:23:21.49Z</time></trkpt><trkpt lat="44.9697101" lon="8.0184648"><ele>247.0</ele><time>2026-04-19T12:23:22.489Z</time></trkpt><trkpt lat="44.9697828" lon="8.0185069"><ele>247.0</ele><time>2026-04-19T12:23:23.489Z</time></trkpt><trkpt lat="44.9698442" lon="8.0186196"><ele>247.0</ele><time>2026-04-19T12:23:25.49Z</time></trkpt><trkpt lat="44.9698424" lon="8.0188142"><ele>247.0</ele><time>2026-04-19T12:23:27.489Z</time></trkpt><trkpt lat="44.9698359" lon="8.0189601"><ele>247.0</ele><time>2026-04-19T12:23:28.489Z</time></trkpt><trkpt lat="44.9698627" lon="8.0190743"><ele>246.8</ele><time>2026-04-19T12:23:29.49Z</time></trkpt><trkpt lat="44.9698851" lon="8.019203"><ele>246.6</ele><time>2026-04-19T12:23:30.49Z</time></trkpt><trkpt lat="44.9699523" lon="8.0193027"><ele>246.40000000000003</ele><time>2026-04-19T12:23:31.49Z</time></trkpt><trkpt lat="44.9700249" lon="8.019403"><ele>246.20000000000002</ele><time>2026-04-19T12:23:32.489Z</time></trkpt><trkpt lat="44.9701155" lon="8.0195315"><ele>246.0</ele><time>2026-04-19T12:23:33.489Z</time></trkpt><trkpt lat="44.9701745" lon="8.0196533"><ele>247.0</ele><time>2026-04-19T12:23:34.489Z</time></trkpt><trkpt lat="44.9702279" lon="8.0197912"><ele>248.00000000000003</ele><time>2026-04-19T12:23:35.489Z</time></trkpt><trkpt lat="44.9702837" lon="8.0199059"><ele>249.00000000000003</ele><time>2026-04-19T12:23:36.489Z</time></trkpt><trkpt lat="44.9703542" lon="8.0200258"><ele>250.0</ele><time>2026-04-19T12:23:37.489Z</time></trkpt><trkpt lat="44.970417" lon="8.0201458"><ele>251.0</ele><time>2026-04-19T12:23:38.489Z</time></trkpt><trkpt lat="44.9705119" lon="8.0202732"><ele>252.20000000000002</ele><time>2026-04-19T12:23:39.489Z</time></trkpt><trkpt lat="44.9705774" lon="8.020312"><ele>253.40000000000003</ele><time>2026-04-19T12:23:40.489Z</time></trkpt><trkpt lat="44.9706575" lon="8.0203492"><ele>254.6</ele><time>2026-04-19T12:23:41.489Z</time></trkpt><trkpt lat="44.9707367" lon="8.020363"><ele>255.8</ele><time>2026-04-19T12:23:42.489Z</time></trkpt><trkpt lat="44.9708376" lon="8.0203927"><ele>257.0</ele><time>2026-04-19T12:23:43.49Z</time></trkpt><trkpt lat="44.9709567" lon="8.0203872"><ele>257.5</ele><time>2026-04-19T12:23:44.489Z</time></trkpt><trkpt lat="44.9710711" lon="8.0204001"><ele>258.0</ele><time>2026-04-19T12:23:45.489Z</time></trkpt><trkpt lat="44.9711919" lon="8.0204111"><ele>258.5</ele><time>2026-04-19T12:23:46.489Z</time></trkpt><trkpt lat="44.971298" lon="8.0204444"><ele>259.0</ele><time>2026-04-19T12:23:47.489Z</time></trkpt><trkpt lat="44.9714" lon="8.0204955"><ele>259.0</ele><time>2026-04-19T12:23:48.489Z</time></trkpt><trkpt lat="44.9714934" lon="8.0205785"><ele>259.0</ele><time>2026-04-19T12:23:49.489Z</time></trkpt><trkpt lat="44.9715908" lon="8.0206408"><ele>259.0</ele><time>2026-04-19T12:23:50.489Z</time></trkpt><trkpt lat="44.971703" lon="8.0207005"><ele>259.0</ele><time>2026-04-19T12:23:51.49Z</time></trkpt><trkpt lat="44.9717687" lon="8.0207866"><ele>259.0</ele><time>2026-04-19T12:23:52.489Z</time></trkpt><trkpt lat="44.9718742" lon="8.0208277"><ele>261.0</ele><time>2026-04-19T12:23:53.489Z</time></trkpt><trkpt lat="44.9719757" lon="8.0208569"><ele>263.0</ele><time>2026-04-19T12:23:54.489Z</time></trkpt><trkpt lat="44.9720762" lon="8.0208963"><ele>265.0</ele><time>2026-04-19T12:23:55.489Z</time></trkpt><trkpt lat="44.9721767" lon="8.0209245"><ele>267.0</ele><time>2026-04-19T12:23:56.49Z</time></trkpt><trkpt lat="44.972258" lon="8.0209595"><ele>269.0</ele><time>2026-04-19T12:23:57.489Z</time></trkpt><trkpt lat="44.9723486" lon="8.0209986"><ele>269.0</ele><time>2026-04-19T12:23:58.489Z</time></trkpt><trkpt lat="44.972465" lon="8.0210389"><ele>269.0</ele><time>2026-04-19T12:23:59.489Z</time></trkpt><trkpt lat="44.9725635" lon="8.021088"><ele>269.0</ele><time>2026-04-19T12:24:00.49Z</time></trkpt><trkpt lat="44.972666" lon="8.021144"><ele>269.0</ele><time>2026-04-19T12:24:01.49Z</time></trkpt><trkpt lat="44.9727884" lon="8.0211603"><ele>269.0</ele><time>2026-04-19T12:24:02.49Z</time></trkpt><trkpt lat="44.9728768" lon="8.0212286"><ele>269.0</ele><time>2026-04-19T12:24:03.49Z</time></trkpt><trkpt lat="44.9729727" lon="8.0212771"><ele>269.0</ele><time>2026-04-19T12:24:04.489Z</time></trkpt><trkpt lat="44.9730443" lon="8.021341"><ele>269.0</ele><time>2026-04-19T12:24:05.489Z</time></trkpt><trkpt lat="44.9731534" lon="8.0214211"><ele>269.0</ele><time>2026-04-19T12:24:06.489Z</time></trkpt><trkpt lat="44.97327" lon="8.0214819"><ele>269.0</ele><time>2026-04-19T12:24:07.49Z</time></trkpt><trkpt lat="44.9733473" lon="8.021583"><ele>269.0</ele><time>2026-04-19T12:24:08.489Z</time></trkpt><trkpt lat="44.9734333" lon="8.021646"><ele>269.0</ele><time>2026-04-19T12:24:09.49Z</time></trkpt><trkpt lat="44.9735088" lon="8.0217077"><ele>269.0</ele><time>2026-04-19T12:24:10.489Z</time></trkpt><trkpt lat="44.9735908" lon="8.0217866"><ele>269.0</ele><time>2026-04-19T12:24:11.489Z</time></trkpt><trkpt lat="44.9736492" lon="8.0218483"><ele>266.0</ele><time>2026-04-19T12:24:12.489Z</time></trkpt><trkpt lat="44.9737971" lon="8.0218324"><ele>263.0</ele><time>2026-04-19T12:24:14.489Z</time></trkpt><trkpt lat="44.9738764" lon="8.0217545"><ele>260.0</ele><time>2026-04-19T12:24:15.49Z</time></trkpt><trkpt lat="44.9739368" lon="8.0216775"><ele>257.0</ele><time>2026-04-19T12:24:16.489Z</time></trkpt><trkpt lat="44.9739805" lon="8.0215944"><ele>254.0</ele><time>2026-04-19T12:24:17.489Z</time></trkpt><trkpt lat="44.974036" lon="8.0215313"><ele>254.0</ele><time>2026-04-19T12:24:18.49Z</time></trkpt><trkpt lat="44.9740994" lon="8.0214872"><ele>253.99999999999997</ele><time>2026-04-19T12:24:19.49Z</time></trkpt><trkpt lat="44.9741911" lon="8.0215264"><ele>253.99999999999997</ele><time>2026-04-19T12:24:21.489Z</time></trkpt><trkpt lat="44.9742897" lon="8.0215571"><ele>254.0</ele><time>2026-04-19T12:24:22.489Z</time></trkpt><trkpt lat="44.974389" lon="8.021587"><ele>254.0</ele><time>2026-04-19T12:24:23.489Z</time></trkpt><trkpt lat="44.9744964" lon="8.0216317"><ele>253.5</ele><time>2026-04-19T12:24:24.489Z</time></trkpt><trkpt lat="44.9746088" lon="8.0216742"><ele>253.0</ele><time>2026-04-19T12:24:25.489Z</time></trkpt><trkpt lat="44.9747326" lon="8.0216956"><ele>252.5</ele><time>2026-04-19T12:24:26.489Z</time></trkpt><trkpt lat="44.974829" lon="8.0217658"><ele>252.0</ele><time>2026-04-19T12:24:27.49Z</time></trkpt><trkpt lat="44.9749471" lon="8.0217933"><ele>252.2</ele><time>2026-04-19T12:24:28.489Z</time></trkpt><trkpt lat="44.9750641" lon="8.0218528"><ele>252.39999999999998</ele><time>2026-04-19T12:24:29.489Z</time></trkpt><trkpt lat="44.9751578" lon="8.0219307"><ele>252.60000000000002</ele><time>2026-04-19T12:24:30.489Z</time></trkpt><trkpt lat="44.9752428" lon="8.0219929"><ele>252.8</ele><time>2026-04-19T12:24:31.489Z</time></trkpt><trkpt lat="44.9753239" lon="8.0220388"><ele>253.0</ele><time>2026-04-19T12:24:32.489Z</time></trkpt><trkpt lat="44.9754229" lon="8.0220848"><ele>253.0</ele><time>2026-04-19T12:24:33.49Z</time></trkpt><trkpt lat="44.9755725" lon="8.0220816"><ele>253.0</ele><time>2026-04-19T12:24:35.49Z</time></trkpt><trkpt lat="44.9757525" lon="8.0219944"><ele>253.0</ele><time>2026-04-19T12:24:37.49Z</time></trkpt><trkpt lat="44.9758516" lon="8.0219197"><ele>251.5</ele><time>2026-04-19T12:24:38.489Z</time></trkpt><trkpt lat="44.9759948" lon="8.0218297"><ele>250.0</ele><time>2026-04-19T12:24:39.489Z</time></trkpt><trkpt lat="44.9761146" lon="8.0217597"><ele>248.5</ele><time>2026-04-19T12:24:40.489Z</time></trkpt><trkpt lat="44.9762294" lon="8.0216845"><ele>247.0</ele><time>2026-04-19T12:24:41.489Z</time></trkpt><trkpt lat="44.976355" lon="8.0216053"><ele>247.0</ele><time>2026-04-19T12:24:42.489Z</time></trkpt><trkpt lat="44.9764566" lon="8.0215504"><ele>247.0</ele><time>2026-04-19T12:24:43.489Z</time></trkpt><trkpt lat="44.9765729" lon="8.021493"><ele>247.0</ele><time>2026-04-19T12:24:44.489Z</time></trkpt><trkpt lat="44.9767013" lon="8.0214598"><ele>247.0</ele><time>2026-04-19T12:24:45.489Z</time></trkpt><trkpt lat="44.9768152" lon="8.0214037"><ele>248.0</ele><time>2026-04-19T12:24:46.489Z</time></trkpt><trkpt lat="44.9769305" lon="8.0213317"><ele>249.0</ele><time>2026-04-19T12:24:47.489Z</time></trkpt><trkpt lat="44.9770451" lon="8.0212514"><ele>250.0</ele><time>2026-04-19T12:24:48.489Z</time></trkpt><trkpt lat="44.9771534" lon="8.0211738"><ele>251.0</ele><time>2026-04-19T12:24:49.489Z</time></trkpt><trkpt lat="44.977265" lon="8.0211073"><ele>251.0</ele><time>2026-04-19T12:24:50.49Z</time></trkpt><trkpt lat="44.9773703" lon="8.0210367"><ele>251.0</ele><time>2026-04-19T12:24:51.489Z</time></trkpt><trkpt lat="44.9774877" lon="8.020962"><ele>251.0</ele><time>2026-04-19T12:24:52.489Z</time></trkpt><trkpt lat="44.9775724" lon="8.0208744"><ele>251.0</ele><time>2026-04-19T12:24:53.49Z</time></trkpt><trkpt lat="44.9776892" lon="8.0207887"><ele>252.60000000000002</ele><time>2026-04-19T12:24:54.489Z</time></trkpt><trkpt lat="44.9777709" lon="8.0206851"><ele>254.20000000000002</ele><time>2026-04-19T12:24:55.489Z</time></trkpt><trkpt lat="44.9778691" lon="8.0206007"><ele>255.79999999999998</ele><time>2026-04-19T12:24:56.489Z</time></trkpt><trkpt lat="44.9779668" lon="8.0205251"><ele>257.4</ele><time>2026-04-19T12:24:57.49Z</time></trkpt><trkpt lat="44.9780603" lon="8.0204784"><ele>259.0</ele><time>2026-04-19T12:24:58.489Z</time></trkpt><trkpt lat="44.9781542" lon="8.0204533"><ele>259.0</ele><time>2026-04-19T12:24:59.489Z</time></trkpt><trkpt lat="44.9782351" lon="8.0204549"><ele>259.0</ele><time>2026-04-19T12:25:00.489Z</time></trkpt><trkpt lat="44.9783144" lon="8.0204472"><ele>259.0</ele><time>2026-04-19T12:25:01.489Z</time></trkpt><trkpt lat="44.9784064" lon="8.0204537"><ele>259.0</ele><time>2026-04-19T12:25:02.489Z</time></trkpt><trkpt lat="44.9785074" lon="8.0204715"><ele>259.0</ele><time>2026-04-19T12:25:03.489Z</time></trkpt><trkpt lat="44.9786075" lon="8.0206169"><ele>257.75</ele><time>2026-04-19T12:25:04.49Z</time></trkpt><trkpt lat="44.9787097" lon="8.0207074"><ele>256.5</ele><time>2026-04-19T12:25:05.489Z</time></trkpt><trkpt lat="44.9788055" lon="8.0208019"><ele>255.25</ele><time>2026-04-19T12:25:06.49Z</time></trkpt><trkpt lat="44.9789045" lon="8.0208977"><ele>254.0</ele><time>2026-04-19T12:25:07.489Z</time></trkpt><trkpt lat="44.9790093" lon="8.0209556"><ele>254.0</ele><time>2026-04-19T12:25:08.489Z</time></trkpt><trkpt lat="44.9791291" lon="8.0209643"><ele>254.0</ele><time>2026-04-19T12:25:09.489Z</time></trkpt><trkpt lat="44.979237" lon="8.0209982"><ele>254.0</ele><time>2026-04-19T12:25:10.489Z</time></trkpt><trkpt lat="44.9793564" lon="8.0210242"><ele>254.0</ele><time>2026-04-19T12:25:11.49Z</time></trkpt><trkpt lat="44.9795101" lon="8.0210388"><ele>255.0</ele><time>2026-04-19T12:25:12.489Z</time></trkpt><trkpt lat="44.9796235" lon="8.0210465"><ele>256.0</ele><time>2026-04-19T12:25:13.489Z</time></trkpt><trkpt lat="44.9797583" lon="8.0210685"><ele>257.0</ele><time>2026-04-19T12:25:14.489Z</time></trkpt><trkpt lat="44.9798863" lon="8.0210846"><ele>258.0</ele><time>2026-04-19T12:25:15.489Z</time></trkpt><trkpt lat="44.9800052" lon="8.0211237"><ele>258.25</ele><time>2026-04-19T12:25:16.489Z</time></trkpt><trkpt lat="44.9801194" lon="8.0211525"><ele>258.5</ele><time>2026-04-19T12:25:17.489Z</time></trkpt><trkpt lat="44.9802286" lon="8.0212044"><ele>258.75</ele><time>2026-04-19T12:25:18.49Z</time></trkpt><trkpt lat="44.9803335" lon="8.0212725"><ele>259.0</ele><time>2026-04-19T12:25:19.489Z</time></trkpt><trkpt lat="44.9804236" lon="8.0213514"><ele>259.0</ele><time>2026-04-19T12:25:20.49Z</time></trkpt><trkpt lat="44.9805289" lon="8.0214157"><ele>259.0</ele><time>2026-04-19T12:25:21.49Z</time></trkpt><trkpt lat="44.9806129" lon="8.0214747"><ele>259.0</ele><time>2026-04-19T12:25:22.49Z</time></trkpt><trkpt lat="44.9806988" lon="8.0215142"><ele>259.0</ele><time>2026-04-19T12:25:23.489Z</time></trkpt><trkpt lat="44.9807903" lon="8.0215966"><ele>259.0</ele><time>2026-04-19T12:25:24.49Z</time></trkpt><trkpt lat="44.9808801" lon="8.0216327"><ele>258.4</ele><time>2026-04-19T12:25:25.49Z</time></trkpt><trkpt lat="44.9809761" lon="8.0216614"><ele>257.79999999999995</ele><time>2026-04-19T12:25:26.49Z</time></trkpt><trkpt lat="44.9810492" lon="8.0216462"><ele>257.20000000000005</ele><time>2026-04-19T12:25:27.489Z</time></trkpt><trkpt lat="44.9811404" lon="8.0215976"><ele>256.6</ele><time>2026-04-19T12:25:28.489Z</time></trkpt><trkpt lat="44.9812421" lon="8.0215592"><ele>256.0</ele><time>2026-04-19T12:25:29.49Z</time></trkpt><trkpt lat="44.9813277" lon="8.0215245"><ele>255.8</ele><time>2026-04-19T12:25:30.49Z</time></trkpt><trkpt lat="44.9814181" lon="8.021494"><ele>255.60000000000002</ele><time>2026-04-19T12:25:31.49Z</time></trkpt><trkpt lat="44.9814912" lon="8.021506"><ele>255.4</ele><time>2026-04-19T12:25:32.489Z</time></trkpt><trkpt lat="44.9815991" lon="8.021545"><ele>255.2</ele><time>2026-04-19T12:25:34.489Z</time></trkpt><trkpt lat="44.9816838" lon="8.0216499"><ele>255.0</ele><time>2026-04-19T12:25:36.49Z</time></trkpt><trkpt lat="44.9817552" lon="8.02182"><ele>255.85714285714286</ele><time>2026-04-19T12:25:38.489Z</time></trkpt><trkpt lat="44.9817776" lon="8.0219078"><ele>256.7142857142857</ele><time>2026-04-19T12:25:39.489Z</time></trkpt><trkpt lat="44.9817571" lon="8.022024"><ele>257.57142857142856</ele><time>2026-04-19T12:25:40.489Z</time></trkpt><trkpt lat="44.9817503" lon="8.0221188"><ele>258.42857142857144</ele><time>2026-04-19T12:25:41.49Z</time></trkpt><trkpt lat="44.9817575" lon="8.0222105"><ele>259.2857142857143</ele><time>2026-04-19T12:25:42.489Z</time></trkpt><trkpt lat="44.9818254" lon="8.0222793"><ele>260.14285714285717</ele><time>2026-04-19T12:25:43.49Z</time></trkpt><trkpt lat="44.9818842" lon="8.0223287"><ele>261.0</ele><time>2026-04-19T12:25:44.489Z</time></trkpt><trkpt lat="44.9819404" lon="8.0223855"><ele>261.0</ele><time>2026-04-19T12:25:45.489Z</time></trkpt><trkpt lat="44.9820013" lon="8.0224212"><ele>261.0</ele><time>2026-04-19T12:25:46.489Z</time></trkpt><trkpt lat="44.9820608" lon="8.0224788"><ele>261.0</ele><time>2026-04-19T12:25:47.49Z</time></trkpt><trkpt lat="44.9821552" lon="8.0225363"><ele>261.0</ele><time>2026-04-19T12:25:48.489Z</time></trkpt><trkpt lat="44.9822557" lon="8.0225347"><ele>261.0</ele><time>2026-04-19T12:25:49.489Z</time></trkpt><trkpt lat="44.9824147" lon="8.0225602"><ele>257.6</ele><time>2026-04-19T12:25:50.49Z</time></trkpt><trkpt lat="44.9825212" lon="8.0226238"><ele>254.20000000000002</ele><time>2026-04-19T12:25:51.489Z</time></trkpt><trkpt lat="44.982619" lon="8.0226773"><ele>250.79999999999998</ele><time>2026-04-19T12:25:52.489Z</time></trkpt><trkpt lat="44.9826932" lon="8.0227646"><ele>247.39999999999998</ele><time>2026-04-19T12:25:53.489Z</time></trkpt><trkpt lat="44.9827457" lon="8.0228735"><ele>244.0</ele><time>2026-04-19T12:25:54.489Z</time></trkpt><trkpt lat="44.9828096" lon="8.0230011"><ele>244.0</ele><time>2026-04-19T12:25:55.49Z</time></trkpt><trkpt lat="44.98289" lon="8.0231739"><ele>244.0</ele><time>2026-04-19T12:25:56.489Z</time></trkpt><trkpt lat="44.9829651" lon="8.0233264"><ele>244.0</ele><time>2026-04-19T12:25:57.49Z</time></trkpt><trkpt lat="44.9830416" lon="8.0234707"><ele>244.0</ele><time>2026-04-19T12:25:58.489Z</time></trkpt><trkpt lat="44.9831104" lon="8.0236019"><ele>245.83333333333331</ele><time>2026-04-19T12:25:59.489Z</time></trkpt><trkpt lat="44.98317" lon="8.0237309"><ele>247.66666666666666</ele><time>2026-04-19T12:26:00.49Z</time></trkpt><trkpt lat="44.9832219" lon="8.0238525"><ele>249.5</ele><time>2026-04-19T12:26:01.489Z</time></trkpt><trkpt lat="44.9832542" lon="8.0239547"><ele>251.33333333333331</ele><time>2026-04-19T12:26:02.489Z</time></trkpt><trkpt lat="44.9832816" lon="8.0240595"><ele>253.16666666666666</ele><time>2026-04-19T12:26:03.489Z</time></trkpt><trkpt lat="44.9832991" lon="8.0241647"><ele>255.0</ele><time>2026-04-19T12:26:04.489Z</time></trkpt><trkpt lat="44.9832678" lon="8.0242829"><ele>256.4</ele><time>2026-04-19T12:26:05.489Z</time></trkpt><trkpt lat="44.9832321" lon="8.0244297"><ele>257.8</ele><time>2026-04-19T12:26:06.49Z</time></trkpt><trkpt lat="44.9832235" lon="8.0245467"><ele>259.2</ele><time>2026-04-19T12:26:07.489Z</time></trkpt><trkpt lat="44.9832204" lon="8.024683"><ele>260.6</ele><time>2026-04-19T12:26:08.489Z</time></trkpt><trkpt lat="44.9832464" lon="8.0247889"><ele>262.0</ele><time>2026-04-19T12:26:09.49Z</time></trkpt><trkpt lat="44.9832478" lon="8.0249118"><ele>263.2</ele><time>2026-04-19T12:26:10.489Z</time></trkpt><trkpt lat="44.983257" lon="8.025036"><ele>264.4</ele><time>2026-04-19T12:26:11.49Z</time></trkpt><trkpt lat="44.9832665" lon="8.0251627"><ele>265.6</ele><time>2026-04-19T12:26:12.49Z</time></trkpt><trkpt lat="44.9832802" lon="8.0252986"><ele>266.8</ele><time>2026-04-19T12:26:13.489Z</time></trkpt><trkpt lat="44.9832927" lon="8.0254411"><ele>268.0</ele><time>2026-04-19T12:26:14.489Z</time></trkpt><trkpt lat="44.9833042" lon="8.0255859"><ele>268.0</ele><time>2026-04-19T12:26:15.489Z</time></trkpt><trkpt lat="44.9833128" lon="8.0257151"><ele>268.0</ele><time>2026-04-19T12:26:16.49Z</time></trkpt><trkpt lat="44.983315" lon="8.0258414"><ele>268.0</ele><time>2026-04-19T12:26:17.489Z</time></trkpt><trkpt lat="44.9833137" lon="8.0259582"><ele>268.0</ele><time>2026-04-19T12:26:18.489Z</time></trkpt><trkpt lat="44.9833326" lon="8.0260752"><ele>268.0</ele><time>2026-04-19T12:26:19.489Z</time></trkpt><trkpt lat="44.9833472" lon="8.0261677"><ele>268.0</ele><time>2026-04-19T12:26:20.489Z</time></trkpt><trkpt lat="44.9833657" lon="8.0262667"><ele>263.8</ele><time>2026-04-19T12:26:21.489Z</time></trkpt><trkpt lat="44.9834045" lon="8.0263663"><ele>259.6</ele><time>2026-04-19T12:26:22.489Z</time></trkpt><trkpt lat="44.9834455" lon="8.026472"><ele>255.39999999999998</ele><time>2026-04-19T12:26:23.49Z</time></trkpt><trkpt lat="44.9835275" lon="8.0265581"><ele>251.2</ele><time>2026-04-19T12:26:24.489Z</time></trkpt><trkpt lat="44.9835918" lon="8.0266613"><ele>247.0</ele><time>2026-04-19T12:26:25.489Z</time></trkpt><trkpt lat="44.9836605" lon="8.0267683"><ele>247.0</ele><time>2026-04-19T12:26:26.49Z</time></trkpt><trkpt lat="44.9837202" lon="8.0268499"><ele>247.0</ele><time>2026-04-19T12:26:27.489Z</time></trkpt><trkpt lat="44.9837545" lon="8.0270073"><ele>247.0</ele><time>2026-04-19T12:26:28.489Z</time></trkpt><trkpt lat="44.9837726" lon="8.0271464"><ele>247.0</ele><time>2026-04-19T12:26:29.489Z</time></trkpt><trkpt lat="44.9837754" lon="8.0273052"><ele>247.0</ele><time>2026-04-19T12:26:30.49Z</time></trkpt><trkpt lat="44.9837746" lon="8.0274544"><ele>248.39999999999998</ele><time>2026-04-19T12:26:31.49Z</time></trkpt><trkpt lat="44.9837523" lon="8.0276244"><ele>249.79999999999998</ele><time>2026-04-19T12:26:32.489Z</time></trkpt><trkpt lat="44.9837418" lon="8.0277779"><ele>251.2</ele><time>2026-04-19T12:26:33.489Z</time></trkpt><trkpt lat="44.9837437" lon="8.0279191"><ele>252.6</ele><time>2026-04-19T12:26:34.49Z</time></trkpt><trkpt lat="44.9837295" lon="8.0280733"><ele>254.0</ele><time>2026-04-19T12:26:35.49Z</time></trkpt><trkpt lat="44.9837149" lon="8.0282029"><ele>255.66666666666669</ele><time>2026-04-19T12:26:36.49Z</time></trkpt><trkpt lat="44.9837129" lon="8.0283479"><ele>257.33333333333337</ele><time>2026-04-19T12:26:37.489Z</time></trkpt><trkpt lat="44.9837373" lon="8.028436"><ele>259.0</ele><time>2026-04-19T12:26:38.49Z</time></trkpt><trkpt lat="44.9837639" lon="8.0285313"><ele>260.6666666666667</ele><time>2026-04-19T12:26:39.49Z</time></trkpt><trkpt lat="44.9838367" lon="8.0285933"><ele>262.3333333333333</ele><time>2026-04-19T12:26:40.489Z</time></trkpt><trkpt lat="44.9839189" lon="8.0286699"><ele>264.0</ele><time>2026-04-19T12:26:41.489Z</time></trkpt><trkpt lat="44.9839947" lon="8.0287718"><ele>264.0</ele><time>2026-04-19T12:26:42.489Z</time></trkpt><trkpt lat="44.9840863" lon="8.0288557"><ele>264.0</ele><time>2026-04-19T12:26:43.489Z</time></trkpt><trkpt lat="44.9841598" lon="8.0289437"><ele>264.0</ele><time>2026-04-19T12:26:44.489Z</time></trkpt><trkpt lat="44.9842522" lon="8.0290403"><ele>264.0</ele><time>2026-04-19T12:26:45.49Z</time></trkpt><trkpt lat="44.9843311" lon="8.029125"><ele>264.0</ele><time>2026-04-19T12:26:46.49Z</time></trkpt><trkpt lat="44.984425" lon="8.0291954"><ele>265.4</ele><time>2026-04-19T12:26:47.489Z</time></trkpt><trkpt lat="44.984524" lon="8.0292717"><ele>266.79999999999995</ele><time>2026-04-19T12:26:48.489Z</time></trkpt><trkpt lat="44.9846257" lon="8.0293314"><ele>268.20000000000005</ele><time>2026-04-19T12:26:49.489Z</time></trkpt><trkpt lat="44.9847118" lon="8.0293957"><ele>269.6</ele><time>2026-04-19T12:26:50.49Z</time></trkpt><trkpt lat="44.984806" lon="8.029503"><ele>271.0</ele><time>2026-04-19T12:26:51.49Z</time></trkpt><trkpt lat="44.9849035" lon="8.0295734"><ele>271.0</ele><time>2026-04-19T12:26:52.49Z</time></trkpt><trkpt lat="44.9850116" lon="8.0296406"><ele>271.0</ele><time>2026-04-19T12:26:53.49Z</time></trkpt><trkpt lat="44.9850994" lon="8.0296879"><ele>271.0</ele><time>2026-04-19T12:26:54.49Z</time></trkpt><trkpt lat="44.985206" lon="8.029719"><ele>271.0</ele><time>2026-04-19T12:26:55.49Z</time></trkpt><trkpt lat="44.9853043" lon="8.0297537"><ele>271.0</ele><time>2026-04-19T12:26:56.489Z</time></trkpt><trkpt lat="44.9854249" lon="8.0297658"><ele>269.5</ele><time>2026-04-19T12:26:57.49Z</time></trkpt><trkpt lat="44.9855602" lon="8.0297807"><ele>268.0</ele><time>2026-04-19T12:26:58.489Z</time></trkpt><trkpt lat="44.9856689" lon="8.0297901"><ele>266.5</ele><time>2026-04-19T12:26:59.49Z</time></trkpt><trkpt lat="44.9857878" lon="8.0298458"><ele>265.0</ele><time>2026-04-19T12:27:00.489Z</time></trkpt><trkpt lat="44.9859186" lon="8.0299029"><ele>263.75</ele><time>2026-04-19T12:27:01.489Z</time></trkpt><trkpt lat="44.9860335" lon="8.0299874"><ele>262.5</ele><time>2026-04-19T12:27:02.489Z</time></trkpt><trkpt lat="44.9861366" lon="8.0300443"><ele>261.25</ele><time>2026-04-19T12:27:03.49Z</time></trkpt><trkpt lat="44.9862445" lon="8.0301548"><ele>260.0</ele><time>2026-04-19T12:27:04.49Z</time></trkpt><trkpt lat="44.9863415" lon="8.0302721"><ele>260.0</ele><time>2026-04-19T12:27:05.489Z</time></trkpt><trkpt lat="44.986435" lon="8.0303485"><ele>260.0</ele><time>2026-04-19T12:27:06.489Z</time></trkpt><trkpt lat="44.9865421" lon="8.0304225"><ele>260.0</ele><time>2026-04-19T12:27:07.489Z</time></trkpt><trkpt lat="44.9866397" lon="8.0305157"><ele>260.0</ele><time>2026-04-19T12:27:08.49Z</time></trkpt><trkpt lat="44.9867411" lon="8.0305965"><ele>260.5</ele><time>2026-04-19T12:27:09.489Z</time></trkpt><trkpt lat="44.9868387" lon="8.0307197"><ele>261.0</ele><time>2026-04-19T12:27:10.489Z</time></trkpt><trkpt lat="44.986934" lon="8.0308336"><ele>261.5</ele><time>2026-04-19T12:27:11.489Z</time></trkpt><trkpt lat="44.9870279" lon="8.030961"><ele>262.0</ele><time>2026-04-19T12:27:12.49Z</time></trkpt><trkpt lat="44.9871253" lon="8.0310925"><ele>263.2</ele><time>2026-04-19T12:27:13.489Z</time></trkpt><trkpt lat="44.9872085" lon="8.0312023"><ele>264.4</ele><time>2026-04-19T12:27:14.489Z</time></trkpt><trkpt lat="44.9872805" lon="8.0313004"><ele>265.6</ele><time>2026-04-19T12:27:15.489Z</time></trkpt><trkpt lat="44.9873637" lon="8.0313825"><ele>266.8</ele><time>2026-04-19T12:27:16.49Z</time></trkpt><trkpt lat="44.9874515" lon="8.0314358"><ele>268.0</ele><time>2026-04-19T12:27:17.489Z</time></trkpt><trkpt lat="44.9875525" lon="8.031478"><ele>269.25</ele><time>2026-04-19T12:27:18.489Z</time></trkpt><trkpt lat="44.9876659" lon="8.0315158"><ele>270.5</ele><time>2026-04-19T12:27:19.489Z</time></trkpt><trkpt lat="44.9877773" lon="8.0315562"><ele>271.75</ele><time>2026-04-19T12:27:20.489Z</time></trkpt><trkpt lat="44.9879131" lon="8.0315821"><ele>273.0</ele><time>2026-04-19T12:27:21.489Z</time></trkpt><trkpt lat="44.9880519" lon="8.0316263"><ele>271.25</ele><time>2026-04-19T12:27:22.49Z</time></trkpt><trkpt lat="44.9881718" lon="8.0316475"><ele>269.5</ele><time>2026-04-19T12:27:23.49Z</time></trkpt><trkpt lat="44.9882818" lon="8.0316926"><ele>267.75</ele><time>2026-04-19T12:27:24.489Z</time></trkpt><trkpt lat="44.9883981" lon="8.0317328"><ele>266.0</ele><time>2026-04-19T12:27:25.49Z</time></trkpt><trkpt lat="44.9884937" lon="8.0317792"><ele>265.5</ele><time>2026-04-19T12:27:26.489Z</time></trkpt><trkpt lat="44.9885638" lon="8.0318461"><ele>265.0</ele><time>2026-04-19T12:27:27.489Z</time></trkpt><trkpt lat="44.9886424" lon="8.0319498"><ele>264.5</ele><time>2026-04-19T12:27:28.489Z</time></trkpt><trkpt lat="44.988699" lon="8.0320461"><ele>264.0</ele><time>2026-04-19T12:27:29.489Z</time></trkpt><trkpt lat="44.9887435" lon="8.0321261"><ele>263.5</ele><time>2026-04-19T12:27:30.49Z</time></trkpt><trkpt lat="44.9888043" lon="8.0322121"><ele>263.0</ele><time>2026-04-19T12:27:31.489Z</time></trkpt><trkpt lat="44.9888691" lon="8.0322604"><ele>263.0</ele><time>2026-04-19T12:27:33.489Z</time></trkpt><trkpt lat="44.9889658" lon="8.0322731"><ele>263.0</ele><time>2026-04-19T12:27:35.489Z</time></trkpt><trkpt lat="44.989027" lon="8.032247"><ele>263.0</ele><time>2026-04-19T12:27:36.489Z</time></trkpt><trkpt lat="44.9890878" lon="8.0322188"><ele>263.0</ele><time>2026-04-19T12:27:37.489Z</time></trkpt><trkpt lat="44.989153" lon="8.032174"><ele>263.0</ele><time>2026-04-19T12:27:38.49Z</time></trkpt><trkpt lat="44.9892111" lon="8.0321385"><ele>263.0</ele><time>2026-04-19T12:27:39.489Z</time></trkpt><trkpt lat="44.9892471" lon="8.0320651"><ele>263.0</ele><time>2026-04-19T12:27:41.489Z</time></trkpt><trkpt lat="44.9892728" lon="8.0319069"><ele>262.8</ele><time>2026-04-19T12:27:43.489Z</time></trkpt><trkpt lat="44.9892923" lon="8.0317897"><ele>262.6</ele><time>2026-04-19T12:27:44.49Z</time></trkpt><trkpt lat="44.9893166" lon="8.0316675"><ele>262.4</ele><time>2026-04-19T12:27:45.489Z</time></trkpt><trkpt lat="44.9893538" lon="8.0315129"><ele>262.2</ele><time>2026-04-19T12:27:46.49Z</time></trkpt><trkpt lat="44.989336" lon="8.031395"><ele>262.0</ele><time>2026-04-19T12:27:47.489Z</time></trkpt><trkpt lat="44.9893067" lon="8.0312222"><ele>259.0</ele><time>2026-04-19T12:27:48.489Z</time></trkpt><trkpt lat="44.9893135" lon="8.0310532"><ele>256.0</ele><time>2026-04-19T12:27:49.489Z</time></trkpt><trkpt lat="44.9892562" lon="8.0308568"><ele>253.0</ele><time>2026-04-19T12:27:50.49Z</time></trkpt><trkpt lat="44.9892318" lon="8.0306748"><ele>250.0</ele><time>2026-04-19T12:27:51.49Z</time></trkpt><trkpt lat="44.9892134" lon="8.0304882"><ele>245.0</ele><time>2026-04-19T12:27:52.489Z</time></trkpt><trkpt lat="44.9892014" lon="8.0302985"><ele>240.0</ele><time>2026-04-19T12:27:53.49Z</time></trkpt><trkpt lat="44.9891987" lon="8.0300962"><ele>235.0</ele><time>2026-04-19T12:27:54.489Z</time></trkpt><trkpt lat="44.9892187" lon="8.0299048"><ele>230.0</ele><time>2026-04-19T12:27:55.49Z</time></trkpt><trkpt lat="44.9892228" lon="8.029722"><ele>229.25</ele><time>2026-04-19T12:27:56.49Z</time></trkpt><trkpt lat="44.9892411" lon="8.029539"><ele>228.5</ele><time>2026-04-19T12:27:57.489Z</time></trkpt><trkpt lat="44.9892541" lon="8.0293645"><ele>227.75</ele><time>2026-04-19T12:27:58.489Z</time></trkpt><trkpt lat="44.9892728" lon="8.0291955"><ele>227.0</ele><time>2026-04-19T12:27:59.49Z</time></trkpt><trkpt lat="44.9893012" lon="8.0290279"><ele>227.0</ele><time>2026-04-19T12:28:00.49Z</time></trkpt><trkpt lat="44.9893246" lon="8.0288764"><ele>227.0</ele><time>2026-04-19T12:28:01.49Z</time></trkpt><trkpt lat="44.9893419" lon="8.0287311"><ele>227.0</ele><time>2026-04-19T12:28:02.489Z</time></trkpt><trkpt lat="44.9893535" lon="8.0285953"><ele>227.0</ele><time>2026-04-19T12:28:03.49Z</time></trkpt><trkpt lat="44.9893803" lon="8.0284383"><ele>227.0</ele><time>2026-04-19T12:28:04.49Z</time></trkpt><trkpt lat="44.9893615" lon="8.0283088"><ele>228.75</ele><time>2026-04-19T12:28:05.489Z</time></trkpt><trkpt lat="44.9893404" lon="8.0281431"><ele>230.5</ele><time>2026-04-19T12:28:06.489Z</time></trkpt><trkpt lat="44.9893152" lon="8.0279634"><ele>232.25</ele><time>2026-04-19T12:28:07.489Z</time></trkpt><trkpt lat="44.9892846" lon="8.027796"><ele>234.0</ele><time>2026-04-19T12:28:08.49Z</time></trkpt><trkpt lat="44.989247" lon="8.0276546"><ele>234.0</ele><time>2026-04-19T12:28:09.49Z</time></trkpt><trkpt lat="44.9892113" lon="8.0275195"><ele>233.99999999999997</ele><time>2026-04-19T12:28:10.49Z</time></trkpt><trkpt lat="44.9891812" lon="8.0273773"><ele>233.99999999999997</ele><time>2026-04-19T12:28:11.489Z</time></trkpt><trkpt lat="44.9891439" lon="8.0272443"><ele>234.0</ele><time>2026-04-19T12:28:12.489Z</time></trkpt><trkpt lat="44.9891137" lon="8.0270986"><ele>234.0</ele><time>2026-04-19T12:28:13.49Z</time></trkpt><trkpt lat="44.9890828" lon="8.0269667"><ele>235.0</ele><time>2026-04-19T12:28:14.489Z</time></trkpt><trkpt lat="44.9890743" lon="8.0268467"><ele>236.0</ele><time>2026-04-19T12:28:15.489Z</time></trkpt><trkpt lat="44.9890459" lon="8.0267229"><ele>237.0</ele><time>2026-04-19T12:28:16.49Z</time></trkpt><trkpt lat="44.9890156" lon="8.0266043"><ele>238.0</ele><time>2026-04-19T12:28:17.489Z</time></trkpt><trkpt lat="44.9889776" lon="8.0265052"><ele>239.0</ele><time>2026-04-19T12:28:18.489Z</time></trkpt><trkpt lat="44.9889589" lon="8.026397"><ele>240.0</ele><time>2026-04-19T12:28:19.49Z</time></trkpt><trkpt lat="44.9889403" lon="8.0262824"><ele>240.0</ele><time>2026-04-19T12:28:20.489Z</time></trkpt><trkpt lat="44.9889228" lon="8.026177"><ele>240.0</ele><time>2026-04-19T12:28:21.489Z</time></trkpt><trkpt lat="44.9889168" lon="8.026055"><ele>240.0</ele><time>2026-04-19T12:28:22.489Z</time></trkpt><trkpt lat="44.9889041" lon="8.0259547"><ele>240.0</ele><time>2026-04-19T12:28:23.49Z</time></trkpt><trkpt lat="44.9888943" lon="8.0258516"><ele>240.0</ele><time>2026-04-19T12:28:24.49Z</time></trkpt><trkpt lat="44.9888917" lon="8.0257511"><ele>240.0</ele><time>2026-04-19T12:28:25.49Z</time></trkpt><trkpt lat="44.9888828" lon="8.0256579"><ele>240.0</ele><time>2026-04-19T12:28:26.489Z</time></trkpt><trkpt lat="44.9889291" lon="8.0255936"><ele>240.0</ele><time>2026-04-19T12:28:30.489Z</time></trkpt><trkpt lat="44.9890851" lon="8.0257487"><ele>240.0</ele><time>2026-04-19T12:28:34.489Z</time></trkpt><trkpt lat="44.9891579" lon="8.025839"><ele>240.0</ele><time>2026-04-19T12:28:36.489Z</time></trkpt><trkpt lat="44.9892458" lon="8.0258528"><ele>240.0</ele><time>2026-04-19T12:28:37.489Z</time></trkpt><trkpt lat="44.989336" lon="8.0258628"><ele>238.0</ele><time>2026-04-19T12:28:38.489Z</time></trkpt><trkpt lat="44.9894427" lon="8.0258502"><ele>236.0</ele><time>2026-04-19T12:28:39.49Z</time></trkpt><trkpt lat="44.9895512" lon="8.0258061"><ele>234.0</ele><time>2026-04-19T12:28:40.489Z</time></trkpt><trkpt lat="44.9896538" lon="8.0257741"><ele>232.0</ele><time>2026-04-19T12:28:41.489Z</time></trkpt><trkpt lat="44.9897491" lon="8.0257575"><ele>230.0</ele><time>2026-04-19T12:28:42.49Z</time></trkpt><trkpt lat="44.9898626" lon="8.0257324"><ele>230.0</ele><time>2026-04-19T12:28:43.49Z</time></trkpt><trkpt lat="44.9899682" lon="8.0257078"><ele>230.0</ele><time>2026-04-19T12:28:44.489Z</time></trkpt><trkpt lat="44.990063" lon="8.0256894"><ele>230.0</ele><time>2026-04-19T12:28:45.489Z</time></trkpt><trkpt lat="44.9901514" lon="8.0256761"><ele>230.0</ele><time>2026-04-19T12:28:46.489Z</time></trkpt><trkpt lat="44.9902671" lon="8.0256745"><ele>230.0</ele><time>2026-04-19T12:28:47.489Z</time></trkpt><trkpt lat="44.9903705" lon="8.0256926"><ele>226.5</ele><time>2026-04-19T12:28:48.49Z</time></trkpt><trkpt lat="44.9905098" lon="8.0257482"><ele>223.0</ele><time>2026-04-19T12:28:49.489Z</time></trkpt><trkpt lat="44.9906369" lon="8.0257901"><ele>219.5</ele><time>2026-04-19T12:28:50.489Z</time></trkpt><trkpt lat="44.990752" lon="8.0258194"><ele>216.0</ele><time>2026-04-19T12:28:51.489Z</time></trkpt><trkpt lat="44.9908374" lon="8.0258554"><ele>213.4</ele><time>2026-04-19T12:28:52.489Z</time></trkpt><trkpt lat="44.9909475" lon="8.025882"><ele>210.8</ele><time>2026-04-19T12:28:53.489Z</time></trkpt><trkpt lat="44.9910599" lon="8.0259044"><ele>208.20000000000002</ele><time>2026-04-19T12:28:54.489Z</time></trkpt><trkpt lat="44.9911593" lon="8.0259437"><ele>205.60000000000002</ele><time>2026-04-19T12:28:55.489Z</time></trkpt><trkpt lat="44.9912373" lon="8.0259618"><ele>203.0</ele><time>2026-04-19T12:28:56.49Z</time></trkpt><trkpt lat="44.9913385" lon="8.02597"><ele>203.0</ele><time>2026-04-19T12:28:57.49Z</time></trkpt><trkpt lat="44.9914311" lon="8.0259443"><ele>203.0</ele><time>2026-04-19T12:28:58.489Z</time></trkpt><trkpt lat="44.9915354" lon="8.0259138"><ele>203.0</ele><time>2026-04-19T12:28:59.489Z</time></trkpt><trkpt lat="44.9916145" lon="8.0258574"><ele>203.0</ele><time>2026-04-19T12:29:00.49Z</time></trkpt><trkpt lat="44.9917137" lon="8.0257987"><ele>203.0</ele><time>2026-04-19T12:29:01.489Z</time></trkpt><trkpt lat="44.9918042" lon="8.025703"><ele>201.0</ele><time>2026-04-19T12:29:02.489Z</time></trkpt><trkpt lat="44.9918808" lon="8.0256172"><ele>199.0</ele><time>2026-04-19T12:29:03.489Z</time></trkpt><trkpt lat="44.9919768" lon="8.0254955"><ele>197.0</ele><time>2026-04-19T12:29:04.489Z</time></trkpt><trkpt lat="44.9920522" lon="8.0253777"><ele>195.0</ele><time>2026-04-19T12:29:05.489Z</time></trkpt><trkpt lat="44.9921169" lon="8.0252318"><ele>195.0</ele><time>2026-04-19T12:29:06.489Z</time></trkpt><trkpt lat="44.9921801" lon="8.025056"><ele>195.0</ele><time>2026-04-19T12:29:07.49Z</time></trkpt><trkpt lat="44.9922481" lon="8.024884"><ele>195.0</ele><time>2026-04-19T12:29:08.49Z</time></trkpt><trkpt lat="44.9923102" lon="8.0247003"><ele>195.0</ele><time>2026-04-19T12:29:09.489Z</time></trkpt><trkpt lat="44.9923527" lon="8.0245287"><ele>195.0</ele><time>2026-04-19T12:29:10.489Z</time></trkpt><trkpt lat="44.9924025" lon="8.0243516"><ele>195.0</ele><time>2026-04-19T12:29:11.49Z</time></trkpt><trkpt lat="44.9924443" lon="8.0241561"><ele>195.0</ele><time>2026-04-19T12:29:12.489Z</time></trkpt><trkpt lat="44.9924793" lon="8.0239703"><ele>195.0</ele><time>2026-04-19T12:29:13.489Z</time></trkpt><trkpt lat="44.9925079" lon="8.0237876"><ele>193.5</ele><time>2026-04-19T12:29:14.489Z</time></trkpt><trkpt lat="44.9925251" lon="8.0236083"><ele>192.0</ele><time>2026-04-19T12:29:15.489Z</time></trkpt><trkpt lat="44.9925366" lon="8.0234054"><ele>190.5</ele><time>2026-04-19T12:29:16.489Z</time></trkpt><trkpt lat="44.9925414" lon="8.0232184"><ele>189.0</ele><time>2026-04-19T12:29:17.49Z</time></trkpt><trkpt lat="44.9925373" lon="8.0230234"><ele>188.75</ele><time>2026-04-19T12:29:18.489Z</time></trkpt><trkpt lat="44.9925307" lon="8.0228326"><ele>188.5</ele><time>2026-04-19T12:29:19.489Z</time></trkpt><trkpt lat="44.9925252" lon="8.0226612"><ele>188.25</ele><time>2026-04-19T12:29:20.489Z</time></trkpt><trkpt lat="44.9925171" lon="8.0224842"><ele>188.0</ele><time>2026-04-19T12:29:21.49Z</time></trkpt><trkpt lat="44.9925227" lon="8.0223075"><ele>187.75</ele><time>2026-04-19T12:29:22.489Z</time></trkpt><trkpt lat="44.99255" lon="8.0221312"><ele>187.5</ele><time>2026-04-19T12:29:23.489Z</time></trkpt><trkpt lat="44.992594" lon="8.0219572"><ele>187.25</ele><time>2026-04-19T12:29:24.49Z</time></trkpt><trkpt lat="44.9926499" lon="8.0217784"><ele>187.0</ele><time>2026-04-19T12:29:25.489Z</time></trkpt><trkpt lat="44.9926975" lon="8.0216175"><ele>186.5</ele><time>2026-04-19T12:29:26.489Z</time></trkpt><trkpt lat="44.9927535" lon="8.021435"><ele>186.0</ele><time>2026-04-19T12:29:27.489Z</time></trkpt><trkpt lat="44.9928104" lon="8.0212563"><ele>185.5</ele><time>2026-04-19T12:29:28.489Z</time></trkpt><trkpt lat="44.9928713" lon="8.0210834"><ele>185.0</ele><time>2026-04-19T12:29:29.49Z</time></trkpt><trkpt lat="44.9929179" lon="8.0209189"><ele>185.0</ele><time>2026-04-19T12:29:30.49Z</time></trkpt><trkpt lat="44.9929588" lon="8.020758"><ele>185.0</ele><time>2026-04-19T12:29:31.489Z</time></trkpt><trkpt lat="44.9930012" lon="8.0206542"><ele>185.0</ele><time>2026-04-19T12:29:32.489Z</time></trkpt><trkpt lat="44.9930365" lon="8.0205526"><ele>185.0</ele><time>2026-04-19T12:29:33.49Z</time></trkpt><trkpt lat="44.9930641" lon="8.0204535"><ele>185.0</ele><time>2026-04-19T12:29:34.489Z</time></trkpt><trkpt lat="44.9931197" lon="8.0203559"><ele>185.0</ele><time>2026-04-19T12:29:36.489Z</time></trkpt><trkpt lat="44.9931627" lon="8.0202857"><ele>185.0</ele><time>2026-04-19T12:29:37.489Z</time></trkpt><trkpt lat="44.993207" lon="8.0202015"><ele>185.0</ele><time>2026-04-19T12:29:38.489Z</time></trkpt><trkpt lat="44.9932544" lon="8.0201035"><ele>185.0</ele><time>2026-04-19T12:29:39.49Z</time></trkpt><trkpt lat="44.9933219" lon="8.0199599"><ele>185.0</ele><time>2026-04-19T12:29:40.489Z</time></trkpt><trkpt lat="44.9933976" lon="8.0197975"><ele>185.0</ele><time>2026-04-19T12:29:41.49Z</time></trkpt><trkpt lat="44.9934707" lon="8.0196415"><ele>185.0</ele><time>2026-04-19T12:29:42.489Z</time></trkpt><trkpt lat="44.9935469" lon="8.019484"><ele>185.0</ele><time>2026-04-19T12:29:43.489Z</time></trkpt><trkpt lat="44.9936199" lon="8.0193149"><ele>185.0</ele><time>2026-04-19T12:29:44.489Z</time></trkpt><trkpt lat="44.9937137" lon="8.0191362"><ele>185.0</ele><time>2026-04-19T12:29:45.489Z</time></trkpt><trkpt lat="44.9938005" lon="8.018963"><ele>185.0</ele><time>2026-04-19T12:29:46.489Z</time></trkpt><trkpt lat="44.9938812" lon="8.0187848"><ele>185.0</ele><time>2026-04-19T12:29:47.489Z</time></trkpt><trkpt lat="44.9939824" lon="8.0185919"><ele>185.0</ele><time>2026-04-19T12:29:48.489Z</time></trkpt><trkpt lat="44.994072" lon="8.0184106"><ele>185.0</ele><time>2026-04-19T12:29:49.489Z</time></trkpt><trkpt lat="44.9941616" lon="8.0182249"><ele>185.0</ele><time>2026-04-19T12:29:50.489Z</time></trkpt><trkpt lat="44.994227" lon="8.0180263"><ele>185.0</ele><time>2026-04-19T12:29:51.49Z</time></trkpt><trkpt lat="44.9942269" lon="8.0177901"><ele>185.0</ele><time>2026-04-19T12:29:52.489Z</time></trkpt><trkpt lat="44.9942641" lon="8.017563"><ele>185.0</ele><time>2026-04-19T12:29:53.489Z</time></trkpt><trkpt lat="44.9942996" lon="8.0173413"><ele>185.0</ele><time>2026-04-19T12:29:54.489Z</time></trkpt><trkpt lat="44.9943334" lon="8.0171226"><ele>185.0</ele><time>2026-04-19T12:29:55.49Z</time></trkpt><trkpt lat="44.9943714" lon="8.0168921"><ele>185.0</ele><time>2026-04-19T12:29:56.489Z</time></trkpt><trkpt lat="44.9944072" lon="8.016647"><ele>185.66666666666666</ele><time>2026-04-19T12:29:57.489Z</time></trkpt><trkpt lat="44.9944346" lon="8.0164017"><ele>186.33333333333334</ele><time>2026-04-19T12:29:58.489Z</time></trkpt><trkpt lat="44.9944536" lon="8.0161555"><ele>187.0</ele><time>2026-04-19T12:29:59.489Z</time></trkpt><trkpt lat="44.9944955" lon="8.0159215"><ele>187.33333333333334</ele><time>2026-04-19T12:30:00.489Z</time></trkpt><trkpt lat="44.9945341" lon="8.0156742"><ele>187.66666666666666</ele><time>2026-04-19T12:30:01.489Z</time></trkpt><trkpt lat="44.9945784" lon="8.0154441"><ele>188.0</ele><time>2026-04-19T12:30:02.489Z</time></trkpt><trkpt lat="44.9946098" lon="8.0151979"><ele>188.0</ele><time>2026-04-19T12:30:03.489Z</time></trkpt><trkpt lat="44.9946451" lon="8.0149622"><ele>188.0</ele><time>2026-04-19T12:30:04.489Z</time></trkpt><trkpt lat="44.9946872" lon="8.0147323"><ele>188.0</ele><time>2026-04-19T12:30:05.489Z</time></trkpt><trkpt lat="44.9947104" lon="8.0145049"><ele>188.0</ele><time>2026-04-19T12:30:06.489Z</time></trkpt><trkpt lat="44.9947585" lon="8.0143007"><ele>188.0</ele><time>2026-04-19T12:30:07.489Z</time></trkpt><trkpt lat="44.994824" lon="8.0140577"><ele>188.0</ele><time>2026-04-19T12:30:08.489Z</time></trkpt><trkpt lat="44.9948715" lon="8.0138685"><ele>187.66666666666666</ele><time>2026-04-19T12:30:09.489Z</time></trkpt><trkpt lat="44.9949548" lon="8.0136647"><ele>187.33333333333334</ele><time>2026-04-19T12:30:10.49Z</time></trkpt><trkpt lat="44.9950428" lon="8.0134683"><ele>187.0</ele><time>2026-04-19T12:30:11.489Z</time></trkpt><trkpt lat="44.9951351" lon="8.0132623"><ele>188.66666666666669</ele><time>2026-04-19T12:30:12.49Z</time></trkpt><trkpt lat="44.9952521" lon="8.0130869"><ele>190.33333333333334</ele><time>2026-04-19T12:30:13.489Z</time></trkpt><trkpt lat="44.995379" lon="8.0129244"><ele>192.0</ele><time>2026-04-19T12:30:14.49Z</time></trkpt><trkpt lat="44.9955192" lon="8.0127936"><ele>192.0</ele><time>2026-04-19T12:30:15.49Z</time></trkpt><trkpt lat="44.9956483" lon="8.0126445"><ele>192.0</ele><time>2026-04-19T12:30:16.489Z</time></trkpt><trkpt lat="44.9957833" lon="8.0125077"><ele>192.0</ele><time>2026-04-19T12:30:17.489Z</time></trkpt><trkpt lat="44.9959116" lon="8.01236"><ele>191.0</ele><time>2026-04-19T12:30:18.489Z</time></trkpt><trkpt lat="44.9960474" lon="8.0122125"><ele>190.0</ele><time>2026-04-19T12:30:19.489Z</time></trkpt><trkpt lat="44.99618" lon="8.0120622"><ele>189.0</ele><time>2026-04-19T12:30:20.49Z</time></trkpt><trkpt lat="44.9963169" lon="8.0119095"><ele>189.0</ele><time>2026-04-19T12:30:21.489Z</time></trkpt><trkpt lat="44.9964483" lon="8.0117577"><ele>189.0</ele><time>2026-04-19T12:30:22.489Z</time></trkpt><trkpt lat="44.996587" lon="8.01162"><ele>189.0</ele><time>2026-04-19T12:30:23.489Z</time></trkpt><trkpt lat="44.9967232" lon="8.0114857"><ele>189.0</ele><time>2026-04-19T12:30:24.49Z</time></trkpt><trkpt lat="44.9968642" lon="8.0113464"><ele>189.0</ele><time>2026-04-19T12:30:25.49Z</time></trkpt><trkpt lat="44.9969946" lon="8.0112068"><ele>189.0</ele><time>2026-04-19T12:30:26.49Z</time></trkpt><trkpt lat="44.997125" lon="8.0110731"><ele>189.0</ele><time>2026-04-19T12:30:27.489Z</time></trkpt><trkpt lat="44.9972608" lon="8.0109274"><ele>189.0</ele><time>2026-04-19T12:30:28.489Z</time></trkpt><trkpt lat="44.9973901" lon="8.010776"><ele>189.0</ele><time>2026-04-19T12:30:29.489Z</time></trkpt><trkpt lat="44.9975258" lon="8.0106388"><ele>189.33333333333334</ele><time>2026-04-19T12:30:30.49Z</time></trkpt><trkpt lat="44.9976606" lon="8.0104959"><ele>189.66666666666669</ele><time>2026-04-19T12:30:31.489Z</time></trkpt><trkpt lat="44.9977935" lon="8.0103773"><ele>190.0</ele><time>2026-04-19T12:30:32.489Z</time></trkpt><trkpt lat="44.9979319" lon="8.0102145"><ele>190.0</ele><time>2026-04-19T12:30:33.49Z</time></trkpt><trkpt lat="44.9980717" lon="8.0100774"><ele>190.0</ele><time>2026-04-19T12:30:34.489Z</time></trkpt><trkpt lat="44.9982079" lon="8.0099324"><ele>190.0</ele><time>2026-04-19T12:30:35.489Z</time></trkpt><trkpt lat="44.9983379" lon="8.0097825"><ele>190.33333333333334</ele><time>2026-04-19T12:30:36.489Z</time></trkpt><trkpt lat="44.9984662" lon="8.0096413"><ele>190.66666666666666</ele><time>2026-04-19T12:30:37.49Z</time></trkpt><trkpt lat="44.9986095" lon="8.0095125"><ele>191.0</ele><time>2026-04-19T12:30:38.489Z</time></trkpt><trkpt lat="44.9987397" lon="8.0093732"><ele>191.0</ele><time>2026-04-19T12:30:39.49Z</time></trkpt><trkpt lat="44.9988706" lon="8.0092248"><ele>191.0</ele><time>2026-04-19T12:30:40.489Z</time></trkpt><trkpt lat="44.9989988" lon="8.0090847"><ele>191.0</ele><time>2026-04-19T12:30:41.489Z</time></trkpt><trkpt lat="44.9991286" lon="8.00894"><ele>192.66666666666666</ele><time>2026-04-19T12:30:42.489Z</time></trkpt><trkpt lat="44.999258" lon="8.0087982"><ele>194.33333333333331</ele><time>2026-04-19T12:30:43.489Z</time></trkpt><trkpt lat="44.9993863" lon="8.0086549"><ele>196.0</ele><time>2026-04-19T12:30:44.489Z</time></trkpt><trkpt lat="44.9995182" lon="8.0085212"><ele>196.0</ele><time>2026-04-19T12:30:45.489Z</time></trkpt><trkpt lat="44.9996553" lon="8.0084001"><ele>196.0</ele><time>2026-04-19T12:30:46.489Z</time></trkpt><trkpt lat="44.9997884" lon="8.0083041"><ele>196.0</ele><time>2026-04-19T12:30:47.489Z</time></trkpt><trkpt lat="44.9999416" lon="8.00823"><ele>195.33333333333331</ele><time>2026-04-19T12:30:48.489Z</time></trkpt><trkpt lat="45.0000995" lon="8.0082078"><ele>194.66666666666669</ele><time>2026-04-19T12:30:49.489Z</time></trkpt><trkpt lat="45.0002565" lon="8.0082119"><ele>194.0</ele><time>2026-04-19T12:30:50.489Z</time></trkpt><trkpt lat="45.0004212" lon="8.0082098"><ele>194.0</ele><time>2026-04-19T12:30:51.489Z</time></trkpt><trkpt lat="45.000575" lon="8.0082141"><ele>194.0</ele><time>2026-04-19T12:30:52.489Z</time></trkpt><trkpt lat="45.0007247" lon="8.008184"><ele>194.0</ele><time>2026-04-19T12:30:53.489Z</time></trkpt><trkpt lat="45.0008748" lon="8.0081107"><ele>195.66666666666669</ele><time>2026-04-19T12:30:54.489Z</time></trkpt><trkpt lat="45.0010183" lon="8.0079973"><ele>197.33333333333331</ele><time>2026-04-19T12:30:55.489Z</time></trkpt><trkpt lat="45.0011651" lon="8.0078767"><ele>199.0</ele><time>2026-04-19T12:30:56.489Z</time></trkpt><trkpt lat="45.0013023" lon="8.0077413"><ele>199.0</ele><time>2026-04-19T12:30:57.489Z</time></trkpt><trkpt lat="45.0014509" lon="8.007615"><ele>199.0</ele><time>2026-04-19T12:30:58.489Z</time></trkpt><trkpt lat="45.0015915" lon="8.0074932"><ele>199.0</ele><time>2026-04-19T12:30:59.489Z</time></trkpt><trkpt lat="45.001729" lon="8.0073799"><ele>197.0</ele><time>2026-04-19T12:31:00.489Z</time></trkpt><trkpt lat="45.0018739" lon="8.0072501"><ele>195.0</ele><time>2026-04-19T12:31:01.489Z</time></trkpt><trkpt lat="45.0020144" lon="8.0071446"><ele>193.0</ele><time>2026-04-19T12:31:02.49Z</time></trkpt><trkpt lat="45.002166" lon="8.0070082"><ele>193.0</ele><time>2026-04-19T12:31:03.489Z</time></trkpt><trkpt lat="45.0023147" lon="8.0069037"><ele>193.0</ele><time>2026-04-19T12:31:04.49Z</time></trkpt><trkpt lat="45.002447" lon="8.0068002"><ele>193.0</ele><time>2026-04-19T12:31:05.489Z</time></trkpt><trkpt lat="45.0025897" lon="8.0066916"><ele>193.0</ele><time>2026-04-19T12:31:06.489Z</time></trkpt><trkpt lat="45.0027232" lon="8.0065946"><ele>193.0</ele><time>2026-04-19T12:31:07.49Z</time></trkpt><trkpt lat="45.0028346" lon="8.0065153"><ele>193.0</ele><time>2026-04-19T12:31:08.489Z</time></trkpt><trkpt lat="45.0029418" lon="8.0064197"><ele>193.0</ele><time>2026-04-19T12:31:09.489Z</time></trkpt><trkpt lat="45.0030234" lon="8.0063296"><ele>193.0</ele><time>2026-04-19T12:31:10.49Z</time></trkpt><trkpt lat="45.0030908" lon="8.006197"><ele>193.0</ele><time>2026-04-19T12:31:11.49Z</time></trkpt><trkpt lat="45.0031127" lon="8.0060621"><ele>193.0</ele><time>2026-04-19T12:31:12.489Z</time></trkpt><trkpt lat="45.0031097" lon="8.0058904"><ele>193.0</ele><time>2026-04-19T12:31:13.489Z</time></trkpt><trkpt lat="45.0030673" lon="8.005717"><ele>193.33333333333331</ele><time>2026-04-19T12:31:14.489Z</time></trkpt><trkpt lat="45.0030361" lon="8.0055353"><ele>193.66666666666669</ele><time>2026-04-19T12:31:15.49Z</time></trkpt><trkpt lat="45.0029745" lon="8.0053075"><ele>194.0</ele><time>2026-04-19T12:31:16.489Z</time></trkpt><trkpt lat="45.0029178" lon="8.0050977"><ele>196.0</ele><time>2026-04-19T12:31:17.489Z</time></trkpt><trkpt lat="45.0028631" lon="8.0048676"><ele>198.0</ele><time>2026-04-19T12:31:18.489Z</time></trkpt><trkpt lat="45.0028045" lon="8.0046387"><ele>200.0</ele><time>2026-04-19T12:31:19.49Z</time></trkpt><trkpt lat="45.0027335" lon="8.0043989"><ele>202.0</ele><time>2026-04-19T12:31:20.489Z</time></trkpt><trkpt lat="45.0026807" lon="8.0041577"><ele>204.0</ele><time>2026-04-19T12:31:21.489Z</time></trkpt><trkpt lat="45.00261" lon="8.00392"><ele>206.0</ele><time>2026-04-19T12:31:22.489Z</time></trkpt><trkpt lat="45.0025453" lon="8.0036843"><ele>208.66666666666669</ele><time>2026-04-19T12:31:23.49Z</time></trkpt><trkpt lat="45.0024871" lon="8.003441"><ele>211.33333333333331</ele><time>2026-04-19T12:31:24.49Z</time></trkpt><trkpt lat="45.002429" lon="8.0032068"><ele>214.0</ele><time>2026-04-19T12:31:25.489Z</time></trkpt><trkpt lat="45.0023753" lon="8.0029898"><ele>214.0</ele><time>2026-04-19T12:31:26.489Z</time></trkpt><trkpt lat="45.0023134" lon="8.0027716"><ele>214.0</ele><time>2026-04-19T12:31:27.49Z</time></trkpt><trkpt lat="45.0022615" lon="8.0025478"><ele>214.0</ele><time>2026-04-19T12:31:28.489Z</time></trkpt><trkpt lat="45.0022076" lon="8.0023357"><ele>214.0</ele><time>2026-04-19T12:31:29.489Z</time></trkpt><trkpt lat="45.0021676" lon="8.002123"><ele>214.0</ele><time>2026-04-19T12:31:30.49Z</time></trkpt><trkpt lat="45.0021177" lon="8.0019335"><ele>214.0</ele><time>2026-04-19T12:31:31.489Z</time></trkpt><trkpt lat="45.0020822" lon="8.0017352"><ele>214.0</ele><time>2026-04-19T12:31:32.489Z</time></trkpt><trkpt lat="45.0020437" lon="8.0015746"><ele>214.0</ele><time>2026-04-19T12:31:33.489Z</time></trkpt><trkpt lat="45.002023" lon="8.0014049"><ele>214.0</ele><time>2026-04-19T12:31:34.49Z</time></trkpt><trkpt lat="45.0020523" lon="8.0012333"><ele>214.0</ele><time>2026-04-19T12:31:35.489Z</time></trkpt><trkpt lat="45.0020875" lon="8.0010791"><ele>214.0</ele><time>2026-04-19T12:31:36.489Z</time></trkpt><trkpt lat="45.0021389" lon="8.0009107"><ele>217.25</ele><time>2026-04-19T12:31:37.489Z</time></trkpt><trkpt lat="45.0022229" lon="8.0007541"><ele>220.5</ele><time>2026-04-19T12:31:38.49Z</time></trkpt><trkpt lat="45.0022892" lon="8.000588"><ele>223.75</ele><time>2026-04-19T12:31:39.489Z</time></trkpt><trkpt lat="45.0023566" lon="8.0004399"><ele>227.0</ele><time>2026-04-19T12:31:40.49Z</time></trkpt><trkpt lat="45.0024287" lon="8.0003004"><ele>225.25</ele><time>2026-04-19T12:31:41.489Z</time></trkpt><trkpt lat="45.002505" lon="8.0001766"><ele>223.5</ele><time>2026-04-19T12:31:42.49Z</time></trkpt><trkpt lat="45.0025785" lon="8.0000695"><ele>221.75</ele><time>2026-04-19T12:31:43.489Z</time></trkpt><trkpt lat="45.0026924" lon="8.0000257"><ele>220.0</ele><time>2026-04-19T12:31:44.489Z</time></trkpt><trkpt lat="45.0028166" lon="7.9999812"><ele>220.0</ele><time>2026-04-19T12:31:45.489Z</time></trkpt><trkpt lat="45.0029184" lon="7.999991"><ele>220.0</ele><time>2026-04-19T12:31:46.489Z</time></trkpt><trkpt lat="45.003008" lon="8.0000914"><ele>220.0</ele><time>2026-04-19T12:31:47.489Z</time></trkpt><trkpt lat="45.003083" lon="8.0002068"><ele>220.0</ele><time>2026-04-19T12:31:48.489Z</time></trkpt><trkpt lat="45.0031246" lon="8.0003606"><ele>220.0</ele><time>2026-04-19T12:31:49.489Z</time></trkpt><trkpt lat="45.0031039" lon="8.0005129"><ele>219.99999999999997</ele><time>2026-04-19T12:31:50.489Z</time></trkpt><trkpt lat="45.0030507" lon="8.0006478"><ele>220.0</ele><time>2026-04-19T12:31:51.49Z</time></trkpt><trkpt lat="45.0030051" lon="8.0007765"><ele>220.0</ele><time>2026-04-19T12:31:52.489Z</time></trkpt><trkpt lat="45.0029755" lon="8.0008875"><ele>220.0</ele><time>2026-04-19T12:31:53.489Z</time></trkpt><trkpt lat="45.0029902" lon="8.0009895"><ele>219.99999999999997</ele><time>2026-04-19T12:31:54.489Z</time></trkpt><trkpt lat="45.0030354" lon="8.0010794"><ele>220.0</ele><time>2026-04-19T12:31:55.49Z</time></trkpt><trkpt lat="45.0031046" lon="8.0011337"><ele>220.6</ele><time>2026-04-19T12:31:56.489Z</time></trkpt><trkpt lat="45.0031954" lon="8.0011282"><ele>221.2</ele><time>2026-04-19T12:31:57.489Z</time></trkpt><trkpt lat="45.0032795" lon="8.0010612"><ele>221.8</ele><time>2026-04-19T12:31:58.489Z</time></trkpt><trkpt lat="45.0033605" lon="8.0009829"><ele>222.4</ele><time>2026-04-19T12:31:59.489Z</time></trkpt><trkpt lat="45.003453" lon="8.0008565"><ele>223.0</ele><time>2026-04-19T12:32:00.489Z</time></trkpt><trkpt lat="45.0035527" lon="8.0007651"><ele>228.66666666666666</ele><time>2026-04-19T12:32:01.489Z</time></trkpt><trkpt lat="45.0036494" lon="8.0005767"><ele>234.33333333333331</ele><time>2026-04-19T12:32:02.489Z</time></trkpt><trkpt lat="45.0037284" lon="8.0003919"><ele>240.0</ele><time>2026-04-19T12:32:03.489Z</time></trkpt><trkpt lat="45.003786" lon="8.000217"><ele>240.0</ele><time>2026-04-19T12:32:04.489Z</time></trkpt><trkpt lat="45.0038451" lon="8.000033"><ele>240.0</ele><time>2026-04-19T12:32:05.489Z</time></trkpt><trkpt lat="45.003904" lon="7.9998766"><ele>240.0</ele><time>2026-04-19T12:32:06.489Z</time></trkpt><trkpt lat="45.0039537" lon="7.9997017"><ele>240.0</ele><time>2026-04-19T12:32:07.489Z</time></trkpt><trkpt lat="45.0039906" lon="7.9995364"><ele>240.0</ele><time>2026-04-19T12:32:08.49Z</time></trkpt><trkpt lat="45.0040269" lon="7.9993422"><ele>240.0</ele><time>2026-04-19T12:32:09.489Z</time></trkpt><trkpt lat="45.00406" lon="7.9991767"><ele>240.0</ele><time>2026-04-19T12:32:10.49Z</time></trkpt><trkpt lat="45.0040966" lon="7.9990074"><ele>240.0</ele><time>2026-04-19T12:32:11.49Z</time></trkpt><trkpt lat="45.0041258" lon="7.9988246"><ele>242.25</ele><time>2026-04-19T12:32:12.489Z</time></trkpt><trkpt lat="45.004169" lon="7.9986487"><ele>244.5</ele><time>2026-04-19T12:32:13.49Z</time></trkpt><trkpt lat="45.0042051" lon="7.9984777"><ele>246.75</ele><time>2026-04-19T12:32:14.489Z</time></trkpt><trkpt lat="45.0042355" lon="7.9982889"><ele>249.0</ele><time>2026-04-19T12:32:15.49Z</time></trkpt><trkpt lat="45.0042608" lon="7.9981533"><ele>250.0</ele><time>2026-04-19T12:32:16.489Z</time></trkpt><trkpt lat="45.004255" lon="7.9979449"><ele>251.0</ele><time>2026-04-19T12:32:17.49Z</time></trkpt><trkpt lat="45.004217" lon="7.9978072"><ele>252.0</ele><time>2026-04-19T12:32:18.489Z</time></trkpt><trkpt lat="45.0041386" lon="7.9976614"><ele>253.0</ele><time>2026-04-19T12:32:19.489Z</time></trkpt><trkpt lat="45.0040332" lon="7.9975128"><ele>252.25</ele><time>2026-04-19T12:32:20.489Z</time></trkpt><trkpt lat="45.0039556" lon="7.99736"><ele>251.5</ele><time>2026-04-19T12:32:21.489Z</time></trkpt><trkpt lat="45.0038555" lon="7.9972301"><ele>250.75</ele><time>2026-04-19T12:32:22.489Z</time></trkpt><trkpt lat="45.0037537" lon="7.997123"><ele>250.0</ele><time>2026-04-19T12:32:23.489Z</time></trkpt><trkpt lat="45.0036525" lon="7.9970096"><ele>250.0</ele><time>2026-04-19T12:32:24.489Z</time></trkpt><trkpt lat="45.0035442" lon="7.9969347"><ele>250.0</ele><time>2026-04-19T12:32:25.49Z</time></trkpt><trkpt lat="45.0034582" lon="7.9968406"><ele>250.0</ele><time>2026-04-19T12:32:26.49Z</time></trkpt><trkpt lat="45.0033645" lon="7.9968152"><ele>250.0</ele><time>2026-04-19T12:32:27.489Z</time></trkpt><trkpt lat="45.0033082" lon="7.9967339"><ele>250.0</ele><time>2026-04-19T12:32:28.489Z</time></trkpt><trkpt lat="45.0032627" lon="7.9966473"><ele>252.0</ele><time>2026-04-19T12:32:29.489Z</time></trkpt><trkpt lat="45.0032139" lon="7.9965527"><ele>254.0</ele><time>2026-04-19T12:32:30.489Z</time></trkpt><trkpt lat="45.0031929" lon="7.996461"><ele>256.0</ele><time>2026-04-19T12:32:31.489Z</time></trkpt><trkpt lat="45.0033399" lon="7.9962793"><ele>258.0</ele><time>2026-04-19T12:32:33.49Z</time></trkpt><trkpt lat="45.0034275" lon="7.9961408"><ele>258.0</ele><time>2026-04-19T12:32:34.49Z</time></trkpt><trkpt lat="45.0035183" lon="7.9959843"><ele>258.0</ele><time>2026-04-19T12:32:35.49Z</time></trkpt><trkpt lat="45.0035977" lon="7.9958335"><ele>258.0</ele><time>2026-04-19T12:32:36.489Z</time></trkpt><trkpt lat="45.0037093" lon="7.9957231"><ele>258.0</ele><time>2026-04-19T12:32:37.49Z</time></trkpt><trkpt lat="45.0038159" lon="7.9956199"><ele>258.25</ele><time>2026-04-19T12:32:38.489Z</time></trkpt><trkpt lat="45.0039397" lon="7.9955905"><ele>258.5</ele><time>2026-04-19T12:32:39.489Z</time></trkpt><trkpt lat="45.0040646" lon="7.9955954"><ele>258.75</ele><time>2026-04-19T12:32:40.489Z</time></trkpt><trkpt lat="45.0041828" lon="7.995587"><ele>259.0</ele><time>2026-04-19T12:32:41.489Z</time></trkpt><trkpt lat="45.0042948" lon="7.9955645"><ele>259.0</ele><time>2026-04-19T12:32:42.489Z</time></trkpt><trkpt lat="45.0043933" lon="7.9955256"><ele>259.0</ele><time>2026-04-19T12:32:43.49Z</time></trkpt><trkpt lat="45.0044955" lon="7.9954139"><ele>259.0</ele><time>2026-04-19T12:32:44.49Z</time></trkpt><trkpt lat="45.004552" lon="7.9953141"><ele>259.0</ele><time>2026-04-19T12:32:45.489Z</time></trkpt><trkpt lat="45.0045723" lon="7.9951588"><ele>259.0</ele><time>2026-04-19T12:32:46.489Z</time></trkpt><trkpt lat="45.0046111" lon="7.9949624"><ele>255.0</ele><time>2026-04-19T12:32:47.489Z</time></trkpt><trkpt lat="45.0046074" lon="7.9947056"><ele>251.0</ele><time>2026-04-19T12:32:48.489Z</time></trkpt><trkpt lat="45.0045972" lon="7.9944989"><ele>247.0</ele><time>2026-04-19T12:32:49.489Z</time></trkpt><trkpt lat="45.0045446" lon="7.9942818"><ele>245.25</ele><time>2026-04-19T12:32:50.49Z</time></trkpt><trkpt lat="45.0045436" lon="7.9940857"><ele>243.5</ele><time>2026-04-19T12:32:51.489Z</time></trkpt><trkpt lat="45.0045536" lon="7.9939098"><ele>241.75</ele><time>2026-04-19T12:32:52.489Z</time></trkpt><trkpt lat="45.0045604" lon="7.9937555"><ele>240.0</ele><time>2026-04-19T12:32:53.49Z</time></trkpt><trkpt lat="45.0045304" lon="7.9935863"><ele>240.0</ele><time>2026-04-19T12:32:54.489Z</time></trkpt><trkpt lat="45.0045066" lon="7.9934264"><ele>240.0</ele><time>2026-04-19T12:32:55.489Z</time></trkpt><trkpt lat="45.0044667" lon="7.9932397"><ele>240.0</ele><time>2026-04-19T12:32:56.489Z</time></trkpt><trkpt lat="45.0043836" lon="7.9930982"><ele>240.0</ele><time>2026-04-19T12:32:57.489Z</time></trkpt><trkpt lat="45.0043297" lon="7.9929898"><ele>240.0</ele><time>2026-04-19T12:32:58.489Z</time></trkpt><trkpt lat="45.0042923" lon="7.9928576"><ele>240.0</ele><time>2026-04-19T12:32:59.49Z</time></trkpt><trkpt lat="45.0042751" lon="7.9927447"><ele>240.0</ele><time>2026-04-19T12:33:00.49Z</time></trkpt><trkpt lat="45.0042792" lon="7.9925711"><ele>240.0</ele><time>2026-04-19T12:33:01.489Z</time></trkpt><trkpt lat="45.0042794" lon="7.9924454"><ele>240.0</ele><time>2026-04-19T12:33:02.489Z</time></trkpt><trkpt lat="45.0042185" lon="7.9923261"><ele>235.75</ele><time>2026-04-19T12:33:03.489Z</time></trkpt><trkpt lat="45.0041562" lon="7.9922303"><ele>231.5</ele><time>2026-04-19T12:33:04.489Z</time></trkpt><trkpt lat="45.0040308" lon="7.9921122"><ele>227.25</ele><time>2026-04-19T12:33:05.49Z</time></trkpt><trkpt lat="45.0039285" lon="7.9920202"><ele>223.0</ele><time>2026-04-19T12:33:06.489Z</time></trkpt><trkpt lat="45.0038379" lon="7.9919242"><ele>223.0</ele><time>2026-04-19T12:33:07.489Z</time></trkpt><trkpt lat="45.0037673" lon="7.9917888"><ele>223.0</ele><time>2026-04-19T12:33:08.489Z</time></trkpt><trkpt lat="45.0037155" lon="7.9916831"><ele>223.0</ele><time>2026-04-19T12:33:09.49Z</time></trkpt><trkpt lat="45.0037487" lon="7.9915517"><ele>223.0</ele><time>2026-04-19T12:33:10.49Z</time></trkpt><trkpt lat="45.0037197" lon="7.9912566"><ele>223.0</ele><time>2026-04-19T12:33:11.489Z</time></trkpt><trkpt lat="45.0037542" lon="7.9910392"><ele>223.0</ele><time>2026-04-19T12:33:12.489Z</time></trkpt><trkpt lat="45.0037304" lon="7.9908029"><ele>223.0</ele><time>2026-04-19T12:33:13.489Z</time></trkpt><trkpt lat="45.0037232" lon="7.9905729"><ele>222.33333333333331</ele><time>2026-04-19T12:33:14.49Z</time></trkpt><trkpt lat="45.0037236" lon="7.9903586"><ele>221.66666666666669</ele><time>2026-04-19T12:33:15.49Z</time></trkpt><trkpt lat="45.003732" lon="7.9901404"><ele>221.0</ele><time>2026-04-19T12:33:16.489Z</time></trkpt><trkpt lat="45.0037764" lon="7.9899088"><ele>219.0</ele><time>2026-04-19T12:33:17.49Z</time></trkpt><trkpt lat="45.0038276" lon="7.9896426"><ele>217.0</ele><time>2026-04-19T12:33:18.489Z</time></trkpt><trkpt lat="45.0039955" lon="7.9895231"><ele>215.0</ele><time>2026-04-19T12:33:19.489Z</time></trkpt><trkpt lat="45.0040601" lon="7.9893494"><ele>215.0</ele><time>2026-04-19T12:33:20.489Z</time></trkpt><trkpt lat="45.004161" lon="7.9891282"><ele>215.0</ele><time>2026-04-19T12:33:21.489Z</time></trkpt><trkpt lat="45.0042503" lon="7.9889133"><ele>215.0</ele><time>2026-04-19T12:33:22.49Z</time></trkpt><trkpt lat="45.0043572" lon="7.9886998"><ele>215.0</ele><time>2026-04-19T12:33:23.489Z</time></trkpt><trkpt lat="45.0044648" lon="7.9884748"><ele>215.0</ele><time>2026-04-19T12:33:24.489Z</time></trkpt><trkpt lat="45.0045462" lon="7.9882727"><ele>215.0</ele><time>2026-04-19T12:33:25.489Z</time></trkpt><trkpt lat="45.0046258" lon="7.9880756"><ele>215.75</ele><time>2026-04-19T12:33:26.489Z</time></trkpt><trkpt lat="45.0047173" lon="7.9879006"><ele>216.5</ele><time>2026-04-19T12:33:27.489Z</time></trkpt><trkpt lat="45.0048086" lon="7.9877358"><ele>217.25</ele><time>2026-04-19T12:33:28.489Z</time></trkpt><trkpt lat="45.0048968" lon="7.9875728"><ele>218.0</ele><time>2026-04-19T12:33:29.489Z</time></trkpt><trkpt lat="45.0049973" lon="7.987403"><ele>218.0</ele><time>2026-04-19T12:33:30.489Z</time></trkpt><trkpt lat="45.0051072" lon="7.9872719"><ele>218.0</ele><time>2026-04-19T12:33:31.489Z</time></trkpt><trkpt lat="45.0052649" lon="7.9871589"><ele>218.0</ele><time>2026-04-19T12:33:32.489Z</time></trkpt><trkpt lat="45.0054207" lon="7.9870358"><ele>218.0</ele><time>2026-04-19T12:33:33.49Z</time></trkpt><trkpt lat="45.0055646" lon="7.9869118"><ele>218.0</ele><time>2026-04-19T12:33:34.489Z</time></trkpt><trkpt lat="45.0057207" lon="7.9867791"><ele>218.0</ele><time>2026-04-19T12:33:35.489Z</time></trkpt><trkpt lat="45.0058942" lon="7.9866852"><ele>218.66666666666669</ele><time>2026-04-19T12:33:36.489Z</time></trkpt><trkpt lat="45.006046" lon="7.9865895"><ele>219.33333333333331</ele><time>2026-04-19T12:33:37.489Z</time></trkpt><trkpt lat="45.0062057" lon="7.9865495"><ele>220.0</ele><time>2026-04-19T12:33:38.49Z</time></trkpt><trkpt lat="45.0063852" lon="7.9864972"><ele>220.0</ele><time>2026-04-19T12:33:39.489Z</time></trkpt><trkpt lat="45.0065641" lon="7.9864529"><ele>220.0</ele><time>2026-04-19T12:33:40.489Z</time></trkpt><trkpt lat="45.0067439" lon="7.9864394"><ele>220.0</ele><time>2026-04-19T12:33:41.489Z</time></trkpt><trkpt lat="45.0068948" lon="7.9863891"><ele>221.0</ele><time>2026-04-19T12:33:42.49Z</time></trkpt><trkpt lat="45.0071055" lon="7.986387"><ele>222.0</ele><time>2026-04-19T12:33:43.489Z</time></trkpt><trkpt lat="45.0072931" lon="7.9863884"><ele>223.0</ele><time>2026-04-19T12:33:44.489Z</time></trkpt><trkpt lat="45.0074339" lon="7.9863416"><ele>223.33333333333331</ele><time>2026-04-19T12:33:45.489Z</time></trkpt><trkpt lat="45.0075706" lon="7.9863363"><ele>223.66666666666669</ele><time>2026-04-19T12:33:46.489Z</time></trkpt><trkpt lat="45.0077213" lon="7.9862759"><ele>224.0</ele><time>2026-04-19T12:33:47.489Z</time></trkpt><trkpt lat="45.0078817" lon="7.9862441"><ele>224.0</ele><time>2026-04-19T12:33:48.489Z</time></trkpt><trkpt lat="45.0080427" lon="7.9862205"><ele>224.0</ele><time>2026-04-19T12:33:49.49Z</time></trkpt><trkpt lat="45.008203" lon="7.9861765"><ele>224.0</ele><time>2026-04-19T12:33:50.489Z</time></trkpt><trkpt lat="45.0083543" lon="7.9861507"><ele>225.0</ele><time>2026-04-19T12:33:51.49Z</time></trkpt><trkpt lat="45.0084895" lon="7.9861125"><ele>226.0</ele><time>2026-04-19T12:33:52.489Z</time></trkpt><trkpt lat="45.0086793" lon="7.9860413"><ele>227.0</ele><time>2026-04-19T12:33:53.489Z</time></trkpt><trkpt lat="45.0088406" lon="7.9860078"><ele>227.0</ele><time>2026-04-19T12:33:54.489Z</time></trkpt><trkpt lat="45.0089946" lon="7.9859974"><ele>227.0</ele><time>2026-04-19T12:33:55.489Z</time></trkpt><trkpt lat="45.0091422" lon="7.9859933"><ele>227.0</ele><time>2026-04-19T12:33:56.49Z</time></trkpt><trkpt lat="45.009284" lon="7.9860379"><ele>227.0</ele><time>2026-04-19T12:33:57.489Z</time></trkpt><trkpt lat="45.009425" lon="7.9860868"><ele>226.5</ele><time>2026-04-19T12:33:58.49Z</time></trkpt><trkpt lat="45.0095595" lon="7.9861417"><ele>226.0</ele><time>2026-04-19T12:33:59.489Z</time></trkpt><trkpt lat="45.0096899" lon="7.9861958"><ele>225.5</ele><time>2026-04-19T12:34:00.49Z</time></trkpt><trkpt lat="45.0098156" lon="7.9862668"><ele>225.0</ele><time>2026-04-19T12:34:01.489Z</time></trkpt><trkpt lat="45.0099424" lon="7.9863198"><ele>223.0</ele><time>2026-04-19T12:34:02.489Z</time></trkpt><trkpt lat="45.0100732" lon="7.9863817"><ele>221.0</ele><time>2026-04-19T12:34:03.489Z</time></trkpt><trkpt lat="45.0101787" lon="7.9864101"><ele>219.0</ele><time>2026-04-19T12:34:04.489Z</time></trkpt><trkpt lat="45.0102783" lon="7.9864467"><ele>217.0</ele><time>2026-04-19T12:34:05.489Z</time></trkpt><trkpt lat="45.0103485" lon="7.9864891"><ele>215.0</ele><time>2026-04-19T12:34:06.489Z</time></trkpt><trkpt lat="45.0104161" lon="7.9865356"><ele>215.0</ele><time>2026-04-19T12:34:07.489Z</time></trkpt><trkpt lat="45.0104724" lon="7.9866237"><ele>215.0</ele><time>2026-04-19T12:34:08.489Z</time></trkpt><trkpt lat="45.010519" lon="7.9867125"><ele>215.0</ele><time>2026-04-19T12:34:09.489Z</time></trkpt><trkpt lat="45.0105328" lon="7.9868405"><ele>215.0</ele><time>2026-04-19T12:34:10.489Z</time></trkpt><trkpt lat="45.0105474" lon="7.9869823"><ele>215.0</ele><time>2026-04-19T12:34:11.489Z</time></trkpt><trkpt lat="45.010537" lon="7.9871436"><ele>215.75</ele><time>2026-04-19T12:34:12.49Z</time></trkpt><trkpt lat="45.0105201" lon="7.9873136"><ele>216.5</ele><time>2026-04-19T12:34:13.49Z</time></trkpt><trkpt lat="45.010495" lon="7.9874976"><ele>217.25</ele><time>2026-04-19T12:34:14.489Z</time></trkpt><trkpt lat="45.0104852" lon="7.9876812"><ele>218.0</ele><time>2026-04-19T12:34:15.49Z</time></trkpt><trkpt lat="45.0104668" lon="7.9878814"><ele>219.25</ele><time>2026-04-19T12:34:16.489Z</time></trkpt><trkpt lat="45.0104378" lon="7.98808"><ele>220.5</ele><time>2026-04-19T12:34:17.49Z</time></trkpt><trkpt lat="45.0104128" lon="7.9882942"><ele>221.75</ele><time>2026-04-19T12:34:18.489Z</time></trkpt><trkpt lat="45.0103889" lon="7.9884939"><ele>223.0</ele><time>2026-04-19T12:34:19.489Z</time></trkpt><trkpt lat="45.0103667" lon="7.9886992"><ele>224.4</ele><time>2026-04-19T12:34:20.489Z</time></trkpt><trkpt lat="45.0103601" lon="7.9888814"><ele>225.8</ele><time>2026-04-19T12:34:21.489Z</time></trkpt><trkpt lat="45.0103356" lon="7.9890437"><ele>227.2</ele><time>2026-04-19T12:34:22.489Z</time></trkpt><trkpt lat="45.0102875" lon="7.9891741"><ele>228.6</ele><time>2026-04-19T12:34:23.489Z</time></trkpt><trkpt lat="45.0102107" lon="7.9892558"><ele>230.0</ele><time>2026-04-19T12:34:24.49Z</time></trkpt><trkpt lat="45.0101142" lon="7.9893059"><ele>233.0</ele><time>2026-04-19T12:34:25.489Z</time></trkpt><trkpt lat="45.0100134" lon="7.9893701"><ele>236.0</ele><time>2026-04-19T12:34:26.489Z</time></trkpt><trkpt lat="45.0099245" lon="7.9894308"><ele>239.0</ele><time>2026-04-19T12:34:27.489Z</time></trkpt><trkpt lat="45.009853" lon="7.9894834"><ele>242.0</ele><time>2026-04-19T12:34:28.49Z</time></trkpt><trkpt lat="45.009785" lon="7.989557"><ele>245.0</ele><time>2026-04-19T12:34:29.49Z</time></trkpt><trkpt lat="45.0097536" lon="7.9896653"><ele>245.0</ele><time>2026-04-19T12:34:30.489Z</time></trkpt><trkpt lat="45.0098387" lon="7.9897941"><ele>245.0</ele><time>2026-04-19T12:34:32.489Z</time></trkpt><trkpt lat="45.0099549" lon="7.9898355"><ele>245.0</ele><time>2026-04-19T12:34:33.489Z</time></trkpt><trkpt lat="45.0100731" lon="7.9898678"><ele>245.0</ele><time>2026-04-19T12:34:34.489Z</time></trkpt><trkpt lat="45.0101716" lon="7.9899186"><ele>245.0</ele><time>2026-04-19T12:34:35.489Z</time></trkpt><trkpt lat="45.0103202" lon="7.9899319"><ele>245.0</ele><time>2026-04-19T12:34:36.489Z</time></trkpt><trkpt lat="45.0104605" lon="7.9899446"><ele>245.0</ele><time>2026-04-19T12:34:37.49Z</time></trkpt><trkpt lat="45.0106035" lon="7.9899634"><ele>245.0</ele><time>2026-04-19T12:34:38.489Z</time></trkpt><trkpt lat="45.0107507" lon="7.9899803"><ele>246.0</ele><time>2026-04-19T12:34:39.489Z</time></trkpt><trkpt lat="45.0109086" lon="7.9900059"><ele>247.0</ele><time>2026-04-19T12:34:40.49Z</time></trkpt><trkpt lat="45.0110492" lon="7.9900269"><ele>248.0</ele><time>2026-04-19T12:34:41.49Z</time></trkpt><trkpt lat="45.0112012" lon="7.9900414"><ele>249.33333333333334</ele><time>2026-04-19T12:34:42.489Z</time></trkpt><trkpt lat="45.0113437" lon="7.9900459"><ele>250.66666666666669</ele><time>2026-04-19T12:34:43.489Z</time></trkpt><trkpt lat="45.0114992" lon="7.9900685"><ele>252.0</ele><time>2026-04-19T12:34:44.49Z</time></trkpt><trkpt lat="45.0116609" lon="7.9901182"><ele>253.33333333333331</ele><time>2026-04-19T12:34:45.489Z</time></trkpt><trkpt lat="45.0118102" lon="7.9901583"><ele>254.66666666666666</ele><time>2026-04-19T12:34:46.489Z</time></trkpt><trkpt lat="45.0119581" lon="7.9902124"><ele>256.0</ele><time>2026-04-19T12:34:47.49Z</time></trkpt><trkpt lat="45.012108" lon="7.9902373"><ele>256.0</ele><time>2026-04-19T12:34:48.49Z</time></trkpt><trkpt lat="45.0122362" lon="7.990292"><ele>256.0</ele><time>2026-04-19T12:34:49.489Z</time></trkpt><trkpt lat="45.0123706" lon="7.9903749"><ele>256.0</ele><time>2026-04-19T12:34:50.489Z</time></trkpt><trkpt lat="45.012503" lon="7.9905085"><ele>256.0</ele><time>2026-04-19T12:34:51.49Z</time></trkpt><trkpt lat="45.0126176" lon="7.9906691"><ele>258.66666666666663</ele><time>2026-04-19T12:34:52.489Z</time></trkpt><trkpt lat="45.0127278" lon="7.9908476"><ele>261.3333333333333</ele><time>2026-04-19T12:34:53.49Z</time></trkpt><trkpt lat="45.0128326" lon="7.9910368"><ele>264.0</ele><time>2026-04-19T12:34:54.49Z</time></trkpt><trkpt lat="45.0129156" lon="7.9912286"><ele>264.0</ele><time>2026-04-19T12:34:55.489Z</time></trkpt><trkpt lat="45.0130021" lon="7.991432"><ele>264.0</ele><time>2026-04-19T12:34:56.49Z</time></trkpt><trkpt lat="45.0130972" lon="7.9916118"><ele>264.0</ele><time>2026-04-19T12:34:57.489Z</time></trkpt><trkpt lat="45.0131904" lon="7.9917871"><ele>263.3333333333333</ele><time>2026-04-19T12:34:58.49Z</time></trkpt><trkpt lat="45.0133051" lon="7.9919347"><ele>262.66666666666663</ele><time>2026-04-19T12:34:59.489Z</time></trkpt><trkpt lat="45.0134273" lon="7.9920673"><ele>262.0</ele><time>2026-04-19T12:35:00.49Z</time></trkpt><trkpt lat="45.0135797" lon="7.9921466"><ele>262.0</ele><time>2026-04-19T12:35:01.489Z</time></trkpt><trkpt lat="45.0137335" lon="7.9922274"><ele>262.0</ele><time>2026-04-19T12:35:02.49Z</time></trkpt><trkpt lat="45.0138908" lon="7.9922924"><ele>262.0</ele><time>2026-04-19T12:35:03.489Z</time></trkpt><trkpt lat="45.0140598" lon="7.9923394"><ele>263.66666666666663</ele><time>2026-04-19T12:35:04.489Z</time></trkpt><trkpt lat="45.0142266" lon="7.9923925"><ele>265.3333333333333</ele><time>2026-04-19T12:35:05.489Z</time></trkpt><trkpt lat="45.0143861" lon="7.9924469"><ele>267.0</ele><time>2026-04-19T12:35:06.49Z</time></trkpt><trkpt lat="45.0145395" lon="7.9924938"><ele>266.6666666666667</ele><time>2026-04-19T12:35:07.49Z</time></trkpt><trkpt lat="45.0147202" lon="7.992539"><ele>266.33333333333337</ele><time>2026-04-19T12:35:08.489Z</time></trkpt><trkpt lat="45.0148706" lon="7.9926106"><ele>266.0</ele><time>2026-04-19T12:35:09.489Z</time></trkpt><trkpt lat="45.0150101" lon="7.9926705"><ele>266.0</ele><time>2026-04-19T12:35:10.489Z</time></trkpt><trkpt lat="45.0151647" lon="7.9927102"><ele>266.0</ele><time>2026-04-19T12:35:11.489Z</time></trkpt><trkpt lat="45.0153234" lon="7.9927407"><ele>266.0</ele><time>2026-04-19T12:35:12.489Z</time></trkpt><trkpt lat="45.01545" lon="7.992784"><ele>266.0</ele><time>2026-04-19T12:35:13.489Z</time></trkpt><trkpt lat="45.0156196" lon="7.9927765"><ele>266.0</ele><time>2026-04-19T12:35:14.489Z</time></trkpt><trkpt lat="45.0157968" lon="7.9927565"><ele>266.0</ele><time>2026-04-19T12:35:15.489Z</time></trkpt><trkpt lat="45.0159571" lon="7.9927436"><ele>266.0</ele><time>2026-04-19T12:35:16.489Z</time></trkpt><trkpt lat="45.0161339" lon="7.992726"><ele>267.33333333333337</ele><time>2026-04-19T12:35:17.489Z</time></trkpt><trkpt lat="45.0163185" lon="7.9926619"><ele>268.6666666666667</ele><time>2026-04-19T12:35:18.489Z</time></trkpt><trkpt lat="45.0164578" lon="7.9925855"><ele>270.0</ele><time>2026-04-19T12:35:19.489Z</time></trkpt><trkpt lat="45.0166129" lon="7.992459"><ele>270.0</ele><time>2026-04-19T12:35:20.49Z</time></trkpt><trkpt lat="45.0167491" lon="7.9923487"><ele>270.0</ele><time>2026-04-19T12:35:21.489Z</time></trkpt><trkpt lat="45.0169046" lon="7.9922365"><ele>270.0</ele><time>2026-04-19T12:35:22.489Z</time></trkpt><trkpt lat="45.0170543" lon="7.9921206"><ele>270.0</ele><time>2026-04-19T12:35:23.489Z</time></trkpt><trkpt lat="45.0172079" lon="7.9919944"><ele>270.0</ele><time>2026-04-19T12:35:24.489Z</time></trkpt><trkpt lat="45.0173385" lon="7.9918571"><ele>270.0</ele><time>2026-04-19T12:35:25.489Z</time></trkpt><trkpt lat="45.0174704" lon="7.991717"><ele>268.6666666666667</ele><time>2026-04-19T12:35:26.49Z</time></trkpt><trkpt lat="45.0176073" lon="7.9915773"><ele>267.33333333333337</ele><time>2026-04-19T12:35:27.489Z</time></trkpt><trkpt lat="45.0177221" lon="7.9914129"><ele>266.0</ele><time>2026-04-19T12:35:28.49Z</time></trkpt><trkpt lat="45.0178336" lon="7.9912311"><ele>266.0</ele><time>2026-04-19T12:35:29.49Z</time></trkpt><trkpt lat="45.0179478" lon="7.991036"><ele>266.0</ele><time>2026-04-19T12:35:30.49Z</time></trkpt><trkpt lat="45.0180293" lon="7.9907727"><ele>266.0</ele><time>2026-04-19T12:35:31.489Z</time></trkpt><trkpt lat="45.0181134" lon="7.990563"><ele>265.33333333333337</ele><time>2026-04-19T12:35:32.49Z</time></trkpt><trkpt lat="45.0181988" lon="7.9903329"><ele>264.6666666666667</ele><time>2026-04-19T12:35:33.489Z</time></trkpt><trkpt lat="45.0182791" lon="7.9901119"><ele>264.0</ele><time>2026-04-19T12:35:34.489Z</time></trkpt><trkpt lat="45.0183571" lon="7.9898998"><ele>266.0</ele><time>2026-04-19T12:35:35.489Z</time></trkpt><trkpt lat="45.0184325" lon="7.9896781"><ele>268.0</ele><time>2026-04-19T12:35:36.489Z</time></trkpt><trkpt lat="45.0185109" lon="7.9894696"><ele>270.0</ele><time>2026-04-19T12:35:37.489Z</time></trkpt><trkpt lat="45.018584" lon="7.989258"><ele>271.6666666666667</ele><time>2026-04-19T12:35:38.489Z</time></trkpt><trkpt lat="45.0186556" lon="7.9890501"><ele>273.33333333333337</ele><time>2026-04-19T12:35:39.49Z</time></trkpt><trkpt lat="45.0187259" lon="7.9888225"><ele>275.0</ele><time>2026-04-19T12:35:40.49Z</time></trkpt><trkpt lat="45.0187973" lon="7.9886197"><ele>275.0</ele><time>2026-04-19T12:35:41.489Z</time></trkpt><trkpt lat="45.0188692" lon="7.9884249"><ele>275.0</ele><time>2026-04-19T12:35:42.489Z</time></trkpt><trkpt lat="45.018968" lon="7.9882584"><ele>275.0</ele><time>2026-04-19T12:35:43.49Z</time></trkpt><trkpt lat="45.0190663" lon="7.9880932"><ele>274.6666666666667</ele><time>2026-04-19T12:35:44.49Z</time></trkpt><trkpt lat="45.0191909" lon="7.9879505"><ele>274.3333333333333</ele><time>2026-04-19T12:35:45.49Z</time></trkpt><trkpt lat="45.0193277" lon="7.9878333"><ele>274.0</ele><time>2026-04-19T12:35:46.489Z</time></trkpt><trkpt lat="45.0194728" lon="7.9877466"><ele>274.0</ele><time>2026-04-19T12:35:47.489Z</time></trkpt><trkpt lat="45.0196187" lon="7.9876944"><ele>274.0</ele><time>2026-04-19T12:35:48.49Z</time></trkpt><trkpt lat="45.0197534" lon="7.98771"><ele>274.0</ele><time>2026-04-19T12:35:49.489Z</time></trkpt><trkpt lat="45.0198958" lon="7.9877052"><ele>274.0</ele><time>2026-04-19T12:35:50.49Z</time></trkpt><trkpt lat="45.0200301" lon="7.9877721"><ele>274.25</ele><time>2026-04-19T12:35:51.489Z</time></trkpt><trkpt lat="45.0201546" lon="7.987838"><ele>274.5</ele><time>2026-04-19T12:35:52.489Z</time></trkpt><trkpt lat="45.0202946" lon="7.9878837"><ele>274.75</ele><time>2026-04-19T12:35:53.49Z</time></trkpt><trkpt lat="45.0204401" lon="7.9879619"><ele>275.0</ele><time>2026-04-19T12:35:54.489Z</time></trkpt><trkpt lat="45.0205853" lon="7.9880173"><ele>275.0</ele><time>2026-04-19T12:35:55.489Z</time></trkpt><trkpt lat="45.0207277" lon="7.9880672"><ele>275.0</ele><time>2026-04-19T12:35:56.49Z</time></trkpt><trkpt lat="45.0208483" lon="7.9881303"><ele>275.0</ele><time>2026-04-19T12:35:57.489Z</time></trkpt><trkpt lat="45.0209743" lon="7.9881612"><ele>275.0</ele><time>2026-04-19T12:35:58.489Z</time></trkpt><trkpt lat="45.0211128" lon="7.9881417"><ele>274.6666666666667</ele><time>2026-04-19T12:35:59.49Z</time></trkpt><trkpt lat="45.0212417" lon="7.9881122"><ele>274.3333333333333</ele><time>2026-04-19T12:36:00.489Z</time></trkpt><trkpt lat="45.0214047" lon="7.9880397"><ele>274.0</ele><time>2026-04-19T12:36:01.489Z</time></trkpt><trkpt lat="45.0215522" lon="7.9879802"><ele>272.0</ele><time>2026-04-19T12:36:02.49Z</time></trkpt><trkpt lat="45.0216897" lon="7.9879264"><ele>270.0</ele><time>2026-04-19T12:36:03.489Z</time></trkpt><trkpt lat="45.0218248" lon="7.9878657"><ele>268.0</ele><time>2026-04-19T12:36:04.49Z</time></trkpt><trkpt lat="45.021957" lon="7.9877796"><ele>266.0</ele><time>2026-04-19T12:36:05.489Z</time></trkpt><trkpt lat="45.0220701" lon="7.9877468"><ele>266.0</ele><time>2026-04-19T12:36:06.49Z</time></trkpt><trkpt lat="45.0221699" lon="7.9877418"><ele>266.0</ele><time>2026-04-19T12:36:07.489Z</time></trkpt><trkpt lat="45.0222737" lon="7.9877588"><ele>266.0</ele><time>2026-04-19T12:36:08.489Z</time></trkpt><trkpt lat="45.0223916" lon="7.9878273"><ele>266.0</ele><time>2026-04-19T12:36:09.489Z</time></trkpt><trkpt lat="45.0225312" lon="7.9879171"><ele>263.6666666666667</ele><time>2026-04-19T12:36:10.49Z</time></trkpt><trkpt lat="45.022668" lon="7.9880179"><ele>261.3333333333333</ele><time>2026-04-19T12:36:11.49Z</time></trkpt><trkpt lat="45.0228139" lon="7.9880939"><ele>259.0</ele><time>2026-04-19T12:36:12.49Z</time></trkpt><trkpt lat="45.022966" lon="7.9881817"><ele>259.0</ele><time>2026-04-19T12:36:13.489Z</time></trkpt><trkpt lat="45.023122" lon="7.9882599"><ele>259.0</ele><time>2026-04-19T12:36:14.489Z</time></trkpt><trkpt lat="45.0232863" lon="7.9883902"><ele>259.0</ele><time>2026-04-19T12:36:15.49Z</time></trkpt><trkpt lat="45.0234445" lon="7.9884917"><ele>256.0</ele><time>2026-04-19T12:36:16.489Z</time></trkpt><trkpt lat="45.023604" lon="7.9885837"><ele>253.0</ele><time>2026-04-19T12:36:17.489Z</time></trkpt><trkpt lat="45.0237487" lon="7.9886742"><ele>250.0</ele><time>2026-04-19T12:36:18.489Z</time></trkpt><trkpt lat="45.0238806" lon="7.9887695"><ele>250.0</ele><time>2026-04-19T12:36:19.489Z</time></trkpt><trkpt lat="45.023999" lon="7.9888734"><ele>250.0</ele><time>2026-04-19T12:36:20.489Z</time></trkpt><trkpt lat="45.0241145" lon="7.9889808"><ele>250.0</ele><time>2026-04-19T12:36:21.49Z</time></trkpt><trkpt lat="45.024204" lon="7.9890782"><ele>250.0</ele><time>2026-04-19T12:36:22.489Z</time></trkpt><trkpt lat="45.024303" lon="7.9891636"><ele>251.0</ele><time>2026-04-19T12:36:23.49Z</time></trkpt><trkpt lat="45.0243841" lon="7.9892231"><ele>252.0</ele><time>2026-04-19T12:36:24.489Z</time></trkpt><trkpt lat="45.0244852" lon="7.9892403"><ele>253.0</ele><time>2026-04-19T12:36:25.49Z</time></trkpt><trkpt lat="45.0245884" lon="7.989219"><ele>254.0</ele><time>2026-04-19T12:36:26.489Z</time></trkpt><trkpt lat="45.0247002" lon="7.989158"><ele>255.0</ele><time>2026-04-19T12:36:27.489Z</time></trkpt><trkpt lat="45.0248188" lon="7.9890767"><ele>257.75</ele><time>2026-04-19T12:36:28.489Z</time></trkpt><trkpt lat="45.0249429" lon="7.9889802"><ele>260.5</ele><time>2026-04-19T12:36:29.489Z</time></trkpt><trkpt lat="45.0250693" lon="7.988875"><ele>263.25</ele><time>2026-04-19T12:36:30.489Z</time></trkpt><trkpt lat="45.0251901" lon="7.9887605"><ele>266.0</ele><time>2026-04-19T12:36:31.49Z</time></trkpt><trkpt lat="45.0252937" lon="7.9886289"><ele>267.33333333333337</ele><time>2026-04-19T12:36:32.49Z</time></trkpt><trkpt lat="45.0253973" lon="7.9885013"><ele>268.6666666666667</ele><time>2026-04-19T12:36:33.489Z</time></trkpt><trkpt lat="45.0254823" lon="7.9883496"><ele>270.0</ele><time>2026-04-19T12:36:34.49Z</time></trkpt><trkpt lat="45.0255848" lon="7.988087"><ele>268.3333333333333</ele><time>2026-04-19T12:36:35.489Z</time></trkpt><trkpt lat="45.0256796" lon="7.9878971"><ele>266.66666666666663</ele><time>2026-04-19T12:36:36.489Z</time></trkpt><trkpt lat="45.0257926" lon="7.9877269"><ele>265.0</ele><time>2026-04-19T12:36:37.489Z</time></trkpt><trkpt lat="45.0259154" lon="7.9875707"><ele>267.3333333333333</ele><time>2026-04-19T12:36:38.489Z</time></trkpt><trkpt lat="45.0260519" lon="7.987406"><ele>269.6666666666667</ele><time>2026-04-19T12:36:39.489Z</time></trkpt><trkpt lat="45.0262093" lon="7.9872938"><ele>272.0</ele><time>2026-04-19T12:36:40.489Z</time></trkpt><trkpt lat="45.0263702" lon="7.9872149"><ele>272.0</ele><time>2026-04-19T12:36:41.49Z</time></trkpt><trkpt lat="45.0265172" lon="7.987142"><ele>272.0</ele><time>2026-04-19T12:36:42.49Z</time></trkpt><trkpt lat="45.026654" lon="7.9870579"><ele>272.0</ele><time>2026-04-19T12:36:43.49Z</time></trkpt><trkpt lat="45.0268031" lon="7.9869768"><ele>269.6666666666667</ele><time>2026-04-19T12:36:44.489Z</time></trkpt><trkpt lat="45.0269585" lon="7.9868884"><ele>267.3333333333333</ele><time>2026-04-19T12:36:45.489Z</time></trkpt><trkpt lat="45.0271059" lon="7.986865"><ele>265.0</ele><time>2026-04-19T12:36:46.489Z</time></trkpt><trkpt lat="45.0272546" lon="7.9868615"><ele>265.0</ele><time>2026-04-19T12:36:47.489Z</time></trkpt><trkpt lat="45.0274101" lon="7.9869143"><ele>265.0</ele><time>2026-04-19T12:36:48.49Z</time></trkpt><trkpt lat="45.0275726" lon="7.9869689"><ele>265.0</ele><time>2026-04-19T12:36:49.49Z</time></trkpt><trkpt lat="45.0277371" lon="7.9870357"><ele>265.0</ele><time>2026-04-19T12:36:50.489Z</time></trkpt><trkpt lat="45.0278875" lon="7.9871155"><ele>265.0</ele><time>2026-04-19T12:36:51.489Z</time></trkpt><trkpt lat="45.0280454" lon="7.9871735"><ele>265.0</ele><time>2026-04-19T12:36:52.489Z</time></trkpt><trkpt lat="45.0281811" lon="7.9872356"><ele>266.5</ele><time>2026-04-19T12:36:53.489Z</time></trkpt><trkpt lat="45.0283173" lon="7.9872716"><ele>268.0</ele><time>2026-04-19T12:36:54.489Z</time></trkpt><trkpt lat="45.0284611" lon="7.9872972"><ele>269.5</ele><time>2026-04-19T12:36:55.49Z</time></trkpt><trkpt lat="45.0286186" lon="7.9873025"><ele>271.0</ele><time>2026-04-19T12:36:56.489Z</time></trkpt><trkpt lat="45.0287718" lon="7.9872902"><ele>271.0</ele><time>2026-04-19T12:36:57.49Z</time></trkpt><trkpt lat="45.0289357" lon="7.9872699"><ele>271.0</ele><time>2026-04-19T12:36:58.489Z</time></trkpt><trkpt lat="45.029094" lon="7.9872521"><ele>271.0</ele><time>2026-04-19T12:36:59.489Z</time></trkpt><trkpt lat="45.0292426" lon="7.9872074"><ele>270.66666666666663</ele><time>2026-04-19T12:37:00.489Z</time></trkpt><trkpt lat="45.0294138" lon="7.9871121"><ele>270.3333333333333</ele><time>2026-04-19T12:37:01.489Z</time></trkpt><trkpt lat="45.0295738" lon="7.9870234"><ele>270.0</ele><time>2026-04-19T12:37:02.489Z</time></trkpt><trkpt lat="45.0297272" lon="7.9869244"><ele>270.0</ele><time>2026-04-19T12:37:03.49Z</time></trkpt><trkpt lat="45.0298871" lon="7.9868178"><ele>270.0</ele><time>2026-04-19T12:37:04.49Z</time></trkpt><trkpt lat="45.0300272" lon="7.9867328"><ele>270.0</ele><time>2026-04-19T12:37:05.489Z</time></trkpt><trkpt lat="45.0301696" lon="7.9866597"><ele>271.0</ele><time>2026-04-19T12:37:06.489Z</time></trkpt><trkpt lat="45.0302934" lon="7.9865956"><ele>272.0</ele><time>2026-04-19T12:37:07.489Z</time></trkpt><trkpt lat="45.0304163" lon="7.9865052"><ele>273.0</ele><time>2026-04-19T12:37:08.489Z</time></trkpt><trkpt lat="45.030523" lon="7.9864115"><ele>274.0</ele><time>2026-04-19T12:37:09.49Z</time></trkpt><trkpt lat="45.0306235" lon="7.986235"><ele>274.0</ele><time>2026-04-19T12:37:10.489Z</time></trkpt><trkpt lat="45.0307204" lon="7.9860747"><ele>274.0</ele><time>2026-04-19T12:37:11.49Z</time></trkpt><trkpt lat="45.0308269" lon="7.9859048"><ele>274.0</ele><time>2026-04-19T12:37:12.49Z</time></trkpt><trkpt lat="45.0309473" lon="7.9857542"><ele>273.0</ele><time>2026-04-19T12:37:13.489Z</time></trkpt><trkpt lat="45.0310951" lon="7.9856036"><ele>272.0</ele><time>2026-04-19T12:37:14.49Z</time></trkpt><trkpt lat="45.0312369" lon="7.9854678"><ele>271.0</ele><time>2026-04-19T12:37:15.489Z</time></trkpt><trkpt lat="45.0313902" lon="7.9853387"><ele>271.0</ele><time>2026-04-19T12:37:16.489Z</time></trkpt><trkpt lat="45.0315382" lon="7.9852164"><ele>271.0</ele><time>2026-04-19T12:37:17.489Z</time></trkpt><trkpt lat="45.0316787" lon="7.9850869"><ele>271.0</ele><time>2026-04-19T12:37:18.49Z</time></trkpt><trkpt lat="45.0318167" lon="7.9849526"><ele>271.3333333333333</ele><time>2026-04-19T12:37:19.49Z</time></trkpt><trkpt lat="45.0319456" lon="7.9848279"><ele>271.6666666666667</ele><time>2026-04-19T12:37:20.489Z</time></trkpt><trkpt lat="45.0320765" lon="7.9847101"><ele>272.0</ele><time>2026-04-19T12:37:21.489Z</time></trkpt><trkpt lat="45.0322179" lon="7.9846334"><ele>272.0</ele><time>2026-04-19T12:37:22.489Z</time></trkpt><trkpt lat="45.0323663" lon="7.9845969"><ele>272.0</ele><time>2026-04-19T12:37:23.489Z</time></trkpt><trkpt lat="45.0325115" lon="7.984569"><ele>272.0</ele><time>2026-04-19T12:37:24.489Z</time></trkpt><trkpt lat="45.0326657" lon="7.9845676"><ele>272.0</ele><time>2026-04-19T12:37:25.489Z</time></trkpt><trkpt lat="45.0328203" lon="7.9845449"><ele>272.0</ele><time>2026-04-19T12:37:26.49Z</time></trkpt><trkpt lat="45.0329473" lon="7.9845899"><ele>272.0</ele><time>2026-04-19T12:37:27.49Z</time></trkpt><trkpt lat="45.0330686" lon="7.9846801"><ele>272.0</ele><time>2026-04-19T12:37:28.489Z</time></trkpt><trkpt lat="45.0331876" lon="7.9847853"><ele>272.5</ele><time>2026-04-19T12:37:29.489Z</time></trkpt><trkpt lat="45.0333172" lon="7.9848585"><ele>273.0</ele><time>2026-04-19T12:37:30.489Z</time></trkpt><trkpt lat="45.0334339" lon="7.9849673"><ele>273.5</ele><time>2026-04-19T12:37:31.489Z</time></trkpt><trkpt lat="45.0335672" lon="7.9850617"><ele>274.0</ele><time>2026-04-19T12:37:32.489Z</time></trkpt><trkpt lat="45.0337204" lon="7.9851174"><ele>274.0</ele><time>2026-04-19T12:37:33.489Z</time></trkpt><trkpt lat="45.0338733" lon="7.9851534"><ele>274.0</ele><time>2026-04-19T12:37:34.489Z</time></trkpt><trkpt lat="45.0340218" lon="7.9851572"><ele>274.0</ele><time>2026-04-19T12:37:35.489Z</time></trkpt><trkpt lat="45.0341787" lon="7.9851377"><ele>276.0</ele><time>2026-04-19T12:37:36.489Z</time></trkpt><trkpt lat="45.0343159" lon="7.9850664"><ele>278.0</ele><time>2026-04-19T12:37:37.49Z</time></trkpt><trkpt lat="45.0344677" lon="7.9849872"><ele>280.0</ele><time>2026-04-19T12:37:38.489Z</time></trkpt><trkpt lat="45.0345891" lon="7.9849127"><ele>282.0</ele><time>2026-04-19T12:37:39.489Z</time></trkpt><trkpt lat="45.0347167" lon="7.9848451"><ele>281.75</ele><time>2026-04-19T12:37:40.489Z</time></trkpt><trkpt lat="45.0348411" lon="7.9848172"><ele>281.5</ele><time>2026-04-19T12:37:41.489Z</time></trkpt><trkpt lat="45.0349673" lon="7.9848341"><ele>281.25</ele><time>2026-04-19T12:37:42.489Z</time></trkpt><trkpt lat="45.0351021" lon="7.9848742"><ele>281.0</ele><time>2026-04-19T12:37:43.49Z</time></trkpt><trkpt lat="45.0352397" lon="7.9849419"><ele>281.0</ele><time>2026-04-19T12:37:44.489Z</time></trkpt><trkpt lat="45.0353722" lon="7.9849816"><ele>281.0</ele><time>2026-04-19T12:37:45.489Z</time></trkpt><trkpt lat="45.0354848" lon="7.9850373"><ele>281.0</ele><time>2026-04-19T12:37:46.49Z</time></trkpt><trkpt lat="45.035557" lon="7.9851463"><ele>281.0</ele><time>2026-04-19T12:37:47.489Z</time></trkpt><trkpt lat="45.0356418" lon="7.9852578"><ele>280.25</ele><time>2026-04-19T12:37:48.49Z</time></trkpt><trkpt lat="45.0357087" lon="7.9853884"><ele>279.5</ele><time>2026-04-19T12:37:49.49Z</time></trkpt><trkpt lat="45.035803" lon="7.9855273"><ele>278.75</ele><time>2026-04-19T12:37:50.489Z</time></trkpt><trkpt lat="45.0359237" lon="7.9856283"><ele>278.0</ele><time>2026-04-19T12:37:51.489Z</time></trkpt><trkpt lat="45.0360462" lon="7.9857018"><ele>280.6666666666667</ele><time>2026-04-19T12:37:52.489Z</time></trkpt><trkpt lat="45.0361907" lon="7.9857425"><ele>283.3333333333333</ele><time>2026-04-19T12:37:53.489Z</time></trkpt><trkpt lat="45.0363528" lon="7.9857582"><ele>286.0</ele><time>2026-04-19T12:37:54.49Z</time></trkpt><trkpt lat="45.0365143" lon="7.9857624"><ele>287.5</ele><time>2026-04-19T12:37:55.49Z</time></trkpt><trkpt lat="45.0366744" lon="7.9857706"><ele>289.0</ele><time>2026-04-19T12:37:56.489Z</time></trkpt><trkpt lat="45.0368127" lon="7.9857779"><ele>290.5</ele><time>2026-04-19T12:37:57.49Z</time></trkpt><trkpt lat="45.0369609" lon="7.9857524"><ele>292.0</ele><time>2026-04-19T12:37:58.489Z</time></trkpt><trkpt lat="45.0370898" lon="7.9857033"><ele>292.0</ele><time>2026-04-19T12:37:59.489Z</time></trkpt><trkpt lat="45.0372184" lon="7.9856079"><ele>292.0</ele><time>2026-04-19T12:38:00.49Z</time></trkpt><trkpt lat="45.0373555" lon="7.9854414"><ele>292.0</ele><time>2026-04-19T12:38:01.489Z</time></trkpt><trkpt lat="45.0374745" lon="7.9853138"><ele>293.25</ele><time>2026-04-19T12:38:02.489Z</time></trkpt><trkpt lat="45.0376125" lon="7.9852231"><ele>294.5</ele><time>2026-04-19T12:38:03.49Z</time></trkpt><trkpt lat="45.0377428" lon="7.9851533"><ele>295.75</ele><time>2026-04-19T12:38:04.49Z</time></trkpt><trkpt lat="45.0378753" lon="7.9850885"><ele>297.0</ele><time>2026-04-19T12:38:05.489Z</time></trkpt><trkpt lat="45.0380259" lon="7.9851514"><ele>297.0</ele><time>2026-04-19T12:38:06.49Z</time></trkpt><trkpt lat="45.0381732" lon="7.9851194"><ele>297.0</ele><time>2026-04-19T12:38:07.49Z</time></trkpt><trkpt lat="45.0383234" lon="7.984992"><ele>297.0</ele><time>2026-04-19T12:38:08.489Z</time></trkpt><trkpt lat="45.0384609" lon="7.9849113"><ele>294.3333333333333</ele><time>2026-04-19T12:38:09.489Z</time></trkpt><trkpt lat="45.0386081" lon="7.9848523"><ele>291.66666666666663</ele><time>2026-04-19T12:38:10.489Z</time></trkpt><trkpt lat="45.0387391" lon="7.9847616"><ele>289.0</ele><time>2026-04-19T12:38:11.489Z</time></trkpt><trkpt lat="45.0388997" lon="7.984595"><ele>289.0</ele><time>2026-04-19T12:38:12.489Z</time></trkpt><trkpt lat="45.0390332" lon="7.9844956"><ele>289.0</ele><time>2026-04-19T12:38:13.489Z</time></trkpt><trkpt lat="45.0391794" lon="7.9843937"><ele>289.0</ele><time>2026-04-19T12:38:14.489Z</time></trkpt><trkpt lat="45.0393279" lon="7.984246"><ele>291.0</ele><time>2026-04-19T12:38:15.489Z</time></trkpt><trkpt lat="45.0394828" lon="7.9841323"><ele>293.0</ele><time>2026-04-19T12:38:16.489Z</time></trkpt><trkpt lat="45.039629" lon="7.9839995"><ele>295.0</ele><time>2026-04-19T12:38:17.489Z</time></trkpt><trkpt lat="45.0397686" lon="7.9838673"><ele>295.0</ele><time>2026-04-19T12:38:18.49Z</time></trkpt><trkpt lat="45.0399115" lon="7.9837386"><ele>295.0</ele><time>2026-04-19T12:38:19.489Z</time></trkpt><trkpt lat="45.0400594" lon="7.9836066"><ele>295.0</ele><time>2026-04-19T12:38:20.489Z</time></trkpt><trkpt lat="45.0401952" lon="7.9835008"><ele>295.0</ele><time>2026-04-19T12:38:21.489Z</time></trkpt><trkpt lat="45.0403289" lon="7.9833925"><ele>295.0</ele><time>2026-04-19T12:38:22.489Z</time></trkpt><trkpt lat="45.0404694" lon="7.9833106"><ele>295.0</ele><time>2026-04-19T12:38:23.49Z</time></trkpt><trkpt lat="45.0406182" lon="7.9832167"><ele>294.5</ele><time>2026-04-19T12:38:24.489Z</time></trkpt><trkpt lat="45.0407467" lon="7.9831674"><ele>294.0</ele><time>2026-04-19T12:38:25.49Z</time></trkpt><trkpt lat="45.0408683" lon="7.9831005"><ele>293.5</ele><time>2026-04-19T12:38:26.489Z</time></trkpt><trkpt lat="45.0409914" lon="7.98302"><ele>293.0</ele><time>2026-04-19T12:38:27.489Z</time></trkpt><trkpt lat="45.0411088" lon="7.9829308"><ele>293.0</ele><time>2026-04-19T12:38:28.489Z</time></trkpt><trkpt lat="45.0412072" lon="7.9828286"><ele>293.0</ele><time>2026-04-19T12:38:29.489Z</time></trkpt><trkpt lat="45.0413123" lon="7.9826875"><ele>293.0</ele><time>2026-04-19T12:38:30.489Z</time></trkpt><trkpt lat="45.0413884" lon="7.9825361"><ele>293.0</ele><time>2026-04-19T12:38:31.489Z</time></trkpt><trkpt lat="45.0414619" lon="7.9823738"><ele>293.5</ele><time>2026-04-19T12:38:32.489Z</time></trkpt><trkpt lat="45.0415191" lon="7.9822063"><ele>294.0</ele><time>2026-04-19T12:38:33.489Z</time></trkpt><trkpt lat="45.0415772" lon="7.9820223"><ele>294.5</ele><time>2026-04-19T12:38:34.489Z</time></trkpt><trkpt lat="45.0415997" lon="7.9818691"><ele>295.0</ele><time>2026-04-19T12:38:35.489Z</time></trkpt><trkpt lat="45.041602" lon="7.9816656"><ele>295.0</ele><time>2026-04-19T12:38:36.489Z</time></trkpt><trkpt lat="45.0415874" lon="7.9814821"><ele>295.0</ele><time>2026-04-19T12:38:37.49Z</time></trkpt><trkpt lat="45.0415076" lon="7.9813114"><ele>295.0</ele><time>2026-04-19T12:38:38.489Z</time></trkpt><trkpt lat="45.041467" lon="7.9811077"><ele>295.0</ele><time>2026-04-19T12:38:39.489Z</time></trkpt><trkpt lat="45.041426" lon="7.9808895"><ele>291.66666666666663</ele><time>2026-04-19T12:38:40.49Z</time></trkpt><trkpt lat="45.0413696" lon="7.9806822"><ele>288.3333333333333</ele><time>2026-04-19T12:38:41.489Z</time></trkpt><trkpt lat="45.0413384" lon="7.980462"><ele>285.0</ele><time>2026-04-19T12:38:42.489Z</time></trkpt><trkpt lat="45.0412973" lon="7.9802813"><ele>285.0</ele><time>2026-04-19T12:38:43.49Z</time></trkpt><trkpt lat="45.0412759" lon="7.9801301"><ele>285.0</ele><time>2026-04-19T12:38:44.489Z</time></trkpt><trkpt lat="45.0412426" lon="7.9800007"><ele>285.0</ele><time>2026-04-19T12:38:45.489Z</time></trkpt><trkpt lat="45.0412398" lon="7.9798819"><ele>285.0</ele><time>2026-04-19T12:38:46.489Z</time></trkpt><trkpt lat="45.0412577" lon="7.9797674"><ele>285.0</ele><time>2026-04-19T12:38:47.49Z</time></trkpt><trkpt lat="45.041301" lon="7.9796543"><ele>285.0</ele><time>2026-04-19T12:38:49.489Z</time></trkpt><trkpt lat="45.0414047" lon="7.9796252"><ele>285.0</ele><time>2026-04-19T12:38:51.489Z</time></trkpt><trkpt lat="45.0414231" lon="7.9797881"><ele>285.0</ele><time>2026-04-19T12:38:53.489Z</time></trkpt><trkpt lat="45.0414393" lon="7.9798958"><ele>285.0</ele><time>2026-04-19T12:38:54.489Z</time></trkpt><trkpt lat="45.0414427" lon="7.9800092"><ele>285.0</ele><time>2026-04-19T12:38:55.49Z</time></trkpt><trkpt lat="45.0414645" lon="7.980155"><ele>285.0</ele><time>2026-04-19T12:38:56.489Z</time></trkpt><trkpt lat="45.0414792" lon="7.9803307"><ele>285.0</ele><time>2026-04-19T12:38:57.489Z</time></trkpt><trkpt lat="45.0415103" lon="7.9805232"><ele>285.0</ele><time>2026-04-19T12:38:58.489Z</time></trkpt><trkpt lat="45.041552" lon="7.9807291"><ele>285.0</ele><time>2026-04-19T12:38:59.489Z</time></trkpt><trkpt lat="45.0415956" lon="7.9809332"><ele>287.0</ele><time>2026-04-19T12:39:00.489Z</time></trkpt><trkpt lat="45.0416387" lon="7.9811215"><ele>289.0</ele><time>2026-04-19T12:39:01.489Z</time></trkpt><trkpt lat="45.0419837" lon="7.9826294"><ele>283.0</ele><time>2026-04-19T12:39:08.489Z</time></trkpt><trkpt lat="45.0420023" lon="7.9828521"><ele>277.0</ele><time>2026-04-19T12:39:09.489Z</time></trkpt><trkpt lat="45.0420731" lon="7.9830973"><ele>271.0</ele><time>2026-04-19T12:39:10.489Z</time></trkpt><trkpt lat="45.0420207" lon="7.9833004"><ele>270.3333333333333</ele><time>2026-04-19T12:39:11.49Z</time></trkpt><trkpt lat="45.0419426" lon="7.9835067"><ele>269.6666666666667</ele><time>2026-04-19T12:39:12.49Z</time></trkpt><trkpt lat="45.0418832" lon="7.9837018"><ele>269.0</ele><time>2026-04-19T12:39:13.49Z</time></trkpt><trkpt lat="45.041807" lon="7.9839301"><ele>269.0</ele><time>2026-04-19T12:39:14.489Z</time></trkpt><trkpt lat="45.0416833" lon="7.9841126"><ele>269.0</ele><time>2026-04-19T12:39:15.489Z</time></trkpt><trkpt lat="45.0415403" lon="7.9842971"><ele>269.0</ele><time>2026-04-19T12:39:16.49Z</time></trkpt><trkpt lat="45.0414085" lon="7.9844815"><ele>269.0</ele><time>2026-04-19T12:39:17.49Z</time></trkpt><trkpt lat="45.0413053" lon="7.984673"><ele>269.0</ele><time>2026-04-19T12:39:18.489Z</time></trkpt><trkpt lat="45.0411941" lon="7.9848913"><ele>269.0</ele><time>2026-04-19T12:39:19.49Z</time></trkpt><trkpt lat="45.0410883" lon="7.9851047"><ele>267.6666666666667</ele><time>2026-04-19T12:39:20.489Z</time></trkpt><trkpt lat="45.0409898" lon="7.9853086"><ele>266.3333333333333</ele><time>2026-04-19T12:39:21.489Z</time></trkpt><trkpt lat="45.0408982" lon="7.9854971"><ele>265.0</ele><time>2026-04-19T12:39:22.489Z</time></trkpt><trkpt lat="45.0408051" lon="7.9856918"><ele>263.66666666666663</ele><time>2026-04-19T12:39:23.489Z</time></trkpt><trkpt lat="45.0407112" lon="7.9858908"><ele>262.3333333333333</ele><time>2026-04-19T12:39:24.49Z</time></trkpt><trkpt lat="45.0406245" lon="7.9860816"><ele>261.0</ele><time>2026-04-19T12:39:25.489Z</time></trkpt><trkpt lat="45.040527" lon="7.986278"><ele>261.0</ele><time>2026-04-19T12:39:26.49Z</time></trkpt><trkpt lat="45.0404354" lon="7.9864744"><ele>261.0</ele><time>2026-04-19T12:39:27.489Z</time></trkpt><trkpt lat="45.0403431" lon="7.9866773"><ele>261.0</ele><time>2026-04-19T12:39:28.489Z</time></trkpt><trkpt lat="45.0402465" lon="7.9868762"><ele>262.6666666666667</ele><time>2026-04-19T12:39:29.489Z</time></trkpt><trkpt lat="45.0401401" lon="7.9870507"><ele>264.33333333333337</ele><time>2026-04-19T12:39:30.49Z</time></trkpt><trkpt lat="45.0400229" lon="7.9872188"><ele>266.0</ele><time>2026-04-19T12:39:31.489Z</time></trkpt><trkpt lat="45.039902" lon="7.9873713"><ele>264.6666666666667</ele><time>2026-04-19T12:39:32.489Z</time></trkpt><trkpt lat="45.0397719" lon="7.9875191"><ele>263.3333333333333</ele><time>2026-04-19T12:39:33.489Z</time></trkpt><trkpt lat="45.0396401" lon="7.9876738"><ele>262.0</ele><time>2026-04-19T12:39:34.489Z</time></trkpt><trkpt lat="45.039495" lon="7.9877835"><ele>262.0</ele><time>2026-04-19T12:39:35.489Z</time></trkpt><trkpt lat="45.0393493" lon="7.9879201"><ele>262.0</ele><time>2026-04-19T12:39:36.49Z</time></trkpt><trkpt lat="45.0391828" lon="7.9880118"><ele>262.0</ele><time>2026-04-19T12:39:37.489Z</time></trkpt><trkpt lat="45.0390383" lon="7.98809"><ele>262.3333333333333</ele><time>2026-04-19T12:39:38.49Z</time></trkpt><trkpt lat="45.0388814" lon="7.9881836"><ele>262.6666666666667</ele><time>2026-04-19T12:39:39.49Z</time></trkpt><trkpt lat="45.0387412" lon="7.9882716"><ele>263.0</ele><time>2026-04-19T12:39:40.489Z</time></trkpt><trkpt lat="45.0386037" lon="7.9883531"><ele>263.0</ele><time>2026-04-19T12:39:41.49Z</time></trkpt><trkpt lat="45.0384421" lon="7.9884283"><ele>263.0</ele><time>2026-04-19T12:39:42.489Z</time></trkpt><trkpt lat="45.0383035" lon="7.9885243"><ele>263.0</ele><time>2026-04-19T12:39:43.489Z</time></trkpt><trkpt lat="45.0381649" lon="7.988645"><ele>258.0</ele><time>2026-04-19T12:39:44.489Z</time></trkpt><trkpt lat="45.038039" lon="7.9887794"><ele>253.0</ele><time>2026-04-19T12:39:45.489Z</time></trkpt><trkpt lat="45.037925" lon="7.9889186"><ele>248.0</ele><time>2026-04-19T12:39:46.489Z</time></trkpt><trkpt lat="45.0378329" lon="7.9890912"><ele>250.66666666666669</ele><time>2026-04-19T12:39:47.49Z</time></trkpt><trkpt lat="45.0377234" lon="7.989269"><ele>253.33333333333331</ele><time>2026-04-19T12:39:48.489Z</time></trkpt><trkpt lat="45.0376283" lon="7.9894392"><ele>256.0</ele><time>2026-04-19T12:39:49.49Z</time></trkpt><trkpt lat="45.0375405" lon="7.9896204"><ele>255.0</ele><time>2026-04-19T12:39:50.489Z</time></trkpt><trkpt lat="45.0374668" lon="7.9897679"><ele>254.0</ele><time>2026-04-19T12:39:51.489Z</time></trkpt><trkpt lat="45.0374056" lon="7.9899425"><ele>253.0</ele><time>2026-04-19T12:39:52.489Z</time></trkpt><trkpt lat="45.0373491" lon="7.9900954"><ele>252.0</ele><time>2026-04-19T12:39:53.489Z</time></trkpt><trkpt lat="45.0372752" lon="7.9902586"><ele>253.0</ele><time>2026-04-19T12:39:54.489Z</time></trkpt><trkpt lat="45.0372122" lon="7.9904141"><ele>254.0</ele><time>2026-04-19T12:39:55.489Z</time></trkpt><trkpt lat="45.0371489" lon="7.9905656"><ele>255.0</ele><time>2026-04-19T12:39:56.49Z</time></trkpt><trkpt lat="45.0371256" lon="7.9907346"><ele>256.0</ele><time>2026-04-19T12:39:57.49Z</time></trkpt><trkpt lat="45.037111" lon="7.9909193"><ele>256.0</ele><time>2026-04-19T12:39:58.489Z</time></trkpt><trkpt lat="45.0371247" lon="7.9911236"><ele>256.0</ele><time>2026-04-19T12:39:59.489Z</time></trkpt><trkpt lat="45.0371458" lon="7.9913248"><ele>256.0</ele><time>2026-04-19T12:40:00.489Z</time></trkpt><trkpt lat="45.037219" lon="7.9915305"><ele>253.66666666666666</ele><time>2026-04-19T12:40:01.489Z</time></trkpt><trkpt lat="45.037273" lon="7.9917542"><ele>251.33333333333331</ele><time>2026-04-19T12:40:02.489Z</time></trkpt><trkpt lat="45.0373189" lon="7.9919547"><ele>249.0</ele><time>2026-04-19T12:40:03.489Z</time></trkpt><trkpt lat="45.0373807" lon="7.9922091"><ele>249.0</ele><time>2026-04-19T12:40:04.489Z</time></trkpt><trkpt lat="45.0374368" lon="7.992442"><ele>249.0</ele><time>2026-04-19T12:40:05.489Z</time></trkpt><trkpt lat="45.037487" lon="7.9926797"><ele>249.0</ele><time>2026-04-19T12:40:06.49Z</time></trkpt><trkpt lat="45.0375405" lon="7.9929126"><ele>248.0</ele><time>2026-04-19T12:40:07.49Z</time></trkpt><trkpt lat="45.0375861" lon="7.9931446"><ele>247.0</ele><time>2026-04-19T12:40:08.489Z</time></trkpt><trkpt lat="45.0376284" lon="7.9933524"><ele>246.0</ele><time>2026-04-19T12:40:09.489Z</time></trkpt><trkpt lat="45.0376714" lon="7.9935595"><ele>245.66666666666669</ele><time>2026-04-19T12:40:10.489Z</time></trkpt><trkpt lat="45.0377193" lon="7.9937953"><ele>245.33333333333334</ele><time>2026-04-19T12:40:11.489Z</time></trkpt><trkpt lat="45.0377682" lon="7.9940108"><ele>245.0</ele><time>2026-04-19T12:40:12.49Z</time></trkpt><trkpt lat="45.0378147" lon="7.9941866"><ele>244.6</ele><time>2026-04-19T12:40:13.489Z</time></trkpt><trkpt lat="45.0378644" lon="7.9943849"><ele>244.2</ele><time>2026-04-19T12:40:15.49Z</time></trkpt><trkpt lat="45.0378951" lon="7.9944767"><ele>243.8</ele><time>2026-04-19T12:40:16.489Z</time></trkpt><trkpt lat="45.0379235" lon="7.9945683"><ele>243.4</ele><time>2026-04-19T12:40:17.489Z</time></trkpt><trkpt lat="45.0380369" lon="7.9945193"><ele>243.0</ele><time>2026-04-19T12:40:19.49Z</time></trkpt><trkpt lat="45.0380873" lon="7.9944491"><ele>243.0</ele><time>2026-04-19T12:40:20.489Z</time></trkpt><trkpt lat="45.038131" lon="7.9943568"><ele>243.0</ele><time>2026-04-19T12:40:21.489Z</time></trkpt><trkpt lat="45.0381783" lon="7.9942284"><ele>243.0</ele><time>2026-04-19T12:40:22.49Z</time></trkpt><trkpt lat="45.0382405" lon="7.9940975"><ele>243.0</ele><time>2026-04-19T12:40:23.489Z</time></trkpt><trkpt lat="45.0383164" lon="7.9939671"><ele>243.0</ele><time>2026-04-19T12:40:24.489Z</time></trkpt><trkpt lat="45.0383986" lon="7.9938144"><ele>244.5</ele><time>2026-04-19T12:40:25.489Z</time></trkpt><trkpt lat="45.0384867" lon="7.9936822"><ele>246.0</ele><time>2026-04-19T12:40:26.49Z</time></trkpt><trkpt lat="45.0385706" lon="7.9935389"><ele>247.5</ele><time>2026-04-19T12:40:27.49Z</time></trkpt><trkpt lat="45.0386644" lon="7.9933826"><ele>249.0</ele><time>2026-04-19T12:40:28.489Z</time></trkpt><trkpt lat="45.0387541" lon="7.9932405"><ele>249.0</ele><time>2026-04-19T12:40:29.49Z</time></trkpt><trkpt lat="45.0388615" lon="7.9931116"><ele>249.0</ele><time>2026-04-19T12:40:30.489Z</time></trkpt><trkpt lat="45.0389622" lon="7.992988"><ele>249.0</ele><time>2026-04-19T12:40:31.49Z</time></trkpt><trkpt lat="45.0390797" lon="7.9928639"><ele>249.0</ele><time>2026-04-19T12:40:32.49Z</time></trkpt><trkpt lat="45.0392023" lon="7.9927337"><ele>250.0</ele><time>2026-04-19T12:40:33.489Z</time></trkpt><trkpt lat="45.0393292" lon="7.9926245"><ele>251.0</ele><time>2026-04-19T12:40:34.49Z</time></trkpt><trkpt lat="45.0394538" lon="7.9924961"><ele>252.0</ele><time>2026-04-19T12:40:35.489Z</time></trkpt><trkpt lat="45.0395618" lon="7.9923627"><ele>253.0</ele><time>2026-04-19T12:40:36.49Z</time></trkpt><trkpt lat="45.0396867" lon="7.9922412"><ele>253.0</ele><time>2026-04-19T12:40:37.49Z</time></trkpt><trkpt lat="45.0398038" lon="7.9921041"><ele>253.0</ele><time>2026-04-19T12:40:38.489Z</time></trkpt><trkpt lat="45.039933" lon="7.9919879"><ele>253.0</ele><time>2026-04-19T12:40:39.49Z</time></trkpt><trkpt lat="45.0400682" lon="7.9918476"><ele>254.0</ele><time>2026-04-19T12:40:40.489Z</time></trkpt><trkpt lat="45.0401981" lon="7.9917158"><ele>255.0</ele><time>2026-04-19T12:40:41.489Z</time></trkpt><trkpt lat="45.0403248" lon="7.9916031"><ele>256.0</ele><time>2026-04-19T12:40:42.489Z</time></trkpt><trkpt lat="45.0404539" lon="7.9915267"><ele>257.0</ele><time>2026-04-19T12:40:43.49Z</time></trkpt><trkpt lat="45.0405852" lon="7.9914471"><ele>257.0</ele><time>2026-04-19T12:40:44.489Z</time></trkpt><trkpt lat="45.0407243" lon="7.9913253"><ele>257.0</ele><time>2026-04-19T12:40:45.49Z</time></trkpt><trkpt lat="45.0408703" lon="7.9912446"><ele>257.0</ele><time>2026-04-19T12:40:46.489Z</time></trkpt><trkpt lat="45.0410129" lon="7.9911722"><ele>260.0</ele><time>2026-04-19T12:40:47.489Z</time></trkpt><trkpt lat="45.0411568" lon="7.9911564"><ele>263.0</ele><time>2026-04-19T12:40:48.489Z</time></trkpt><trkpt lat="45.041294" lon="7.991083"><ele>266.0</ele><time>2026-04-19T12:40:49.489Z</time></trkpt><trkpt lat="45.0414319" lon="7.9910499"><ele>269.0</ele><time>2026-04-19T12:40:50.489Z</time></trkpt><trkpt lat="45.0415492" lon="7.99104"><ele>270.75</ele><time>2026-04-19T12:40:51.489Z</time></trkpt><trkpt lat="45.0417048" lon="7.9910733"><ele>272.5</ele><time>2026-04-19T12:40:52.49Z</time></trkpt><trkpt lat="45.0418487" lon="7.9910966"><ele>274.25</ele><time>2026-04-19T12:40:53.489Z</time></trkpt><trkpt lat="45.0419841" lon="7.9911253"><ele>276.0</ele><time>2026-04-19T12:40:54.489Z</time></trkpt><trkpt lat="45.0421228" lon="7.991142"><ele>276.0</ele><time>2026-04-19T12:40:55.489Z</time></trkpt><trkpt lat="45.0422649" lon="7.9911434"><ele>276.0</ele><time>2026-04-19T12:40:56.489Z</time></trkpt><trkpt lat="45.0423741" lon="7.9911101"><ele>276.0</ele><time>2026-04-19T12:40:57.489Z</time></trkpt><trkpt lat="45.0424958" lon="7.9910852"><ele>276.0</ele><time>2026-04-19T12:40:58.489Z</time></trkpt><trkpt lat="45.0426036" lon="7.9910129"><ele>272.0</ele><time>2026-04-19T12:40:59.49Z</time></trkpt><trkpt lat="45.042725" lon="7.9908664"><ele>268.0</ele><time>2026-04-19T12:41:00.489Z</time></trkpt><trkpt lat="45.0428495" lon="7.9907168"><ele>264.0</ele><time>2026-04-19T12:41:01.49Z</time></trkpt><trkpt lat="45.0429883" lon="7.9905777"><ele>264.0</ele><time>2026-04-19T12:41:02.49Z</time></trkpt><trkpt lat="45.0431362" lon="7.9904426"><ele>264.0</ele><time>2026-04-19T12:41:03.489Z</time></trkpt><trkpt lat="45.043278" lon="7.9902835"><ele>264.0</ele><time>2026-04-19T12:41:04.489Z</time></trkpt><trkpt lat="45.0434264" lon="7.9901295"><ele>264.3333333333333</ele><time>2026-04-19T12:41:05.489Z</time></trkpt><trkpt lat="45.0435619" lon="7.9899973"><ele>264.66666666666663</ele><time>2026-04-19T12:41:06.489Z</time></trkpt><trkpt lat="45.043724" lon="7.9898286"><ele>265.0</ele><time>2026-04-19T12:41:07.49Z</time></trkpt><trkpt lat="45.0438694" lon="7.9896874"><ele>265.0</ele><time>2026-04-19T12:41:08.489Z</time></trkpt><trkpt lat="45.0440288" lon="7.9895783"><ele>265.0</ele><time>2026-04-19T12:41:09.489Z</time></trkpt><trkpt lat="45.0441747" lon="7.9895005"><ele>265.0</ele><time>2026-04-19T12:41:10.489Z</time></trkpt><trkpt lat="45.0443251" lon="7.9894698"><ele>266.75</ele><time>2026-04-19T12:41:11.49Z</time></trkpt><trkpt lat="45.0444767" lon="7.9894836"><ele>268.5</ele><time>2026-04-19T12:41:12.489Z</time></trkpt><trkpt lat="45.0446265" lon="7.9894397"><ele>270.25</ele><time>2026-04-19T12:41:13.489Z</time></trkpt><trkpt lat="45.0447532" lon="7.9894241"><ele>272.0</ele><time>2026-04-19T12:41:14.49Z</time></trkpt><trkpt lat="45.0448818" lon="7.9893879"><ele>272.75</ele><time>2026-04-19T12:41:15.489Z</time></trkpt><trkpt lat="45.045008" lon="7.9892966"><ele>273.5</ele><time>2026-04-19T12:41:16.489Z</time></trkpt><trkpt lat="45.0451346" lon="7.9891836"><ele>274.25</ele><time>2026-04-19T12:41:17.489Z</time></trkpt><trkpt lat="45.0452486" lon="7.9890592"><ele>275.0</ele><time>2026-04-19T12:41:18.489Z</time></trkpt><trkpt lat="45.0453544" lon="7.9889248"><ele>275.5</ele><time>2026-04-19T12:41:19.489Z</time></trkpt><trkpt lat="45.0454716" lon="7.9888044"><ele>276.0</ele><time>2026-04-19T12:41:20.489Z</time></trkpt><trkpt lat="45.0455952" lon="7.9886988"><ele>276.5</ele><time>2026-04-19T12:41:21.489Z</time></trkpt><trkpt lat="45.0457411" lon="7.9886681"><ele>277.0</ele><time>2026-04-19T12:41:22.489Z</time></trkpt><trkpt lat="45.0458726" lon="7.9885819"><ele>278.75</ele><time>2026-04-19T12:41:23.489Z</time></trkpt><trkpt lat="45.0460149" lon="7.9884888"><ele>280.5</ele><time>2026-04-19T12:41:24.489Z</time></trkpt><trkpt lat="45.0461529" lon="7.9884061"><ele>282.25</ele><time>2026-04-19T12:41:25.49Z</time></trkpt><trkpt lat="45.0462866" lon="7.9883522"><ele>284.0</ele><time>2026-04-19T12:41:26.49Z</time></trkpt><trkpt lat="45.0464509" lon="7.9883388"><ele>284.0</ele><time>2026-04-19T12:41:27.489Z</time></trkpt><trkpt lat="45.046614" lon="7.9883178"><ele>284.0</ele><time>2026-04-19T12:41:28.49Z</time></trkpt><trkpt lat="45.0467772" lon="7.988297"><ele>284.0</ele><time>2026-04-19T12:41:29.489Z</time></trkpt><trkpt lat="45.0469668" lon="7.9883355"><ele>288.0</ele><time>2026-04-19T12:41:30.489Z</time></trkpt><trkpt lat="45.0471482" lon="7.9883539"><ele>292.0</ele><time>2026-04-19T12:41:31.489Z</time></trkpt><trkpt lat="45.0473117" lon="7.9883407"><ele>296.0</ele><time>2026-04-19T12:41:32.49Z</time></trkpt><trkpt lat="45.0474896" lon="7.9883392"><ele>297.0</ele><time>2026-04-19T12:41:33.489Z</time></trkpt><trkpt lat="45.0476617" lon="7.988345"><ele>298.0</ele><time>2026-04-19T12:41:34.49Z</time></trkpt><trkpt lat="45.0478285" lon="7.9883344"><ele>299.0</ele><time>2026-04-19T12:41:35.489Z</time></trkpt><trkpt lat="45.0480026" lon="7.9883533"><ele>299.0</ele><time>2026-04-19T12:41:36.49Z</time></trkpt><trkpt lat="45.0481691" lon="7.9882975"><ele>299.0</ele><time>2026-04-19T12:41:37.49Z</time></trkpt><trkpt lat="45.0483059" lon="7.9881977"><ele>299.0</ele><time>2026-04-19T12:41:38.489Z</time></trkpt><trkpt lat="45.048459" lon="7.9881047"><ele>299.6666666666667</ele><time>2026-04-19T12:41:39.49Z</time></trkpt><trkpt lat="45.0486093" lon="7.9879546"><ele>300.3333333333333</ele><time>2026-04-19T12:41:40.489Z</time></trkpt><trkpt lat="45.0487528" lon="7.9877979"><ele>301.0</ele><time>2026-04-19T12:41:41.489Z</time></trkpt><trkpt lat="45.0489049" lon="7.9876683"><ele>301.0</ele><time>2026-04-19T12:41:42.489Z</time></trkpt><trkpt lat="45.0490624" lon="7.9875278"><ele>301.0</ele><time>2026-04-19T12:41:43.489Z</time></trkpt><trkpt lat="45.0492089" lon="7.9874029"><ele>301.0</ele><time>2026-04-19T12:41:44.489Z</time></trkpt><trkpt lat="45.0493727" lon="7.9873175"><ele>304.3333333333333</ele><time>2026-04-19T12:41:45.489Z</time></trkpt><trkpt lat="45.0495468" lon="7.9872213"><ele>307.6666666666667</ele><time>2026-04-19T12:41:46.489Z</time></trkpt><trkpt lat="45.049707" lon="7.9871801"><ele>311.0</ele><time>2026-04-19T12:41:47.49Z</time></trkpt><trkpt lat="45.0498725" lon="7.9870748"><ele>313.0</ele><time>2026-04-19T12:41:48.49Z</time></trkpt><trkpt lat="45.0500277" lon="7.9870284"><ele>315.0</ele><time>2026-04-19T12:41:49.489Z</time></trkpt><trkpt lat="45.0501626" lon="7.9869415"><ele>317.0</ele><time>2026-04-19T12:41:50.489Z</time></trkpt><trkpt lat="45.0503344" lon="7.9868719"><ele>317.0</ele><time>2026-04-19T12:41:51.489Z</time></trkpt><trkpt lat="45.0504907" lon="7.9868734"><ele>317.0</ele><time>2026-04-19T12:41:52.489Z</time></trkpt><trkpt lat="45.050693" lon="7.986905"><ele>317.0</ele><time>2026-04-19T12:41:53.489Z</time></trkpt><trkpt lat="45.0508617" lon="7.9868935"><ele>318.0</ele><time>2026-04-19T12:41:54.489Z</time></trkpt><trkpt lat="45.0510346" lon="7.9868931"><ele>319.0</ele><time>2026-04-19T12:41:55.489Z</time></trkpt><trkpt lat="45.0512256" lon="7.9868797"><ele>320.0</ele><time>2026-04-19T12:41:56.49Z</time></trkpt><trkpt lat="45.0514065" lon="7.9868692"><ele>320.0</ele><time>2026-04-19T12:41:57.489Z</time></trkpt><trkpt lat="45.0515561" lon="7.9868494"><ele>320.0</ele><time>2026-04-19T12:41:58.49Z</time></trkpt><trkpt lat="45.0517293" lon="7.9868206"><ele>320.0</ele><time>2026-04-19T12:41:59.49Z</time></trkpt><trkpt lat="45.0519128" lon="7.9868156"><ele>321.6666666666667</ele><time>2026-04-19T12:42:00.49Z</time></trkpt><trkpt lat="45.0521014" lon="7.9868024"><ele>323.3333333333333</ele><time>2026-04-19T12:42:01.489Z</time></trkpt><trkpt lat="45.0522845" lon="7.9867911"><ele>325.0</ele><time>2026-04-19T12:42:02.49Z</time></trkpt><trkpt lat="45.0524654" lon="7.9867688"><ele>331.3333333333333</ele><time>2026-04-19T12:42:03.49Z</time></trkpt><trkpt lat="45.0526372" lon="7.9867524"><ele>337.6666666666667</ele><time>2026-04-19T12:42:04.489Z</time></trkpt><trkpt lat="45.0528053" lon="7.9867231"><ele>344.0</ele><time>2026-04-19T12:42:05.489Z</time></trkpt><trkpt lat="45.0529706" lon="7.9867037"><ele>342.33333333333337</ele><time>2026-04-19T12:42:06.489Z</time></trkpt><trkpt lat="45.053136" lon="7.9866775"><ele>340.6666666666667</ele><time>2026-04-19T12:42:07.489Z</time></trkpt><trkpt lat="45.0533039" lon="7.9866609"><ele>339.0</ele><time>2026-04-19T12:42:08.49Z</time></trkpt><trkpt lat="45.0534645" lon="7.9866458"><ele>342.6666666666667</ele><time>2026-04-19T12:42:09.489Z</time></trkpt><trkpt lat="45.0536325" lon="7.9866264"><ele>346.33333333333337</ele><time>2026-04-19T12:42:10.489Z</time></trkpt><trkpt lat="45.0537896" lon="7.9866091"><ele>350.0</ele><time>2026-04-19T12:42:11.489Z</time></trkpt><trkpt lat="45.0539152" lon="7.9865935"><ele>350.0</ele><time>2026-04-19T12:42:12.489Z</time></trkpt><trkpt lat="45.0540492" lon="7.9865862"><ele>350.0</ele><time>2026-04-19T12:42:13.49Z</time></trkpt><trkpt lat="45.0541838" lon="7.9865664"><ele>350.0</ele><time>2026-04-19T12:42:14.489Z</time></trkpt><trkpt lat="45.0542954" lon="7.9865556"><ele>350.0</ele><time>2026-04-19T12:42:15.489Z</time></trkpt><trkpt lat="45.0544088" lon="7.9865354"><ele>350.6</ele><time>2026-04-19T12:42:16.489Z</time></trkpt><trkpt lat="45.0544889" lon="7.9864914"><ele>351.2</ele><time>2026-04-19T12:42:17.49Z</time></trkpt><trkpt lat="45.0545701" lon="7.9864417"><ele>351.79999999999995</ele><time>2026-04-19T12:42:18.489Z</time></trkpt><trkpt lat="45.0546607" lon="7.9864053"><ele>352.4</ele><time>2026-04-19T12:42:19.489Z</time></trkpt><trkpt lat="45.0547461" lon="7.9863797"><ele>353.0</ele><time>2026-04-19T12:42:20.49Z</time></trkpt><trkpt lat="45.0548406" lon="7.9863232"><ele>353.0</ele><time>2026-04-19T12:42:21.489Z</time></trkpt><trkpt lat="45.0549361" lon="7.986236"><ele>353.0</ele><time>2026-04-19T12:42:22.489Z</time></trkpt><trkpt lat="45.0550194" lon="7.9861795"><ele>353.0</ele><time>2026-04-19T12:42:23.489Z</time></trkpt><trkpt lat="45.0551279" lon="7.9860953"><ele>353.0</ele><time>2026-04-19T12:42:24.49Z</time></trkpt><trkpt lat="45.0552346" lon="7.9860521"><ele>353.0</ele><time>2026-04-19T12:42:25.489Z</time></trkpt><trkpt lat="45.0553499" lon="7.9859708"><ele>352.0</ele><time>2026-04-19T12:42:26.489Z</time></trkpt><trkpt lat="45.0554575" lon="7.9859124"><ele>351.0</ele><time>2026-04-19T12:42:27.489Z</time></trkpt><trkpt lat="45.0555403" lon="7.9858569"><ele>350.0</ele><time>2026-04-19T12:42:28.489Z</time></trkpt><trkpt lat="45.0556404" lon="7.9857804"><ele>349.0</ele><time>2026-04-19T12:42:29.489Z</time></trkpt><trkpt lat="45.0557467" lon="7.9857123"><ele>348.0</ele><time>2026-04-19T12:42:30.489Z</time></trkpt><trkpt lat="45.0558458" lon="7.9856075"><ele>351.5</ele><time>2026-04-19T12:42:31.49Z</time></trkpt><trkpt lat="45.0559399" lon="7.9855001"><ele>355.0</ele><time>2026-04-19T12:42:32.489Z</time></trkpt><trkpt lat="45.0560431" lon="7.9854126"><ele>358.5</ele><time>2026-04-19T12:42:33.489Z</time></trkpt><trkpt lat="45.0561289" lon="7.9853157"><ele>362.0</ele><time>2026-04-19T12:42:34.489Z</time></trkpt><trkpt lat="45.0562402" lon="7.9853414"><ele>362.0</ele><time>2026-04-19T12:42:35.49Z</time></trkpt><trkpt lat="45.0563403" lon="7.98529"><ele>362.0</ele><time>2026-04-19T12:42:36.489Z</time></trkpt><trkpt lat="45.0564419" lon="7.9852781"><ele>362.0</ele><time>2026-04-19T12:42:37.49Z</time></trkpt><trkpt lat="45.0565795" lon="7.9852622"><ele>362.0</ele><time>2026-04-19T12:42:38.489Z</time></trkpt><trkpt lat="45.0566903" lon="7.985193"><ele>365.20000000000005</ele><time>2026-04-19T12:42:39.49Z</time></trkpt><trkpt lat="45.0568182" lon="7.9851699"><ele>368.4</ele><time>2026-04-19T12:42:40.49Z</time></trkpt><trkpt lat="45.0569508" lon="7.9851773"><ele>371.6</ele><time>2026-04-19T12:42:41.49Z</time></trkpt><trkpt lat="45.057038" lon="7.9851457"><ele>374.79999999999995</ele><time>2026-04-19T12:42:42.489Z</time></trkpt><trkpt lat="45.0571186" lon="7.9852115"><ele>378.0</ele><time>2026-04-19T12:42:43.489Z</time></trkpt><trkpt lat="45.0572129" lon="7.9852562"><ele>378.0</ele><time>2026-04-19T12:42:44.49Z</time></trkpt><trkpt lat="45.0573186" lon="7.9853166"><ele>378.0</ele><time>2026-04-19T12:42:45.489Z</time></trkpt><trkpt lat="45.0574243" lon="7.9853728"><ele>378.0</ele><time>2026-04-19T12:42:46.49Z</time></trkpt><trkpt lat="45.057557" lon="7.9854274"><ele>378.0</ele><time>2026-04-19T12:42:47.489Z</time></trkpt><trkpt lat="45.05765" lon="7.9854409"><ele>379.6666666666667</ele><time>2026-04-19T12:42:48.49Z</time></trkpt><trkpt lat="45.0577433" lon="7.9854751"><ele>381.33333333333337</ele><time>2026-04-19T12:42:49.49Z</time></trkpt><trkpt lat="45.0578184" lon="7.9854801"><ele>383.0</ele><time>2026-04-19T12:42:50.489Z</time></trkpt><trkpt lat="45.0579119" lon="7.9854786"><ele>384.6666666666667</ele><time>2026-04-19T12:42:52.489Z</time></trkpt><trkpt lat="45.0579769" lon="7.9853946"><ele>386.33333333333337</ele><time>2026-04-19T12:42:53.489Z</time></trkpt><trkpt lat="45.0580069" lon="7.9853091"><ele>388.0</ele><time>2026-04-19T12:42:54.489Z</time></trkpt><trkpt lat="45.057995" lon="7.9850307"><ele>385.2</ele><time>2026-04-19T12:42:55.489Z</time></trkpt><trkpt lat="45.0580072" lon="7.9848929"><ele>382.4</ele><time>2026-04-19T12:42:56.489Z</time></trkpt><trkpt lat="45.058011" lon="7.9847346"><ele>379.59999999999997</ele><time>2026-04-19T12:42:57.489Z</time></trkpt><trkpt lat="45.0580096" lon="7.9845764"><ele>376.79999999999995</ele><time>2026-04-19T12:42:58.49Z</time></trkpt><trkpt lat="45.0580068" lon="7.9844369"><ele>374.0</ele><time>2026-04-19T12:42:59.489Z</time></trkpt><trkpt lat="45.0580156" lon="7.9843449"><ele>374.0</ele><time>2026-04-19T12:43:00.489Z</time></trkpt><trkpt lat="45.0580223" lon="7.9842084"><ele>374.0</ele><time>2026-04-19T12:43:01.489Z</time></trkpt><trkpt lat="45.0580628" lon="7.9840801"><ele>374.0</ele><time>2026-04-19T12:43:02.489Z</time></trkpt><trkpt lat="45.0581072" lon="7.9840103"><ele>374.0</ele><time>2026-04-19T12:43:03.489Z</time></trkpt><trkpt lat="45.0581575" lon="7.9839523"><ele>374.0</ele><time>2026-04-19T12:43:04.489Z</time></trkpt><trkpt lat="45.0583211" lon="7.9840274"><ele>377.6666666666667</ele><time>2026-04-19T12:43:05.49Z</time></trkpt><trkpt lat="45.0585222" lon="7.9841349"><ele>381.33333333333337</ele><time>2026-04-19T12:43:06.489Z</time></trkpt><trkpt lat="45.0586404" lon="7.9841856"><ele>385.0</ele><time>2026-04-19T12:43:07.489Z</time></trkpt><trkpt lat="45.0587822" lon="7.9842371"><ele>387.75</ele><time>2026-04-19T12:43:08.489Z</time></trkpt><trkpt lat="45.0589155" lon="7.9842849"><ele>390.5</ele><time>2026-04-19T12:43:09.489Z</time></trkpt><trkpt lat="45.0590299" lon="7.9843256"><ele>393.25</ele><time>2026-04-19T12:43:10.489Z</time></trkpt><trkpt lat="45.0591545" lon="7.984361"><ele>396.0</ele><time>2026-04-19T12:43:11.49Z</time></trkpt><trkpt lat="45.059307" lon="7.9843857"><ele>397.0</ele><time>2026-04-19T12:43:12.489Z</time></trkpt><trkpt lat="45.059453" lon="7.984446"><ele>398.0</ele><time>2026-04-19T12:43:13.489Z</time></trkpt><trkpt lat="45.059594" lon="7.9844102"><ele>399.0</ele><time>2026-04-19T12:43:14.489Z</time></trkpt><trkpt lat="45.0597306" lon="7.9843697"><ele>400.0</ele><time>2026-04-19T12:43:15.489Z</time></trkpt><trkpt lat="45.0598231" lon="7.9843023"><ele>395.25</ele><time>2026-04-19T12:43:16.489Z</time></trkpt><trkpt lat="45.0599435" lon="7.9841686"><ele>390.5</ele><time>2026-04-19T12:43:17.489Z</time></trkpt><trkpt lat="45.0600697" lon="7.984102"><ele>385.75</ele><time>2026-04-19T12:43:18.49Z</time></trkpt><trkpt lat="45.0601789" lon="7.98404"><ele>381.0</ele><time>2026-04-19T12:43:19.489Z</time></trkpt><trkpt lat="45.060302" lon="7.984"><ele>379.75</ele><time>2026-04-19T12:43:20.489Z</time></trkpt><trkpt lat="45.0604283" lon="7.98397"><ele>378.5</ele><time>2026-04-19T12:43:21.49Z</time></trkpt><trkpt lat="45.0605474" lon="7.9839095"><ele>377.25</ele><time>2026-04-19T12:43:22.489Z</time></trkpt><trkpt lat="45.0606817" lon="7.9839436"><ele>376.0</ele><time>2026-04-19T12:43:23.489Z</time></trkpt><trkpt lat="45.0608191" lon="7.9839637"><ele>375.0</ele><time>2026-04-19T12:43:24.489Z</time></trkpt><trkpt lat="45.0609677" lon="7.9839929"><ele>374.0</ele><time>2026-04-19T12:43:25.489Z</time></trkpt><trkpt lat="45.0611042" lon="7.984024"><ele>373.0</ele><time>2026-04-19T12:43:26.489Z</time></trkpt><trkpt lat="45.0612334" lon="7.9840664"><ele>372.0</ele><time>2026-04-19T12:43:27.489Z</time></trkpt><trkpt lat="45.0613469" lon="7.9841068"><ele>372.0</ele><time>2026-04-19T12:43:28.489Z</time></trkpt><trkpt lat="45.0614517" lon="7.9841522"><ele>372.0</ele><time>2026-04-19T12:43:29.489Z</time></trkpt><trkpt lat="45.0615458" lon="7.9841916"><ele>372.0</ele><time>2026-04-19T12:43:30.49Z</time></trkpt><trkpt lat="45.0616293" lon="7.9842257"><ele>372.0</ele><time>2026-04-19T12:43:31.489Z</time></trkpt><trkpt lat="45.0617438" lon="7.9841542"><ele>372.0</ele><time>2026-04-19T12:43:32.489Z</time></trkpt><trkpt lat="45.0618316" lon="7.9841024"><ele>370.25</ele><time>2026-04-19T12:43:33.49Z</time></trkpt><trkpt lat="45.0619339" lon="7.9840278"><ele>368.5</ele><time>2026-04-19T12:43:34.49Z</time></trkpt><trkpt lat="45.0620521" lon="7.9839002"><ele>366.75</ele><time>2026-04-19T12:43:35.489Z</time></trkpt><trkpt lat="45.0621553" lon="7.9837862"><ele>365.0</ele><time>2026-04-19T12:43:36.489Z</time></trkpt><trkpt lat="45.062262" lon="7.9836801"><ele>365.0</ele><time>2026-04-19T12:43:37.489Z</time></trkpt><trkpt lat="45.0623725" lon="7.9835287"><ele>365.0</ele><time>2026-04-19T12:43:38.489Z</time></trkpt><trkpt lat="45.0624862" lon="7.9833852"><ele>365.0</ele><time>2026-04-19T12:43:39.49Z</time></trkpt><trkpt lat="45.0626067" lon="7.9832346"><ele>365.0</ele><time>2026-04-19T12:43:40.489Z</time></trkpt><trkpt lat="45.062723" lon="7.9830751"><ele>365.0</ele><time>2026-04-19T12:43:41.49Z</time></trkpt><trkpt lat="45.062847" lon="7.9829273"><ele>365.0</ele><time>2026-04-19T12:43:42.489Z</time></trkpt><trkpt lat="45.0629582" lon="7.9827695"><ele>365.0</ele><time>2026-04-19T12:43:43.489Z</time></trkpt><trkpt lat="45.0630843" lon="7.982619"><ele>365.0</ele><time>2026-04-19T12:43:44.489Z</time></trkpt><trkpt lat="45.0632088" lon="7.9824666"><ele>365.0</ele><time>2026-04-19T12:43:45.489Z</time></trkpt><trkpt lat="45.0633352" lon="7.9823255"><ele>367.33333333333337</ele><time>2026-04-19T12:43:46.489Z</time></trkpt><trkpt lat="45.063456" lon="7.9821702"><ele>369.6666666666667</ele><time>2026-04-19T12:43:47.49Z</time></trkpt><trkpt lat="45.0635697" lon="7.9820162"><ele>372.0</ele><time>2026-04-19T12:43:48.489Z</time></trkpt><trkpt lat="45.0636465" lon="7.9818161"><ele>372.25</ele><time>2026-04-19T12:43:49.49Z</time></trkpt><trkpt lat="45.0637109" lon="7.9816339"><ele>372.5</ele><time>2026-04-19T12:43:50.489Z</time></trkpt><trkpt lat="45.0637858" lon="7.9814438"><ele>372.75</ele><time>2026-04-19T12:43:51.49Z</time></trkpt><trkpt lat="45.0638455" lon="7.9812905"><ele>373.0</ele><time>2026-04-19T12:43:52.489Z</time></trkpt><trkpt lat="45.0639235" lon="7.9811717"><ele>373.0</ele><time>2026-04-19T12:43:53.49Z</time></trkpt><trkpt lat="45.0640291" lon="7.9810775"><ele>373.0</ele><time>2026-04-19T12:43:54.489Z</time></trkpt><trkpt lat="45.064164" lon="7.9810057"><ele>373.0</ele><time>2026-04-19T12:43:55.49Z</time></trkpt><trkpt lat="45.0642812" lon="7.9809417"><ele>373.0</ele><time>2026-04-19T12:43:56.489Z</time></trkpt><trkpt lat="45.0644349" lon="7.9808673"><ele>374.0</ele><time>2026-04-19T12:43:57.489Z</time></trkpt><trkpt lat="45.064574" lon="7.9807854"><ele>375.0</ele><time>2026-04-19T12:43:58.489Z</time></trkpt><trkpt lat="45.0647114" lon="7.9806813"><ele>376.0</ele><time>2026-04-19T12:43:59.489Z</time></trkpt><trkpt lat="45.064854" lon="7.9805306"><ele>374.3333333333333</ele><time>2026-04-19T12:44:00.49Z</time></trkpt><trkpt lat="45.0649914" lon="7.9803913"><ele>372.6666666666667</ele><time>2026-04-19T12:44:01.489Z</time></trkpt><trkpt lat="45.0651287" lon="7.9802668"><ele>371.0</ele><time>2026-04-19T12:44:02.489Z</time></trkpt><trkpt lat="45.0652615" lon="7.9801194"><ele>373.0</ele><time>2026-04-19T12:44:03.489Z</time></trkpt><trkpt lat="45.065384" lon="7.9799598"><ele>375.0</ele><time>2026-04-19T12:44:04.489Z</time></trkpt><trkpt lat="45.0655022" lon="7.9797845"><ele>377.0</ele><time>2026-04-19T12:44:05.489Z</time></trkpt><trkpt lat="45.0656255" lon="7.9795961"><ele>377.0</ele><time>2026-04-19T12:44:06.489Z</time></trkpt><trkpt lat="45.0657274" lon="7.9794131"><ele>377.0</ele><time>2026-04-19T12:44:07.49Z</time></trkpt><trkpt lat="45.0658363" lon="7.9792513"><ele>377.0</ele><time>2026-04-19T12:44:08.489Z</time></trkpt><trkpt lat="45.065949" lon="7.9790464"><ele>380.0</ele><time>2026-04-19T12:44:09.489Z</time></trkpt><trkpt lat="45.0660541" lon="7.9788633"><ele>383.0</ele><time>2026-04-19T12:44:10.489Z</time></trkpt><trkpt lat="45.0661585" lon="7.9786836"><ele>386.0</ele><time>2026-04-19T12:44:11.489Z</time></trkpt><trkpt lat="45.0662855" lon="7.9785"><ele>385.66666666666663</ele><time>2026-04-19T12:44:12.49Z</time></trkpt><trkpt lat="45.0664116" lon="7.9783366"><ele>385.33333333333337</ele><time>2026-04-19T12:44:13.489Z</time></trkpt><trkpt lat="45.0665306" lon="7.9781753"><ele>385.0</ele><time>2026-04-19T12:44:14.489Z</time></trkpt><trkpt lat="45.0666483" lon="7.9780114"><ele>384.0</ele><time>2026-04-19T12:44:15.489Z</time></trkpt><trkpt lat="45.0667613" lon="7.9778449"><ele>383.0</ele><time>2026-04-19T12:44:16.489Z</time></trkpt><trkpt lat="45.0668743" lon="7.9776704"><ele>382.0</ele><time>2026-04-19T12:44:17.49Z</time></trkpt><trkpt lat="45.0670174" lon="7.9774856"><ele>384.3333333333333</ele><time>2026-04-19T12:44:18.489Z</time></trkpt><trkpt lat="45.0671386" lon="7.9773094"><ele>386.66666666666663</ele><time>2026-04-19T12:44:19.49Z</time></trkpt><trkpt lat="45.0672638" lon="7.977137"><ele>389.0</ele><time>2026-04-19T12:44:20.489Z</time></trkpt><trkpt lat="45.0673831" lon="7.9769707"><ele>391.0</ele><time>2026-04-19T12:44:21.489Z</time></trkpt><trkpt lat="45.0674686" lon="7.9767554"><ele>393.0</ele><time>2026-04-19T12:44:22.489Z</time></trkpt><trkpt lat="45.0675562" lon="7.9765142"><ele>395.0</ele><time>2026-04-19T12:44:23.489Z</time></trkpt><trkpt lat="45.067654" lon="7.9762922"><ele>395.0</ele><time>2026-04-19T12:44:24.489Z</time></trkpt><trkpt lat="45.0677266" lon="7.9760674"><ele>395.0</ele><time>2026-04-19T12:44:25.49Z</time></trkpt><trkpt lat="45.0678126" lon="7.9758452"><ele>395.0</ele><time>2026-04-19T12:44:26.489Z</time></trkpt><trkpt lat="45.0678855" lon="7.9756359"><ele>395.3333333333333</ele><time>2026-04-19T12:44:27.489Z</time></trkpt><trkpt lat="45.0679568" lon="7.9754264"><ele>395.66666666666663</ele><time>2026-04-19T12:44:28.489Z</time></trkpt><trkpt lat="45.0680238" lon="7.9752394"><ele>396.0</ele><time>2026-04-19T12:44:29.49Z</time></trkpt><trkpt lat="45.0680906" lon="7.9750478"><ele>395.0</ele><time>2026-04-19T12:44:30.49Z</time></trkpt><trkpt lat="45.0681689" lon="7.9748768"><ele>394.0</ele><time>2026-04-19T12:44:31.489Z</time></trkpt><trkpt lat="45.0682509" lon="7.9747048"><ele>393.0</ele><time>2026-04-19T12:44:32.49Z</time></trkpt><trkpt lat="45.0683473" lon="7.974544"><ele>392.0</ele><time>2026-04-19T12:44:33.489Z</time></trkpt><trkpt lat="45.0684488" lon="7.9744016"><ele>397.0</ele><time>2026-04-19T12:44:34.489Z</time></trkpt><trkpt lat="45.0685725" lon="7.9742762"><ele>402.0</ele><time>2026-04-19T12:44:35.489Z</time></trkpt><trkpt lat="45.0687186" lon="7.9742017"><ele>407.0</ele><time>2026-04-19T12:44:36.489Z</time></trkpt><trkpt lat="45.0688682" lon="7.9741061"><ele>407.0</ele><time>2026-04-19T12:44:37.49Z</time></trkpt><trkpt lat="45.0690026" lon="7.9740157"><ele>407.0</ele><time>2026-04-19T12:44:38.489Z</time></trkpt><trkpt lat="45.0691281" lon="7.9739334"><ele>407.0</ele><time>2026-04-19T12:44:39.49Z</time></trkpt><trkpt lat="45.0692801" lon="7.9738467"><ele>408.20000000000005</ele><time>2026-04-19T12:44:40.489Z</time></trkpt><trkpt lat="45.0694218" lon="7.9737705"><ele>409.4</ele><time>2026-04-19T12:44:41.49Z</time></trkpt><trkpt lat="45.0695148" lon="7.9737198"><ele>410.6</ele><time>2026-04-19T12:44:42.489Z</time></trkpt><trkpt lat="45.0696015" lon="7.9736439"><ele>411.79999999999995</ele><time>2026-04-19T12:44:43.489Z</time></trkpt><trkpt lat="45.0696503" lon="7.9735629"><ele>413.0</ele><time>2026-04-19T12:44:44.489Z</time></trkpt><trkpt lat="45.0697085" lon="7.9734739"><ele>415.5</ele><time>2026-04-19T12:44:45.489Z</time></trkpt><trkpt lat="45.0697731" lon="7.9733266"><ele>418.0</ele><time>2026-04-19T12:44:46.489Z</time></trkpt><trkpt lat="45.0698227" lon="7.9731638"><ele>420.5</ele><time>2026-04-19T12:44:47.489Z</time></trkpt><trkpt lat="45.0698248" lon="7.9730015"><ele>423.0</ele><time>2026-04-19T12:44:48.489Z</time></trkpt><trkpt lat="45.0699023" lon="7.9728721"><ele>423.0</ele><time>2026-04-19T12:44:49.489Z</time></trkpt><trkpt lat="45.069931" lon="7.9727335"><ele>423.0</ele><time>2026-04-19T12:44:50.489Z</time></trkpt><trkpt lat="45.0700164" lon="7.9726499"><ele>423.0</ele><time>2026-04-19T12:44:51.49Z</time></trkpt><trkpt lat="45.0701067" lon="7.9725248"><ele>423.0</ele><time>2026-04-19T12:44:52.489Z</time></trkpt><trkpt lat="45.0702284" lon="7.9724136"><ele>423.79999999999995</ele><time>2026-04-19T12:44:53.489Z</time></trkpt><trkpt lat="45.0703265" lon="7.9723371"><ele>424.6</ele><time>2026-04-19T12:44:54.489Z</time></trkpt><trkpt lat="45.0704221" lon="7.9722704"><ele>425.40000000000003</ele><time>2026-04-19T12:44:55.489Z</time></trkpt><trkpt lat="45.0705104" lon="7.9722087"><ele>426.20000000000005</ele><time>2026-04-19T12:44:56.489Z</time></trkpt><trkpt lat="45.0706098" lon="7.9721721"><ele>427.0</ele><time>2026-04-19T12:44:57.489Z</time></trkpt><trkpt lat="45.0707093" lon="7.9721381"><ele>425.6</ele><time>2026-04-19T12:44:58.489Z</time></trkpt><trkpt lat="45.0707762" lon="7.9721202"><ele>424.20000000000005</ele><time>2026-04-19T12:44:59.489Z</time></trkpt><trkpt lat="45.0708583" lon="7.9720602"><ele>422.8</ele><time>2026-04-19T12:45:00.489Z</time></trkpt><trkpt lat="45.0709709" lon="7.9719535"><ele>421.4</ele><time>2026-04-19T12:45:01.489Z</time></trkpt><trkpt lat="45.0710884" lon="7.9718903"><ele>420.0</ele><time>2026-04-19T12:45:02.489Z</time></trkpt><trkpt lat="45.0712045" lon="7.9718169"><ele>420.0</ele><time>2026-04-19T12:45:03.489Z</time></trkpt><trkpt lat="45.0713351" lon="7.9717393"><ele>420.0</ele><time>2026-04-19T12:45:04.489Z</time></trkpt><trkpt lat="45.071483" lon="7.9716489"><ele>420.0</ele><time>2026-04-19T12:45:05.489Z</time></trkpt><trkpt lat="45.0716307" lon="7.9715292"><ele>423.0</ele><time>2026-04-19T12:45:06.489Z</time></trkpt><trkpt lat="45.0717728" lon="7.9714416"><ele>426.0</ele><time>2026-04-19T12:45:07.49Z</time></trkpt><trkpt lat="45.0719537" lon="7.9713129"><ele>429.0</ele><time>2026-04-19T12:45:08.489Z</time></trkpt><trkpt lat="45.0721123" lon="7.9711822"><ele>429.0</ele><time>2026-04-19T12:45:09.49Z</time></trkpt><trkpt lat="45.0722809" lon="7.9710757"><ele>429.0</ele><time>2026-04-19T12:45:10.489Z</time></trkpt><trkpt lat="45.072446" lon="7.9709494"><ele>429.0</ele><time>2026-04-19T12:45:11.49Z</time></trkpt><trkpt lat="45.0726169" lon="7.9708317"><ele>433.33333333333337</ele><time>2026-04-19T12:45:12.49Z</time></trkpt><trkpt lat="45.0727746" lon="7.9707163"><ele>437.6666666666667</ele><time>2026-04-19T12:45:13.489Z</time></trkpt><trkpt lat="45.0729577" lon="7.9705817"><ele>442.0</ele><time>2026-04-19T12:45:14.49Z</time></trkpt><trkpt lat="45.0731081" lon="7.9704791"><ele>442.0</ele><time>2026-04-19T12:45:15.489Z</time></trkpt><trkpt lat="45.0732647" lon="7.9703681"><ele>442.0</ele><time>2026-04-19T12:45:16.489Z</time></trkpt><trkpt lat="45.0734036" lon="7.9702432"><ele>442.0</ele><time>2026-04-19T12:45:17.489Z</time></trkpt><trkpt lat="45.0735321" lon="7.9701178"><ele>448.0</ele><time>2026-04-19T12:45:18.489Z</time></trkpt><trkpt lat="45.0736564" lon="7.9699738"><ele>454.0</ele><time>2026-04-19T12:45:19.49Z</time></trkpt><trkpt lat="45.0737718" lon="7.9698191"><ele>460.0</ele><time>2026-04-19T12:45:20.489Z</time></trkpt><trkpt lat="45.0738896" lon="7.9696625"><ele>460.0</ele><time>2026-04-19T12:45:21.489Z</time></trkpt><trkpt lat="45.0739896" lon="7.9695542"><ele>460.0</ele><time>2026-04-19T12:45:22.49Z</time></trkpt><trkpt lat="45.0741015" lon="7.969436"><ele>460.0</ele><time>2026-04-19T12:45:23.489Z</time></trkpt><trkpt lat="45.0742087" lon="7.9693584"><ele>460.0</ele><time>2026-04-19T12:45:24.489Z</time></trkpt><trkpt lat="45.0743677" lon="7.9694685"><ele>458.33333333333337</ele><time>2026-04-19T12:45:25.489Z</time></trkpt><trkpt lat="45.0745001" lon="7.9695033"><ele>456.66666666666663</ele><time>2026-04-19T12:45:26.489Z</time></trkpt><trkpt lat="45.0746551" lon="7.9695705"><ele>455.0</ele><time>2026-04-19T12:45:27.49Z</time></trkpt><trkpt lat="45.0748055" lon="7.9696266"><ele>456.75</ele><time>2026-04-19T12:45:28.489Z</time></trkpt><trkpt lat="45.074961" lon="7.9696822"><ele>458.5</ele><time>2026-04-19T12:45:29.49Z</time></trkpt><trkpt lat="45.0750824" lon="7.9697423"><ele>460.25</ele><time>2026-04-19T12:45:30.489Z</time></trkpt><trkpt lat="45.0751894" lon="7.969822"><ele>462.0</ele><time>2026-04-19T12:45:31.489Z</time></trkpt><trkpt lat="45.0752667" lon="7.969951"><ele>460.75</ele><time>2026-04-19T12:45:32.489Z</time></trkpt><trkpt lat="45.0753104" lon="7.9701208"><ele>459.5</ele><time>2026-04-19T12:45:33.489Z</time></trkpt><trkpt lat="45.0753239" lon="7.9703013"><ele>458.25</ele><time>2026-04-19T12:45:34.489Z</time></trkpt><trkpt lat="45.0753514" lon="7.9704741"><ele>457.0</ele><time>2026-04-19T12:45:35.49Z</time></trkpt><trkpt lat="45.0754019" lon="7.970631"><ele>457.0</ele><time>2026-04-19T12:45:36.489Z</time></trkpt><trkpt lat="45.0754686" lon="7.9707749"><ele>457.0</ele><time>2026-04-19T12:45:37.489Z</time></trkpt><trkpt lat="45.0755705" lon="7.9709335"><ele>457.0</ele><time>2026-04-19T12:45:38.489Z</time></trkpt><trkpt lat="45.0756568" lon="7.9710923"><ele>457.0</ele><time>2026-04-19T12:45:39.489Z</time></trkpt><trkpt lat="45.0757234" lon="7.9712612"><ele>456.0</ele><time>2026-04-19T12:45:40.489Z</time></trkpt><trkpt lat="45.0757613" lon="7.9714346"><ele>455.0</ele><time>2026-04-19T12:45:41.489Z</time></trkpt><trkpt lat="45.0757665" lon="7.9716677"><ele>454.0</ele><time>2026-04-19T12:45:42.489Z</time></trkpt><trkpt lat="45.0757686" lon="7.9718831"><ele>453.0</ele><time>2026-04-19T12:45:43.49Z</time></trkpt><trkpt lat="45.075763" lon="7.9721171"><ele>455.75</ele><time>2026-04-19T12:45:44.49Z</time></trkpt><trkpt lat="45.0756547" lon="7.9722741"><ele>458.5</ele><time>2026-04-19T12:45:45.49Z</time></trkpt><trkpt lat="45.0755915" lon="7.9724311"><ele>461.25</ele><time>2026-04-19T12:45:46.489Z</time></trkpt><trkpt lat="45.0755149" lon="7.9725559"><ele>464.0</ele><time>2026-04-19T12:45:47.489Z</time></trkpt><trkpt lat="45.0754089" lon="7.9726353"><ele>465.25</ele><time>2026-04-19T12:45:48.489Z</time></trkpt><trkpt lat="45.0752782" lon="7.9727341"><ele>466.5</ele><time>2026-04-19T12:45:49.489Z</time></trkpt><trkpt lat="45.0752316" lon="7.972843"><ele>467.75</ele><time>2026-04-19T12:45:50.489Z</time></trkpt><trkpt lat="45.0752231" lon="7.9730174"><ele>469.0</ele><time>2026-04-19T12:45:52.49Z</time></trkpt><trkpt lat="45.0753475" lon="7.9730626"><ele>469.0</ele><time>2026-04-19T12:45:54.489Z</time></trkpt><trkpt lat="45.0755139" lon="7.9728462"><ele>469.0</ele><time>2026-04-19T12:45:56.489Z</time></trkpt><trkpt lat="45.075597" lon="7.9727268"><ele>469.0</ele><time>2026-04-19T12:45:57.489Z</time></trkpt><trkpt lat="45.0756953" lon="7.9725877"><ele>475.0</ele><time>2026-04-19T12:45:58.489Z</time></trkpt><trkpt lat="45.075789" lon="7.9724064"><ele>481.0</ele><time>2026-04-19T12:45:59.489Z</time></trkpt><trkpt lat="45.075896" lon="7.9722026"><ele>487.0</ele><time>2026-04-19T12:46:00.489Z</time></trkpt><trkpt lat="45.0759568" lon="7.9719698"><ele>487.0</ele><time>2026-04-19T12:46:01.489Z</time></trkpt><trkpt lat="45.076035" lon="7.9717887"><ele>487.0</ele><time>2026-04-19T12:46:02.489Z</time></trkpt><trkpt lat="45.0761071" lon="7.9716133"><ele>487.0</ele><time>2026-04-19T12:46:03.489Z</time></trkpt><trkpt lat="45.0761968" lon="7.9714559"><ele>487.0</ele><time>2026-04-19T12:46:04.489Z</time></trkpt><trkpt lat="45.0762656" lon="7.971313"><ele>485.5</ele><time>2026-04-19T12:46:05.489Z</time></trkpt><trkpt lat="45.076316" lon="7.9711192"><ele>484.0</ele><time>2026-04-19T12:46:06.49Z</time></trkpt><trkpt lat="45.0763367" lon="7.9709505"><ele>482.5</ele><time>2026-04-19T12:46:07.489Z</time></trkpt><trkpt lat="45.076291" lon="7.9707867"><ele>481.0</ele><time>2026-04-19T12:46:08.489Z</time></trkpt><trkpt lat="45.0762567" lon="7.9706628"><ele>481.0</ele><time>2026-04-19T12:46:09.49Z</time></trkpt><trkpt lat="45.0761688" lon="7.9705088"><ele>481.0</ele><time>2026-04-19T12:46:10.489Z</time></trkpt><trkpt lat="45.076151" lon="7.9703233"><ele>481.0</ele><time>2026-04-19T12:46:11.49Z</time></trkpt><trkpt lat="45.0761556" lon="7.9701415"><ele>481.0</ele><time>2026-04-19T12:46:12.489Z</time></trkpt><trkpt lat="45.076185" lon="7.9699458"><ele>482.5</ele><time>2026-04-19T12:46:13.489Z</time></trkpt><trkpt lat="45.0762049" lon="7.9697467"><ele>484.0</ele><time>2026-04-19T12:46:14.489Z</time></trkpt><trkpt lat="45.0762298" lon="7.9695441"><ele>485.5</ele><time>2026-04-19T12:46:15.489Z</time></trkpt><trkpt lat="45.0762764" lon="7.9693516"><ele>487.0</ele><time>2026-04-19T12:46:16.49Z</time></trkpt><trkpt lat="45.0763212" lon="7.9691534"><ele>488.0</ele><time>2026-04-19T12:46:17.49Z</time></trkpt><trkpt lat="45.0763672" lon="7.9689677"><ele>489.0</ele><time>2026-04-19T12:46:18.489Z</time></trkpt><trkpt lat="45.0764084" lon="7.9687872"><ele>490.0</ele><time>2026-04-19T12:46:19.489Z</time></trkpt><trkpt lat="45.0764593" lon="7.968632"><ele>491.0</ele><time>2026-04-19T12:46:20.489Z</time></trkpt><trkpt lat="45.0765328" lon="7.968504"><ele>493.0</ele><time>2026-04-19T12:46:21.49Z</time></trkpt><trkpt lat="45.0766181" lon="7.9683674"><ele>495.0</ele><time>2026-04-19T12:46:22.489Z</time></trkpt><trkpt lat="45.0767126" lon="7.9682554"><ele>497.0</ele><time>2026-04-19T12:46:23.489Z</time></trkpt><trkpt lat="45.0768652" lon="7.9681614"><ele>499.0</ele><time>2026-04-19T12:46:24.49Z</time></trkpt><trkpt lat="45.0770302" lon="7.9681038"><ele>499.0</ele><time>2026-04-19T12:46:25.489Z</time></trkpt><trkpt lat="45.0772155" lon="7.9680276"><ele>499.0</ele><time>2026-04-19T12:46:26.489Z</time></trkpt><trkpt lat="45.0773647" lon="7.9679031"><ele>499.0</ele><time>2026-04-19T12:46:27.489Z</time></trkpt><trkpt lat="45.0775069" lon="7.9678448"><ele>501.0</ele><time>2026-04-19T12:46:28.489Z</time></trkpt><trkpt lat="45.0776487" lon="7.9677675"><ele>503.0</ele><time>2026-04-19T12:46:29.489Z</time></trkpt><trkpt lat="45.0777687" lon="7.967667"><ele>505.0</ele><time>2026-04-19T12:46:30.489Z</time></trkpt><trkpt lat="45.0779012" lon="7.967615"><ele>507.0</ele><time>2026-04-19T12:46:31.489Z</time></trkpt><trkpt lat="45.0780332" lon="7.9675535"><ele>507.75</ele><time>2026-04-19T12:46:32.49Z</time></trkpt><trkpt lat="45.0781637" lon="7.9675008"><ele>508.5</ele><time>2026-04-19T12:46:33.489Z</time></trkpt><trkpt lat="45.0783056" lon="7.9675237"><ele>509.25</ele><time>2026-04-19T12:46:34.489Z</time></trkpt><trkpt lat="45.0784302" lon="7.9676338"><ele>510.0</ele><time>2026-04-19T12:46:35.49Z</time></trkpt><trkpt lat="45.0785516" lon="7.9677416"><ele>510.0</ele><time>2026-04-19T12:46:36.489Z</time></trkpt><trkpt lat="45.0786869" lon="7.9678404"><ele>510.0</ele><time>2026-04-19T12:46:37.49Z</time></trkpt><trkpt lat="45.0788155" lon="7.967936"><ele>510.0</ele><time>2026-04-19T12:46:38.49Z</time></trkpt><trkpt lat="45.0789591" lon="7.9680505"><ele>510.0</ele><time>2026-04-19T12:46:39.489Z</time></trkpt><trkpt lat="45.0790943" lon="7.9681675"><ele>510.0</ele><time>2026-04-19T12:46:40.489Z</time></trkpt><trkpt lat="45.0792035" lon="7.9682805"><ele>510.0</ele><time>2026-04-19T12:46:41.489Z</time></trkpt><trkpt lat="45.0792982" lon="7.9684204"><ele>510.0</ele><time>2026-04-19T12:46:42.49Z</time></trkpt><trkpt lat="45.0794186" lon="7.9685251"><ele>511.7142857142857</ele><time>2026-04-19T12:46:43.489Z</time></trkpt><trkpt lat="45.0794062" lon="7.9686172"><ele>513.4285714285714</ele><time>2026-04-19T12:46:44.489Z</time></trkpt><trkpt lat="45.0794595" lon="7.968682"><ele>515.1428571428571</ele><time>2026-04-19T12:46:45.489Z</time></trkpt><trkpt lat="45.079524" lon="7.9687547"><ele>516.8571428571429</ele><time>2026-04-19T12:46:46.489Z</time></trkpt><trkpt lat="45.0795967" lon="7.968765"><ele>518.5714285714286</ele><time>2026-04-19T12:46:47.49Z</time></trkpt><trkpt lat="45.0796595" lon="7.9687777"><ele>520.2857142857143</ele><time>2026-04-19T12:46:48.484Z</time></trkpt><trkpt lat="45.0797393" lon="7.9687358"><ele>522.0</ele><time>2026-04-19T12:46:49.484Z</time></trkpt><trkpt lat="45.0798258" lon="7.9686696"><ele>522.0</ele><time>2026-04-19T12:46:50.485Z</time></trkpt><trkpt lat="45.0798661" lon="7.9685815"><ele>522.0</ele><time>2026-04-19T12:46:51.484Z</time></trkpt><trkpt lat="45.0799403" lon="7.9684459"><ele>522.0</ele><time>2026-04-19T12:46:52.486Z</time></trkpt><trkpt lat="45.0800621" lon="7.9682021"><ele>522.0</ele><time>2026-04-19T12:46:53.486Z</time></trkpt><trkpt lat="45.0801541" lon="7.9680503"><ele>516.6666666666666</ele><time>2026-04-19T12:46:54.486Z</time></trkpt><trkpt lat="45.0802633" lon="7.9678562"><ele>511.3333333333333</ele><time>2026-04-19T12:46:55.486Z</time></trkpt><trkpt lat="45.0803726" lon="7.9676629"><ele>506.0</ele><time>2026-04-19T12:46:56.486Z</time></trkpt><trkpt lat="45.080456" lon="7.9674547"><ele>503.0</ele><time>2026-04-19T12:46:57.487Z</time></trkpt><trkpt lat="45.0805548" lon="7.9672589"><ele>500.0</ele><time>2026-04-19T12:46:58.487Z</time></trkpt><trkpt lat="45.0806591" lon="7.9670611"><ele>497.0</ele><time>2026-04-19T12:46:59.486Z</time></trkpt><trkpt lat="45.0807546" lon="7.966853"><ele>501.0</ele><time>2026-04-19T12:47:00.486Z</time></trkpt><trkpt lat="45.0808563" lon="7.9666351"><ele>505.0</ele><time>2026-04-19T12:47:01.486Z</time></trkpt><trkpt lat="45.0809395" lon="7.9664414"><ele>509.0</ele><time>2026-04-19T12:47:02.487Z</time></trkpt><trkpt lat="45.0810239" lon="7.9662256"><ele>509.0</ele><time>2026-04-19T12:47:03.486Z</time></trkpt><trkpt lat="45.0811299" lon="7.9660365"><ele>509.0</ele><time>2026-04-19T12:47:04.487Z</time></trkpt><trkpt lat="45.0812179" lon="7.9658659"><ele>509.0</ele><time>2026-04-19T12:47:05.486Z</time></trkpt><trkpt lat="45.0812873" lon="7.965684"><ele>506.66666666666663</ele><time>2026-04-19T12:47:06.486Z</time></trkpt><trkpt lat="45.0813496" lon="7.9654842"><ele>504.33333333333337</ele><time>2026-04-19T12:47:07.486Z</time></trkpt><trkpt lat="45.0813894" lon="7.9652432"><ele>502.0</ele><time>2026-04-19T12:47:08.486Z</time></trkpt><trkpt lat="45.0814103" lon="7.9650338"><ele>502.25</ele><time>2026-04-19T12:47:09.486Z</time></trkpt><trkpt lat="45.0814311" lon="7.9648413"><ele>502.5</ele><time>2026-04-19T12:47:10.487Z</time></trkpt><trkpt lat="45.0814844" lon="7.9646748"><ele>502.75</ele><time>2026-04-19T12:47:11.486Z</time></trkpt><trkpt lat="45.0815393" lon="7.9645038"><ele>503.0</ele><time>2026-04-19T12:47:12.487Z</time></trkpt><trkpt lat="45.081598" lon="7.9643806"><ele>506.75</ele><time>2026-04-19T12:47:13.486Z</time></trkpt><trkpt lat="45.0816877" lon="7.9642692"><ele>510.5</ele><time>2026-04-19T12:47:14.487Z</time></trkpt><trkpt lat="45.0817938" lon="7.9641921"><ele>514.25</ele><time>2026-04-19T12:47:15.487Z</time></trkpt><trkpt lat="45.0818533" lon="7.964109"><ele>518.0</ele><time>2026-04-19T12:47:16.486Z</time></trkpt><trkpt lat="45.0820908" lon="7.9640045"><ele>518.0</ele><time>2026-04-19T12:47:17.486Z</time></trkpt><trkpt lat="45.0822272" lon="7.9639347"><ele>518.0</ele><time>2026-04-19T12:47:18.486Z</time></trkpt><trkpt lat="45.0823661" lon="7.9638233"><ele>518.0</ele><time>2026-04-19T12:47:19.487Z</time></trkpt><trkpt lat="45.0825282" lon="7.9636789"><ele>513.0</ele><time>2026-04-19T12:47:20.487Z</time></trkpt><trkpt lat="45.0826873" lon="7.9635249"><ele>508.0</ele><time>2026-04-19T12:47:21.486Z</time></trkpt><trkpt lat="45.0828426" lon="7.9633975"><ele>503.0</ele><time>2026-04-19T12:47:22.486Z</time></trkpt><trkpt lat="45.0829827" lon="7.9632607"><ele>499.3333333333333</ele><time>2026-04-19T12:47:23.487Z</time></trkpt><trkpt lat="45.0831127" lon="7.9631793"><ele>495.66666666666663</ele><time>2026-04-19T12:47:24.487Z</time></trkpt><trkpt lat="45.0832264" lon="7.9631535"><ele>492.0</ele><time>2026-04-19T12:47:25.487Z</time></trkpt><trkpt lat="45.0834193" lon="7.9630785"><ele>491.66666666666663</ele><time>2026-04-19T12:47:26.487Z</time></trkpt><trkpt lat="45.083571" lon="7.9630593"><ele>491.3333333333333</ele><time>2026-04-19T12:47:27.487Z</time></trkpt><trkpt lat="45.0837312" lon="7.9630125"><ele>491.0</ele><time>2026-04-19T12:47:28.486Z</time></trkpt><trkpt lat="45.0838746" lon="7.9629783"><ele>491.0</ele><time>2026-04-19T12:47:29.486Z</time></trkpt><trkpt lat="45.0840131" lon="7.9629493"><ele>491.0</ele><time>2026-04-19T12:47:30.486Z</time></trkpt><trkpt lat="45.0841586" lon="7.9629792"><ele>491.0</ele><time>2026-04-19T12:47:31.487Z</time></trkpt><trkpt lat="45.0843066" lon="7.9630054"><ele>491.0</ele><time>2026-04-19T12:47:32.487Z</time></trkpt><trkpt lat="45.0844147" lon="7.9630778"><ele>490.0</ele><time>2026-04-19T12:47:33.486Z</time></trkpt><trkpt lat="45.0845289" lon="7.96322"><ele>489.0</ele><time>2026-04-19T12:47:34.486Z</time></trkpt><trkpt lat="45.0846225" lon="7.9633459"><ele>488.0</ele><time>2026-04-19T12:47:35.487Z</time></trkpt><trkpt lat="45.084721" lon="7.9634658"><ele>487.0</ele><time>2026-04-19T12:47:36.487Z</time></trkpt><trkpt lat="45.0848356" lon="7.9635393"><ele>487.0</ele><time>2026-04-19T12:47:37.486Z</time></trkpt><trkpt lat="45.0849179" lon="7.9635907"><ele>487.00000000000006</ele><time>2026-04-19T12:47:38.486Z</time></trkpt><trkpt lat="45.0850122" lon="7.9635684"><ele>487.00000000000006</ele><time>2026-04-19T12:47:39.486Z</time></trkpt><trkpt lat="45.0851155" lon="7.9635087"><ele>487.0</ele><time>2026-04-19T12:47:40.486Z</time></trkpt><trkpt lat="45.0852027" lon="7.963385"><ele>487.0</ele><time>2026-04-19T12:47:41.487Z</time></trkpt><trkpt lat="45.085247" lon="7.9633141"><ele>487.0</ele><time>2026-04-19T12:47:42.486Z</time></trkpt><trkpt lat="45.0853012" lon="7.9632297"><ele>487.0</ele><time>2026-04-19T12:47:43.486Z</time></trkpt><trkpt lat="45.0854394" lon="7.9630768"><ele>487.0</ele><time>2026-04-19T12:47:44.486Z</time></trkpt><trkpt lat="45.0856043" lon="7.9630082"><ele>487.0</ele><time>2026-04-19T12:47:45.486Z</time></trkpt><trkpt lat="45.0857329" lon="7.9629288"><ele>479.33333333333337</ele><time>2026-04-19T12:47:46.486Z</time></trkpt><trkpt lat="45.0858883" lon="7.962922"><ele>471.66666666666663</ele><time>2026-04-19T12:47:47.486Z</time></trkpt><trkpt lat="45.0860501" lon="7.9628801"><ele>464.0</ele><time>2026-04-19T12:47:48.486Z</time></trkpt><trkpt lat="45.086183" lon="7.9628361"><ele>464.0</ele><time>2026-04-19T12:47:49.487Z</time></trkpt><trkpt lat="45.0863232" lon="7.9628121"><ele>464.0</ele><time>2026-04-19T12:47:50.486Z</time></trkpt><trkpt lat="45.0864619" lon="7.9627967"><ele>464.0</ele><time>2026-04-19T12:47:51.486Z</time></trkpt><trkpt lat="45.0866122" lon="7.9627651"><ele>464.0</ele><time>2026-04-19T12:47:52.486Z</time></trkpt><trkpt lat="45.0867623" lon="7.962705"><ele>461.0</ele><time>2026-04-19T12:47:53.486Z</time></trkpt><trkpt lat="45.0869095" lon="7.962659"><ele>458.0</ele><time>2026-04-19T12:47:54.487Z</time></trkpt><trkpt lat="45.0870618" lon="7.9625654"><ele>455.0</ele><time>2026-04-19T12:47:55.486Z</time></trkpt><trkpt lat="45.0872136" lon="7.9624837"><ele>454.75</ele><time>2026-04-19T12:47:56.487Z</time></trkpt><trkpt lat="45.087371" lon="7.9623678"><ele>454.5</ele><time>2026-04-19T12:47:57.486Z</time></trkpt><trkpt lat="45.0874868" lon="7.9623138"><ele>454.25</ele><time>2026-04-19T12:47:58.486Z</time></trkpt><trkpt lat="45.0876207" lon="7.9622593"><ele>454.0</ele><time>2026-04-19T12:47:59.487Z</time></trkpt><trkpt lat="45.0876836" lon="7.9622128"><ele>454.0</ele><time>2026-04-19T12:48:00.486Z</time></trkpt><trkpt lat="45.0877808" lon="7.9621594"><ele>454.0</ele><time>2026-04-19T12:48:01.486Z</time></trkpt><trkpt lat="45.0878513" lon="7.9621821"><ele>454.0</ele><time>2026-04-19T12:48:02.487Z</time></trkpt><trkpt lat="45.0879144" lon="7.9621887"><ele>454.0</ele><time>2026-04-19T12:48:03.486Z</time></trkpt><trkpt lat="45.0880121" lon="7.9623106"><ele>454.0</ele><time>2026-04-19T12:48:04.486Z</time></trkpt><trkpt lat="45.0880384" lon="7.9624272"><ele>454.0</ele><time>2026-04-19T12:48:05.487Z</time></trkpt><trkpt lat="45.0880103" lon="7.9625292"><ele>454.0</ele><time>2026-04-19T12:48:06.486Z</time></trkpt><trkpt lat="45.0879818" lon="7.9626246"><ele>454.0</ele><time>2026-04-19T12:48:07.486Z</time></trkpt><trkpt lat="45.0877834" lon="7.9627064"><ele>454.0</ele><time>2026-04-19T12:48:08.486Z</time></trkpt><trkpt lat="45.0877056" lon="7.9627886"><ele>453.2</ele><time>2026-04-19T12:48:09.486Z</time></trkpt><trkpt lat="45.087632" lon="7.9628934"><ele>452.4</ele><time>2026-04-19T12:48:10.486Z</time></trkpt><trkpt lat="45.0875578" lon="7.9630331"><ele>451.6</ele><time>2026-04-19T12:48:11.486Z</time></trkpt><trkpt lat="45.087521" lon="7.9631586"><ele>450.8</ele><time>2026-04-19T12:48:12.486Z</time></trkpt><trkpt lat="45.0874844" lon="7.9632509"><ele>450.0</ele><time>2026-04-19T12:48:13.486Z</time></trkpt><trkpt lat="45.0874993" lon="7.9633751"><ele>450.0</ele><time>2026-04-19T12:48:14.487Z</time></trkpt><trkpt lat="45.0875172" lon="7.9634764"><ele>450.0</ele><time>2026-04-19T12:48:15.486Z</time></trkpt><trkpt lat="45.0876769" lon="7.9635973"><ele>450.0</ele><time>2026-04-19T12:48:17.486Z</time></trkpt><trkpt lat="45.0877115" lon="7.9636855"><ele>450.0</ele><time>2026-04-19T12:48:18.486Z</time></trkpt><trkpt lat="45.087762" lon="7.9637824"><ele>450.0</ele><time>2026-04-19T12:48:19.486Z</time></trkpt><trkpt lat="45.087902" lon="7.9639596"><ele>450.0</ele><time>2026-04-19T12:48:20.487Z</time></trkpt><trkpt lat="45.0880514" lon="7.9641256"><ele>450.0</ele><time>2026-04-19T12:48:21.487Z</time></trkpt><trkpt lat="45.0881633" lon="7.9642705"><ele>450.0</ele><time>2026-04-19T12:48:22.487Z</time></trkpt><trkpt lat="45.0882908" lon="7.9644189"><ele>444.66666666666663</ele><time>2026-04-19T12:48:23.487Z</time></trkpt><trkpt lat="45.0885197" lon="7.9644906"><ele>439.3333333333333</ele><time>2026-04-19T12:48:24.486Z</time></trkpt><trkpt lat="45.0886767" lon="7.9645983"><ele>434.0</ele><time>2026-04-19T12:48:25.486Z</time></trkpt><trkpt lat="45.088802" lon="7.96474"><ele>434.0</ele><time>2026-04-19T12:48:26.486Z</time></trkpt><trkpt lat="45.0889138" lon="7.9648722"><ele>434.0</ele><time>2026-04-19T12:48:27.487Z</time></trkpt><trkpt lat="45.0890085" lon="7.9650175"><ele>434.0</ele><time>2026-04-19T12:48:28.486Z</time></trkpt><trkpt lat="45.0890862" lon="7.9651464"><ele>434.0</ele><time>2026-04-19T12:48:29.486Z</time></trkpt><trkpt lat="45.0891387" lon="7.9652351"><ele>429.6</ele><time>2026-04-19T12:48:30.486Z</time></trkpt><trkpt lat="45.0892389" lon="7.9652932"><ele>425.2</ele><time>2026-04-19T12:48:31.487Z</time></trkpt><trkpt lat="45.0893125" lon="7.9653214"><ele>420.8</ele><time>2026-04-19T12:48:32.486Z</time></trkpt><trkpt lat="45.0894045" lon="7.9652947"><ele>416.40000000000003</ele><time>2026-04-19T12:48:33.487Z</time></trkpt><trkpt lat="45.0894703" lon="7.9651868"><ele>412.0</ele><time>2026-04-19T12:48:34.486Z</time></trkpt><trkpt lat="45.0895064" lon="7.9650578"><ele>414.75</ele><time>2026-04-19T12:48:35.487Z</time></trkpt><trkpt lat="45.0895003" lon="7.964901"><ele>417.5</ele><time>2026-04-19T12:48:36.487Z</time></trkpt><trkpt lat="45.0894739" lon="7.9647366"><ele>420.25</ele><time>2026-04-19T12:48:37.486Z</time></trkpt><trkpt lat="45.0894609" lon="7.9645817"><ele>423.0</ele><time>2026-04-19T12:48:38.486Z</time></trkpt><trkpt lat="45.0893972" lon="7.9644541"><ele>423.0</ele><time>2026-04-19T12:48:39.487Z</time></trkpt><trkpt lat="45.0893559" lon="7.9643319"><ele>423.0</ele><time>2026-04-19T12:48:40.486Z</time></trkpt><trkpt lat="45.0893344" lon="7.9642224"><ele>423.0</ele><time>2026-04-19T12:48:41.486Z</time></trkpt><trkpt lat="45.0893655" lon="7.9641293"><ele>423.0</ele><time>2026-04-19T12:48:42.487Z</time></trkpt><trkpt lat="45.0894209" lon="7.9640728"><ele>423.0</ele><time>2026-04-19T12:48:43.487Z</time></trkpt><trkpt lat="45.0895283" lon="7.9640799"><ele>423.0</ele><time>2026-04-19T12:48:45.487Z</time></trkpt><trkpt lat="45.0897192" lon="7.9643279"><ele>423.0</ele><time>2026-04-19T12:48:47.486Z</time></trkpt><trkpt lat="45.0898042" lon="7.9644279"><ele>423.0</ele><time>2026-04-19T12:48:48.487Z</time></trkpt><trkpt lat="45.0899149" lon="7.9644807"><ele>423.0</ele><time>2026-04-19T12:48:49.486Z</time></trkpt><trkpt lat="45.0900158" lon="7.9645386"><ele>423.0</ele><time>2026-04-19T12:48:50.486Z</time></trkpt><trkpt lat="45.0901855" lon="7.9644665"><ele>422.33333333333337</ele><time>2026-04-19T12:48:51.487Z</time></trkpt><trkpt lat="45.0903323" lon="7.964446"><ele>421.6666666666667</ele><time>2026-04-19T12:48:52.487Z</time></trkpt><trkpt lat="45.0904848" lon="7.9643997"><ele>421.0</ele><time>2026-04-19T12:48:53.487Z</time></trkpt><trkpt lat="45.0906485" lon="7.9643621"><ele>421.0</ele><time>2026-04-19T12:48:54.486Z</time></trkpt><trkpt lat="45.0907974" lon="7.9643217"><ele>421.0</ele><time>2026-04-19T12:48:55.487Z</time></trkpt><trkpt lat="45.090972" lon="7.9643148"><ele>421.0</ele><time>2026-04-19T12:48:56.486Z</time></trkpt><trkpt lat="45.0910937" lon="7.9642675"><ele>421.0</ele><time>2026-04-19T12:48:57.487Z</time></trkpt><trkpt lat="45.091218" lon="7.9642301"><ele>421.0</ele><time>2026-04-19T12:48:58.486Z</time></trkpt><trkpt lat="45.0913087" lon="7.9641603"><ele>421.0</ele><time>2026-04-19T12:48:59.486Z</time></trkpt><trkpt lat="45.0913885" lon="7.9640758"><ele>421.0</ele><time>2026-04-19T12:49:00.487Z</time></trkpt><trkpt lat="45.0914555" lon="7.96396"><ele>421.0</ele><time>2026-04-19T12:49:01.487Z</time></trkpt><trkpt lat="45.0914984" lon="7.9638114"><ele>416.0</ele><time>2026-04-19T12:49:02.487Z</time></trkpt><trkpt lat="45.0915141" lon="7.9636426"><ele>411.0</ele><time>2026-04-19T12:49:03.486Z</time></trkpt><trkpt lat="45.0914914" lon="7.9634377"><ele>406.0</ele><time>2026-04-19T12:49:04.486Z</time></trkpt><trkpt lat="45.0914375" lon="7.9631884"><ele>404.5</ele><time>2026-04-19T12:49:05.486Z</time></trkpt><trkpt lat="45.091392" lon="7.9629873"><ele>403.0</ele><time>2026-04-19T12:49:06.487Z</time></trkpt><trkpt lat="45.0913616" lon="7.9627801"><ele>401.5</ele><time>2026-04-19T12:49:07.486Z</time></trkpt><trkpt lat="45.0913396" lon="7.9625922"><ele>400.0</ele><time>2026-04-19T12:49:08.486Z</time></trkpt><trkpt lat="45.0913513" lon="7.9623967"><ele>400.0</ele><time>2026-04-19T12:49:09.487Z</time></trkpt><trkpt lat="45.0913596" lon="7.9621882"><ele>400.0</ele><time>2026-04-19T12:49:10.486Z</time></trkpt><trkpt lat="45.0913945" lon="7.9620016"><ele>400.0</ele><time>2026-04-19T12:49:11.486Z</time></trkpt><trkpt lat="45.0914411" lon="7.9618203"><ele>400.0</ele><time>2026-04-19T12:49:12.487Z</time></trkpt><trkpt lat="45.0915704" lon="7.9616889"><ele>394.33333333333337</ele><time>2026-04-19T12:49:13.487Z</time></trkpt><trkpt lat="45.0917545" lon="7.961401"><ele>388.6666666666667</ele><time>2026-04-19T12:49:14.486Z</time></trkpt><trkpt lat="45.0918376" lon="7.9612219"><ele>383.0</ele><time>2026-04-19T12:49:15.486Z</time></trkpt><trkpt lat="45.0919394" lon="7.960989"><ele>383.33333333333337</ele><time>2026-04-19T12:49:16.486Z</time></trkpt><trkpt lat="45.0920501" lon="7.9607745"><ele>383.6666666666667</ele><time>2026-04-19T12:49:17.486Z</time></trkpt><trkpt lat="45.0921618" lon="7.9605286"><ele>384.0</ele><time>2026-04-19T12:49:18.486Z</time></trkpt><trkpt lat="45.0922911" lon="7.9602407"><ele>384.0</ele><time>2026-04-19T12:49:19.486Z</time></trkpt><trkpt lat="45.0924002" lon="7.9600217"><ele>384.0</ele><time>2026-04-19T12:49:20.487Z</time></trkpt><trkpt lat="45.092495" lon="7.9598175"><ele>384.0</ele><time>2026-04-19T12:49:21.487Z</time></trkpt><trkpt lat="45.0925836" lon="7.9596662"><ele>382.3333333333333</ele><time>2026-04-19T12:49:22.486Z</time></trkpt><trkpt lat="45.0926667" lon="7.9594631"><ele>380.66666666666663</ele><time>2026-04-19T12:49:23.486Z</time></trkpt><trkpt lat="45.0927312" lon="7.9592622"><ele>379.0</ele><time>2026-04-19T12:49:24.486Z</time></trkpt><trkpt lat="45.0927856" lon="7.9590283"><ele>378.3333333333333</ele><time>2026-04-19T12:49:25.487Z</time></trkpt><trkpt lat="45.0928048" lon="7.9588175"><ele>377.6666666666667</ele><time>2026-04-19T12:49:26.486Z</time></trkpt><trkpt lat="45.0928139" lon="7.9585872"><ele>377.0</ele><time>2026-04-19T12:49:27.486Z</time></trkpt><trkpt lat="45.0928188" lon="7.9583591"><ele>377.0</ele><time>2026-04-19T12:49:28.486Z</time></trkpt><trkpt lat="45.0928226" lon="7.9581287"><ele>377.0</ele><time>2026-04-19T12:49:29.486Z</time></trkpt><trkpt lat="45.0928248" lon="7.9578994"><ele>377.0</ele><time>2026-04-19T12:49:30.486Z</time></trkpt><trkpt lat="45.0928246" lon="7.9576887"><ele>377.5</ele><time>2026-04-19T12:49:31.486Z</time></trkpt><trkpt lat="45.0928339" lon="7.957486"><ele>378.0</ele><time>2026-04-19T12:49:32.487Z</time></trkpt><trkpt lat="45.0928581" lon="7.9573009"><ele>378.5</ele><time>2026-04-19T12:49:33.486Z</time></trkpt><trkpt lat="45.0929266" lon="7.957146"><ele>379.0</ele><time>2026-04-19T12:49:34.486Z</time></trkpt><trkpt lat="45.0930733" lon="7.9570263"><ele>379.0</ele><time>2026-04-19T12:49:35.487Z</time></trkpt><trkpt lat="45.093178" lon="7.9568897"><ele>379.0</ele><time>2026-04-19T12:49:36.486Z</time></trkpt><trkpt lat="45.0932892" lon="7.9567676"><ele>379.0</ele><time>2026-04-19T12:49:37.486Z</time></trkpt><trkpt lat="45.0934601" lon="7.9566532"><ele>382.3333333333333</ele><time>2026-04-19T12:49:38.486Z</time></trkpt><trkpt lat="45.093607" lon="7.9565269"><ele>385.66666666666663</ele><time>2026-04-19T12:49:39.487Z</time></trkpt><trkpt lat="45.0937519" lon="7.9563905"><ele>389.0</ele><time>2026-04-19T12:49:40.486Z</time></trkpt><trkpt lat="45.0938858" lon="7.9562379"><ele>389.0</ele><time>2026-04-19T12:49:41.487Z</time></trkpt><trkpt lat="45.0940363" lon="7.9560708"><ele>389.0</ele><time>2026-04-19T12:49:42.486Z</time></trkpt><trkpt lat="45.0941593" lon="7.9559211"><ele>389.0</ele><time>2026-04-19T12:49:43.486Z</time></trkpt><trkpt lat="45.0942656" lon="7.9557622"><ele>390.0</ele><time>2026-04-19T12:49:44.486Z</time></trkpt><trkpt lat="45.0943816" lon="7.9556473"><ele>391.0</ele><time>2026-04-19T12:49:45.486Z</time></trkpt><trkpt lat="45.0944913" lon="7.9555264"><ele>392.0</ele><time>2026-04-19T12:49:46.486Z</time></trkpt><trkpt lat="45.0945905" lon="7.9554113"><ele>393.0</ele><time>2026-04-19T12:49:47.487Z</time></trkpt><trkpt lat="45.094689" lon="7.9552925"><ele>393.0</ele><time>2026-04-19T12:49:48.487Z</time></trkpt><trkpt lat="45.0947838" lon="7.955175"><ele>393.0</ele><time>2026-04-19T12:49:49.486Z</time></trkpt><trkpt lat="45.0948655" lon="7.9550433"><ele>393.0</ele><time>2026-04-19T12:49:50.487Z</time></trkpt><trkpt lat="45.094958" lon="7.9549164"><ele>393.0</ele><time>2026-04-19T12:49:51.487Z</time></trkpt><trkpt lat="45.0950583" lon="7.9547867"><ele>393.5</ele><time>2026-04-19T12:49:52.486Z</time></trkpt><trkpt lat="45.0951472" lon="7.9546611"><ele>394.0</ele><time>2026-04-19T12:49:53.486Z</time></trkpt><trkpt lat="45.0952276" lon="7.9545246"><ele>394.5</ele><time>2026-04-19T12:49:54.486Z</time></trkpt><trkpt lat="45.0952911" lon="7.9543826"><ele>395.0</ele><time>2026-04-19T12:49:55.486Z</time></trkpt><trkpt lat="45.0953462" lon="7.9542411"><ele>394.5</ele><time>2026-04-19T12:49:56.487Z</time></trkpt><trkpt lat="45.0953816" lon="7.954064"><ele>394.0</ele><time>2026-04-19T12:49:57.486Z</time></trkpt><trkpt lat="45.0954103" lon="7.9539047"><ele>393.5</ele><time>2026-04-19T12:49:58.486Z</time></trkpt><trkpt lat="45.0954446" lon="7.9537453"><ele>393.0</ele><time>2026-04-19T12:49:59.487Z</time></trkpt><trkpt lat="45.0954634" lon="7.9535667"><ele>393.0</ele><time>2026-04-19T12:50:00.487Z</time></trkpt><trkpt lat="45.0954529" lon="7.9534214"><ele>393.0</ele><time>2026-04-19T12:50:01.486Z</time></trkpt><trkpt lat="45.0954267" lon="7.9532922"><ele>393.0</ele><time>2026-04-19T12:50:02.486Z</time></trkpt><trkpt lat="45.0953792" lon="7.9532111"><ele>393.0</ele><time>2026-04-19T12:50:03.486Z</time></trkpt><trkpt lat="45.0953661" lon="7.9531238"><ele>393.0</ele><time>2026-04-19T12:50:04.486Z</time></trkpt><trkpt lat="45.0953152" lon="7.9530565"><ele>393.0</ele><time>2026-04-19T12:50:07.487Z</time></trkpt><trkpt lat="45.0953824" lon="7.9530093"><ele>393.2</ele><time>2026-04-19T12:50:11.486Z</time></trkpt><trkpt lat="45.0954452" lon="7.9529688"><ele>393.4</ele><time>2026-04-19T12:50:12.486Z</time></trkpt><trkpt lat="45.0955554" lon="7.9528524"><ele>393.59999999999997</ele><time>2026-04-19T12:50:13.486Z</time></trkpt><trkpt lat="45.0955953" lon="7.9527722"><ele>393.79999999999995</ele><time>2026-04-19T12:50:14.486Z</time></trkpt><trkpt lat="45.0956619" lon="7.9526794"><ele>394.0</ele><time>2026-04-19T12:50:15.486Z</time></trkpt><trkpt lat="45.095756" lon="7.9525367"><ele>393.5</ele><time>2026-04-19T12:50:16.486Z</time></trkpt><trkpt lat="45.0958354" lon="7.9524205"><ele>393.0</ele><time>2026-04-19T12:50:17.486Z</time></trkpt><trkpt lat="45.0959732" lon="7.9522877"><ele>392.5</ele><time>2026-04-19T12:50:18.486Z</time></trkpt><trkpt lat="45.0960883" lon="7.9521872"><ele>392.0</ele><time>2026-04-19T12:50:19.486Z</time></trkpt><trkpt lat="45.0962511" lon="7.9520933"><ele>392.0</ele><time>2026-04-19T12:50:20.486Z</time></trkpt><trkpt lat="45.096411" lon="7.9520458"><ele>392.0</ele><time>2026-04-19T12:50:21.486Z</time></trkpt><trkpt lat="45.096549" lon="7.9519866"><ele>392.0</ele><time>2026-04-19T12:50:22.487Z</time></trkpt><trkpt lat="45.0967363" lon="7.9518926"><ele>393.3333333333333</ele><time>2026-04-19T12:50:23.487Z</time></trkpt><trkpt lat="45.0968836" lon="7.9517955"><ele>394.66666666666663</ele><time>2026-04-19T12:50:24.486Z</time></trkpt><trkpt lat="45.0970148" lon="7.9517073"><ele>396.0</ele><time>2026-04-19T12:50:25.486Z</time></trkpt><trkpt lat="45.0971469" lon="7.9516215"><ele>393.0</ele><time>2026-04-19T12:50:26.486Z</time></trkpt><trkpt lat="45.0972744" lon="7.9515424"><ele>390.0</ele><time>2026-04-19T12:50:27.486Z</time></trkpt><trkpt lat="45.097415" lon="7.9514173"><ele>387.0</ele><time>2026-04-19T12:50:28.486Z</time></trkpt><trkpt lat="45.097528" lon="7.9513523"><ele>384.0</ele><time>2026-04-19T12:50:29.487Z</time></trkpt><trkpt lat="45.0976249" lon="7.9512753"><ele>384.0</ele><time>2026-04-19T12:50:30.486Z</time></trkpt><trkpt lat="45.0976459" lon="7.9511663"><ele>384.0</ele><time>2026-04-19T12:50:31.486Z</time></trkpt><trkpt lat="45.0975548" lon="7.9509862"><ele>384.0</ele><time>2026-04-19T12:50:33.486Z</time></trkpt><trkpt lat="45.0975278" lon="7.9508494"><ele>384.0</ele><time>2026-04-19T12:50:35.487Z</time></trkpt><trkpt lat="45.0973935" lon="7.95096"><ele>382.5</ele><time>2026-04-19T12:50:36.486Z</time></trkpt><trkpt lat="45.0973095" lon="7.9510105"><ele>381.0</ele><time>2026-04-19T12:50:37.486Z</time></trkpt><trkpt lat="45.0972092" lon="7.9510911"><ele>379.5</ele><time>2026-04-19T12:50:38.487Z</time></trkpt><trkpt lat="45.0970816" lon="7.9512198"><ele>378.0</ele><time>2026-04-19T12:50:39.487Z</time></trkpt><trkpt lat="45.0969691" lon="7.9513139"><ele>378.0</ele><time>2026-04-19T12:50:40.486Z</time></trkpt><trkpt lat="45.0968348" lon="7.9513837"><ele>378.0</ele><time>2026-04-19T12:50:41.487Z</time></trkpt><trkpt lat="45.0967059" lon="7.9514474"><ele>378.0</ele><time>2026-04-19T12:50:42.486Z</time></trkpt><trkpt lat="45.0966054" lon="7.9514601"><ele>378.0</ele><time>2026-04-19T12:50:43.486Z</time></trkpt><trkpt lat="45.0965035" lon="7.9514666"><ele>377.0</ele><time>2026-04-19T12:50:44.486Z</time></trkpt><trkpt lat="45.0964264" lon="7.9514538"><ele>376.0</ele><time>2026-04-19T12:50:45.487Z</time></trkpt><trkpt lat="45.0963588" lon="7.9513151"><ele>375.0</ele><time>2026-04-19T12:50:47.486Z</time></trkpt><trkpt lat="45.0963371" lon="7.9511451"><ele>374.0</ele><time>2026-04-19T12:50:49.487Z</time></trkpt><trkpt lat="45.0963868" lon="7.951087"><ele>373.0</ele><time>2026-04-19T12:50:50.486Z</time></trkpt><trkpt lat="45.0965211" lon="7.9509941"><ele>374.66666666666663</ele><time>2026-04-19T12:50:51.487Z</time></trkpt><trkpt lat="45.0965875" lon="7.9509655"><ele>376.3333333333333</ele><time>2026-04-19T12:50:52.486Z</time></trkpt><trkpt lat="45.0968399" lon="7.9508821"><ele>378.0</ele><time>2026-04-19T12:50:53.486Z</time></trkpt><trkpt lat="45.0969746" lon="7.950794"><ele>373.0</ele><time>2026-04-19T12:50:54.486Z</time></trkpt><trkpt lat="45.0971016" lon="7.9506306"><ele>368.0</ele><time>2026-04-19T12:50:55.487Z</time></trkpt><trkpt lat="45.0972066" lon="7.9504846"><ele>363.0</ele><time>2026-04-19T12:50:56.486Z</time></trkpt><trkpt lat="45.0973073" lon="7.9503209"><ele>364.3333333333333</ele><time>2026-04-19T12:50:57.487Z</time></trkpt><trkpt lat="45.09742" lon="7.9500946"><ele>365.66666666666663</ele><time>2026-04-19T12:50:58.486Z</time></trkpt><trkpt lat="45.0974987" lon="7.9499205"><ele>367.0</ele><time>2026-04-19T12:50:59.486Z</time></trkpt><trkpt lat="45.0975895" lon="7.9497367"><ele>364.0</ele><time>2026-04-19T12:51:00.486Z</time></trkpt><trkpt lat="45.0976823" lon="7.9495879"><ele>361.0</ele><time>2026-04-19T12:51:01.486Z</time></trkpt><trkpt lat="45.0977679" lon="7.9494227"><ele>358.0</ele><time>2026-04-19T12:51:02.486Z</time></trkpt><trkpt lat="45.0979137" lon="7.9493544"><ele>355.0</ele><time>2026-04-19T12:51:03.487Z</time></trkpt><trkpt lat="45.0980379" lon="7.9492445"><ele>353.66666666666663</ele><time>2026-04-19T12:51:04.486Z</time></trkpt><trkpt lat="45.0981908" lon="7.9491451"><ele>352.3333333333333</ele><time>2026-04-19T12:51:05.487Z</time></trkpt><trkpt lat="45.0983059" lon="7.9490133"><ele>351.0</ele><time>2026-04-19T12:51:06.486Z</time></trkpt><trkpt lat="45.098432" lon="7.9488939"><ele>351.0</ele><time>2026-04-19T12:51:07.486Z</time></trkpt><trkpt lat="45.0985463" lon="7.9487326"><ele>351.0</ele><time>2026-04-19T12:51:08.486Z</time></trkpt><trkpt lat="45.0986503" lon="7.9485897"><ele>351.0</ele><time>2026-04-19T12:51:09.487Z</time></trkpt><trkpt lat="45.0987584" lon="7.9484407"><ele>348.3333333333333</ele><time>2026-04-19T12:51:10.486Z</time></trkpt><trkpt lat="45.0988677" lon="7.9482446"><ele>345.66666666666663</ele><time>2026-04-19T12:51:11.487Z</time></trkpt><trkpt lat="45.0989918" lon="7.948068"><ele>343.0</ele><time>2026-04-19T12:51:12.487Z</time></trkpt><trkpt lat="45.0990874" lon="7.947947"><ele>343.0</ele><time>2026-04-19T12:51:13.486Z</time></trkpt><trkpt lat="45.0992014" lon="7.9478317"><ele>343.0</ele><time>2026-04-19T12:51:14.486Z</time></trkpt><trkpt lat="45.0993143" lon="7.947725"><ele>343.0</ele><time>2026-04-19T12:51:15.486Z</time></trkpt><trkpt lat="45.0994617" lon="7.9476778"><ele>343.0</ele><time>2026-04-19T12:51:16.486Z</time></trkpt><trkpt lat="45.0996177" lon="7.9476198"><ele>343.0</ele><time>2026-04-19T12:51:17.487Z</time></trkpt><trkpt lat="45.0997666" lon="7.9475602"><ele>343.0</ele><time>2026-04-19T12:51:18.486Z</time></trkpt><trkpt lat="45.0999159" lon="7.9474964"><ele>343.0</ele><time>2026-04-19T12:51:19.486Z</time></trkpt><trkpt lat="45.1000516" lon="7.9474349"><ele>340.5</ele><time>2026-04-19T12:51:20.487Z</time></trkpt><trkpt lat="45.1001999" lon="7.947373"><ele>338.0</ele><time>2026-04-19T12:51:21.486Z</time></trkpt><trkpt lat="45.1003318" lon="7.947309"><ele>335.5</ele><time>2026-04-19T12:51:22.487Z</time></trkpt><trkpt lat="45.100456" lon="7.9472646"><ele>333.0</ele><time>2026-04-19T12:51:23.487Z</time></trkpt><trkpt lat="45.1005812" lon="7.9472124"><ele>333.0</ele><time>2026-04-19T12:51:24.486Z</time></trkpt><trkpt lat="45.1006792" lon="7.9471601"><ele>333.0</ele><time>2026-04-19T12:51:25.486Z</time></trkpt><trkpt lat="45.1006971" lon="7.9469631"><ele>333.0</ele><time>2026-04-19T12:51:26.486Z</time></trkpt><trkpt lat="45.1007229" lon="7.9468087"><ele>333.0</ele><time>2026-04-19T12:51:27.486Z</time></trkpt><trkpt lat="45.1007428" lon="7.9466423"><ele>333.75</ele><time>2026-04-19T12:51:28.486Z</time></trkpt><trkpt lat="45.1007645" lon="7.9464817"><ele>334.5</ele><time>2026-04-19T12:51:29.486Z</time></trkpt><trkpt lat="45.100735" lon="7.9463316"><ele>335.25</ele><time>2026-04-19T12:51:30.486Z</time></trkpt><trkpt lat="45.1007151" lon="7.9461996"><ele>336.0</ele><time>2026-04-19T12:51:31.486Z</time></trkpt><trkpt lat="45.100672" lon="7.9459125"><ele>328.75</ele><time>2026-04-19T12:51:32.486Z</time></trkpt><trkpt lat="45.1006116" lon="7.9457232"><ele>321.5</ele><time>2026-04-19T12:51:33.486Z</time></trkpt><trkpt lat="45.1005686" lon="7.9455269"><ele>314.25</ele><time>2026-04-19T12:51:34.486Z</time></trkpt><trkpt lat="45.1004948" lon="7.9453326"><ele>307.0</ele><time>2026-04-19T12:51:35.486Z</time></trkpt><trkpt lat="45.1004711" lon="7.9451396"><ele>306.0</ele><time>2026-04-19T12:51:36.486Z</time></trkpt><trkpt lat="45.1005125" lon="7.9449648"><ele>305.0</ele><time>2026-04-19T12:51:37.486Z</time></trkpt><trkpt lat="45.1005644" lon="7.9448147"><ele>304.0</ele><time>2026-04-19T12:51:38.486Z</time></trkpt><trkpt lat="45.1006177" lon="7.944634"><ele>303.0</ele><time>2026-04-19T12:51:39.487Z</time></trkpt><trkpt lat="45.1006765" lon="7.9444864"><ele>303.0</ele><time>2026-04-19T12:51:40.487Z</time></trkpt><trkpt lat="45.1007351" lon="7.9443461"><ele>303.0</ele><time>2026-04-19T12:51:41.486Z</time></trkpt><trkpt lat="45.1008487" lon="7.9442711"><ele>303.0</ele><time>2026-04-19T12:51:42.486Z</time></trkpt><trkpt lat="45.100973" lon="7.9442032"><ele>303.0</ele><time>2026-04-19T12:51:43.487Z</time></trkpt><trkpt lat="45.1010668" lon="7.9442033"><ele>304.0</ele><time>2026-04-19T12:51:44.486Z</time></trkpt><trkpt lat="45.1011502" lon="7.9442128"><ele>305.0</ele><time>2026-04-19T12:51:45.487Z</time></trkpt><trkpt lat="45.1012579" lon="7.9442141"><ele>306.0</ele><time>2026-04-19T12:51:46.486Z</time></trkpt><trkpt lat="45.1013043" lon="7.9441483"><ele>307.0</ele><time>2026-04-19T12:51:47.487Z</time></trkpt><trkpt lat="45.1013866" lon="7.944032"><ele>308.0</ele><time>2026-04-19T12:51:49.486Z</time></trkpt><trkpt lat="45.1013742" lon="7.9439425"><ele>309.0</ele><time>2026-04-19T12:51:50.487Z</time></trkpt><trkpt lat="45.1012795" lon="7.9438357"><ele>309.0</ele><time>2026-04-19T12:51:51.486Z</time></trkpt><trkpt lat="45.1012231" lon="7.9437956"><ele>309.0</ele><time>2026-04-19T12:51:52.486Z</time></trkpt><trkpt lat="45.1011431" lon="7.943801"><ele>309.0</ele><time>2026-04-19T12:51:53.486Z</time></trkpt><trkpt lat="45.1010689" lon="7.9438057"><ele>309.0</ele><time>2026-04-19T12:51:54.487Z</time></trkpt><trkpt lat="45.1009672" lon="7.9438946"><ele>309.0</ele><time>2026-04-19T12:51:55.486Z</time></trkpt><trkpt lat="45.1008624" lon="7.943978"><ele>309.0</ele><time>2026-04-19T12:51:56.486Z</time></trkpt><trkpt lat="45.1007635" lon="7.9440694"><ele>309.0</ele><time>2026-04-19T12:51:57.487Z</time></trkpt><trkpt lat="45.1006743" lon="7.9441584"><ele>309.0</ele><time>2026-04-19T12:51:58.486Z</time></trkpt><trkpt lat="45.1005754" lon="7.9442988"><ele>309.0</ele><time>2026-04-19T12:51:59.486Z</time></trkpt><trkpt lat="45.1004705" lon="7.9444183"><ele>307.5</ele><time>2026-04-19T12:52:00.486Z</time></trkpt><trkpt lat="45.1003701" lon="7.9445344"><ele>306.0</ele><time>2026-04-19T12:52:01.486Z</time></trkpt><trkpt lat="45.100277" lon="7.9446481"><ele>304.5</ele><time>2026-04-19T12:52:02.486Z</time></trkpt><trkpt lat="45.1001899" lon="7.9447479"><ele>303.0</ele><time>2026-04-19T12:52:03.487Z</time></trkpt><trkpt lat="45.1001051" lon="7.9448506"><ele>303.0</ele><time>2026-04-19T12:52:04.486Z</time></trkpt><trkpt lat="45.1000103" lon="7.9449453"><ele>303.0</ele><time>2026-04-19T12:52:05.487Z</time></trkpt><trkpt lat="45.099939" lon="7.9450963"><ele>303.0</ele><time>2026-04-19T12:52:06.486Z</time></trkpt><trkpt lat="45.0999477" lon="7.9452702"><ele>303.0</ele><time>2026-04-19T12:52:07.487Z</time></trkpt><trkpt lat="45.0999556" lon="7.9454486"><ele>303.6</ele><time>2026-04-19T12:52:08.486Z</time></trkpt><trkpt lat="45.0999501" lon="7.9456093"><ele>304.20000000000005</ele><time>2026-04-19T12:52:09.486Z</time></trkpt><trkpt lat="45.0999203" lon="7.9457479"><ele>304.8</ele><time>2026-04-19T12:52:10.486Z</time></trkpt><trkpt lat="45.0999024" lon="7.9458643"><ele>305.40000000000003</ele><time>2026-04-19T12:52:11.486Z</time></trkpt><trkpt lat="45.0998587" lon="7.9459536"><ele>306.0</ele><time>2026-04-19T12:52:12.486Z</time></trkpt><trkpt lat="45.0997372" lon="7.945954"><ele>306.0</ele><time>2026-04-19T12:52:14.486Z</time></trkpt><trkpt lat="45.0997019" lon="7.945835"><ele>306.0</ele><time>2026-04-19T12:52:15.486Z</time></trkpt><trkpt lat="45.0996652" lon="7.9457211"><ele>306.0</ele><time>2026-04-19T12:52:17.486Z</time></trkpt><trkpt lat="45.0997564" lon="7.9455349"><ele>306.0</ele><time>2026-04-19T12:52:18.486Z</time></trkpt><trkpt lat="45.0997971" lon="7.9453998"><ele>306.0</ele><time>2026-04-19T12:52:19.486Z</time></trkpt><trkpt lat="45.0997846" lon="7.9452536"><ele>306.0</ele><time>2026-04-19T12:52:20.487Z</time></trkpt><trkpt lat="45.0997606" lon="7.945111"><ele>306.0</ele><time>2026-04-19T12:52:21.486Z</time></trkpt><trkpt lat="45.099782" lon="7.9450022"><ele>306.0</ele><time>2026-04-19T12:52:22.486Z</time></trkpt><trkpt lat="45.0997743" lon="7.9448728"><ele>306.0</ele><time>2026-04-19T12:52:23.486Z</time></trkpt><trkpt lat="45.0997727" lon="7.9447209"><ele>306.0</ele><time>2026-04-19T12:52:24.486Z</time></trkpt><trkpt lat="45.0997836" lon="7.944579"><ele>303.3333333333333</ele><time>2026-04-19T12:52:25.486Z</time></trkpt><trkpt lat="45.0997949" lon="7.9444231"><ele>300.66666666666663</ele><time>2026-04-19T12:52:26.486Z</time></trkpt><trkpt lat="45.0998276" lon="7.9442505"><ele>298.0</ele><time>2026-04-19T12:52:27.486Z</time></trkpt><trkpt lat="45.0999344" lon="7.9439853"><ele>298.0</ele><time>2026-04-19T12:52:28.486Z</time></trkpt><trkpt lat="45.1000039" lon="7.9437614"><ele>298.0</ele><time>2026-04-19T12:52:29.486Z</time></trkpt><trkpt lat="45.1000684" lon="7.9435273"><ele>298.0</ele><time>2026-04-19T12:52:30.487Z</time></trkpt><trkpt lat="45.1001653" lon="7.9432574"><ele>295.66666666666663</ele><time>2026-04-19T12:52:31.486Z</time></trkpt><trkpt lat="45.1002731" lon="7.9430162"><ele>293.3333333333333</ele><time>2026-04-19T12:52:32.486Z</time></trkpt><trkpt lat="45.1003631" lon="7.9427714"><ele>291.0</ele><time>2026-04-19T12:52:33.486Z</time></trkpt><trkpt lat="45.1004443" lon="7.942526"><ele>287.6666666666667</ele><time>2026-04-19T12:52:34.486Z</time></trkpt><trkpt lat="45.1005173" lon="7.9423018"><ele>284.33333333333337</ele><time>2026-04-19T12:52:35.486Z</time></trkpt><trkpt lat="45.1006046" lon="7.9420651"><ele>281.0</ele><time>2026-04-19T12:52:36.487Z</time></trkpt><trkpt lat="45.1006656" lon="7.9418835"><ele>282.0</ele><time>2026-04-19T12:52:37.486Z</time></trkpt><trkpt lat="45.1007407" lon="7.941706"><ele>283.0</ele><time>2026-04-19T12:52:38.486Z</time></trkpt><trkpt lat="45.1007998" lon="7.9415953"><ele>284.0</ele><time>2026-04-19T12:52:39.487Z</time></trkpt><trkpt lat="45.1009136" lon="7.9413953"><ele>285.0</ele><time>2026-04-19T12:52:40.486Z</time></trkpt><trkpt lat="45.1010155" lon="7.941271"><ele>285.0</ele><time>2026-04-19T12:52:41.486Z</time></trkpt><trkpt lat="45.1010953" lon="7.9413157"><ele>285.0</ele><time>2026-04-19T12:52:42.487Z</time></trkpt><trkpt lat="45.1011866" lon="7.9413125"><ele>285.0</ele><time>2026-04-19T12:52:43.486Z</time></trkpt><trkpt lat="45.1012858" lon="7.9413827"><ele>285.0</ele><time>2026-04-19T12:52:44.486Z</time></trkpt><trkpt lat="45.1014281" lon="7.9414043"><ele>285.0</ele><time>2026-04-19T12:52:45.487Z</time></trkpt><trkpt lat="45.1015428" lon="7.9413108"><ele>285.0</ele><time>2026-04-19T12:52:47.486Z</time></trkpt><trkpt lat="45.1015738" lon="7.9410966"><ele>285.0</ele><time>2026-04-19T12:52:48.487Z</time></trkpt><trkpt lat="45.1016274" lon="7.9409281"><ele>285.0</ele><time>2026-04-19T12:52:49.486Z</time></trkpt><trkpt lat="45.1016684" lon="7.9407464"><ele>285.0</ele><time>2026-04-19T12:52:50.486Z</time></trkpt><trkpt lat="45.1017139" lon="7.9406009"><ele>282.5</ele><time>2026-04-19T12:52:51.487Z</time></trkpt><trkpt lat="45.101757" lon="7.9404531"><ele>280.0</ele><time>2026-04-19T12:52:52.486Z</time></trkpt><trkpt lat="45.1018672" lon="7.9403609"><ele>277.5</ele><time>2026-04-19T12:52:53.487Z</time></trkpt><trkpt lat="45.1019887" lon="7.9403111"><ele>275.0</ele><time>2026-04-19T12:52:54.486Z</time></trkpt><trkpt lat="45.1021717" lon="7.9402612"><ele>275.0</ele><time>2026-04-19T12:52:55.487Z</time></trkpt><trkpt lat="45.1023414" lon="7.940218"><ele>275.0</ele><time>2026-04-19T12:52:56.486Z</time></trkpt><trkpt lat="45.1024965" lon="7.940166"><ele>275.0</ele><time>2026-04-19T12:52:57.486Z</time></trkpt><trkpt lat="45.1026367" lon="7.9401178"><ele>275.75</ele><time>2026-04-19T12:52:58.486Z</time></trkpt><trkpt lat="45.1027747" lon="7.9400901"><ele>276.5</ele><time>2026-04-19T12:52:59.486Z</time></trkpt><trkpt lat="45.1029039" lon="7.9400546"><ele>277.25</ele><time>2026-04-19T12:53:00.487Z</time></trkpt><trkpt lat="45.1029992" lon="7.9401737"><ele>278.0</ele><time>2026-04-19T12:53:01.487Z</time></trkpt><trkpt lat="45.1031069" lon="7.9402243"><ele>278.0</ele><time>2026-04-19T12:53:02.487Z</time></trkpt><trkpt lat="45.1032007" lon="7.9403206"><ele>278.0</ele><time>2026-04-19T12:53:03.487Z</time></trkpt><trkpt lat="45.1032874" lon="7.9403869"><ele>278.0</ele><time>2026-04-19T12:53:04.487Z</time></trkpt><trkpt lat="45.1034057" lon="7.9404093"><ele>278.0</ele><time>2026-04-19T12:53:05.486Z</time></trkpt><trkpt lat="45.1035443" lon="7.940384"><ele>276.75</ele><time>2026-04-19T12:53:06.487Z</time></trkpt><trkpt lat="45.103671" lon="7.9403276"><ele>275.5</ele><time>2026-04-19T12:53:07.486Z</time></trkpt><trkpt lat="45.1038163" lon="7.9402799"><ele>274.25</ele><time>2026-04-19T12:53:08.486Z</time></trkpt><trkpt lat="45.1039596" lon="7.9402217"><ele>273.0</ele><time>2026-04-19T12:53:09.486Z</time></trkpt><trkpt lat="45.1041061" lon="7.940291"><ele>269.3333333333333</ele><time>2026-04-19T12:53:10.487Z</time></trkpt><trkpt lat="45.104258" lon="7.9403113"><ele>265.66666666666663</ele><time>2026-04-19T12:53:11.486Z</time></trkpt><trkpt lat="45.1044191" lon="7.9404741"><ele>262.0</ele><time>2026-04-19T12:53:12.486Z</time></trkpt><trkpt lat="45.1045684" lon="7.9405634"><ele>262.0</ele><time>2026-04-19T12:53:13.486Z</time></trkpt><trkpt lat="45.1047113" lon="7.9406662"><ele>262.0</ele><time>2026-04-19T12:53:14.487Z</time></trkpt><trkpt lat="45.1048927" lon="7.9407542"><ele>262.0</ele><time>2026-04-19T12:53:15.486Z</time></trkpt><trkpt lat="45.1050612" lon="7.9408358"><ele>259.66666666666663</ele><time>2026-04-19T12:53:16.486Z</time></trkpt><trkpt lat="45.1052246" lon="7.940903"><ele>257.3333333333333</ele><time>2026-04-19T12:53:17.486Z</time></trkpt><trkpt lat="45.1054323" lon="7.9409563"><ele>255.0</ele><time>2026-04-19T12:53:18.487Z</time></trkpt><trkpt lat="45.1056164" lon="7.9410212"><ele>251.66666666666669</ele><time>2026-04-19T12:53:19.486Z</time></trkpt><trkpt lat="45.1058026" lon="7.9410943"><ele>248.33333333333334</ele><time>2026-04-19T12:53:20.486Z</time></trkpt><trkpt lat="45.105973" lon="7.9411512"><ele>245.0</ele><time>2026-04-19T12:53:21.486Z</time></trkpt><trkpt lat="45.1061468" lon="7.9412001"><ele>245.0</ele><time>2026-04-19T12:53:22.487Z</time></trkpt><trkpt lat="45.1063264" lon="7.9412966"><ele>245.0</ele><time>2026-04-19T12:53:23.487Z</time></trkpt><trkpt lat="45.10652" lon="7.9413569"><ele>245.0</ele><time>2026-04-19T12:53:24.487Z</time></trkpt><trkpt lat="45.1066986" lon="7.9414567"><ele>244.66666666666669</ele><time>2026-04-19T12:53:25.486Z</time></trkpt><trkpt lat="45.1068847" lon="7.9415564"><ele>244.33333333333331</ele><time>2026-04-19T12:53:26.486Z</time></trkpt><trkpt lat="45.1070586" lon="7.9416561"><ele>244.0</ele><time>2026-04-19T12:53:27.486Z</time></trkpt><trkpt lat="45.1072288" lon="7.9417227"><ele>244.0</ele><time>2026-04-19T12:53:28.487Z</time></trkpt><trkpt lat="45.1074065" lon="7.9417978"><ele>244.0</ele><time>2026-04-19T12:53:29.486Z</time></trkpt><trkpt lat="45.1075788" lon="7.9418504"><ele>244.0</ele><time>2026-04-19T12:53:30.486Z</time></trkpt><trkpt lat="45.1076916" lon="7.9418673"><ele>244.0</ele><time>2026-04-19T12:53:31.486Z</time></trkpt><trkpt lat="45.1078137" lon="7.9418318"><ele>244.0</ele><time>2026-04-19T12:53:32.486Z</time></trkpt><trkpt lat="45.1079757" lon="7.9417225"><ele>244.0</ele><time>2026-04-19T12:53:33.487Z</time></trkpt><trkpt lat="45.1081195" lon="7.9416506"><ele>243.0</ele><time>2026-04-19T12:53:34.486Z</time></trkpt><trkpt lat="45.1082725" lon="7.9415745"><ele>242.0</ele><time>2026-04-19T12:53:35.486Z</time></trkpt><trkpt lat="45.1084485" lon="7.9414936"><ele>241.0</ele><time>2026-04-19T12:53:36.486Z</time></trkpt><trkpt lat="45.1086176" lon="7.9414202"><ele>241.0</ele><time>2026-04-19T12:53:37.486Z</time></trkpt><trkpt lat="45.1087979" lon="7.9413821"><ele>241.0</ele><time>2026-04-19T12:53:38.486Z</time></trkpt><trkpt lat="45.1089596" lon="7.9413341"><ele>241.0</ele><time>2026-04-19T12:53:39.486Z</time></trkpt><trkpt lat="45.1091655" lon="7.9413373"><ele>240.33333333333331</ele><time>2026-04-19T12:53:40.487Z</time></trkpt><trkpt lat="45.1093519" lon="7.9414122"><ele>239.66666666666669</ele><time>2026-04-19T12:53:41.486Z</time></trkpt><trkpt lat="45.1095611" lon="7.9414377"><ele>239.0</ele><time>2026-04-19T12:53:42.486Z</time></trkpt><trkpt lat="45.1097461" lon="7.9414599"><ele>238.66666666666669</ele><time>2026-04-19T12:53:43.486Z</time></trkpt><trkpt lat="45.1099411" lon="7.9414674"><ele>238.33333333333331</ele><time>2026-04-19T12:53:44.486Z</time></trkpt><trkpt lat="45.1101342" lon="7.9415057"><ele>238.0</ele><time>2026-04-19T12:53:45.486Z</time></trkpt><trkpt lat="45.1103282" lon="7.9415321"><ele>238.0</ele><time>2026-04-19T12:53:46.486Z</time></trkpt><trkpt lat="45.1105216" lon="7.941577"><ele>238.0</ele><time>2026-04-19T12:53:47.487Z</time></trkpt><trkpt lat="45.1106995" lon="7.9416535"><ele>238.0</ele><time>2026-04-19T12:53:48.486Z</time></trkpt><trkpt lat="45.1108988" lon="7.9417162"><ele>236.0</ele><time>2026-04-19T12:53:49.487Z</time></trkpt><trkpt lat="45.111054" lon="7.9417863"><ele>234.0</ele><time>2026-04-19T12:53:50.486Z</time></trkpt><trkpt lat="45.1112058" lon="7.941835"><ele>232.0</ele><time>2026-04-19T12:53:51.486Z</time></trkpt><trkpt lat="45.1113501" lon="7.9418906"><ele>232.0</ele><time>2026-04-19T12:53:52.486Z</time></trkpt><trkpt lat="45.1114869" lon="7.9419125"><ele>232.0</ele><time>2026-04-19T12:53:53.486Z</time></trkpt><trkpt lat="45.1116408" lon="7.9418548"><ele>232.0</ele><time>2026-04-19T12:53:54.486Z</time></trkpt><trkpt lat="45.111796" lon="7.9418142"><ele>232.25</ele><time>2026-04-19T12:53:55.487Z</time></trkpt><trkpt lat="45.1119324" lon="7.9417848"><ele>232.5</ele><time>2026-04-19T12:53:56.486Z</time></trkpt><trkpt lat="45.1120529" lon="7.9417764"><ele>232.75</ele><time>2026-04-19T12:53:57.486Z</time></trkpt><trkpt lat="45.1121711" lon="7.9417828"><ele>233.0</ele><time>2026-04-19T12:53:58.487Z</time></trkpt><trkpt lat="45.1122738" lon="7.9418518"><ele>233.0</ele><time>2026-04-19T12:53:59.486Z</time></trkpt><trkpt lat="45.112343" lon="7.9419114"><ele>233.0</ele><time>2026-04-19T12:54:00.486Z</time></trkpt><trkpt lat="45.112443" lon="7.9420149"><ele>233.0</ele><time>2026-04-19T12:54:01.486Z</time></trkpt><trkpt lat="45.1125127" lon="7.9420628"><ele>233.0</ele><time>2026-04-19T12:54:02.486Z</time></trkpt><trkpt lat="45.1126192" lon="7.9420815"><ele>233.0</ele><time>2026-04-19T12:54:03.487Z</time></trkpt><trkpt lat="45.112791" lon="7.9421024"><ele>233.66666666666669</ele><time>2026-04-19T12:54:04.487Z</time></trkpt><trkpt lat="45.1129676" lon="7.9420375"><ele>234.33333333333331</ele><time>2026-04-19T12:54:05.487Z</time></trkpt><trkpt lat="45.1131431" lon="7.942015"><ele>235.0</ele><time>2026-04-19T12:54:06.487Z</time></trkpt><trkpt lat="45.1133155" lon="7.9419856"><ele>233.66666666666666</ele><time>2026-04-19T12:54:07.486Z</time></trkpt><trkpt lat="45.113485" lon="7.9419479"><ele>232.33333333333331</ele><time>2026-04-19T12:54:08.487Z</time></trkpt><trkpt lat="45.1136609" lon="7.9419219"><ele>231.0</ele><time>2026-04-19T12:54:09.487Z</time></trkpt><trkpt lat="45.1138088" lon="7.9418976"><ele>231.0</ele><time>2026-04-19T12:54:10.486Z</time></trkpt><trkpt lat="45.1140065" lon="7.9418811"><ele>231.0</ele><time>2026-04-19T12:54:11.486Z</time></trkpt><trkpt lat="45.1141835" lon="7.9418542"><ele>231.0</ele><time>2026-04-19T12:54:12.486Z</time></trkpt><trkpt lat="45.1143563" lon="7.9418252"><ele>231.33333333333331</ele><time>2026-04-19T12:54:13.486Z</time></trkpt><trkpt lat="45.1145307" lon="7.9417551"><ele>231.66666666666666</ele><time>2026-04-19T12:54:14.487Z</time></trkpt><trkpt lat="45.1146961" lon="7.9416978"><ele>232.0</ele><time>2026-04-19T12:54:15.486Z</time></trkpt><trkpt lat="45.1148768" lon="7.941608"><ele>233.33333333333331</ele><time>2026-04-19T12:54:16.486Z</time></trkpt><trkpt lat="45.1150691" lon="7.9415622"><ele>234.66666666666669</ele><time>2026-04-19T12:54:17.486Z</time></trkpt><trkpt lat="45.1152374" lon="7.94149"><ele>236.0</ele><time>2026-04-19T12:54:18.486Z</time></trkpt><trkpt lat="45.1154109" lon="7.9414154"><ele>236.0</ele><time>2026-04-19T12:54:19.486Z</time></trkpt><trkpt lat="45.1155904" lon="7.941345"><ele>236.0</ele><time>2026-04-19T12:54:20.486Z</time></trkpt><trkpt lat="45.115754" lon="7.9412943"><ele>236.0</ele><time>2026-04-19T12:54:21.486Z</time></trkpt><trkpt lat="45.1159003" lon="7.9412539"><ele>234.0</ele><time>2026-04-19T12:54:22.486Z</time></trkpt><trkpt lat="45.1160438" lon="7.9412067"><ele>232.0</ele><time>2026-04-19T12:54:23.486Z</time></trkpt><trkpt lat="45.1161852" lon="7.9411664"><ele>230.0</ele><time>2026-04-19T12:54:24.486Z</time></trkpt><trkpt lat="45.1163029" lon="7.9413623"><ele>230.0</ele><time>2026-04-19T12:54:25.487Z</time></trkpt><trkpt lat="45.116415" lon="7.9414429"><ele>230.0</ele><time>2026-04-19T12:54:26.486Z</time></trkpt><trkpt lat="45.1165416" lon="7.9415473"><ele>230.0</ele><time>2026-04-19T12:54:27.486Z</time></trkpt><trkpt lat="45.116667" lon="7.9416524"><ele>230.0</ele><time>2026-04-19T12:54:28.487Z</time></trkpt><trkpt lat="45.1167837" lon="7.9417355"><ele>229.66666666666669</ele><time>2026-04-19T12:54:29.486Z</time></trkpt><trkpt lat="45.1169032" lon="7.9418006"><ele>229.33333333333331</ele><time>2026-04-19T12:54:30.486Z</time></trkpt><trkpt lat="45.1171159" lon="7.9417427"><ele>229.0</ele><time>2026-04-19T12:54:31.486Z</time></trkpt><trkpt lat="45.1172647" lon="7.9417151"><ele>228.0</ele><time>2026-04-19T12:54:32.486Z</time></trkpt><trkpt lat="45.1174534" lon="7.941668"><ele>227.0</ele><time>2026-04-19T12:54:33.487Z</time></trkpt><trkpt lat="45.1176502" lon="7.9416221"><ele>226.0</ele><time>2026-04-19T12:54:34.487Z</time></trkpt><trkpt lat="45.1178416" lon="7.9415815"><ele>226.0</ele><time>2026-04-19T12:54:35.487Z</time></trkpt><trkpt lat="45.1180383" lon="7.9415372"><ele>226.0</ele><time>2026-04-19T12:54:36.486Z</time></trkpt><trkpt lat="45.1182393" lon="7.941494"><ele>226.0</ele><time>2026-04-19T12:54:37.486Z</time></trkpt><trkpt lat="45.1184271" lon="7.9414582"><ele>225.0</ele><time>2026-04-19T12:54:38.486Z</time></trkpt><trkpt lat="45.1185906" lon="7.9414024"><ele>224.0</ele><time>2026-04-19T12:54:39.486Z</time></trkpt><trkpt lat="45.1187632" lon="7.9413319"><ele>223.0</ele><time>2026-04-19T12:54:40.487Z</time></trkpt><trkpt lat="45.1189343" lon="7.9412443"><ele>221.33333333333331</ele><time>2026-04-19T12:54:41.487Z</time></trkpt><trkpt lat="45.1191082" lon="7.9411576"><ele>219.66666666666669</ele><time>2026-04-19T12:54:42.486Z</time></trkpt><trkpt lat="45.1192877" lon="7.9410407"><ele>218.0</ele><time>2026-04-19T12:54:43.486Z</time></trkpt><trkpt lat="45.1194537" lon="7.9409129"><ele>217.66666666666669</ele><time>2026-04-19T12:54:44.487Z</time></trkpt><trkpt lat="45.1196128" lon="7.9407568"><ele>217.33333333333331</ele><time>2026-04-19T12:54:45.486Z</time></trkpt><trkpt lat="45.1197789" lon="7.9406035"><ele>217.0</ele><time>2026-04-19T12:54:46.487Z</time></trkpt><trkpt lat="45.1199071" lon="7.9404338"><ele>217.0</ele><time>2026-04-19T12:54:47.487Z</time></trkpt><trkpt lat="45.1200531" lon="7.9402992"><ele>217.0</ele><time>2026-04-19T12:54:48.486Z</time></trkpt><trkpt lat="45.1202055" lon="7.94015"><ele>217.0</ele><time>2026-04-19T12:54:49.487Z</time></trkpt><trkpt lat="45.1203745" lon="7.9400957"><ele>216.66666666666666</ele><time>2026-04-19T12:54:50.486Z</time></trkpt><trkpt lat="45.1205314" lon="7.9400316"><ele>216.33333333333331</ele><time>2026-04-19T12:54:51.486Z</time></trkpt><trkpt lat="45.120708" lon="7.9399503"><ele>216.0</ele><time>2026-04-19T12:54:52.486Z</time></trkpt><trkpt lat="45.1208662" lon="7.9399037"><ele>215.66666666666669</ele><time>2026-04-19T12:54:53.486Z</time></trkpt><trkpt lat="45.1210545" lon="7.9400807"><ele>215.33333333333334</ele><time>2026-04-19T12:54:54.486Z</time></trkpt><trkpt lat="45.1212269" lon="7.9401506"><ele>215.0</ele><time>2026-04-19T12:54:55.486Z</time></trkpt><trkpt lat="45.1213876" lon="7.9402214"><ele>214.66666666666669</ele><time>2026-04-19T12:54:56.486Z</time></trkpt><trkpt lat="45.1215677" lon="7.9403385"><ele>214.33333333333331</ele><time>2026-04-19T12:54:57.487Z</time></trkpt><trkpt lat="45.121736" lon="7.9404347"><ele>214.0</ele><time>2026-04-19T12:54:58.486Z</time></trkpt><trkpt lat="45.1218879" lon="7.9405237"><ele>214.0</ele><time>2026-04-19T12:54:59.486Z</time></trkpt><trkpt lat="45.1220371" lon="7.940675"><ele>214.0</ele><time>2026-04-19T12:55:00.487Z</time></trkpt><trkpt lat="45.1221905" lon="7.9408292"><ele>214.0</ele><time>2026-04-19T12:55:01.486Z</time></trkpt><trkpt lat="45.1223426" lon="7.9409713"><ele>213.0</ele><time>2026-04-19T12:55:02.486Z</time></trkpt><trkpt lat="45.1224996" lon="7.9411033"><ele>212.0</ele><time>2026-04-19T12:55:03.486Z</time></trkpt><trkpt lat="45.1226577" lon="7.9412473"><ele>211.0</ele><time>2026-04-19T12:55:04.486Z</time></trkpt><trkpt lat="45.1228182" lon="7.9413462"><ele>211.0</ele><time>2026-04-19T12:55:05.487Z</time></trkpt><trkpt lat="45.1229787" lon="7.9414569"><ele>211.0</ele><time>2026-04-19T12:55:06.486Z</time></trkpt><trkpt lat="45.12314" lon="7.9415544"><ele>211.0</ele><time>2026-04-19T12:55:07.486Z</time></trkpt><trkpt lat="45.1232985" lon="7.9416538"><ele>210.66666666666666</ele><time>2026-04-19T12:55:08.486Z</time></trkpt><trkpt lat="45.1234494" lon="7.9417698"><ele>210.33333333333331</ele><time>2026-04-19T12:55:09.486Z</time></trkpt><trkpt lat="45.1235887" lon="7.9418967"><ele>210.0</ele><time>2026-04-19T12:55:10.487Z</time></trkpt><trkpt lat="45.1237251" lon="7.9420334"><ele>210.0</ele><time>2026-04-19T12:55:11.486Z</time></trkpt><trkpt lat="45.1238575" lon="7.9421789"><ele>210.0</ele><time>2026-04-19T12:55:12.486Z</time></trkpt><trkpt lat="45.1239891" lon="7.9423347"><ele>210.0</ele><time>2026-04-19T12:55:13.486Z</time></trkpt><trkpt lat="45.1241291" lon="7.9424919"><ele>209.33333333333331</ele><time>2026-04-19T12:55:14.486Z</time></trkpt><trkpt lat="45.1242827" lon="7.9426308"><ele>208.66666666666666</ele><time>2026-04-19T12:55:15.486Z</time></trkpt><trkpt lat="45.1244376" lon="7.9427843"><ele>208.0</ele><time>2026-04-19T12:55:16.487Z</time></trkpt><trkpt lat="45.124586" lon="7.942928"><ele>208.0</ele><time>2026-04-19T12:55:17.486Z</time></trkpt><trkpt lat="45.1247406" lon="7.943062"><ele>208.0</ele><time>2026-04-19T12:55:18.486Z</time></trkpt><trkpt lat="45.1249062" lon="7.9431979"><ele>208.0</ele><time>2026-04-19T12:55:19.487Z</time></trkpt><trkpt lat="45.125069" lon="7.9433216"><ele>208.0</ele><time>2026-04-19T12:55:20.487Z</time></trkpt><trkpt lat="45.1252549" lon="7.9433749"><ele>208.0</ele><time>2026-04-19T12:55:21.486Z</time></trkpt><trkpt lat="45.1254299" lon="7.9434349"><ele>208.0</ele><time>2026-04-19T12:55:22.486Z</time></trkpt><trkpt lat="45.1256083" lon="7.9434767"><ele>207.66666666666666</ele><time>2026-04-19T12:55:23.487Z</time></trkpt><trkpt lat="45.1257742" lon="7.9435249"><ele>207.33333333333331</ele><time>2026-04-19T12:55:24.486Z</time></trkpt><trkpt lat="45.1259499" lon="7.9435586"><ele>207.0</ele><time>2026-04-19T12:55:25.486Z</time></trkpt><trkpt lat="45.126132" lon="7.9435629"><ele>207.0</ele><time>2026-04-19T12:55:26.487Z</time></trkpt><trkpt lat="45.1263065" lon="7.9435741"><ele>207.0</ele><time>2026-04-19T12:55:27.486Z</time></trkpt><trkpt lat="45.126498" lon="7.9436002"><ele>207.0</ele><time>2026-04-19T12:55:28.486Z</time></trkpt><trkpt lat="45.1266711" lon="7.9436275"><ele>207.0</ele><time>2026-04-19T12:55:29.486Z</time></trkpt><trkpt lat="45.1268251" lon="7.9436523"><ele>207.0</ele><time>2026-04-19T12:55:30.486Z</time></trkpt><trkpt lat="45.1269727" lon="7.943668"><ele>207.0</ele><time>2026-04-19T12:55:31.486Z</time></trkpt><trkpt lat="45.1271099" lon="7.9436943"><ele>207.0</ele><time>2026-04-19T12:55:32.487Z</time></trkpt><trkpt lat="45.1272417" lon="7.9437062"><ele>207.0</ele><time>2026-04-19T12:55:33.486Z</time></trkpt><trkpt lat="45.1273837" lon="7.9437096"><ele>207.0</ele><time>2026-04-19T12:55:34.487Z</time></trkpt><trkpt lat="45.1275045" lon="7.9437093"><ele>207.0</ele><time>2026-04-19T12:55:35.487Z</time></trkpt><trkpt lat="45.1276322" lon="7.9437031"><ele>207.0</ele><time>2026-04-19T12:55:36.487Z</time></trkpt><trkpt lat="45.1277718" lon="7.9436609"><ele>207.25</ele><time>2026-04-19T12:55:37.486Z</time></trkpt><trkpt lat="45.1279177" lon="7.9436249"><ele>207.5</ele><time>2026-04-19T12:55:38.486Z</time></trkpt><trkpt lat="45.1280455" lon="7.9435666"><ele>207.75</ele><time>2026-04-19T12:55:39.486Z</time></trkpt><trkpt lat="45.1281738" lon="7.9434974"><ele>208.0</ele><time>2026-04-19T12:55:40.486Z</time></trkpt><trkpt lat="45.1282971" lon="7.9434288"><ele>208.25</ele><time>2026-04-19T12:55:41.487Z</time></trkpt><trkpt lat="45.1284085" lon="7.9433605"><ele>208.5</ele><time>2026-04-19T12:55:42.487Z</time></trkpt><trkpt lat="45.1285322" lon="7.9432979"><ele>208.75</ele><time>2026-04-19T12:55:43.487Z</time></trkpt><trkpt lat="45.1286541" lon="7.9432303"><ele>209.0</ele><time>2026-04-19T12:55:44.486Z</time></trkpt><trkpt lat="45.1287844" lon="7.9431545"><ele>209.00000000000003</ele><time>2026-04-19T12:55:45.487Z</time></trkpt><trkpt lat="45.128869" lon="7.9431088"><ele>209.0</ele><time>2026-04-19T12:55:46.487Z</time></trkpt><trkpt lat="45.1289693" lon="7.9430676"><ele>209.0</ele><time>2026-04-19T12:55:47.486Z</time></trkpt><trkpt lat="45.1290613" lon="7.9430101"><ele>209.0</ele><time>2026-04-19T12:55:48.486Z</time></trkpt><trkpt lat="45.129126" lon="7.9429726"><ele>209.00000000000003</ele><time>2026-04-19T12:55:49.486Z</time></trkpt><trkpt lat="45.1291827" lon="7.9429171"><ele>209.0</ele><time>2026-04-19T12:55:50.486Z</time></trkpt><trkpt lat="45.1292968" lon="7.9430228"><ele>208.79999999999998</ele><time>2026-04-19T12:55:52.487Z</time></trkpt><trkpt lat="45.1294209" lon="7.9430375"><ele>208.6</ele><time>2026-04-19T12:55:54.486Z</time></trkpt><trkpt lat="45.1295052" lon="7.943026"><ele>208.4</ele><time>2026-04-19T12:55:55.486Z</time></trkpt><trkpt lat="45.1295823" lon="7.9430007"><ele>208.2</ele><time>2026-04-19T12:55:56.487Z</time></trkpt><trkpt lat="45.1296633" lon="7.9429637"><ele>208.0</ele><time>2026-04-19T12:55:57.486Z</time></trkpt><trkpt lat="45.1297503" lon="7.9429099"><ele>208.0</ele><time>2026-04-19T12:55:58.487Z</time></trkpt><trkpt lat="45.1298355" lon="7.9428358"><ele>208.0</ele><time>2026-04-19T12:55:59.486Z</time></trkpt><trkpt lat="45.1299244" lon="7.942757"><ele>208.0</ele><time>2026-04-19T12:56:00.486Z</time></trkpt><trkpt lat="45.1300286" lon="7.9426932"><ele>208.0</ele><time>2026-04-19T12:56:01.486Z</time></trkpt><trkpt lat="45.1301456" lon="7.9426301"><ele>208.0</ele><time>2026-04-19T12:56:02.486Z</time></trkpt><trkpt lat="45.1302587" lon="7.9425702"><ele>207.5</ele><time>2026-04-19T12:56:03.487Z</time></trkpt><trkpt lat="45.1303659" lon="7.9425056"><ele>207.0</ele><time>2026-04-19T12:56:04.486Z</time></trkpt><trkpt lat="45.1304808" lon="7.942448"><ele>206.5</ele><time>2026-04-19T12:56:05.486Z</time></trkpt><trkpt lat="45.1306076" lon="7.9423934"><ele>206.0</ele><time>2026-04-19T12:56:06.486Z</time></trkpt><trkpt lat="45.1307074" lon="7.9423233"><ele>205.75</ele><time>2026-04-19T12:56:07.486Z</time></trkpt><trkpt lat="45.1308126" lon="7.9422538"><ele>205.5</ele><time>2026-04-19T12:56:08.486Z</time></trkpt><trkpt lat="45.1309246" lon="7.9422049"><ele>205.25</ele><time>2026-04-19T12:56:09.486Z</time></trkpt><trkpt lat="45.1310268" lon="7.9421539"><ele>205.0</ele><time>2026-04-19T12:56:10.486Z</time></trkpt><trkpt lat="45.1311303" lon="7.9420995"><ele>205.0</ele><time>2026-04-19T12:56:11.487Z</time></trkpt><trkpt lat="45.1312354" lon="7.9420447"><ele>205.0</ele><time>2026-04-19T12:56:12.486Z</time></trkpt><trkpt lat="45.1313238" lon="7.941975"><ele>205.0</ele><time>2026-04-19T12:56:13.487Z</time></trkpt><trkpt lat="45.1314347" lon="7.9418899"><ele>205.0</ele><time>2026-04-19T12:56:14.486Z</time></trkpt><trkpt lat="45.1315447" lon="7.9418319"><ele>204.75</ele><time>2026-04-19T12:56:15.486Z</time></trkpt><trkpt lat="45.1316503" lon="7.9417686"><ele>204.5</ele><time>2026-04-19T12:56:16.486Z</time></trkpt><trkpt lat="45.131761" lon="7.9417051"><ele>204.25</ele><time>2026-04-19T12:56:17.487Z</time></trkpt><trkpt lat="45.1318767" lon="7.941638"><ele>204.0</ele><time>2026-04-19T12:56:18.487Z</time></trkpt><trkpt lat="45.1320103" lon="7.9415771"><ele>204.0</ele><time>2026-04-19T12:56:19.486Z</time></trkpt><trkpt lat="45.1321333" lon="7.9415155"><ele>204.0</ele><time>2026-04-19T12:56:20.486Z</time></trkpt><trkpt lat="45.1322568" lon="7.9414564"><ele>204.0</ele><time>2026-04-19T12:56:21.486Z</time></trkpt><trkpt lat="45.1323702" lon="7.9413856"><ele>204.0</ele><time>2026-04-19T12:56:22.486Z</time></trkpt><trkpt lat="45.1324991" lon="7.9413143"><ele>203.5</ele><time>2026-04-19T12:56:23.487Z</time></trkpt><trkpt lat="45.1326298" lon="7.9412683"><ele>203.0</ele><time>2026-04-19T12:56:24.487Z</time></trkpt><trkpt lat="45.132744" lon="7.9412077"><ele>202.5</ele><time>2026-04-19T12:56:25.487Z</time></trkpt><trkpt lat="45.1328597" lon="7.9411438"><ele>202.0</ele><time>2026-04-19T12:56:26.486Z</time></trkpt><trkpt lat="45.1329706" lon="7.9410824"><ele>202.0</ele><time>2026-04-19T12:56:27.486Z</time></trkpt><trkpt lat="45.1330518" lon="7.9410285"><ele>202.0</ele><time>2026-04-19T12:56:28.486Z</time></trkpt><trkpt lat="45.1331485" lon="7.9409743"><ele>202.0</ele><time>2026-04-19T12:56:29.486Z</time></trkpt><trkpt lat="45.1332218" lon="7.9409328"><ele>202.0</ele><time>2026-04-19T12:56:30.487Z</time></trkpt><trkpt lat="45.1333226" lon="7.940898"><ele>202.0</ele><time>2026-04-19T12:56:31.486Z</time></trkpt><trkpt lat="45.1334103" lon="7.9408449"><ele>201.83333333333331</ele><time>2026-04-19T12:56:32.486Z</time></trkpt><trkpt lat="45.1334901" lon="7.9407849"><ele>201.66666666666666</ele><time>2026-04-19T12:56:33.486Z</time></trkpt><trkpt lat="45.1335639" lon="7.9406633"><ele>201.5</ele><time>2026-04-19T12:56:35.486Z</time></trkpt><trkpt lat="45.1335987" lon="7.9405658"><ele>201.33333333333331</ele><time>2026-04-19T12:56:37.486Z</time></trkpt><trkpt lat="45.13365" lon="7.9405013"><ele>201.16666666666666</ele><time>2026-04-19T12:56:40.486Z</time></trkpt><trkpt lat="45.1336908" lon="7.940426"><ele>201.0</ele><time>2026-04-19T13:04:08.487Z</time></trkpt><trkpt lat="45.1337433" lon="7.9404951"><ele>201.0</ele><time>2026-04-19T13:04:12.487Z</time></trkpt><trkpt lat="45.1336752" lon="7.9405924"><ele>201.0</ele><time>2026-04-19T13:04:15.486Z</time></trkpt><trkpt lat="45.1336119" lon="7.9406376"><ele>201.0</ele><time>2026-04-19T13:04:16.486Z</time></trkpt><trkpt lat="45.133545" lon="7.9406731"><ele>201.0</ele><time>2026-04-19T13:04:17.486Z</time></trkpt><trkpt lat="45.1334717" lon="7.9407127"><ele>201.0</ele><time>2026-04-19T13:04:18.486Z</time></trkpt><trkpt lat="45.1333895" lon="7.94077"><ele>201.0</ele><time>2026-04-19T13:04:19.486Z</time></trkpt><trkpt lat="45.1332959" lon="7.9408287"><ele>201.20000000000002</ele><time>2026-04-19T13:04:20.486Z</time></trkpt><trkpt lat="45.1331994" lon="7.9408863"><ele>201.4</ele><time>2026-04-19T13:04:21.486Z</time></trkpt><trkpt lat="45.1331055" lon="7.9409431"><ele>201.6</ele><time>2026-04-19T13:04:22.487Z</time></trkpt><trkpt lat="45.1329926" lon="7.9410054"><ele>201.8</ele><time>2026-04-19T13:04:23.486Z</time></trkpt><trkpt lat="45.132881" lon="7.9410721"><ele>202.0</ele><time>2026-04-19T13:04:24.486Z</time></trkpt><trkpt lat="45.1327693" lon="7.9411365"><ele>202.0</ele><time>2026-04-19T13:04:25.487Z</time></trkpt><trkpt lat="45.1326538" lon="7.9412"><ele>202.0</ele><time>2026-04-19T13:04:26.487Z</time></trkpt><trkpt lat="45.132534" lon="7.9412711"><ele>202.0</ele><time>2026-04-19T13:04:27.486Z</time></trkpt><trkpt lat="45.1324173" lon="7.9413385"><ele>202.0</ele><time>2026-04-19T13:04:28.486Z</time></trkpt><trkpt lat="45.1322944" lon="7.9414087"><ele>202.5</ele><time>2026-04-19T13:04:29.486Z</time></trkpt><trkpt lat="45.1321703" lon="7.9414804"><ele>203.0</ele><time>2026-04-19T13:04:30.486Z</time></trkpt><trkpt lat="45.1320408" lon="7.9415542"><ele>203.5</ele><time>2026-04-19T13:04:31.486Z</time></trkpt><trkpt lat="45.1319178" lon="7.941625"><ele>204.0</ele><time>2026-04-19T13:04:32.487Z</time></trkpt><trkpt lat="45.1317909" lon="7.9417002"><ele>203.75</ele><time>2026-04-19T13:04:33.486Z</time></trkpt><trkpt lat="45.1316691" lon="7.9417696"><ele>203.5</ele><time>2026-04-19T13:04:34.486Z</time></trkpt><trkpt lat="45.1315498" lon="7.9418364"><ele>203.25</ele><time>2026-04-19T13:04:35.486Z</time></trkpt><trkpt lat="45.1314352" lon="7.9419014"><ele>203.0</ele><time>2026-04-19T13:04:36.486Z</time></trkpt><trkpt lat="45.131325" lon="7.9419584"><ele>203.5</ele><time>2026-04-19T13:04:37.487Z</time></trkpt><trkpt lat="45.131214" lon="7.942021"><ele>204.0</ele><time>2026-04-19T13:04:38.486Z</time></trkpt><trkpt lat="45.1311026" lon="7.9420675"><ele>204.5</ele><time>2026-04-19T13:04:39.486Z</time></trkpt><trkpt lat="45.1309909" lon="7.9421323"><ele>205.0</ele><time>2026-04-19T13:04:40.486Z</time></trkpt><trkpt lat="45.1308808" lon="7.9421768"><ele>205.0</ele><time>2026-04-19T13:04:41.487Z</time></trkpt><trkpt lat="45.130767" lon="7.9422494"><ele>205.0</ele><time>2026-04-19T13:04:42.486Z</time></trkpt><trkpt lat="45.1306565" lon="7.9423274"><ele>205.0</ele><time>2026-04-19T13:04:43.486Z</time></trkpt><trkpt lat="45.1305368" lon="7.9423967"><ele>205.0</ele><time>2026-04-19T13:04:44.486Z</time></trkpt><trkpt lat="45.1304233" lon="7.9424644"><ele>205.2</ele><time>2026-04-19T13:04:45.486Z</time></trkpt><trkpt lat="45.1303152" lon="7.9425291"><ele>205.4</ele><time>2026-04-19T13:04:46.486Z</time></trkpt><trkpt lat="45.1302213" lon="7.9425755"><ele>205.60000000000002</ele><time>2026-04-19T13:04:47.486Z</time></trkpt><trkpt lat="45.1301312" lon="7.9426254"><ele>205.8</ele><time>2026-04-19T13:04:48.487Z</time></trkpt><trkpt lat="45.1300478" lon="7.9426712"><ele>206.0</ele><time>2026-04-19T13:04:49.486Z</time></trkpt><trkpt lat="45.1299726" lon="7.9427132"><ele>205.66666666666669</ele><time>2026-04-19T13:04:50.487Z</time></trkpt><trkpt lat="45.1299137" lon="7.9427514"><ele>205.33333333333334</ele><time>2026-04-19T13:04:51.487Z</time></trkpt><trkpt lat="45.1298555" lon="7.9427914"><ele>205.0</ele><time>2026-04-19T13:04:52.487Z</time></trkpt><trkpt lat="45.1297771" lon="7.9428489"><ele>204.66666666666669</ele><time>2026-04-19T13:04:54.487Z</time></trkpt><trkpt lat="45.1296991" lon="7.9428977"><ele>204.33333333333334</ele><time>2026-04-19T13:04:56.487Z</time></trkpt><trkpt lat="45.1296134" lon="7.9428872"><ele>204.0</ele><time>2026-04-19T13:04:58.487Z</time></trkpt><trkpt lat="45.129522" lon="7.9428704"><ele>204.79999999999998</ele><time>2026-04-19T13:05:00.487Z</time></trkpt><trkpt lat="45.129447" lon="7.94289"><ele>205.6</ele><time>2026-04-19T13:05:02.486Z</time></trkpt><trkpt lat="45.1293771" lon="7.9429978"><ele>206.4</ele><time>2026-04-19T13:05:03.486Z</time></trkpt><trkpt lat="45.1293308" lon="7.9431044"><ele>207.2</ele><time>2026-04-19T13:05:04.487Z</time></trkpt><trkpt lat="45.1292861" lon="7.9432115"><ele>208.0</ele><time>2026-04-19T13:05:05.487Z</time></trkpt><trkpt lat="45.1292255" lon="7.9433438"><ele>208.0</ele><time>2026-04-19T13:05:06.487Z</time></trkpt><trkpt lat="45.1291607" lon="7.9434713"><ele>208.0</ele><time>2026-04-19T13:05:07.486Z</time></trkpt><trkpt lat="45.1290989" lon="7.9435951"><ele>208.0</ele><time>2026-04-19T13:05:08.487Z</time></trkpt><trkpt lat="45.1290414" lon="7.9437225"><ele>208.0</ele><time>2026-04-19T13:05:09.486Z</time></trkpt><trkpt lat="45.1290066" lon="7.9438506"><ele>208.0</ele><time>2026-04-19T13:05:10.486Z</time></trkpt><trkpt lat="45.1289624" lon="7.9439967"><ele>208.0</ele><time>2026-04-19T13:05:11.487Z</time></trkpt><trkpt lat="45.1289175" lon="7.9441391"><ele>208.0</ele><time>2026-04-19T13:05:12.486Z</time></trkpt><trkpt lat="45.1288695" lon="7.9443005"><ele>208.0</ele><time>2026-04-19T13:05:13.486Z</time></trkpt><trkpt lat="45.1288255" lon="7.9444742"><ele>208.0</ele><time>2026-04-19T13:05:14.486Z</time></trkpt><trkpt lat="45.1287642" lon="7.944641"><ele>207.8</ele><time>2026-04-19T13:05:15.486Z</time></trkpt><trkpt lat="45.1287245" lon="7.9448062"><ele>207.60000000000002</ele><time>2026-04-19T13:05:16.487Z</time></trkpt><trkpt lat="45.1286814" lon="7.944953"><ele>207.39999999999998</ele><time>2026-04-19T13:05:17.486Z</time></trkpt><trkpt lat="45.1286434" lon="7.9450847"><ele>207.2</ele><time>2026-04-19T13:05:18.486Z</time></trkpt><trkpt lat="45.1286358" lon="7.9452245"><ele>207.0</ele><time>2026-04-19T13:05:19.486Z</time></trkpt><trkpt lat="45.1286211" lon="7.9453581"><ele>206.75</ele><time>2026-04-19T13:05:20.486Z</time></trkpt><trkpt lat="45.1286189" lon="7.9455029"><ele>206.5</ele><time>2026-04-19T13:05:21.486Z</time></trkpt><trkpt lat="45.1286241" lon="7.9456557"><ele>206.25</ele><time>2026-04-19T13:05:22.486Z</time></trkpt><trkpt lat="45.1286343" lon="7.9458096"><ele>206.0</ele><time>2026-04-19T13:05:23.486Z</time></trkpt><trkpt lat="45.1286769" lon="7.9459949"><ele>205.75</ele><time>2026-04-19T13:05:24.487Z</time></trkpt><trkpt lat="45.1287157" lon="7.9461691"><ele>205.5</ele><time>2026-04-19T13:05:25.486Z</time></trkpt><trkpt lat="45.1287551" lon="7.9463314"><ele>205.25</ele><time>2026-04-19T13:05:26.487Z</time></trkpt><trkpt lat="45.1287888" lon="7.9464956"><ele>205.0</ele><time>2026-04-19T13:05:27.486Z</time></trkpt><trkpt lat="45.1288193" lon="7.9466665"><ele>205.75</ele><time>2026-04-19T13:05:28.486Z</time></trkpt><trkpt lat="45.1288587" lon="7.9468346"><ele>206.5</ele><time>2026-04-19T13:05:29.486Z</time></trkpt><trkpt lat="45.1288875" lon="7.9469805"><ele>207.25</ele><time>2026-04-19T13:05:30.486Z</time></trkpt><trkpt lat="45.1289243" lon="7.9471374"><ele>208.0</ele><time>2026-04-19T13:05:31.487Z</time></trkpt><trkpt lat="45.1289577" lon="7.9473059"><ele>208.0</ele><time>2026-04-19T13:05:32.486Z</time></trkpt><trkpt lat="45.128993" lon="7.9474766"><ele>208.0</ele><time>2026-04-19T13:05:33.487Z</time></trkpt><trkpt lat="45.1290249" lon="7.9476492"><ele>208.0</ele><time>2026-04-19T13:05:34.487Z</time></trkpt><trkpt lat="45.1290743" lon="7.9478225"><ele>208.0</ele><time>2026-04-19T13:05:35.486Z</time></trkpt><trkpt lat="45.1291294" lon="7.9479923"><ele>207.5</ele><time>2026-04-19T13:05:36.486Z</time></trkpt><trkpt lat="45.1291729" lon="7.9481593"><ele>207.0</ele><time>2026-04-19T13:05:37.487Z</time></trkpt><trkpt lat="45.1292558" lon="7.948308"><ele>206.5</ele><time>2026-04-19T13:05:38.486Z</time></trkpt><trkpt lat="45.1293293" lon="7.9484666"><ele>206.0</ele><time>2026-04-19T13:05:39.487Z</time></trkpt><trkpt lat="45.129415" lon="7.948612"><ele>206.0</ele><time>2026-04-19T13:05:40.486Z</time></trkpt><trkpt lat="45.1295009" lon="7.9487728"><ele>206.0</ele><time>2026-04-19T13:05:41.487Z</time></trkpt><trkpt lat="45.1295827" lon="7.9489297"><ele>206.0</ele><time>2026-04-19T13:05:42.487Z</time></trkpt><trkpt lat="45.1296692" lon="7.9490754"><ele>206.0</ele><time>2026-04-19T13:05:43.487Z</time></trkpt><trkpt lat="45.1297592" lon="7.9492186"><ele>206.0</ele><time>2026-04-19T13:05:44.486Z</time></trkpt><trkpt lat="45.1298414" lon="7.9493741"><ele>206.0</ele><time>2026-04-19T13:05:45.486Z</time></trkpt><trkpt lat="45.1299149" lon="7.9495444"><ele>206.0</ele><time>2026-04-19T13:05:46.486Z</time></trkpt><trkpt lat="45.1299765" lon="7.9497241"><ele>206.0</ele><time>2026-04-19T13:05:47.487Z</time></trkpt><trkpt lat="45.1300185" lon="7.9499128"><ele>208.5</ele><time>2026-04-19T13:05:48.486Z</time></trkpt><trkpt lat="45.130041" lon="7.9501089"><ele>211.0</ele><time>2026-04-19T13:05:49.486Z</time></trkpt><trkpt lat="45.1300378" lon="7.950309"><ele>213.5</ele><time>2026-04-19T13:05:50.486Z</time></trkpt><trkpt lat="45.1300148" lon="7.9504935"><ele>216.0</ele><time>2026-04-19T13:05:51.486Z</time></trkpt><trkpt lat="45.1299807" lon="7.9506664"><ele>216.0</ele><time>2026-04-19T13:05:52.486Z</time></trkpt><trkpt lat="45.1299492" lon="7.9508535"><ele>216.0</ele><time>2026-04-19T13:05:53.487Z</time></trkpt><trkpt lat="45.1299342" lon="7.9510389"><ele>216.0</ele><time>2026-04-19T13:05:54.486Z</time></trkpt><trkpt lat="45.1299297" lon="7.9512311"><ele>216.0</ele><time>2026-04-19T13:05:55.486Z</time></trkpt><trkpt lat="45.1299324" lon="7.951423"><ele>217.25</ele><time>2026-04-19T13:05:56.487Z</time></trkpt><trkpt lat="45.12995" lon="7.9516221"><ele>218.5</ele><time>2026-04-19T13:05:57.486Z</time></trkpt><trkpt lat="45.1299779" lon="7.9518174"><ele>219.75</ele><time>2026-04-19T13:05:58.487Z</time></trkpt><trkpt lat="45.1300133" lon="7.9520182"><ele>221.0</ele><time>2026-04-19T13:05:59.486Z</time></trkpt><trkpt lat="45.1300547" lon="7.9522088"><ele>221.0</ele><time>2026-04-19T13:06:00.486Z</time></trkpt><trkpt lat="45.1301053" lon="7.9523912"><ele>221.0</ele><time>2026-04-19T13:06:01.486Z</time></trkpt><trkpt lat="45.1301795" lon="7.9525872"><ele>221.0</ele><time>2026-04-19T13:06:02.486Z</time></trkpt><trkpt lat="45.1302386" lon="7.9527775"><ele>221.0</ele><time>2026-04-19T13:06:03.487Z</time></trkpt><trkpt lat="45.1302874" lon="7.9529826"><ele>220.0</ele><time>2026-04-19T13:06:04.486Z</time></trkpt><trkpt lat="45.1303264" lon="7.9531912"><ele>219.0</ele><time>2026-04-19T13:06:05.486Z</time></trkpt><trkpt lat="45.1303649" lon="7.9534021"><ele>218.0</ele><time>2026-04-19T13:06:06.486Z</time></trkpt><trkpt lat="45.1303952" lon="7.9536125"><ele>217.0</ele><time>2026-04-19T13:06:07.487Z</time></trkpt><trkpt lat="45.1304397" lon="7.9538141"><ele>216.0</ele><time>2026-04-19T13:06:08.487Z</time></trkpt><trkpt lat="45.1304895" lon="7.9539968"><ele>215.0</ele><time>2026-04-19T13:06:09.486Z</time></trkpt><trkpt lat="45.1305508" lon="7.9541544"><ele>214.0</ele><time>2026-04-19T13:06:10.486Z</time></trkpt><trkpt lat="45.1306021" lon="7.9543024"><ele>213.79999999999998</ele><time>2026-04-19T13:06:11.486Z</time></trkpt><trkpt lat="45.1306394" lon="7.9544353"><ele>213.59999999999997</ele><time>2026-04-19T13:06:12.487Z</time></trkpt><trkpt lat="45.1306613" lon="7.954554"><ele>213.4</ele><time>2026-04-19T13:06:13.487Z</time></trkpt><trkpt lat="45.1306455" lon="7.9546941"><ele>213.2</ele><time>2026-04-19T13:06:14.487Z</time></trkpt><trkpt lat="45.1306425" lon="7.954835"><ele>213.0</ele><time>2026-04-19T13:06:15.486Z</time></trkpt><trkpt lat="45.130648" lon="7.9549578"><ele>213.4</ele><time>2026-04-19T13:06:16.486Z</time></trkpt><trkpt lat="45.1306394" lon="7.9550874"><ele>213.8</ele><time>2026-04-19T13:06:17.486Z</time></trkpt><trkpt lat="45.1306037" lon="7.9552245"><ele>214.2</ele><time>2026-04-19T13:06:18.486Z</time></trkpt><trkpt lat="45.1305452" lon="7.9553466"><ele>214.6</ele><time>2026-04-19T13:06:19.486Z</time></trkpt><trkpt lat="45.1304656" lon="7.9554304"><ele>215.0</ele><time>2026-04-19T13:06:20.487Z</time></trkpt><trkpt lat="45.1303848" lon="7.9555072"><ele>215.0</ele><time>2026-04-19T13:06:21.487Z</time></trkpt><trkpt lat="45.1303087" lon="7.9555818"><ele>215.0</ele><time>2026-04-19T13:06:22.486Z</time></trkpt><trkpt lat="45.1302695" lon="7.9557071"><ele>215.0</ele><time>2026-04-19T13:06:23.487Z</time></trkpt><trkpt lat="45.1302345" lon="7.955833"><ele>215.0</ele><time>2026-04-19T13:06:24.486Z</time></trkpt><trkpt lat="45.1302338" lon="7.9559549"><ele>215.0</ele><time>2026-04-19T13:06:25.486Z</time></trkpt><trkpt lat="45.1302537" lon="7.956088"><ele>215.25</ele><time>2026-04-19T13:06:26.487Z</time></trkpt><trkpt lat="45.130275" lon="7.9562289"><ele>215.5</ele><time>2026-04-19T13:06:27.486Z</time></trkpt><trkpt lat="45.1302919" lon="7.9563964"><ele>215.75</ele><time>2026-04-19T13:06:28.486Z</time></trkpt><trkpt lat="45.1303209" lon="7.9565706"><ele>216.0</ele><time>2026-04-19T13:06:29.486Z</time></trkpt><trkpt lat="45.1303374" lon="7.9567454"><ele>216.0</ele><time>2026-04-19T13:06:30.486Z</time></trkpt><trkpt lat="45.1303745" lon="7.9569481"><ele>216.0</ele><time>2026-04-19T13:06:31.487Z</time></trkpt><trkpt lat="45.1304051" lon="7.9571414"><ele>216.0</ele><time>2026-04-19T13:06:32.486Z</time></trkpt><trkpt lat="45.1304349" lon="7.9573386"><ele>216.0</ele><time>2026-04-19T13:06:33.486Z</time></trkpt><trkpt lat="45.1304719" lon="7.957551"><ele>217.0</ele><time>2026-04-19T13:06:34.486Z</time></trkpt><trkpt lat="45.1305006" lon="7.9577674"><ele>218.0</ele><time>2026-04-19T13:06:35.486Z</time></trkpt><trkpt lat="45.1305281" lon="7.9580079"><ele>219.0</ele><time>2026-04-19T13:06:36.486Z</time></trkpt><trkpt lat="45.130521" lon="7.9582237"><ele>221.0</ele><time>2026-04-19T13:06:37.487Z</time></trkpt><trkpt lat="45.1305014" lon="7.9584522"><ele>223.0</ele><time>2026-04-19T13:06:38.486Z</time></trkpt><trkpt lat="45.130477" lon="7.9586813"><ele>225.0</ele><time>2026-04-19T13:06:39.486Z</time></trkpt><trkpt lat="45.1304557" lon="7.9589184"><ele>225.0</ele><time>2026-04-19T13:06:40.487Z</time></trkpt><trkpt lat="45.1304597" lon="7.9591437"><ele>225.0</ele><time>2026-04-19T13:06:41.486Z</time></trkpt><trkpt lat="45.1304525" lon="7.9593684"><ele>225.0</ele><time>2026-04-19T13:06:42.486Z</time></trkpt><trkpt lat="45.130483" lon="7.9596344"><ele>227.0</ele><time>2026-04-19T13:06:43.486Z</time></trkpt><trkpt lat="45.1304728" lon="7.959864"><ele>229.0</ele><time>2026-04-19T13:06:44.486Z</time></trkpt><trkpt lat="45.1304698" lon="7.9601043"><ele>231.0</ele><time>2026-04-19T13:06:45.487Z</time></trkpt><trkpt lat="45.1304592" lon="7.9603345"><ele>232.0</ele><time>2026-04-19T13:06:46.486Z</time></trkpt><trkpt lat="45.1304528" lon="7.9605784"><ele>233.0</ele><time>2026-04-19T13:06:47.486Z</time></trkpt><trkpt lat="45.1304247" lon="7.9607821"><ele>234.0</ele><time>2026-04-19T13:06:48.486Z</time></trkpt><trkpt lat="45.1304243" lon="7.960946"><ele>235.0</ele><time>2026-04-19T13:06:49.487Z</time></trkpt><trkpt lat="45.1304318" lon="7.9611212"><ele>236.0</ele><time>2026-04-19T13:06:50.487Z</time></trkpt><trkpt lat="45.1305122" lon="7.9613442"><ele>237.0</ele><time>2026-04-19T13:06:51.487Z</time></trkpt><trkpt lat="45.1305774" lon="7.9615244"><ele>238.0</ele><time>2026-04-19T13:06:52.487Z</time></trkpt><trkpt lat="45.1306168" lon="7.9617127"><ele>239.33333333333331</ele><time>2026-04-19T13:06:53.487Z</time></trkpt><trkpt lat="45.1306712" lon="7.9619352"><ele>240.66666666666669</ele><time>2026-04-19T13:06:54.486Z</time></trkpt><trkpt lat="45.1307236" lon="7.9621403"><ele>242.0</ele><time>2026-04-19T13:06:55.487Z</time></trkpt><trkpt lat="45.1307748" lon="7.9623542"><ele>246.75</ele><time>2026-04-19T13:06:56.486Z</time></trkpt><trkpt lat="45.1308355" lon="7.9625672"><ele>251.5</ele><time>2026-04-19T13:06:57.486Z</time></trkpt><trkpt lat="45.130895" lon="7.9627553"><ele>256.25</ele><time>2026-04-19T13:06:58.486Z</time></trkpt><trkpt lat="45.1309471" lon="7.9629305"><ele>261.0</ele><time>2026-04-19T13:06:59.486Z</time></trkpt><trkpt lat="45.1309732" lon="7.9631137"><ele>261.0</ele><time>2026-04-19T13:07:00.486Z</time></trkpt><trkpt lat="45.1309941" lon="7.9632985"><ele>261.0</ele><time>2026-04-19T13:07:01.487Z</time></trkpt><trkpt lat="45.1309444" lon="7.9634952"><ele>261.0</ele><time>2026-04-19T13:07:02.487Z</time></trkpt><trkpt lat="45.1308969" lon="7.9636716"><ele>261.0</ele><time>2026-04-19T13:07:03.487Z</time></trkpt><trkpt lat="45.1308129" lon="7.9638597"><ele>263.0</ele><time>2026-04-19T13:07:04.487Z</time></trkpt><trkpt lat="45.1307705" lon="7.964093"><ele>265.0</ele><time>2026-04-19T13:07:05.486Z</time></trkpt><trkpt lat="45.130733" lon="7.9643154"><ele>267.0</ele><time>2026-04-19T13:07:06.486Z</time></trkpt><trkpt lat="45.1306946" lon="7.9645352"><ele>267.0</ele><time>2026-04-19T13:07:07.486Z</time></trkpt><trkpt lat="45.1306583" lon="7.9647316"><ele>267.0</ele><time>2026-04-19T13:07:08.486Z</time></trkpt><trkpt lat="45.1306077" lon="7.9649248"><ele>267.0</ele><time>2026-04-19T13:07:09.486Z</time></trkpt><trkpt lat="45.1305491" lon="7.9651446"><ele>270.0</ele><time>2026-04-19T13:07:10.486Z</time></trkpt><trkpt lat="45.1305014" lon="7.9653532"><ele>273.0</ele><time>2026-04-19T13:07:11.486Z</time></trkpt><trkpt lat="45.1304402" lon="7.9655767"><ele>276.0</ele><time>2026-04-19T13:07:12.486Z</time></trkpt><trkpt lat="45.1303948" lon="7.9658021"><ele>280.0</ele><time>2026-04-19T13:07:13.486Z</time></trkpt><trkpt lat="45.1303534" lon="7.9660193"><ele>284.0</ele><time>2026-04-19T13:07:14.487Z</time></trkpt><trkpt lat="45.1303193" lon="7.9662438"><ele>288.0</ele><time>2026-04-19T13:07:15.487Z</time></trkpt><trkpt lat="45.1302847" lon="7.9664776"><ele>291.6666666666667</ele><time>2026-04-19T13:07:16.486Z</time></trkpt><trkpt lat="45.1302616" lon="7.9667156"><ele>295.33333333333337</ele><time>2026-04-19T13:07:17.487Z</time></trkpt><trkpt lat="45.1302476" lon="7.9669442"><ele>299.0</ele><time>2026-04-19T13:07:18.486Z</time></trkpt><trkpt lat="45.1302491" lon="7.9671627"><ele>299.0</ele><time>2026-04-19T13:07:19.487Z</time></trkpt><trkpt lat="45.1302379" lon="7.9673508"><ele>299.0</ele><time>2026-04-19T13:07:20.487Z</time></trkpt><trkpt lat="45.1302158" lon="7.9675512"><ele>299.0</ele><time>2026-04-19T13:07:21.486Z</time></trkpt><trkpt lat="45.1301753" lon="7.9677549"><ele>299.0</ele><time>2026-04-19T13:07:22.486Z</time></trkpt><trkpt lat="45.1301326" lon="7.9679578"><ele>301.25</ele><time>2026-04-19T13:07:23.486Z</time></trkpt><trkpt lat="45.130083" lon="7.9681531"><ele>303.5</ele><time>2026-04-19T13:07:24.487Z</time></trkpt><trkpt lat="45.1300267" lon="7.9683525"><ele>305.75</ele><time>2026-04-19T13:07:25.486Z</time></trkpt><trkpt lat="45.1299825" lon="7.9685508"><ele>308.0</ele><time>2026-04-19T13:07:26.487Z</time></trkpt><trkpt lat="45.1299205" lon="7.9687418"><ele>306.75</ele><time>2026-04-19T13:07:27.487Z</time></trkpt><trkpt lat="45.1298595" lon="7.9689237"><ele>305.5</ele><time>2026-04-19T13:07:28.486Z</time></trkpt><trkpt lat="45.129829" lon="7.9691122"><ele>304.25</ele><time>2026-04-19T13:07:29.486Z</time></trkpt><trkpt lat="45.1298167" lon="7.9693219"><ele>303.0</ele><time>2026-04-19T13:07:30.486Z</time></trkpt><trkpt lat="45.1298114" lon="7.9695198"><ele>305.5</ele><time>2026-04-19T13:07:31.486Z</time></trkpt><trkpt lat="45.1298437" lon="7.9697332"><ele>308.0</ele><time>2026-04-19T13:07:32.486Z</time></trkpt><trkpt lat="45.1298751" lon="7.9699339"><ele>310.5</ele><time>2026-04-19T13:07:33.486Z</time></trkpt><trkpt lat="45.1299155" lon="7.9701294"><ele>313.0</ele><time>2026-04-19T13:07:34.487Z</time></trkpt><trkpt lat="45.1299251" lon="7.9703055"><ele>313.4</ele><time>2026-04-19T13:07:35.486Z</time></trkpt><trkpt lat="45.1299106" lon="7.9704456"><ele>313.8</ele><time>2026-04-19T13:07:36.486Z</time></trkpt><trkpt lat="45.1298858" lon="7.9705675"><ele>314.2</ele><time>2026-04-19T13:07:37.486Z</time></trkpt><trkpt lat="45.1298393" lon="7.97069"><ele>314.6</ele><time>2026-04-19T13:07:38.486Z</time></trkpt><trkpt lat="45.1298109" lon="7.9708155"><ele>315.0</ele><time>2026-04-19T13:07:39.486Z</time></trkpt><trkpt lat="45.1297634" lon="7.970955"><ele>317.5</ele><time>2026-04-19T13:07:40.486Z</time></trkpt><trkpt lat="45.1297367" lon="7.9711106"><ele>320.0</ele><time>2026-04-19T13:07:41.486Z</time></trkpt><trkpt lat="45.1297274" lon="7.9712616"><ele>322.5</ele><time>2026-04-19T13:07:42.487Z</time></trkpt><trkpt lat="45.1296567" lon="7.9714092"><ele>325.0</ele><time>2026-04-19T13:07:43.486Z</time></trkpt><trkpt lat="45.1296239" lon="7.9715663"><ele>329.0</ele><time>2026-04-19T13:07:44.487Z</time></trkpt><trkpt lat="45.1297067" lon="7.9717493"><ele>333.0</ele><time>2026-04-19T13:07:45.486Z</time></trkpt><trkpt lat="45.1297074" lon="7.9719045"><ele>337.0</ele><time>2026-04-19T13:07:46.486Z</time></trkpt><trkpt lat="45.1296951" lon="7.9720557"><ele>341.0</ele><time>2026-04-19T13:07:47.486Z</time></trkpt><trkpt lat="45.1296627" lon="7.9722038"><ele>341.0</ele><time>2026-04-19T13:07:48.487Z</time></trkpt><trkpt lat="45.1296128" lon="7.9723665"><ele>341.0</ele><time>2026-04-19T13:07:49.486Z</time></trkpt><trkpt lat="45.1295237" lon="7.9725415"><ele>341.0</ele><time>2026-04-19T13:07:50.486Z</time></trkpt><trkpt lat="45.1294571" lon="7.9727033"><ele>341.0</ele><time>2026-04-19T13:07:51.487Z</time></trkpt><trkpt lat="45.1293683" lon="7.9728477"><ele>341.0</ele><time>2026-04-19T13:07:52.486Z</time></trkpt><trkpt lat="45.129288" lon="7.9729667"><ele>341.0</ele><time>2026-04-19T13:07:53.486Z</time></trkpt><trkpt lat="45.1291921" lon="7.9730559"><ele>341.0</ele><time>2026-04-19T13:07:54.486Z</time></trkpt><trkpt lat="45.1290993" lon="7.9731049"><ele>341.0</ele><time>2026-04-19T13:07:55.486Z</time></trkpt><trkpt lat="45.1290117" lon="7.9731321"><ele>341.0</ele><time>2026-04-19T13:07:56.486Z</time></trkpt><trkpt lat="45.1289029" lon="7.9731557"><ele>341.0</ele><time>2026-04-19T13:07:57.486Z</time></trkpt><trkpt lat="45.1288005" lon="7.9731758"><ele>341.0</ele><time>2026-04-19T13:07:58.486Z</time></trkpt><trkpt lat="45.1287184" lon="7.9732021"><ele>341.0</ele><time>2026-04-19T13:07:59.486Z</time></trkpt><trkpt lat="45.1285947" lon="7.9732482"><ele>341.0</ele><time>2026-04-19T13:08:00.487Z</time></trkpt><trkpt lat="45.1285627" lon="7.9733614"><ele>341.0</ele><time>2026-04-19T13:08:01.486Z</time></trkpt><trkpt lat="45.128514" lon="7.9735196"><ele>342.25</ele><time>2026-04-19T13:08:02.486Z</time></trkpt><trkpt lat="45.1285332" lon="7.9736962"><ele>343.5</ele><time>2026-04-19T13:08:03.486Z</time></trkpt><trkpt lat="45.1285697" lon="7.9739052"><ele>344.75</ele><time>2026-04-19T13:08:04.486Z</time></trkpt><trkpt lat="45.1285748" lon="7.9740825"><ele>346.0</ele><time>2026-04-19T13:08:05.486Z</time></trkpt><trkpt lat="45.1285823" lon="7.9742702"><ele>347.8</ele><time>2026-04-19T13:08:06.486Z</time></trkpt><trkpt lat="45.1285464" lon="7.9744418"><ele>349.6</ele><time>2026-04-19T13:08:07.486Z</time></trkpt><trkpt lat="45.1284949" lon="7.9745747"><ele>351.4</ele><time>2026-04-19T13:08:08.486Z</time></trkpt><trkpt lat="45.1284659" lon="7.9747027"><ele>353.2</ele><time>2026-04-19T13:08:09.486Z</time></trkpt><trkpt lat="45.1284946" lon="7.9748346"><ele>355.0</ele><time>2026-04-19T13:08:10.486Z</time></trkpt><trkpt lat="45.128515" lon="7.9749883"><ele>356.6</ele><time>2026-04-19T13:08:11.487Z</time></trkpt><trkpt lat="45.1285493" lon="7.9751251"><ele>358.2</ele><time>2026-04-19T13:08:12.486Z</time></trkpt><trkpt lat="45.1285925" lon="7.9752427"><ele>359.79999999999995</ele><time>2026-04-19T13:08:13.487Z</time></trkpt><trkpt lat="45.1286988" lon="7.9753339"><ele>361.4</ele><time>2026-04-19T13:08:14.487Z</time></trkpt><trkpt lat="45.1287701" lon="7.9754165"><ele>363.0</ele><time>2026-04-19T13:08:15.487Z</time></trkpt><trkpt lat="45.1288063" lon="7.975528"><ele>363.0</ele><time>2026-04-19T13:08:16.486Z</time></trkpt><trkpt lat="45.1288144" lon="7.9756573"><ele>363.0</ele><time>2026-04-19T13:08:17.486Z</time></trkpt><trkpt lat="45.1287935" lon="7.9757848"><ele>363.0</ele><time>2026-04-19T13:08:18.487Z</time></trkpt><trkpt lat="45.1287276" lon="7.9758854"><ele>363.0</ele><time>2026-04-19T13:08:19.487Z</time></trkpt><trkpt lat="45.1286614" lon="7.9760602"><ele>363.0</ele><time>2026-04-19T13:08:20.487Z</time></trkpt><trkpt lat="45.1285817" lon="7.97619"><ele>367.25</ele><time>2026-04-19T13:08:21.487Z</time></trkpt><trkpt lat="45.1284746" lon="7.9762757"><ele>371.5</ele><time>2026-04-19T13:08:22.487Z</time></trkpt><trkpt lat="45.1283666" lon="7.976342"><ele>375.75</ele><time>2026-04-19T13:08:23.486Z</time></trkpt><trkpt lat="45.1282631" lon="7.9763548"><ele>380.0</ele><time>2026-04-19T13:08:24.487Z</time></trkpt><trkpt lat="45.1281117" lon="7.976322"><ele>380.0</ele><time>2026-04-19T13:08:25.486Z</time></trkpt><trkpt lat="45.1280214" lon="7.9763429"><ele>380.0</ele><time>2026-04-19T13:08:26.486Z</time></trkpt><trkpt lat="45.1279291" lon="7.9764095"><ele>380.0</ele><time>2026-04-19T13:08:27.487Z</time></trkpt><trkpt lat="45.1278192" lon="7.9765196"><ele>380.0</ele><time>2026-04-19T13:08:28.487Z</time></trkpt><trkpt lat="45.1277196" lon="7.9765944"><ele>380.0</ele><time>2026-04-19T13:08:29.486Z</time></trkpt><trkpt lat="45.1276262" lon="7.9766082"><ele>380.0</ele><time>2026-04-19T13:08:30.486Z</time></trkpt><trkpt lat="45.1275192" lon="7.9765747"><ele>380.0</ele><time>2026-04-19T13:08:31.486Z</time></trkpt><trkpt lat="45.127416" lon="7.9765501"><ele>380.0</ele><time>2026-04-19T13:08:32.487Z</time></trkpt><trkpt lat="45.1273384" lon="7.9766063"><ele>380.0</ele><time>2026-04-19T13:08:33.487Z</time></trkpt><trkpt lat="45.1272735" lon="7.9766511"><ele>380.0</ele><time>2026-04-19T13:08:34.487Z</time></trkpt><trkpt lat="45.1272454" lon="7.9767496"><ele>380.0</ele><time>2026-04-19T13:08:35.486Z</time></trkpt><trkpt lat="45.1272389" lon="7.9768888"><ele>376.0</ele><time>2026-04-19T13:08:36.486Z</time></trkpt><trkpt lat="45.1272366" lon="7.9770313"><ele>372.0</ele><time>2026-04-19T13:08:37.486Z</time></trkpt><trkpt lat="45.127224" lon="7.9771685"><ele>368.0</ele><time>2026-04-19T13:08:38.486Z</time></trkpt><trkpt lat="45.1272247" lon="7.9773148"><ele>364.0</ele><time>2026-04-19T13:08:39.486Z</time></trkpt><trkpt lat="45.1272094" lon="7.9774367"><ele>360.0</ele><time>2026-04-19T13:08:40.487Z</time></trkpt><trkpt lat="45.1271879" lon="7.9775318"><ele>360.0</ele><time>2026-04-19T13:08:41.487Z</time></trkpt><trkpt lat="45.1272348" lon="7.9778861"><ele>360.0</ele><time>2026-04-19T13:08:42.486Z</time></trkpt><trkpt lat="45.1272168" lon="7.9780741"><ele>360.0</ele><time>2026-04-19T13:08:43.486Z</time></trkpt><trkpt lat="45.1272244" lon="7.9782907"><ele>363.5</ele><time>2026-04-19T13:08:44.486Z</time></trkpt><trkpt lat="45.1272229" lon="7.9784838"><ele>367.0</ele><time>2026-04-19T13:08:45.486Z</time></trkpt><trkpt lat="45.1271961" lon="7.9786717"><ele>370.5</ele><time>2026-04-19T13:08:46.486Z</time></trkpt><trkpt lat="45.1271897" lon="7.978837"><ele>374.0</ele><time>2026-04-19T13:08:47.486Z</time></trkpt><trkpt lat="45.127164" lon="7.9789995"><ele>374.0</ele><time>2026-04-19T13:08:48.487Z</time></trkpt><trkpt lat="45.1271139" lon="7.9791437"><ele>374.0</ele><time>2026-04-19T13:08:49.487Z</time></trkpt><trkpt lat="45.1270634" lon="7.9792879"><ele>374.0</ele><time>2026-04-19T13:08:50.486Z</time></trkpt><trkpt lat="45.1269447" lon="7.9793985"><ele>374.0</ele><time>2026-04-19T13:08:51.486Z</time></trkpt><trkpt lat="45.1268462" lon="7.9794016"><ele>372.33333333333337</ele><time>2026-04-19T13:08:52.486Z</time></trkpt><trkpt lat="45.126734" lon="7.9794171"><ele>370.6666666666667</ele><time>2026-04-19T13:08:53.486Z</time></trkpt><trkpt lat="45.126572" lon="7.9793577"><ele>369.0</ele><time>2026-04-19T13:08:54.487Z</time></trkpt><trkpt lat="45.1263939" lon="7.9792887"><ele>369.0</ele><time>2026-04-19T13:08:55.487Z</time></trkpt><trkpt lat="45.1262488" lon="7.9792838"><ele>369.0</ele><time>2026-04-19T13:08:56.486Z</time></trkpt><trkpt lat="45.1260928" lon="7.9791751"><ele>369.0</ele><time>2026-04-19T13:08:57.486Z</time></trkpt><trkpt lat="45.125957" lon="7.9791639"><ele>371.5</ele><time>2026-04-19T13:08:58.486Z</time></trkpt><trkpt lat="45.1258726" lon="7.9791145"><ele>374.0</ele><time>2026-04-19T13:08:59.486Z</time></trkpt><trkpt lat="45.1257138" lon="7.9791305"><ele>376.5</ele><time>2026-04-19T13:09:00.487Z</time></trkpt><trkpt lat="45.1255696" lon="7.9791877"><ele>379.0</ele><time>2026-04-19T13:09:01.486Z</time></trkpt><trkpt lat="45.1254192" lon="7.9792197"><ele>385.66666666666663</ele><time>2026-04-19T13:09:02.487Z</time></trkpt><trkpt lat="45.1252648" lon="7.9792794"><ele>392.3333333333333</ele><time>2026-04-19T13:09:03.486Z</time></trkpt><trkpt lat="45.1251267" lon="7.9793394"><ele>399.0</ele><time>2026-04-19T13:09:04.486Z</time></trkpt><trkpt lat="45.1249838" lon="7.979403"><ele>399.25</ele><time>2026-04-19T13:09:05.486Z</time></trkpt><trkpt lat="45.1248487" lon="7.9795141"><ele>399.5</ele><time>2026-04-19T13:09:06.486Z</time></trkpt><trkpt lat="45.1247205" lon="7.9795783"><ele>399.75</ele><time>2026-04-19T13:09:07.486Z</time></trkpt><trkpt lat="45.124619" lon="7.9796405"><ele>400.0</ele><time>2026-04-19T13:09:08.486Z</time></trkpt><trkpt lat="45.1244935" lon="7.979702"><ele>400.0</ele><time>2026-04-19T13:09:09.487Z</time></trkpt><trkpt lat="45.1244072" lon="7.9797556"><ele>400.0</ele><time>2026-04-19T13:09:10.486Z</time></trkpt><trkpt lat="45.1243507" lon="7.9798638"><ele>400.0</ele><time>2026-04-19T13:09:11.486Z</time></trkpt><trkpt lat="45.1242559" lon="7.9799575"><ele>400.0</ele><time>2026-04-19T13:09:12.486Z</time></trkpt><trkpt lat="45.1241364" lon="7.9800833"><ele>399.6666666666667</ele><time>2026-04-19T13:09:13.486Z</time></trkpt><trkpt lat="45.1239927" lon="7.9801997"><ele>399.33333333333337</ele><time>2026-04-19T13:09:14.486Z</time></trkpt><trkpt lat="45.1238313" lon="7.9803137"><ele>399.0</ele><time>2026-04-19T13:09:15.487Z</time></trkpt><trkpt lat="45.123704" lon="7.9804"><ele>399.0</ele><time>2026-04-19T13:09:16.486Z</time></trkpt><trkpt lat="45.1235285" lon="7.980471"><ele>399.0</ele><time>2026-04-19T13:09:17.486Z</time></trkpt><trkpt lat="45.1233818" lon="7.9805666"><ele>399.0</ele><time>2026-04-19T13:09:18.486Z</time></trkpt><trkpt lat="45.1232643" lon="7.9806137"><ele>395.5</ele><time>2026-04-19T13:09:19.486Z</time></trkpt><trkpt lat="45.1231272" lon="7.9806624"><ele>392.0</ele><time>2026-04-19T13:09:20.487Z</time></trkpt><trkpt lat="45.1230278" lon="7.9807204"><ele>388.5</ele><time>2026-04-19T13:09:21.486Z</time></trkpt><trkpt lat="45.1229216" lon="7.9807675"><ele>385.0</ele><time>2026-04-19T13:09:22.486Z</time></trkpt><trkpt lat="45.1228112" lon="7.9808437"><ele>387.0</ele><time>2026-04-19T13:09:23.486Z</time></trkpt><trkpt lat="45.1227128" lon="7.9809238"><ele>389.0</ele><time>2026-04-19T13:09:24.486Z</time></trkpt><trkpt lat="45.1226012" lon="7.9810097"><ele>391.0</ele><time>2026-04-19T13:09:25.486Z</time></trkpt><trkpt lat="45.1224817" lon="7.9811268"><ele>393.0</ele><time>2026-04-19T13:09:26.486Z</time></trkpt><trkpt lat="45.1224328" lon="7.9812095"><ele>391.0</ele><time>2026-04-19T13:09:27.486Z</time></trkpt><trkpt lat="45.1223569" lon="7.9812869"><ele>389.0</ele><time>2026-04-19T13:09:28.486Z</time></trkpt><trkpt lat="45.1222962" lon="7.9813682"><ele>387.0</ele><time>2026-04-19T13:09:29.486Z</time></trkpt><trkpt lat="45.1222507" lon="7.9814436"><ele>385.0</ele><time>2026-04-19T13:09:30.487Z</time></trkpt><trkpt lat="45.1222251" lon="7.9815689"><ele>383.0</ele><time>2026-04-19T13:09:31.486Z</time></trkpt><trkpt lat="45.1221891" lon="7.981734"><ele>383.0</ele><time>2026-04-19T13:09:32.486Z</time></trkpt><trkpt lat="45.1221526" lon="7.9818907"><ele>383.0</ele><time>2026-04-19T13:09:33.486Z</time></trkpt><trkpt lat="45.1220826" lon="7.9820726"><ele>383.0</ele><time>2026-04-19T13:09:34.486Z</time></trkpt><trkpt lat="45.1220271" lon="7.9822502"><ele>383.0</ele><time>2026-04-19T13:09:35.486Z</time></trkpt><trkpt lat="45.1219535" lon="7.9824094"><ele>381.25</ele><time>2026-04-19T13:09:36.486Z</time></trkpt><trkpt lat="45.1218492" lon="7.9825397"><ele>379.5</ele><time>2026-04-19T13:09:37.486Z</time></trkpt><trkpt lat="45.1217368" lon="7.9826568"><ele>377.75</ele><time>2026-04-19T13:09:38.487Z</time></trkpt><trkpt lat="45.1216221" lon="7.9827434"><ele>376.0</ele><time>2026-04-19T13:09:39.487Z</time></trkpt><trkpt lat="45.1214966" lon="7.9828166"><ele>380.75</ele><time>2026-04-19T13:09:40.486Z</time></trkpt><trkpt lat="45.1213644" lon="7.9828755"><ele>385.5</ele><time>2026-04-19T13:09:41.486Z</time></trkpt><trkpt lat="45.121229" lon="7.9828969"><ele>390.25</ele><time>2026-04-19T13:09:42.486Z</time></trkpt><trkpt lat="45.1210769" lon="7.9828724"><ele>395.0</ele><time>2026-04-19T13:09:43.487Z</time></trkpt><trkpt lat="45.1209479" lon="7.9828562"><ele>395.0</ele><time>2026-04-19T13:09:44.486Z</time></trkpt><trkpt lat="45.1208375" lon="7.9828535"><ele>395.0</ele><time>2026-04-19T13:09:45.487Z</time></trkpt><trkpt lat="45.1206961" lon="7.9828497"><ele>395.0</ele><time>2026-04-19T13:09:46.486Z</time></trkpt><trkpt lat="45.1205759" lon="7.9828499"><ele>395.0</ele><time>2026-04-19T13:09:47.487Z</time></trkpt><trkpt lat="45.1204454" lon="7.9828961"><ele>397.5</ele><time>2026-04-19T13:09:48.486Z</time></trkpt><trkpt lat="45.1203617" lon="7.9829559"><ele>400.0</ele><time>2026-04-19T13:09:49.487Z</time></trkpt><trkpt lat="45.120261" lon="7.9830311"><ele>402.5</ele><time>2026-04-19T13:09:50.487Z</time></trkpt><trkpt lat="45.1201321" lon="7.983153"><ele>405.0</ele><time>2026-04-19T13:09:51.487Z</time></trkpt><trkpt lat="45.1200513" lon="7.9832717"><ele>406.0</ele><time>2026-04-19T13:09:52.486Z</time></trkpt><trkpt lat="45.1199897" lon="7.983402"><ele>407.0</ele><time>2026-04-19T13:09:53.486Z</time></trkpt><trkpt lat="45.1199076" lon="7.9835409"><ele>408.0</ele><time>2026-04-19T13:09:54.486Z</time></trkpt><trkpt lat="45.1198211" lon="7.983684"><ele>409.0</ele><time>2026-04-19T13:09:55.486Z</time></trkpt><trkpt lat="45.1197552" lon="7.9838501"><ele>409.79999999999995</ele><time>2026-04-19T13:09:56.486Z</time></trkpt><trkpt lat="45.1196844" lon="7.9840054"><ele>410.59999999999997</ele><time>2026-04-19T13:09:57.486Z</time></trkpt><trkpt lat="45.1196573" lon="7.9841002"><ele>411.4</ele><time>2026-04-19T13:09:58.486Z</time></trkpt><trkpt lat="45.1196127" lon="7.9842043"><ele>412.2</ele><time>2026-04-19T13:09:59.486Z</time></trkpt><trkpt lat="45.1195632" lon="7.9843031"><ele>413.0</ele><time>2026-04-19T13:10:00.486Z</time></trkpt><trkpt lat="45.1195058" lon="7.9844281"><ele>416.0</ele><time>2026-04-19T13:10:02.487Z</time></trkpt><trkpt lat="45.1194406" lon="7.9845371"><ele>419.0</ele><time>2026-04-19T13:10:04.486Z</time></trkpt><trkpt lat="45.1193644" lon="7.984688"><ele>421.99999999999994</ele><time>2026-04-19T13:10:06.487Z</time></trkpt><trkpt lat="45.1193292" lon="7.9847831"><ele>425.0</ele><time>2026-04-19T13:10:07.487Z</time></trkpt><trkpt lat="45.1192887" lon="7.9848868"><ele>428.0</ele><time>2026-04-19T13:10:08.486Z</time></trkpt><trkpt lat="45.1192518" lon="7.9849992"><ele>428.4</ele><time>2026-04-19T13:10:09.486Z</time></trkpt><trkpt lat="45.1192124" lon="7.9851042"><ele>428.79999999999995</ele><time>2026-04-19T13:10:10.487Z</time></trkpt><trkpt lat="45.1191947" lon="7.985241"><ele>429.2</ele><time>2026-04-19T13:10:11.486Z</time></trkpt><trkpt lat="45.1191798" lon="7.9853828"><ele>429.6</ele><time>2026-04-19T13:10:12.487Z</time></trkpt><trkpt lat="45.1191676" lon="7.9855229"><ele>430.0</ele><time>2026-04-19T13:10:13.486Z</time></trkpt><trkpt lat="45.1191725" lon="7.9856485"><ele>430.00000000000006</ele><time>2026-04-19T13:10:14.486Z</time></trkpt><trkpt lat="45.1192009" lon="7.9857659"><ele>430.0</ele><time>2026-04-19T13:10:15.486Z</time></trkpt><trkpt lat="45.1192233" lon="7.9858668"><ele>430.0</ele><time>2026-04-19T13:10:16.487Z</time></trkpt><trkpt lat="45.1192515" lon="7.9859685"><ele>430.0</ele><time>2026-04-19T13:10:17.487Z</time></trkpt><trkpt lat="45.1193001" lon="7.9860841"><ele>430.00000000000006</ele><time>2026-04-19T13:10:18.486Z</time></trkpt><trkpt lat="45.1193435" lon="7.9861873"><ele>430.0</ele><time>2026-04-19T13:10:19.483Z</time></trkpt><trkpt lat="45.1193772" lon="7.9862993"><ele>432.00000000000006</ele><time>2026-04-19T13:10:20.48Z</time></trkpt><trkpt lat="45.1193818" lon="7.9864124"><ele>434.0</ele><time>2026-04-19T13:10:21.48Z</time></trkpt><trkpt lat="45.1194033" lon="7.9865227"><ele>436.0</ele><time>2026-04-19T13:10:22.481Z</time></trkpt><trkpt lat="45.1194612" lon="7.9866244"><ele>438.0</ele><time>2026-04-19T13:10:23.48Z</time></trkpt><trkpt lat="45.1194913" lon="7.9867363"><ele>440.00000000000006</ele><time>2026-04-19T13:10:24.479Z</time></trkpt><trkpt lat="45.1195054" lon="7.9868832"><ele>442.0</ele><time>2026-04-19T13:10:25.479Z</time></trkpt><trkpt lat="45.1195164" lon="7.98701"><ele>442.8</ele><time>2026-04-19T13:10:26.479Z</time></trkpt><trkpt lat="45.1194723" lon="7.9871713"><ele>443.6</ele><time>2026-04-19T13:10:27.479Z</time></trkpt><trkpt lat="45.1194437" lon="7.9872761"><ele>444.40000000000003</ele><time>2026-04-19T13:10:28.479Z</time></trkpt><trkpt lat="45.1193834" lon="7.987352"><ele>445.20000000000005</ele><time>2026-04-19T13:10:29.479Z</time></trkpt><trkpt lat="45.1193109" lon="7.9874482"><ele>446.0</ele><time>2026-04-19T13:10:30.48Z</time></trkpt><trkpt lat="45.1192541" lon="7.9875049"><ele>447.20000000000005</ele><time>2026-04-19T13:10:31.479Z</time></trkpt><trkpt lat="45.1192479" lon="7.9876961"><ele>448.40000000000003</ele><time>2026-04-19T13:10:33.479Z</time></trkpt><trkpt lat="45.1192558" lon="7.9877923"><ele>449.6</ele><time>2026-04-19T13:10:34.479Z</time></trkpt><trkpt lat="45.119263" lon="7.9879355"><ele>450.8</ele><time>2026-04-19T13:10:35.48Z</time></trkpt><trkpt lat="45.1192792" lon="7.9880937"><ele>452.0</ele><time>2026-04-19T13:10:36.48Z</time></trkpt><trkpt lat="45.1193122" lon="7.9882675"><ele>456.75</ele><time>2026-04-19T13:10:37.479Z</time></trkpt><trkpt lat="45.1193454" lon="7.9884366"><ele>461.5</ele><time>2026-04-19T13:10:38.479Z</time></trkpt><trkpt lat="45.1193869" lon="7.9885985"><ele>466.25</ele><time>2026-04-19T13:10:39.479Z</time></trkpt><trkpt lat="45.1194288" lon="7.9887533"><ele>471.0</ele><time>2026-04-19T13:10:40.479Z</time></trkpt><trkpt lat="45.1194834" lon="7.9888731"><ele>471.0</ele><time>2026-04-19T13:10:41.479Z</time></trkpt><trkpt lat="45.1195415" lon="7.9889955"><ele>471.0</ele><time>2026-04-19T13:10:42.48Z</time></trkpt><trkpt lat="45.119623" lon="7.9891122"><ele>471.0</ele><time>2026-04-19T13:10:43.479Z</time></trkpt><trkpt lat="45.1197014" lon="7.9892472"><ele>471.0</ele><time>2026-04-19T13:10:44.479Z</time></trkpt><trkpt lat="45.1197723" lon="7.9893788"><ele>469.25</ele><time>2026-04-19T13:10:45.479Z</time></trkpt><trkpt lat="45.1198367" lon="7.9895225"><ele>467.5</ele><time>2026-04-19T13:10:46.479Z</time></trkpt><trkpt lat="45.1199313" lon="7.9896489"><ele>465.75</ele><time>2026-04-19T13:10:47.48Z</time></trkpt><trkpt lat="45.1200586" lon="7.9897966"><ele>464.0</ele><time>2026-04-19T13:10:48.479Z</time></trkpt><trkpt lat="45.1201167" lon="7.989925"><ele>466.75</ele><time>2026-04-19T13:10:49.479Z</time></trkpt><trkpt lat="45.1201875" lon="7.9900359"><ele>469.5</ele><time>2026-04-19T13:10:50.48Z</time></trkpt><trkpt lat="45.1202502" lon="7.9901372"><ele>472.25</ele><time>2026-04-19T13:10:51.479Z</time></trkpt><trkpt lat="45.120399" lon="7.990225"><ele>475.0</ele><time>2026-04-19T13:10:53.479Z</time></trkpt><trkpt lat="45.1204866" lon="7.9902525"><ele>475.0</ele><time>2026-04-19T13:10:54.479Z</time></trkpt><trkpt lat="45.1206332" lon="7.9902657"><ele>475.0</ele><time>2026-04-19T13:10:55.479Z</time></trkpt><trkpt lat="45.1207113" lon="7.9903312"><ele>475.0</ele><time>2026-04-19T13:10:57.479Z</time></trkpt><trkpt lat="45.1206893" lon="7.9904988"><ele>475.0</ele><time>2026-04-19T13:10:59.479Z</time></trkpt><trkpt lat="45.1207128" lon="7.9906068"><ele>475.0</ele><time>2026-04-19T13:11:00.479Z</time></trkpt><trkpt lat="45.1207039" lon="7.9907328"><ele>472.5</ele><time>2026-04-19T13:11:01.48Z</time></trkpt><trkpt lat="45.1206426" lon="7.9908418"><ele>470.0</ele><time>2026-04-19T13:11:02.48Z</time></trkpt><trkpt lat="45.1206112" lon="7.9910202"><ele>467.5</ele><time>2026-04-19T13:11:03.479Z</time></trkpt><trkpt lat="45.1205715" lon="7.9912044"><ele>465.0</ele><time>2026-04-19T13:11:04.48Z</time></trkpt><trkpt lat="45.1205338" lon="7.9913806"><ele>465.0</ele><time>2026-04-19T13:11:05.48Z</time></trkpt><trkpt lat="45.1204902" lon="7.9915764"><ele>465.0</ele><time>2026-04-19T13:11:06.48Z</time></trkpt><trkpt lat="45.1204796" lon="7.9917676"><ele>465.0</ele><time>2026-04-19T13:11:07.48Z</time></trkpt><trkpt lat="45.1204781" lon="7.9919394"><ele>465.0</ele><time>2026-04-19T13:11:08.479Z</time></trkpt><trkpt lat="45.1204734" lon="7.9921238"><ele>462.6666666666667</ele><time>2026-04-19T13:11:09.479Z</time></trkpt><trkpt lat="45.120496" lon="7.9922678"><ele>460.33333333333337</ele><time>2026-04-19T13:11:10.479Z</time></trkpt><trkpt lat="45.1205334" lon="7.9924076"><ele>458.0</ele><time>2026-04-19T13:11:11.479Z</time></trkpt><trkpt lat="45.1205707" lon="7.9925089"><ele>455.6666666666667</ele><time>2026-04-19T13:11:12.479Z</time></trkpt><trkpt lat="45.1206116" lon="7.9926007"><ele>453.33333333333337</ele><time>2026-04-19T13:11:13.48Z</time></trkpt><trkpt lat="45.1206432" lon="7.992689"><ele>451.0</ele><time>2026-04-19T13:11:14.479Z</time></trkpt><trkpt lat="45.1206827" lon="7.9927925"><ele>449.8</ele><time>2026-04-19T13:11:15.479Z</time></trkpt><trkpt lat="45.1207106" lon="7.9928948"><ele>448.6</ele><time>2026-04-19T13:11:16.479Z</time></trkpt><trkpt lat="45.1207513" lon="7.9930118"><ele>447.4</ele><time>2026-04-19T13:11:17.479Z</time></trkpt><trkpt lat="45.1207836" lon="7.9931458"><ele>446.2</ele><time>2026-04-19T13:11:18.48Z</time></trkpt><trkpt lat="45.1208093" lon="7.9932805"><ele>445.0</ele><time>2026-04-19T13:11:19.479Z</time></trkpt><trkpt lat="45.1208381" lon="7.9934503"><ele>453.0</ele><time>2026-04-19T13:11:20.479Z</time></trkpt><trkpt lat="45.1208899" lon="7.9936032"><ele>461.0</ele><time>2026-04-19T13:11:21.479Z</time></trkpt><trkpt lat="45.1209643" lon="7.9937281"><ele>469.0</ele><time>2026-04-19T13:11:22.479Z</time></trkpt><trkpt lat="45.1210691" lon="7.9938437"><ele>477.0</ele><time>2026-04-19T13:11:23.479Z</time></trkpt><trkpt lat="45.1211757" lon="7.9939554"><ele>477.0</ele><time>2026-04-19T13:11:24.48Z</time></trkpt><trkpt lat="45.1212879" lon="7.9940876"><ele>477.0</ele><time>2026-04-19T13:11:25.479Z</time></trkpt><trkpt lat="45.1213734" lon="7.9941817"><ele>477.0</ele><time>2026-04-19T13:11:26.479Z</time></trkpt><trkpt lat="45.1214704" lon="7.9942996"><ele>477.0</ele><time>2026-04-19T13:11:27.479Z</time></trkpt><trkpt lat="45.1215568" lon="7.9944322"><ele>472.75</ele><time>2026-04-19T13:11:28.48Z</time></trkpt><trkpt lat="45.1216633" lon="7.9945668"><ele>468.5</ele><time>2026-04-19T13:11:29.48Z</time></trkpt><trkpt lat="45.1217721" lon="7.9946891"><ele>464.25</ele><time>2026-04-19T13:11:30.479Z</time></trkpt><trkpt lat="45.1218798" lon="7.9948005"><ele>460.0</ele><time>2026-04-19T13:11:31.48Z</time></trkpt><trkpt lat="45.1219845" lon="7.9948919"><ele>460.0</ele><time>2026-04-19T13:11:32.479Z</time></trkpt><trkpt lat="45.1220874" lon="7.9949748"><ele>460.0</ele><time>2026-04-19T13:11:33.479Z</time></trkpt><trkpt lat="45.1221847" lon="7.9950413"><ele>460.0</ele><time>2026-04-19T13:11:34.479Z</time></trkpt><trkpt lat="45.1223205" lon="7.9950988"><ele>460.0</ele><time>2026-04-19T13:11:35.479Z</time></trkpt><trkpt lat="45.1224367" lon="7.995139"><ele>456.75</ele><time>2026-04-19T13:11:36.479Z</time></trkpt><trkpt lat="45.1225694" lon="7.9951815"><ele>453.5</ele><time>2026-04-19T13:11:37.479Z</time></trkpt><trkpt lat="45.1227034" lon="7.9952229"><ele>450.25</ele><time>2026-04-19T13:11:38.479Z</time></trkpt><trkpt lat="45.1228152" lon="7.9952238"><ele>447.0</ele><time>2026-04-19T13:11:39.48Z</time></trkpt><trkpt lat="45.1229308" lon="7.9952416"><ele>447.0</ele><time>2026-04-19T13:11:40.48Z</time></trkpt><trkpt lat="45.1230455" lon="7.9952708"><ele>447.00000000000006</ele><time>2026-04-19T13:11:41.479Z</time></trkpt><trkpt lat="45.1231484" lon="7.9953387"><ele>447.00000000000006</ele><time>2026-04-19T13:11:42.479Z</time></trkpt><trkpt lat="45.1232363" lon="7.9954267"><ele>447.0</ele><time>2026-04-19T13:11:43.479Z</time></trkpt><trkpt lat="45.1233005" lon="7.9955338"><ele>447.0</ele><time>2026-04-19T13:11:44.479Z</time></trkpt><trkpt lat="45.1233434" lon="7.9956576"><ele>450.75</ele><time>2026-04-19T13:11:45.479Z</time></trkpt><trkpt lat="45.1233254" lon="7.9958057"><ele>454.5</ele><time>2026-04-19T13:11:46.479Z</time></trkpt><trkpt lat="45.1233081" lon="7.9959642"><ele>458.25</ele><time>2026-04-19T13:11:47.479Z</time></trkpt><trkpt lat="45.1232858" lon="7.9961437"><ele>462.0</ele><time>2026-04-19T13:11:48.48Z</time></trkpt><trkpt lat="45.1232484" lon="7.9963342"><ele>455.0</ele><time>2026-04-19T13:11:49.48Z</time></trkpt><trkpt lat="45.1231962" lon="7.9965314"><ele>448.0</ele><time>2026-04-19T13:11:50.479Z</time></trkpt><trkpt lat="45.1231392" lon="7.9967175"><ele>441.0</ele><time>2026-04-19T13:11:51.479Z</time></trkpt><trkpt lat="45.1231062" lon="7.9968915"><ele>434.0</ele><time>2026-04-19T13:11:52.479Z</time></trkpt><trkpt lat="45.1230799" lon="7.9970938"><ele>434.0</ele><time>2026-04-19T13:11:53.479Z</time></trkpt><trkpt lat="45.1230446" lon="7.9972696"><ele>434.0</ele><time>2026-04-19T13:11:54.479Z</time></trkpt><trkpt lat="45.1230372" lon="7.9974824"><ele>434.0</ele><time>2026-04-19T13:11:56.48Z</time></trkpt><trkpt lat="45.1230132" lon="7.9975966"><ele>434.0</ele><time>2026-04-19T13:11:57.479Z</time></trkpt><trkpt lat="45.122975" lon="7.9977475"><ele>435.0</ele><time>2026-04-19T13:11:59.48Z</time></trkpt><trkpt lat="45.1228746" lon="7.9978676"><ele>436.0</ele><time>2026-04-19T13:12:01.479Z</time></trkpt><trkpt lat="45.1228176" lon="7.9979228"><ele>437.0</ele><time>2026-04-19T13:12:02.479Z</time></trkpt><trkpt lat="45.1227207" lon="7.9979857"><ele>438.0</ele><time>2026-04-19T13:12:03.479Z</time></trkpt><trkpt lat="45.1226291" lon="7.9980634"><ele>439.0</ele><time>2026-04-19T13:12:04.48Z</time></trkpt><trkpt lat="45.1225297" lon="7.9981402"><ele>439.0</ele><time>2026-04-19T13:12:05.479Z</time></trkpt><trkpt lat="45.1224174" lon="7.9982292"><ele>439.0</ele><time>2026-04-19T13:12:06.48Z</time></trkpt><trkpt lat="45.1222925" lon="7.9983382"><ele>439.0</ele><time>2026-04-19T13:12:07.479Z</time></trkpt><trkpt lat="45.1221858" lon="7.9984462"><ele>439.0</ele><time>2026-04-19T13:12:08.48Z</time></trkpt><trkpt lat="45.1220885" lon="7.99859"><ele>436.5</ele><time>2026-04-19T13:12:09.479Z</time></trkpt><trkpt lat="45.1219705" lon="7.9987063"><ele>434.0</ele><time>2026-04-19T13:12:10.479Z</time></trkpt><trkpt lat="45.1218715" lon="7.9988475"><ele>431.5</ele><time>2026-04-19T13:12:11.479Z</time></trkpt><trkpt lat="45.1217773" lon="7.9989832"><ele>429.0</ele><time>2026-04-19T13:12:12.479Z</time></trkpt><trkpt lat="45.1216883" lon="7.9991037"><ele>429.79999999999995</ele><time>2026-04-19T13:12:13.479Z</time></trkpt><trkpt lat="45.1216064" lon="7.9992254"><ele>430.59999999999997</ele><time>2026-04-19T13:12:14.479Z</time></trkpt><trkpt lat="45.1215617" lon="7.999339"><ele>431.4</ele><time>2026-04-19T13:12:15.479Z</time></trkpt><trkpt lat="45.1215239" lon="7.9994575"><ele>432.2</ele><time>2026-04-19T13:12:16.479Z</time></trkpt><trkpt lat="45.1215088" lon="7.9996202"><ele>433.0</ele><time>2026-04-19T13:12:17.479Z</time></trkpt><trkpt lat="45.1215005" lon="7.9998012"><ele>429.0</ele><time>2026-04-19T13:12:18.479Z</time></trkpt><trkpt lat="45.1214928" lon="7.99999"><ele>425.0</ele><time>2026-04-19T13:12:19.479Z</time></trkpt><trkpt lat="45.1214725" lon="8.0001448"><ele>421.0</ele><time>2026-04-19T13:12:20.479Z</time></trkpt><trkpt lat="45.1214181" lon="8.0003012"><ele>417.0</ele><time>2026-04-19T13:12:21.48Z</time></trkpt><trkpt lat="45.1213364" lon="8.0004389"><ele>417.0</ele><time>2026-04-19T13:12:22.479Z</time></trkpt><trkpt lat="45.1212523" lon="8.0005759"><ele>417.0</ele><time>2026-04-19T13:12:23.479Z</time></trkpt><trkpt lat="45.1211613" lon="8.0006984"><ele>417.0</ele><time>2026-04-19T13:12:24.479Z</time></trkpt><trkpt lat="45.1210653" lon="8.0008056"><ele>417.0</ele><time>2026-04-19T13:12:25.479Z</time></trkpt><trkpt lat="45.1209219" lon="8.0008523"><ele>418.25</ele><time>2026-04-19T13:12:26.48Z</time></trkpt><trkpt lat="45.1208021" lon="8.0009143"><ele>419.5</ele><time>2026-04-19T13:12:27.479Z</time></trkpt><trkpt lat="45.1206664" lon="8.0009745"><ele>420.75</ele><time>2026-04-19T13:12:28.479Z</time></trkpt><trkpt lat="45.1205367" lon="8.0010742"><ele>422.0</ele><time>2026-04-19T13:12:29.479Z</time></trkpt><trkpt lat="45.1203941" lon="8.0011677"><ele>422.0</ele><time>2026-04-19T13:12:30.479Z</time></trkpt><trkpt lat="45.1202696" lon="8.0012884"><ele>422.0</ele><time>2026-04-19T13:12:31.48Z</time></trkpt><trkpt lat="45.1201393" lon="8.0013986"><ele>422.0</ele><time>2026-04-19T13:12:32.479Z</time></trkpt><trkpt lat="45.119998" lon="8.0015172"><ele>423.5</ele><time>2026-04-19T13:12:33.479Z</time></trkpt><trkpt lat="45.1198644" lon="8.0016258"><ele>425.0</ele><time>2026-04-19T13:12:34.479Z</time></trkpt><trkpt lat="45.1197273" lon="8.0017348"><ele>426.5</ele><time>2026-04-19T13:12:35.48Z</time></trkpt><trkpt lat="45.1196185" lon="8.0018458"><ele>428.0</ele><time>2026-04-19T13:12:36.48Z</time></trkpt><trkpt lat="45.1194913" lon="8.0019612"><ele>428.0</ele><time>2026-04-19T13:12:37.479Z</time></trkpt><trkpt lat="45.1193811" lon="8.0020519"><ele>428.0</ele><time>2026-04-19T13:12:38.48Z</time></trkpt><trkpt lat="45.1192582" lon="8.0020981"><ele>428.0</ele><time>2026-04-19T13:12:39.479Z</time></trkpt><trkpt lat="45.1191515" lon="8.0021066"><ele>428.0</ele><time>2026-04-19T13:12:40.479Z</time></trkpt><trkpt lat="45.1190409" lon="8.0021153"><ele>429.4</ele><time>2026-04-19T13:12:41.479Z</time></trkpt><trkpt lat="45.1189379" lon="8.0021138"><ele>430.79999999999995</ele><time>2026-04-19T13:12:42.479Z</time></trkpt><trkpt lat="45.1188421" lon="8.0021463"><ele>432.2</ele><time>2026-04-19T13:12:43.479Z</time></trkpt><trkpt lat="45.1187479" lon="8.002197"><ele>433.6</ele><time>2026-04-19T13:12:44.479Z</time></trkpt><trkpt lat="45.1186555" lon="8.0022499"><ele>435.0</ele><time>2026-04-19T13:12:45.479Z</time></trkpt><trkpt lat="45.1185607" lon="8.0023012"><ele>435.0</ele><time>2026-04-19T13:12:46.479Z</time></trkpt><trkpt lat="45.1184623" lon="8.0023444"><ele>435.0</ele><time>2026-04-19T13:12:47.48Z</time></trkpt><trkpt lat="45.1183608" lon="8.0023404"><ele>435.0</ele><time>2026-04-19T13:12:48.479Z</time></trkpt><trkpt lat="45.1182547" lon="8.0023486"><ele>435.0</ele><time>2026-04-19T13:12:49.479Z</time></trkpt><trkpt lat="45.1181551" lon="8.0023535"><ele>435.0</ele><time>2026-04-19T13:12:50.48Z</time></trkpt><trkpt lat="45.1180308" lon="8.0023394"><ele>437.8</ele><time>2026-04-19T13:12:51.479Z</time></trkpt><trkpt lat="45.1179215" lon="8.0023183"><ele>440.6</ele><time>2026-04-19T13:12:52.48Z</time></trkpt><trkpt lat="45.1178205" lon="8.0023035"><ele>443.4</ele><time>2026-04-19T13:12:53.479Z</time></trkpt><trkpt lat="45.1177172" lon="8.0023195"><ele>446.2</ele><time>2026-04-19T13:12:54.479Z</time></trkpt><trkpt lat="45.1176199" lon="8.002364"><ele>449.0</ele><time>2026-04-19T13:12:55.479Z</time></trkpt><trkpt lat="45.1175307" lon="8.0024167"><ele>448.99999999999994</ele><time>2026-04-19T13:12:56.48Z</time></trkpt><trkpt lat="45.1174523" lon="8.0024753"><ele>449.0</ele><time>2026-04-19T13:12:57.48Z</time></trkpt><trkpt lat="45.1173694" lon="8.0025407"><ele>449.0</ele><time>2026-04-19T13:12:58.479Z</time></trkpt><trkpt lat="45.1172797" lon="8.0026083"><ele>449.0</ele><time>2026-04-19T13:12:59.479Z</time></trkpt><trkpt lat="45.1172052" lon="8.0026345"><ele>448.99999999999994</ele><time>2026-04-19T13:13:00.479Z</time></trkpt><trkpt lat="45.117131" lon="8.0026676"><ele>449.0</ele><time>2026-04-19T13:13:01.479Z</time></trkpt><trkpt lat="45.1170771" lon="8.0027327"><ele>446.66666666666663</ele><time>2026-04-19T13:13:02.48Z</time></trkpt><trkpt lat="45.1170142" lon="8.002832"><ele>444.3333333333333</ele><time>2026-04-19T13:13:03.479Z</time></trkpt><trkpt lat="45.1169705" lon="8.0029271"><ele>442.0</ele><time>2026-04-19T13:13:04.479Z</time></trkpt><trkpt lat="45.1169271" lon="8.0030212"><ele>439.66666666666663</ele><time>2026-04-19T13:13:05.48Z</time></trkpt><trkpt lat="45.1168897" lon="8.003114"><ele>437.3333333333333</ele><time>2026-04-19T13:13:06.479Z</time></trkpt><trkpt lat="45.1168521" lon="8.0032167"><ele>435.0</ele><time>2026-04-19T13:13:07.48Z</time></trkpt><trkpt lat="45.1167882" lon="8.0033305"><ele>435.5</ele><time>2026-04-19T13:13:08.479Z</time></trkpt><trkpt lat="45.11673" lon="8.0034321"><ele>436.0</ele><time>2026-04-19T13:13:09.48Z</time></trkpt><trkpt lat="45.1166673" lon="8.0035406"><ele>436.5</ele><time>2026-04-19T13:13:10.479Z</time></trkpt><trkpt lat="45.1166077" lon="8.0036496"><ele>437.0</ele><time>2026-04-19T13:13:11.479Z</time></trkpt><trkpt lat="45.1165416" lon="8.0037272"><ele>437.5</ele><time>2026-04-19T13:13:12.479Z</time></trkpt><trkpt lat="45.1164941" lon="8.0038071"><ele>438.0</ele><time>2026-04-19T13:13:13.479Z</time></trkpt><trkpt lat="45.116396" lon="8.0038989"><ele>435.0</ele><time>2026-04-19T13:13:14.48Z</time></trkpt><trkpt lat="45.116314" lon="8.0039587"><ele>431.99999999999994</ele><time>2026-04-19T13:13:15.479Z</time></trkpt><trkpt lat="45.1162195" lon="8.004002"><ele>429.0</ele><time>2026-04-19T13:13:16.48Z</time></trkpt><trkpt lat="45.116121" lon="8.0040141"><ele>426.0</ele><time>2026-04-19T13:13:17.48Z</time></trkpt><trkpt lat="45.116025" lon="8.0040318"><ele>423.0</ele><time>2026-04-19T13:13:18.479Z</time></trkpt><trkpt lat="45.1159235" lon="8.0040525"><ele>423.0</ele><time>2026-04-19T13:13:19.48Z</time></trkpt><trkpt lat="45.1158301" lon="8.0040689"><ele>423.0</ele><time>2026-04-19T13:13:20.479Z</time></trkpt><trkpt lat="45.1157111" lon="8.0041327"><ele>423.0</ele><time>2026-04-19T13:13:21.479Z</time></trkpt><trkpt lat="45.1156069" lon="8.004224"><ele>423.0</ele><time>2026-04-19T13:13:22.479Z</time></trkpt><trkpt lat="45.1155054" lon="8.0043265"><ele>426.0</ele><time>2026-04-19T13:13:23.479Z</time></trkpt><trkpt lat="45.1154099" lon="8.0044277"><ele>429.0</ele><time>2026-04-19T13:13:24.48Z</time></trkpt><trkpt lat="45.1152996" lon="8.0045169"><ele>432.0</ele><time>2026-04-19T13:13:25.48Z</time></trkpt><trkpt lat="45.1151931" lon="8.004603"><ele>435.0</ele><time>2026-04-19T13:13:26.479Z</time></trkpt><trkpt lat="45.1150756" lon="8.0047052"><ele>435.0</ele><time>2026-04-19T13:13:27.479Z</time></trkpt><trkpt lat="45.1149611" lon="8.0048302"><ele>435.0</ele><time>2026-04-19T13:13:28.479Z</time></trkpt><trkpt lat="45.1148715" lon="8.0049801"><ele>435.0</ele><time>2026-04-19T13:13:29.479Z</time></trkpt><trkpt lat="45.1147926" lon="8.0051264"><ele>435.0</ele><time>2026-04-19T13:13:30.479Z</time></trkpt><trkpt lat="45.1147175" lon="8.0052785"><ele>434.6</ele><time>2026-04-19T13:13:31.479Z</time></trkpt><trkpt lat="45.1146619" lon="8.0053871"><ele>434.2</ele><time>2026-04-19T13:13:32.48Z</time></trkpt><trkpt lat="45.114599" lon="8.0055063"><ele>433.79999999999995</ele><time>2026-04-19T13:13:33.479Z</time></trkpt><trkpt lat="45.1145352" lon="8.0055882"><ele>433.4</ele><time>2026-04-19T13:13:34.48Z</time></trkpt><trkpt lat="45.1144547" lon="8.0056926"><ele>433.0</ele><time>2026-04-19T13:13:35.479Z</time></trkpt><trkpt lat="45.1143569" lon="8.005817"><ele>437.79999999999995</ele><time>2026-04-19T13:13:36.48Z</time></trkpt><trkpt lat="45.1142642" lon="8.0059071"><ele>442.59999999999997</ele><time>2026-04-19T13:13:37.479Z</time></trkpt><trkpt lat="45.1141784" lon="8.0060297"><ele>447.40000000000003</ele><time>2026-04-19T13:13:38.479Z</time></trkpt><trkpt lat="45.1140901" lon="8.0060978"><ele>452.20000000000005</ele><time>2026-04-19T13:13:39.48Z</time></trkpt><trkpt lat="45.113999" lon="8.0060644"><ele>457.0</ele><time>2026-04-19T13:13:40.479Z</time></trkpt><trkpt lat="45.1138467" lon="8.0060301"><ele>457.0</ele><time>2026-04-19T13:13:41.479Z</time></trkpt><trkpt lat="45.1137068" lon="8.0060056"><ele>457.0</ele><time>2026-04-19T13:13:42.48Z</time></trkpt><trkpt lat="45.1135844" lon="8.00599"><ele>457.0</ele><time>2026-04-19T13:13:43.48Z</time></trkpt><trkpt lat="45.1134556" lon="8.0059969"><ele>457.0</ele><time>2026-04-19T13:13:44.479Z</time></trkpt><trkpt lat="45.113359" lon="8.0060413"><ele>457.00000000000006</ele><time>2026-04-19T13:13:45.479Z</time></trkpt><trkpt lat="45.1132541" lon="8.0060758"><ele>457.0</ele><time>2026-04-19T13:13:46.479Z</time></trkpt><trkpt lat="45.1131562" lon="8.0061321"><ele>457.0</ele><time>2026-04-19T13:13:47.479Z</time></trkpt><trkpt lat="45.113073" lon="8.0061743"><ele>457.0</ele><time>2026-04-19T13:13:48.479Z</time></trkpt><trkpt lat="45.1130141" lon="8.0062368"><ele>457.00000000000006</ele><time>2026-04-19T13:13:49.479Z</time></trkpt><trkpt lat="45.1129785" lon="8.006323"><ele>457.0</ele><time>2026-04-19T13:13:50.479Z</time></trkpt><trkpt lat="45.1130339" lon="8.0064565"><ele>456.8</ele><time>2026-04-19T13:13:51.48Z</time></trkpt><trkpt lat="45.113054" lon="8.00657"><ele>456.6</ele><time>2026-04-19T13:13:52.48Z</time></trkpt><trkpt lat="45.1130935" lon="8.0066855"><ele>456.40000000000003</ele><time>2026-04-19T13:13:53.479Z</time></trkpt><trkpt lat="45.1131422" lon="8.0067951"><ele>456.20000000000005</ele><time>2026-04-19T13:13:54.479Z</time></trkpt><trkpt lat="45.1132646" lon="8.0068499"><ele>456.0</ele><time>2026-04-19T13:13:56.48Z</time></trkpt><trkpt lat="45.1133317" lon="8.0068922"><ele>459.0</ele><time>2026-04-19T13:13:57.479Z</time></trkpt><trkpt lat="45.113451" lon="8.0069923"><ele>462.0</ele><time>2026-04-19T13:13:58.479Z</time></trkpt><trkpt lat="45.11362" lon="8.0070958"><ele>465.0</ele><time>2026-04-19T13:13:59.479Z</time></trkpt><trkpt lat="45.1137916" lon="8.0072048"><ele>465.0</ele><time>2026-04-19T13:14:00.479Z</time></trkpt><trkpt lat="45.1139342" lon="8.0073056"><ele>465.0</ele><time>2026-04-19T13:14:01.479Z</time></trkpt><trkpt lat="45.1140679" lon="8.007408"><ele>465.0</ele><time>2026-04-19T13:14:02.479Z</time></trkpt><trkpt lat="45.1143079" lon="8.007582"><ele>463.5</ele><time>2026-04-19T13:14:03.479Z</time></trkpt><trkpt lat="45.1144681" lon="8.0076791"><ele>462.0</ele><time>2026-04-19T13:14:04.479Z</time></trkpt><trkpt lat="45.1145479" lon="8.0077808"><ele>460.5</ele><time>2026-04-19T13:14:05.479Z</time></trkpt><trkpt lat="45.1146687" lon="8.0078813"><ele>459.0</ele><time>2026-04-19T13:14:06.479Z</time></trkpt><trkpt lat="45.1147654" lon="8.0080115"><ele>459.0</ele><time>2026-04-19T13:14:07.48Z</time></trkpt><trkpt lat="45.1148293" lon="8.0081873"><ele>459.0</ele><time>2026-04-19T13:14:08.479Z</time></trkpt><trkpt lat="45.1148785" lon="8.0084382"><ele>459.0</ele><time>2026-04-19T13:14:09.479Z</time></trkpt><trkpt lat="45.1147887" lon="8.0087481"><ele>452.33333333333337</ele><time>2026-04-19T13:14:10.479Z</time></trkpt><trkpt lat="45.1147961" lon="8.008997"><ele>445.6666666666667</ele><time>2026-04-19T13:14:11.48Z</time></trkpt><trkpt lat="45.1148085" lon="8.009245"><ele>439.0</ele><time>2026-04-19T13:14:12.479Z</time></trkpt><trkpt lat="45.1148219" lon="8.0094832"><ele>436.33333333333337</ele><time>2026-04-19T13:14:13.48Z</time></trkpt><trkpt lat="45.1148375" lon="8.0097177"><ele>433.66666666666663</ele><time>2026-04-19T13:14:14.479Z</time></trkpt><trkpt lat="45.1148428" lon="8.0099553"><ele>431.0</ele><time>2026-04-19T13:14:15.48Z</time></trkpt><trkpt lat="45.1148327" lon="8.0102181"><ele>431.0</ele><time>2026-04-19T13:14:16.479Z</time></trkpt><trkpt lat="45.114814" lon="8.0104757"><ele>431.0</ele><time>2026-04-19T13:14:17.479Z</time></trkpt><trkpt lat="45.1147979" lon="8.0107337"><ele>431.0</ele><time>2026-04-19T13:14:18.479Z</time></trkpt><trkpt lat="45.114765" lon="8.0110116"><ele>430.0</ele><time>2026-04-19T13:14:19.479Z</time></trkpt><trkpt lat="45.1147431" lon="8.0112719"><ele>429.0</ele><time>2026-04-19T13:14:20.48Z</time></trkpt><trkpt lat="45.1147232" lon="8.0115351"><ele>428.0</ele><time>2026-04-19T13:14:21.479Z</time></trkpt><trkpt lat="45.1147007" lon="8.0117951"><ele>427.66666666666663</ele><time>2026-04-19T13:14:22.479Z</time></trkpt><trkpt lat="45.1146814" lon="8.0120384"><ele>427.33333333333337</ele><time>2026-04-19T13:14:23.479Z</time></trkpt><trkpt lat="45.1146444" lon="8.0122455"><ele>427.0</ele><time>2026-04-19T13:14:24.48Z</time></trkpt><trkpt lat="45.1146065" lon="8.0124312"><ele>429.5</ele><time>2026-04-19T13:14:25.48Z</time></trkpt><trkpt lat="45.114538" lon="8.0126127"><ele>432.0</ele><time>2026-04-19T13:14:26.479Z</time></trkpt><trkpt lat="45.1144552" lon="8.0127734"><ele>434.5</ele><time>2026-04-19T13:14:27.479Z</time></trkpt><trkpt lat="45.1143621" lon="8.0129098"><ele>437.0</ele><time>2026-04-19T13:14:28.48Z</time></trkpt><trkpt lat="45.1142164" lon="8.0130094"><ele>437.0</ele><time>2026-04-19T13:14:29.479Z</time></trkpt><trkpt lat="45.1140845" lon="8.0130857"><ele>437.0</ele><time>2026-04-19T13:14:30.479Z</time></trkpt><trkpt lat="45.1139539" lon="8.013153"><ele>437.0</ele><time>2026-04-19T13:14:31.479Z</time></trkpt><trkpt lat="45.1138241" lon="8.0132176"><ele>437.0</ele><time>2026-04-19T13:14:32.479Z</time></trkpt><trkpt lat="45.1137063" lon="8.0133147"><ele>434.0</ele><time>2026-04-19T13:14:33.48Z</time></trkpt><trkpt lat="45.1136135" lon="8.0134371"><ele>431.0</ele><time>2026-04-19T13:14:34.479Z</time></trkpt><trkpt lat="45.1135217" lon="8.0136095"><ele>428.0</ele><time>2026-04-19T13:14:35.479Z</time></trkpt><trkpt lat="45.1134335" lon="8.0137605"><ele>425.0</ele><time>2026-04-19T13:14:36.48Z</time></trkpt><trkpt lat="45.1133015" lon="8.01395"><ele>426.0</ele><time>2026-04-19T13:14:37.48Z</time></trkpt><trkpt lat="45.1131781" lon="8.014127"><ele>427.0</ele><time>2026-04-19T13:14:38.479Z</time></trkpt><trkpt lat="45.113067" lon="8.0143159"><ele>428.0</ele><time>2026-04-19T13:14:39.479Z</time></trkpt><trkpt lat="45.1129435" lon="8.0144771"><ele>428.0</ele><time>2026-04-19T13:14:40.48Z</time></trkpt><trkpt lat="45.1128573" lon="8.0146238"><ele>428.0</ele><time>2026-04-19T13:14:41.48Z</time></trkpt><trkpt lat="45.1127796" lon="8.0147557"><ele>428.0</ele><time>2026-04-19T13:14:42.479Z</time></trkpt><trkpt lat="45.1127127" lon="8.0148933"><ele>428.0</ele><time>2026-04-19T13:14:43.48Z</time></trkpt><trkpt lat="45.1126531" lon="8.0150341"><ele>428.75</ele><time>2026-04-19T13:14:44.479Z</time></trkpt><trkpt lat="45.1126436" lon="8.015241"><ele>429.5</ele><time>2026-04-19T13:14:45.48Z</time></trkpt><trkpt lat="45.112627" lon="8.0154413"><ele>430.25</ele><time>2026-04-19T13:14:46.479Z</time></trkpt><trkpt lat="45.1126136" lon="8.0156601"><ele>431.0</ele><time>2026-04-19T13:14:47.479Z</time></trkpt><trkpt lat="45.1126058" lon="8.0158976"><ele>431.0</ele><time>2026-04-19T13:14:48.479Z</time></trkpt><trkpt lat="45.1126008" lon="8.0161348"><ele>431.0</ele><time>2026-04-19T13:14:49.479Z</time></trkpt><trkpt lat="45.112578" lon="8.0163546"><ele>431.0</ele><time>2026-04-19T13:14:50.479Z</time></trkpt><trkpt lat="45.1125229" lon="8.0165578"><ele>431.0</ele><time>2026-04-19T13:14:51.479Z</time></trkpt><trkpt lat="45.1124499" lon="8.016756"><ele>431.0</ele><time>2026-04-19T13:14:52.479Z</time></trkpt><trkpt lat="45.1123894" lon="8.0169546"><ele>431.0</ele><time>2026-04-19T13:14:53.479Z</time></trkpt><trkpt lat="45.1123305" lon="8.0171532"><ele>427.0</ele><time>2026-04-19T13:14:54.48Z</time></trkpt><trkpt lat="45.1122217" lon="8.0174194"><ele>423.0</ele><time>2026-04-19T13:14:55.48Z</time></trkpt><trkpt lat="45.1121192" lon="8.0176478"><ele>419.0</ele><time>2026-04-19T13:14:56.479Z</time></trkpt><trkpt lat="45.1120249" lon="8.0178669"><ele>419.0</ele><time>2026-04-19T13:14:57.479Z</time></trkpt><trkpt lat="45.1119304" lon="8.01809"><ele>419.0</ele><time>2026-04-19T13:14:58.479Z</time></trkpt><trkpt lat="45.1118272" lon="8.0183283"><ele>419.0</ele><time>2026-04-19T13:14:59.48Z</time></trkpt><trkpt lat="45.1117577" lon="8.0185764"><ele>418.3333333333333</ele><time>2026-04-19T13:15:00.48Z</time></trkpt><trkpt lat="45.1116653" lon="8.0188087"><ele>417.66666666666663</ele><time>2026-04-19T13:15:01.48Z</time></trkpt><trkpt lat="45.111562" lon="8.0190098"><ele>417.0</ele><time>2026-04-19T13:15:02.479Z</time></trkpt><trkpt lat="45.1114859" lon="8.0192102"><ele>417.0</ele><time>2026-04-19T13:15:03.479Z</time></trkpt><trkpt lat="45.1113922" lon="8.0194329"><ele>417.0</ele><time>2026-04-19T13:15:04.479Z</time></trkpt><trkpt lat="45.1113103" lon="8.0196305"><ele>417.0</ele><time>2026-04-19T13:15:05.479Z</time></trkpt><trkpt lat="45.1112224" lon="8.0197988"><ele>417.0</ele><time>2026-04-19T13:15:06.479Z</time></trkpt><trkpt lat="45.1111239" lon="8.0199029"><ele>417.0</ele><time>2026-04-19T13:15:07.48Z</time></trkpt><trkpt lat="45.1109889" lon="8.0200027"><ele>417.0</ele><time>2026-04-19T13:15:08.48Z</time></trkpt><trkpt lat="45.1108395" lon="8.0200992"><ele>417.0</ele><time>2026-04-19T13:15:09.479Z</time></trkpt><trkpt lat="45.1106773" lon="8.0201961"><ele>415.0</ele><time>2026-04-19T13:15:10.479Z</time></trkpt><trkpt lat="45.1105067" lon="8.0202979"><ele>413.0</ele><time>2026-04-19T13:15:11.48Z</time></trkpt><trkpt lat="45.1103394" lon="8.0203969"><ele>411.0</ele><time>2026-04-19T13:15:12.479Z</time></trkpt><trkpt lat="45.1101738" lon="8.0204726"><ele>411.0</ele><time>2026-04-19T13:15:13.479Z</time></trkpt><trkpt lat="45.1100032" lon="8.0205685"><ele>411.0</ele><time>2026-04-19T13:15:14.479Z</time></trkpt><trkpt lat="45.1098522" lon="8.0206295"><ele>411.0</ele><time>2026-04-19T13:15:15.48Z</time></trkpt><trkpt lat="45.109719" lon="8.0207852"><ele>412.0</ele><time>2026-04-19T13:15:16.479Z</time></trkpt><trkpt lat="45.1095572" lon="8.0209575"><ele>413.0</ele><time>2026-04-19T13:15:17.479Z</time></trkpt><trkpt lat="45.1094177" lon="8.0211471"><ele>414.0</ele><time>2026-04-19T13:15:18.479Z</time></trkpt><trkpt lat="45.1092752" lon="8.0213214"><ele>414.0</ele><time>2026-04-19T13:15:19.479Z</time></trkpt><trkpt lat="45.1091363" lon="8.0215151"><ele>414.0</ele><time>2026-04-19T13:15:20.479Z</time></trkpt><trkpt lat="45.1089991" lon="8.0217023"><ele>414.0</ele><time>2026-04-19T13:15:21.48Z</time></trkpt><trkpt lat="45.108851" lon="8.0218683"><ele>413.66666666666663</ele><time>2026-04-19T13:15:22.479Z</time></trkpt><trkpt lat="45.1086969" lon="8.0220092"><ele>413.3333333333333</ele><time>2026-04-19T13:15:23.479Z</time></trkpt><trkpt lat="45.1085536" lon="8.022174"><ele>413.0</ele><time>2026-04-19T13:15:24.479Z</time></trkpt><trkpt lat="45.1084109" lon="8.0222875"><ele>413.0</ele><time>2026-04-19T13:15:25.48Z</time></trkpt><trkpt lat="45.1082506" lon="8.0223963"><ele>413.0</ele><time>2026-04-19T13:15:26.479Z</time></trkpt><trkpt lat="45.1080561" lon="8.0225041"><ele>413.0</ele><time>2026-04-19T13:15:27.48Z</time></trkpt><trkpt lat="45.1078942" lon="8.0226099"><ele>419.0</ele><time>2026-04-19T13:15:28.48Z</time></trkpt><trkpt lat="45.1077291" lon="8.0227121"><ele>425.0</ele><time>2026-04-19T13:15:29.48Z</time></trkpt><trkpt lat="45.1075674" lon="8.022817"><ele>431.0</ele><time>2026-04-19T13:15:30.479Z</time></trkpt><trkpt lat="45.1074359" lon="8.0229118"><ele>431.0</ele><time>2026-04-19T13:15:31.479Z</time></trkpt><trkpt lat="45.1072798" lon="8.0230113"><ele>431.0</ele><time>2026-04-19T13:15:32.479Z</time></trkpt><trkpt lat="45.1071393" lon="8.0230445"><ele>431.0</ele><time>2026-04-19T13:15:33.479Z</time></trkpt><trkpt lat="45.1070267" lon="8.023052"><ele>431.0</ele><time>2026-04-19T13:15:34.479Z</time></trkpt><trkpt lat="45.10691" lon="8.0230546"><ele>431.0</ele><time>2026-04-19T13:15:35.479Z</time></trkpt><trkpt lat="45.106788" lon="8.0230438"><ele>431.0</ele><time>2026-04-19T13:15:36.479Z</time></trkpt><trkpt lat="45.1066869" lon="8.0230321"><ele>431.0</ele><time>2026-04-19T13:15:37.48Z</time></trkpt><trkpt lat="45.106538" lon="8.0229949"><ele>431.0</ele><time>2026-04-19T13:15:39.479Z</time></trkpt><trkpt lat="45.1064486" lon="8.0229792"><ele>431.4</ele><time>2026-04-19T13:15:40.479Z</time></trkpt><trkpt lat="45.1063466" lon="8.0229614"><ele>431.8</ele><time>2026-04-19T13:15:41.479Z</time></trkpt><trkpt lat="45.1062483" lon="8.022941"><ele>432.19999999999993</ele><time>2026-04-19T13:15:42.479Z</time></trkpt><trkpt lat="45.1061446" lon="8.0229182"><ele>432.59999999999997</ele><time>2026-04-19T13:15:43.479Z</time></trkpt><trkpt lat="45.1060499" lon="8.022888"><ele>433.0</ele><time>2026-04-19T13:15:44.479Z</time></trkpt><trkpt lat="45.105937" lon="8.0228188"><ele>433.0</ele><time>2026-04-19T13:15:45.479Z</time></trkpt><trkpt lat="45.1058348" lon="8.0227341"><ele>433.0</ele><time>2026-04-19T13:15:46.479Z</time></trkpt><trkpt lat="45.1057327" lon="8.0226289"><ele>433.0</ele><time>2026-04-19T13:15:47.479Z</time></trkpt><trkpt lat="45.1056254" lon="8.0225342"><ele>433.0</ele><time>2026-04-19T13:15:48.48Z</time></trkpt><trkpt lat="45.1055157" lon="8.0224343"><ele>435.0</ele><time>2026-04-19T13:15:49.48Z</time></trkpt><trkpt lat="45.1053829" lon="8.0223197"><ele>437.0</ele><time>2026-04-19T13:15:50.479Z</time></trkpt><trkpt lat="45.1052575" lon="8.0222395"><ele>439.0</ele><time>2026-04-19T13:15:51.479Z</time></trkpt><trkpt lat="45.1051317" lon="8.0221255"><ele>441.0</ele><time>2026-04-19T13:15:52.479Z</time></trkpt><trkpt lat="45.1050237" lon="8.0220145"><ele>440.25</ele><time>2026-04-19T13:15:53.479Z</time></trkpt><trkpt lat="45.1049039" lon="8.021898"><ele>439.5</ele><time>2026-04-19T13:15:54.479Z</time></trkpt><trkpt lat="45.1047914" lon="8.0217957"><ele>438.75</ele><time>2026-04-19T13:15:55.479Z</time></trkpt><trkpt lat="45.1046724" lon="8.0217488"><ele>438.0</ele><time>2026-04-19T13:15:56.479Z</time></trkpt><trkpt lat="45.1045648" lon="8.021716"><ele>438.0</ele><time>2026-04-19T13:15:57.479Z</time></trkpt><trkpt lat="45.1044565" lon="8.021702"><ele>438.0</ele><time>2026-04-19T13:15:58.479Z</time></trkpt><trkpt lat="45.1043302" lon="8.0217113"><ele>438.0</ele><time>2026-04-19T13:15:59.479Z</time></trkpt><trkpt lat="45.1042007" lon="8.0216947"><ele>438.0</ele><time>2026-04-19T13:16:00.48Z</time></trkpt><trkpt lat="45.1040631" lon="8.0216694"><ele>435.0</ele><time>2026-04-19T13:16:01.479Z</time></trkpt><trkpt lat="45.103922" lon="8.0216311"><ele>432.0</ele><time>2026-04-19T13:16:02.48Z</time></trkpt><trkpt lat="45.1037869" lon="8.0215929"><ele>429.0</ele><time>2026-04-19T13:16:03.48Z</time></trkpt><trkpt lat="45.1036433" lon="8.0216072"><ele>426.0</ele><time>2026-04-19T13:16:04.479Z</time></trkpt><trkpt lat="45.1035173" lon="8.0216259"><ele>426.0</ele><time>2026-04-19T13:16:05.479Z</time></trkpt><trkpt lat="45.1033804" lon="8.0216151"><ele>426.0</ele><time>2026-04-19T13:16:06.48Z</time></trkpt><trkpt lat="45.1032328" lon="8.0216951"><ele>426.0</ele><time>2026-04-19T13:16:07.479Z</time></trkpt><trkpt lat="45.1031231" lon="8.0217321"><ele>426.0</ele><time>2026-04-19T13:16:08.479Z</time></trkpt><trkpt lat="45.1030149" lon="8.0218644"><ele>430.25</ele><time>2026-04-19T13:16:09.48Z</time></trkpt><trkpt lat="45.1028758" lon="8.0219587"><ele>434.5</ele><time>2026-04-19T13:16:10.479Z</time></trkpt><trkpt lat="45.1027628" lon="8.0220465"><ele>438.75</ele><time>2026-04-19T13:16:11.479Z</time></trkpt><trkpt lat="45.1026229" lon="8.0221194"><ele>443.0</ele><time>2026-04-19T13:16:12.479Z</time></trkpt><trkpt lat="45.1024842" lon="8.0221897"><ele>442.3333333333333</ele><time>2026-04-19T13:16:13.48Z</time></trkpt><trkpt lat="45.1023261" lon="8.0222275"><ele>441.66666666666663</ele><time>2026-04-19T13:16:14.479Z</time></trkpt><trkpt lat="45.1021803" lon="8.0222681"><ele>441.0</ele><time>2026-04-19T13:16:15.479Z</time></trkpt><trkpt lat="45.1020337" lon="8.02232"><ele>441.0</ele><time>2026-04-19T13:16:16.479Z</time></trkpt><trkpt lat="45.1019004" lon="8.0223649"><ele>441.0</ele><time>2026-04-19T13:16:17.479Z</time></trkpt><trkpt lat="45.1017683" lon="8.0224112"><ele>441.0</ele><time>2026-04-19T13:16:18.479Z</time></trkpt><trkpt lat="45.1016267" lon="8.022407"><ele>441.0</ele><time>2026-04-19T13:16:19.479Z</time></trkpt><trkpt lat="45.1014884" lon="8.0224355"><ele>440.6</ele><time>2026-04-19T13:16:20.479Z</time></trkpt><trkpt lat="45.1014099" lon="8.0224545"><ele>440.20000000000005</ele><time>2026-04-19T13:16:21.479Z</time></trkpt><trkpt lat="45.1012918" lon="8.0224977"><ele>439.79999999999995</ele><time>2026-04-19T13:16:22.48Z</time></trkpt><trkpt lat="45.1011942" lon="8.0225611"><ele>439.4</ele><time>2026-04-19T13:16:23.48Z</time></trkpt><trkpt lat="45.1010856" lon="8.02267"><ele>439.0</ele><time>2026-04-19T13:16:24.479Z</time></trkpt><trkpt lat="45.1009743" lon="8.0228115"><ele>439.0</ele><time>2026-04-19T13:16:25.48Z</time></trkpt><trkpt lat="45.1008472" lon="8.0229359"><ele>439.0</ele><time>2026-04-19T13:16:26.479Z</time></trkpt><trkpt lat="45.1007295" lon="8.0230495"><ele>439.0</ele><time>2026-04-19T13:16:27.479Z</time></trkpt><trkpt lat="45.1006094" lon="8.023167"><ele>439.0</ele><time>2026-04-19T13:16:28.479Z</time></trkpt><trkpt lat="45.1004763" lon="8.0233012"><ele>440.0</ele><time>2026-04-19T13:16:29.479Z</time></trkpt><trkpt lat="45.1003528" lon="8.023428"><ele>441.0</ele><time>2026-04-19T13:16:30.48Z</time></trkpt><trkpt lat="45.1002255" lon="8.0235495"><ele>442.0</ele><time>2026-04-19T13:16:31.479Z</time></trkpt><trkpt lat="45.1000914" lon="8.0236703"><ele>442.0</ele><time>2026-04-19T13:16:32.479Z</time></trkpt><trkpt lat="45.0999517" lon="8.0237835"><ele>442.0</ele><time>2026-04-19T13:16:33.479Z</time></trkpt><trkpt lat="45.0998216" lon="8.0239064"><ele>442.0</ele><time>2026-04-19T13:16:34.48Z</time></trkpt><trkpt lat="45.099705" lon="8.0240247"><ele>442.0</ele><time>2026-04-19T13:16:35.479Z</time></trkpt><trkpt lat="45.0995618" lon="8.0241273"><ele>442.0</ele><time>2026-04-19T13:16:36.479Z</time></trkpt><trkpt lat="45.0993988" lon="8.0242505"><ele>442.0</ele><time>2026-04-19T13:16:37.479Z</time></trkpt><trkpt lat="45.0992417" lon="8.0243711"><ele>442.0</ele><time>2026-04-19T13:16:38.479Z</time></trkpt><trkpt lat="45.0990886" lon="8.0244881"><ele>442.0</ele><time>2026-04-19T13:16:39.479Z</time></trkpt><trkpt lat="45.0989304" lon="8.024592"><ele>442.0</ele><time>2026-04-19T13:16:40.479Z</time></trkpt><trkpt lat="45.0987788" lon="8.0247089"><ele>442.33333333333337</ele><time>2026-04-19T13:16:41.479Z</time></trkpt><trkpt lat="45.0986265" lon="8.0248096"><ele>442.66666666666663</ele><time>2026-04-19T13:16:42.479Z</time></trkpt><trkpt lat="45.0984572" lon="8.0249112"><ele>443.0</ele><time>2026-04-19T13:16:43.479Z</time></trkpt><trkpt lat="45.0982898" lon="8.0250039"><ele>444.3333333333333</ele><time>2026-04-19T13:16:44.48Z</time></trkpt><trkpt lat="45.0981131" lon="8.0250678"><ele>445.66666666666663</ele><time>2026-04-19T13:16:45.479Z</time></trkpt><trkpt lat="45.0979394" lon="8.0251177"><ele>447.0</ele><time>2026-04-19T13:16:46.479Z</time></trkpt><trkpt lat="45.097782" lon="8.0251518"><ele>447.0</ele><time>2026-04-19T13:16:47.48Z</time></trkpt><trkpt lat="45.0976102" lon="8.0251715"><ele>447.0</ele><time>2026-04-19T13:16:48.479Z</time></trkpt><trkpt lat="45.0974379" lon="8.0251983"><ele>447.0</ele><time>2026-04-19T13:16:49.479Z</time></trkpt><trkpt lat="45.0972617" lon="8.0252253"><ele>446.0</ele><time>2026-04-19T13:16:50.479Z</time></trkpt><trkpt lat="45.0970875" lon="8.0252481"><ele>445.0</ele><time>2026-04-19T13:16:51.479Z</time></trkpt><trkpt lat="45.0969107" lon="8.0252643"><ele>444.0</ele><time>2026-04-19T13:16:52.48Z</time></trkpt><trkpt lat="45.0967632" lon="8.0252784"><ele>444.0</ele><time>2026-04-19T13:16:53.48Z</time></trkpt><trkpt lat="45.0966171" lon="8.0253044"><ele>444.0</ele><time>2026-04-19T13:16:54.479Z</time></trkpt><trkpt lat="45.096481" lon="8.0253554"><ele>444.0</ele><time>2026-04-19T13:16:55.48Z</time></trkpt><trkpt lat="45.0963601" lon="8.0254269"><ele>444.0</ele><time>2026-04-19T13:16:56.48Z</time></trkpt><trkpt lat="45.0962267" lon="8.0255321"><ele>442.0</ele><time>2026-04-19T13:16:57.479Z</time></trkpt><trkpt lat="45.0960879" lon="8.0256077"><ele>440.0</ele><time>2026-04-19T13:16:58.48Z</time></trkpt><trkpt lat="45.0959527" lon="8.0256866"><ele>438.0</ele><time>2026-04-19T13:16:59.479Z</time></trkpt><trkpt lat="45.0958109" lon="8.0257427"><ele>436.0</ele><time>2026-04-19T13:17:00.48Z</time></trkpt><trkpt lat="45.0956232" lon="8.0257521"><ele>435.6666666666667</ele><time>2026-04-19T13:17:01.479Z</time></trkpt><trkpt lat="45.0954569" lon="8.0257838"><ele>435.33333333333337</ele><time>2026-04-19T13:17:02.479Z</time></trkpt><trkpt lat="45.0952883" lon="8.0258234"><ele>435.0</ele><time>2026-04-19T13:17:03.479Z</time></trkpt><trkpt lat="45.0951153" lon="8.0258662"><ele>436.0</ele><time>2026-04-19T13:17:04.48Z</time></trkpt><trkpt lat="45.094944" lon="8.025914"><ele>437.0</ele><time>2026-04-19T13:17:05.48Z</time></trkpt><trkpt lat="45.0947821" lon="8.0260058"><ele>438.0</ele><time>2026-04-19T13:17:06.479Z</time></trkpt><trkpt lat="45.0946177" lon="8.0261247"><ele>438.0</ele><time>2026-04-19T13:17:07.48Z</time></trkpt><trkpt lat="45.0944519" lon="8.0262313"><ele>438.0</ele><time>2026-04-19T13:17:08.48Z</time></trkpt><trkpt lat="45.0942853" lon="8.0263497"><ele>438.0</ele><time>2026-04-19T13:17:09.479Z</time></trkpt><trkpt lat="45.0941224" lon="8.0264702"><ele>439.0</ele><time>2026-04-19T13:17:10.479Z</time></trkpt><trkpt lat="45.0939563" lon="8.0265777"><ele>440.0</ele><time>2026-04-19T13:17:11.479Z</time></trkpt><trkpt lat="45.0937981" lon="8.0266704"><ele>441.0</ele><time>2026-04-19T13:17:12.479Z</time></trkpt><trkpt lat="45.0936491" lon="8.0267554"><ele>441.0</ele><time>2026-04-19T13:17:13.479Z</time></trkpt><trkpt lat="45.0935073" lon="8.0268069"><ele>441.0</ele><time>2026-04-19T13:17:14.479Z</time></trkpt><trkpt lat="45.0933758" lon="8.0268734"><ele>441.0</ele><time>2026-04-19T13:17:15.479Z</time></trkpt><trkpt lat="45.0932836" lon="8.0269305"><ele>441.0</ele><time>2026-04-19T13:17:16.479Z</time></trkpt><trkpt lat="45.0931894" lon="8.0270149"><ele>439.20000000000005</ele><time>2026-04-19T13:17:17.48Z</time></trkpt><trkpt lat="45.0931298" lon="8.0270967"><ele>437.40000000000003</ele><time>2026-04-19T13:17:18.479Z</time></trkpt><trkpt lat="45.0930649" lon="8.02721"><ele>435.6</ele><time>2026-04-19T13:17:19.479Z</time></trkpt><trkpt lat="45.0930089" lon="8.0273207"><ele>433.8</ele><time>2026-04-19T13:17:20.48Z</time></trkpt><trkpt lat="45.0929458" lon="8.0274727"><ele>432.0</ele><time>2026-04-19T13:17:21.479Z</time></trkpt><trkpt lat="45.0929215" lon="8.0276265"><ele>432.0</ele><time>2026-04-19T13:17:22.479Z</time></trkpt><trkpt lat="45.0929002" lon="8.0277711"><ele>432.0</ele><time>2026-04-19T13:17:23.479Z</time></trkpt><trkpt lat="45.0929977" lon="8.0279589"><ele>432.0</ele><time>2026-04-19T13:17:24.48Z</time></trkpt><trkpt lat="45.0931021" lon="8.028137"><ele>432.0</ele><time>2026-04-19T13:17:25.48Z</time></trkpt><trkpt lat="45.0931672" lon="8.0283113"><ele>429.33333333333337</ele><time>2026-04-19T13:17:26.479Z</time></trkpt><trkpt lat="45.0932116" lon="8.0284777"><ele>426.6666666666667</ele><time>2026-04-19T13:17:27.479Z</time></trkpt><trkpt lat="45.0932777" lon="8.0287037"><ele>424.0</ele><time>2026-04-19T13:17:28.479Z</time></trkpt><trkpt lat="45.0933181" lon="8.0289169"><ele>427.5</ele><time>2026-04-19T13:17:29.48Z</time></trkpt><trkpt lat="45.0933629" lon="8.0291341"><ele>431.0</ele><time>2026-04-19T13:17:30.479Z</time></trkpt><trkpt lat="45.0933664" lon="8.0293139"><ele>434.5</ele><time>2026-04-19T13:17:31.48Z</time></trkpt><trkpt lat="45.0933311" lon="8.0294808"><ele>438.0</ele><time>2026-04-19T13:17:32.48Z</time></trkpt><trkpt lat="45.0932765" lon="8.0296223"><ele>431.0</ele><time>2026-04-19T13:17:33.48Z</time></trkpt><trkpt lat="45.0931966" lon="8.0297682"><ele>424.0</ele><time>2026-04-19T13:17:34.479Z</time></trkpt><trkpt lat="45.0930774" lon="8.0299452"><ele>417.0</ele><time>2026-04-19T13:17:35.479Z</time></trkpt><trkpt lat="45.0929976" lon="8.0301311"><ele>417.0</ele><time>2026-04-19T13:17:36.479Z</time></trkpt><trkpt lat="45.0929045" lon="8.0303068"><ele>417.0</ele><time>2026-04-19T13:17:37.48Z</time></trkpt><trkpt lat="45.0928244" lon="8.0304269"><ele>417.0</ele><time>2026-04-19T13:17:38.479Z</time></trkpt><trkpt lat="45.0927493" lon="8.0305449"><ele>417.0</ele><time>2026-04-19T13:17:39.48Z</time></trkpt><trkpt lat="45.0926615" lon="8.0306597"><ele>417.0</ele><time>2026-04-19T13:17:40.48Z</time></trkpt><trkpt lat="45.0925771" lon="8.0307738"><ele>417.0</ele><time>2026-04-19T13:17:41.48Z</time></trkpt><trkpt lat="45.0924933" lon="8.0308616"><ele>417.0</ele><time>2026-04-19T13:17:42.479Z</time></trkpt><trkpt lat="45.0923887" lon="8.0309849"><ele>417.0</ele><time>2026-04-19T13:17:43.479Z</time></trkpt><trkpt lat="45.0922402" lon="8.0310452"><ele>420.0</ele><time>2026-04-19T13:17:44.48Z</time></trkpt><trkpt lat="45.0921285" lon="8.0311301"><ele>423.0</ele><time>2026-04-19T13:17:45.479Z</time></trkpt><trkpt lat="45.0920005" lon="8.0311973"><ele>426.0</ele><time>2026-04-19T13:17:46.479Z</time></trkpt><trkpt lat="45.0918808" lon="8.0312719"><ele>429.0</ele><time>2026-04-19T13:17:47.479Z</time></trkpt><trkpt lat="45.0917678" lon="8.0313377"><ele>429.0</ele><time>2026-04-19T13:17:48.479Z</time></trkpt><trkpt lat="45.0916082" lon="8.0314019"><ele>429.0</ele><time>2026-04-19T13:17:49.479Z</time></trkpt><trkpt lat="45.0914957" lon="8.0314588"><ele>429.0</ele><time>2026-04-19T13:17:50.479Z</time></trkpt><trkpt lat="45.0913788" lon="8.0315252"><ele>429.0</ele><time>2026-04-19T13:17:51.479Z</time></trkpt><trkpt lat="45.0912966" lon="8.0315805"><ele>430.25</ele><time>2026-04-19T13:17:52.479Z</time></trkpt><trkpt lat="45.0912085" lon="8.0316337"><ele>431.5</ele><time>2026-04-19T13:17:53.479Z</time></trkpt><trkpt lat="45.0910978" lon="8.0317131"><ele>432.75</ele><time>2026-04-19T13:17:54.48Z</time></trkpt><trkpt lat="45.0910171" lon="8.0318502"><ele>434.0</ele><time>2026-04-19T13:17:55.48Z</time></trkpt><trkpt lat="45.0909571" lon="8.032004"><ele>434.0</ele><time>2026-04-19T13:17:56.48Z</time></trkpt><trkpt lat="45.0909121" lon="8.0321905"><ele>434.0</ele><time>2026-04-19T13:17:57.479Z</time></trkpt><trkpt lat="45.0908442" lon="8.0323576"><ele>434.0</ele><time>2026-04-19T13:17:58.48Z</time></trkpt><trkpt lat="45.0907948" lon="8.0325221"><ele>434.0</ele><time>2026-04-19T13:17:59.48Z</time></trkpt><trkpt lat="45.0907097" lon="8.0326826"><ele>428.66666666666663</ele><time>2026-04-19T13:18:00.479Z</time></trkpt><trkpt lat="45.0905915" lon="8.0328551"><ele>423.33333333333337</ele><time>2026-04-19T13:18:01.479Z</time></trkpt><trkpt lat="45.0904956" lon="8.033016"><ele>418.0</ele><time>2026-04-19T13:18:02.48Z</time></trkpt><trkpt lat="45.0903907" lon="8.0331621"><ele>418.0</ele><time>2026-04-19T13:18:03.479Z</time></trkpt><trkpt lat="45.0902821" lon="8.0332882"><ele>418.0</ele><time>2026-04-19T13:18:04.479Z</time></trkpt><trkpt lat="45.090191" lon="8.0334028"><ele>418.0</ele><time>2026-04-19T13:18:05.48Z</time></trkpt><trkpt lat="45.0900925" lon="8.0335192"><ele>418.0</ele><time>2026-04-19T13:18:06.48Z</time></trkpt><trkpt lat="45.0899933" lon="8.0336407"><ele>421.25</ele><time>2026-04-19T13:18:07.479Z</time></trkpt><trkpt lat="45.0899084" lon="8.0337659"><ele>424.5</ele><time>2026-04-19T13:18:08.479Z</time></trkpt><trkpt lat="45.0898094" lon="8.0338959"><ele>427.75</ele><time>2026-04-19T13:18:09.479Z</time></trkpt><trkpt lat="45.0897189" lon="8.0340218"><ele>431.0</ele><time>2026-04-19T13:18:10.48Z</time></trkpt><trkpt lat="45.0896201" lon="8.0341363"><ele>435.0</ele><time>2026-04-19T13:18:11.479Z</time></trkpt><trkpt lat="45.0895544" lon="8.0342591"><ele>439.0</ele><time>2026-04-19T13:18:12.48Z</time></trkpt><trkpt lat="45.0894643" lon="8.0343774"><ele>443.0</ele><time>2026-04-19T13:18:13.479Z</time></trkpt><trkpt lat="45.0893887" lon="8.0344706"><ele>447.0</ele><time>2026-04-19T13:18:14.48Z</time></trkpt><trkpt lat="45.0893143" lon="8.034588"><ele>451.0</ele><time>2026-04-19T13:18:15.48Z</time></trkpt><trkpt lat="45.0892391" lon="8.034676"><ele>451.0</ele><time>2026-04-19T13:18:16.48Z</time></trkpt><trkpt lat="45.0891743" lon="8.0347376"><ele>451.0</ele><time>2026-04-19T13:18:17.479Z</time></trkpt><trkpt lat="45.0890868" lon="8.034778"><ele>451.0</ele><time>2026-04-19T13:18:18.48Z</time></trkpt><trkpt lat="45.0889977" lon="8.0348091"><ele>451.0</ele><time>2026-04-19T13:18:19.479Z</time></trkpt><trkpt lat="45.0888975" lon="8.034842"><ele>451.0</ele><time>2026-04-19T13:18:20.48Z</time></trkpt><trkpt lat="45.0887884" lon="8.0348007"><ele>453.33333333333337</ele><time>2026-04-19T13:18:21.479Z</time></trkpt><trkpt lat="45.0886965" lon="8.0347844"><ele>455.6666666666667</ele><time>2026-04-19T13:18:22.479Z</time></trkpt><trkpt lat="45.0886156" lon="8.0347878"><ele>458.0</ele><time>2026-04-19T13:18:23.48Z</time></trkpt><trkpt lat="45.0885517" lon="8.0347781"><ele>460.33333333333337</ele><time>2026-04-19T13:18:24.479Z</time></trkpt><trkpt lat="45.0884837" lon="8.0347922"><ele>462.6666666666667</ele><time>2026-04-19T13:18:25.479Z</time></trkpt><trkpt lat="45.0884186" lon="8.0348832"><ele>465.0</ele><time>2026-04-19T13:18:27.479Z</time></trkpt><trkpt lat="45.0883275" lon="8.0349848"><ele>465.0</ele><time>2026-04-19T13:18:29.479Z</time></trkpt><trkpt lat="45.0882695" lon="8.0351004"><ele>465.0</ele><time>2026-04-19T13:18:30.479Z</time></trkpt><trkpt lat="45.0882294" lon="8.035179"><ele>465.0</ele><time>2026-04-19T13:18:31.48Z</time></trkpt><trkpt lat="45.0882048" lon="8.035322"><ele>465.0</ele><time>2026-04-19T13:18:32.48Z</time></trkpt><trkpt lat="45.0881634" lon="8.0354687"><ele>465.0</ele><time>2026-04-19T13:18:33.479Z</time></trkpt><trkpt lat="45.088107" lon="8.0355949"><ele>461.4</ele><time>2026-04-19T13:18:34.48Z</time></trkpt><trkpt lat="45.0880522" lon="8.0357146"><ele>457.8</ele><time>2026-04-19T13:18:35.48Z</time></trkpt><trkpt lat="45.0879847" lon="8.0358199"><ele>454.20000000000005</ele><time>2026-04-19T13:18:36.479Z</time></trkpt><trkpt lat="45.0879197" lon="8.0359256"><ele>450.6</ele><time>2026-04-19T13:18:37.48Z</time></trkpt><trkpt lat="45.0878501" lon="8.0360425"><ele>447.0</ele><time>2026-04-19T13:18:38.479Z</time></trkpt><trkpt lat="45.087773" lon="8.0361428"><ele>446.0</ele><time>2026-04-19T13:18:39.48Z</time></trkpt><trkpt lat="45.0876978" lon="8.0362534"><ele>445.00000000000006</ele><time>2026-04-19T13:18:40.479Z</time></trkpt><trkpt lat="45.0876322" lon="8.0363566"><ele>444.00000000000006</ele><time>2026-04-19T13:18:41.479Z</time></trkpt><trkpt lat="45.0875532" lon="8.0364223"><ele>443.0</ele><time>2026-04-19T13:18:42.479Z</time></trkpt><trkpt lat="45.0875016" lon="8.0365194"><ele>442.0</ele><time>2026-04-19T13:18:43.479Z</time></trkpt><trkpt lat="45.0874439" lon="8.0366076"><ele>437.8</ele><time>2026-04-19T13:18:44.479Z</time></trkpt><trkpt lat="45.0873938" lon="8.0366917"><ele>433.6</ele><time>2026-04-19T13:18:45.48Z</time></trkpt><trkpt lat="45.0873349" lon="8.0368156"><ele>429.40000000000003</ele><time>2026-04-19T13:18:47.48Z</time></trkpt><trkpt lat="45.0873062" lon="8.0369041"><ele>425.20000000000005</ele><time>2026-04-19T13:18:49.479Z</time></trkpt><trkpt lat="45.0872858" lon="8.0368107"><ele>421.0</ele><time>2026-04-19T13:18:53.479Z</time></trkpt><trkpt lat="45.0873631" lon="8.0366533"><ele>419.4</ele><time>2026-04-19T13:18:56.479Z</time></trkpt><trkpt lat="45.087431" lon="8.0365156"><ele>417.8</ele><time>2026-04-19T13:18:58.479Z</time></trkpt><trkpt lat="45.0874742" lon="8.0364053"><ele>416.2</ele><time>2026-04-19T13:19:00.479Z</time></trkpt><trkpt lat="45.0874" lon="8.0363744"><ele>414.59999999999997</ele><time>2026-04-19T13:19:06.479Z</time></trkpt><trkpt lat="45.0873116" lon="8.0364795"><ele>413.0</ele><time>2026-04-19T13:19:07.479Z</time></trkpt><trkpt lat="45.0872543" lon="8.0365452"><ele>413.0</ele><time>2026-04-19T13:19:08.479Z</time></trkpt><trkpt lat="45.0871981" lon="8.036622"><ele>413.0</ele><time>2026-04-19T13:19:09.479Z</time></trkpt><trkpt lat="45.0871392" lon="8.0367163"><ele>413.0</ele><time>2026-04-19T13:19:10.479Z</time></trkpt><trkpt lat="45.087069" lon="8.0368396"><ele>413.0</ele><time>2026-04-19T13:19:11.479Z</time></trkpt><trkpt lat="45.0869968" lon="8.0369754"><ele>413.0</ele><time>2026-04-19T13:19:12.479Z</time></trkpt><trkpt lat="45.0869557" lon="8.0370771"><ele>414.59999999999997</ele><time>2026-04-19T13:19:13.48Z</time></trkpt><trkpt lat="45.0869126" lon="8.0372097"><ele>416.2</ele><time>2026-04-19T13:19:14.48Z</time></trkpt><trkpt lat="45.0869051" lon="8.0373309"><ele>417.8</ele><time>2026-04-19T13:19:15.479Z</time></trkpt><trkpt lat="45.0869388" lon="8.037503"><ele>419.4</ele><time>2026-04-19T13:19:16.48Z</time></trkpt><trkpt lat="45.0869944" lon="8.0376478"><ele>421.0</ele><time>2026-04-19T13:19:17.479Z</time></trkpt><trkpt lat="45.0870347" lon="8.0377809"><ele>421.4</ele><time>2026-04-19T13:19:18.479Z</time></trkpt><trkpt lat="45.0870663" lon="8.0379307"><ele>421.8</ele><time>2026-04-19T13:19:19.479Z</time></trkpt><trkpt lat="45.0870747" lon="8.0380871"><ele>422.2</ele><time>2026-04-19T13:19:20.479Z</time></trkpt><trkpt lat="45.0870663" lon="8.038238"><ele>422.59999999999997</ele><time>2026-04-19T13:19:21.479Z</time></trkpt><trkpt lat="45.0870525" lon="8.0383778"><ele>423.0</ele><time>2026-04-19T13:19:22.48Z</time></trkpt><trkpt lat="45.087032" lon="8.0385072"><ele>423.0</ele><time>2026-04-19T13:19:23.479Z</time></trkpt><trkpt lat="45.0869953" lon="8.038613"><ele>423.0</ele><time>2026-04-19T13:19:24.479Z</time></trkpt><trkpt lat="45.086977" lon="8.0387136"><ele>423.0</ele><time>2026-04-19T13:19:25.479Z</time></trkpt><trkpt lat="45.0868694" lon="8.0388314"><ele>423.0</ele><time>2026-04-19T13:19:26.479Z</time></trkpt><trkpt lat="45.0868009" lon="8.0389363"><ele>423.0</ele><time>2026-04-19T13:19:27.479Z</time></trkpt><trkpt lat="45.0867247" lon="8.0390373"><ele>423.6666666666667</ele><time>2026-04-19T13:19:28.479Z</time></trkpt><trkpt lat="45.0866708" lon="8.0391433"><ele>424.33333333333337</ele><time>2026-04-19T13:19:29.479Z</time></trkpt><trkpt lat="45.0866056" lon="8.0392336"><ele>425.0</ele><time>2026-04-19T13:19:30.48Z</time></trkpt><trkpt lat="45.0865555" lon="8.0393216"><ele>425.6666666666667</ele><time>2026-04-19T13:19:31.48Z</time></trkpt><trkpt lat="45.086494" lon="8.0393726"><ele>426.33333333333337</ele><time>2026-04-19T13:19:32.479Z</time></trkpt><trkpt lat="45.0864224" lon="8.0394283"><ele>427.0</ele><time>2026-04-19T13:19:33.48Z</time></trkpt><trkpt lat="45.0863412" lon="8.0394952"><ele>427.00000000000006</ele><time>2026-04-19T13:19:34.479Z</time></trkpt><trkpt lat="45.0862582" lon="8.0395101"><ele>427.0</ele><time>2026-04-19T13:19:35.479Z</time></trkpt><trkpt lat="45.086148" lon="8.0395448"><ele>427.0</ele><time>2026-04-19T13:19:37.48Z</time></trkpt><trkpt lat="45.0860661" lon="8.0396114"><ele>427.0</ele><time>2026-04-19T13:19:39.479Z</time></trkpt><trkpt lat="45.086063" lon="8.0397251"><ele>427.00000000000006</ele><time>2026-04-19T13:19:40.479Z</time></trkpt><trkpt lat="45.0860799" lon="8.0398316"><ele>427.0</ele><time>2026-04-19T13:19:41.479Z</time></trkpt><trkpt lat="45.0860646" lon="8.0399347"><ele>428.33333333333337</ele><time>2026-04-19T13:19:43.48Z</time></trkpt><trkpt lat="45.0860141" lon="8.0400098"><ele>429.6666666666667</ele><time>2026-04-19T13:19:56.48Z</time></trkpt><trkpt lat="45.0860094" lon="8.0401416"><ele>431.0</ele><time>2026-04-19T13:20:00.479Z</time></trkpt><trkpt lat="45.086052" lon="8.0402748"><ele>432.33333333333337</ele><time>2026-04-19T13:20:03.479Z</time></trkpt><trkpt lat="45.086064" lon="8.0403819"><ele>433.6666666666667</ele><time>2026-04-19T13:20:05.479Z</time></trkpt><trkpt lat="45.0860471" lon="8.0404965"><ele>435.0</ele><time>2026-04-19T13:20:07.479Z</time></trkpt><trkpt lat="45.0859775" lon="8.0405038"><ele>435.0</ele><time>2026-04-19T13:20:08.48Z</time></trkpt><trkpt lat="45.0858768" lon="8.0404833"><ele>435.0</ele><time>2026-04-19T13:20:10.48Z</time></trkpt><trkpt lat="45.085761" lon="8.0404136"><ele>435.0</ele><time>2026-04-19T13:20:12.479Z</time></trkpt><trkpt lat="45.0856732" lon="8.0403459"><ele>435.0</ele><time>2026-04-19T13:20:14.479Z</time></trkpt><trkpt lat="45.0855889" lon="8.040217"><ele>433.6</ele><time>2026-04-19T13:20:16.479Z</time></trkpt><trkpt lat="45.0855146" lon="8.0401492"><ele>432.2</ele><time>2026-04-19T13:20:18.479Z</time></trkpt><trkpt lat="45.0854564" lon="8.040073"><ele>430.79999999999995</ele><time>2026-04-19T13:20:20.48Z</time></trkpt><trkpt lat="45.0854124" lon="8.0399776"><ele>429.4</ele><time>2026-04-19T13:20:22.479Z</time></trkpt><trkpt lat="45.0853206" lon="8.039953"><ele>428.0</ele><time>2026-04-19T13:20:25.479Z</time></trkpt><trkpt lat="45.0852128" lon="8.0400176"><ele>427.99999999999994</ele><time>2026-04-19T13:20:27.479Z</time></trkpt><trkpt lat="45.0851612" lon="8.0400733"><ele>428.0</ele><time>2026-04-19T13:20:28.479Z</time></trkpt><trkpt lat="45.0851067" lon="8.0401376"><ele>428.0</ele><time>2026-04-19T13:20:29.48Z</time></trkpt><trkpt lat="45.0850542" lon="8.040197"><ele>428.0</ele><time>2026-04-19T13:20:30.479Z</time></trkpt><trkpt lat="45.0850031" lon="8.0402631"><ele>427.99999999999994</ele><time>2026-04-19T13:20:31.479Z</time></trkpt><trkpt lat="45.0849149" lon="8.0403132"><ele>428.0</ele><time>2026-04-19T13:20:32.48Z</time></trkpt><trkpt lat="45.0848339" lon="8.0403578"><ele>426.66666666666663</ele><time>2026-04-19T13:20:33.479Z</time></trkpt><trkpt lat="45.0847471" lon="8.0404039"><ele>425.3333333333333</ele><time>2026-04-19T13:20:34.479Z</time></trkpt><trkpt lat="45.0846569" lon="8.0404453"><ele>424.0</ele><time>2026-04-19T13:20:35.479Z</time></trkpt><trkpt lat="45.0845656" lon="8.0404662"><ele>422.66666666666663</ele><time>2026-04-19T13:20:36.48Z</time></trkpt><trkpt lat="45.0844907" lon="8.0404884"><ele>421.3333333333333</ele><time>2026-04-19T13:20:37.48Z</time></trkpt><trkpt lat="45.0844012" lon="8.0405091"><ele>420.0</ele><time>2026-04-19T13:20:38.479Z</time></trkpt><trkpt lat="45.0843211" lon="8.0405061"><ele>420.0</ele><time>2026-04-19T13:20:39.479Z</time></trkpt><trkpt lat="45.0842131" lon="8.0404935"><ele>420.0</ele><time>2026-04-19T13:20:40.479Z</time></trkpt><trkpt lat="45.0840981" lon="8.0405194"><ele>420.0</ele><time>2026-04-19T13:20:41.479Z</time></trkpt><trkpt lat="45.084021" lon="8.0404942"><ele>420.0</ele><time>2026-04-19T13:20:42.48Z</time></trkpt><trkpt lat="45.0839445" lon="8.0405267"><ele>420.0</ele><time>2026-04-19T13:20:43.479Z</time></trkpt><trkpt lat="45.083842" lon="8.0406146"><ele>417.1666666666667</ele><time>2026-04-19T13:20:45.479Z</time></trkpt><trkpt lat="45.0837636" lon="8.0406471"><ele>414.33333333333337</ele><time>2026-04-19T13:20:46.479Z</time></trkpt><trkpt lat="45.0836921" lon="8.0406915"><ele>411.5</ele><time>2026-04-19T13:20:47.48Z</time></trkpt><trkpt lat="45.0836301" lon="8.0407367"><ele>408.6666666666667</ele><time>2026-04-19T13:20:48.479Z</time></trkpt><trkpt lat="45.0835434" lon="8.0407887"><ele>405.83333333333337</ele><time>2026-04-19T13:20:49.48Z</time></trkpt><trkpt lat="45.0834481" lon="8.0408302"><ele>403.0</ele><time>2026-04-19T13:20:50.479Z</time></trkpt><trkpt lat="45.0833497" lon="8.0408868"><ele>396.2</ele><time>2026-04-19T13:20:51.479Z</time></trkpt><trkpt lat="45.0832584" lon="8.0409408"><ele>389.4</ele><time>2026-04-19T13:20:52.479Z</time></trkpt><trkpt lat="45.0831718" lon="8.0409837"><ele>382.59999999999997</ele><time>2026-04-19T13:20:53.479Z</time></trkpt><trkpt lat="45.08308" lon="8.041066"><ele>375.79999999999995</ele><time>2026-04-19T13:20:54.48Z</time></trkpt><trkpt lat="45.0829791" lon="8.0411441"><ele>369.0</ele><time>2026-04-19T13:20:55.48Z</time></trkpt><trkpt lat="45.0828736" lon="8.0412259"><ele>369.0</ele><time>2026-04-19T13:20:56.479Z</time></trkpt><trkpt lat="45.0827755" lon="8.0413179"><ele>369.0</ele><time>2026-04-19T13:20:57.479Z</time></trkpt><trkpt lat="45.0826736" lon="8.0414301"><ele>369.0</ele><time>2026-04-19T13:20:58.479Z</time></trkpt><trkpt lat="45.0825553" lon="8.0415308"><ele>369.0</ele><time>2026-04-19T13:20:59.479Z</time></trkpt><trkpt lat="45.082437" lon="8.0416224"><ele>367.75</ele><time>2026-04-19T13:21:00.479Z</time></trkpt><trkpt lat="45.0823207" lon="8.0417199"><ele>366.5</ele><time>2026-04-19T13:21:01.479Z</time></trkpt><trkpt lat="45.0821985" lon="8.0418155"><ele>365.25</ele><time>2026-04-19T13:21:02.479Z</time></trkpt><trkpt lat="45.0820861" lon="8.0419134"><ele>364.0</ele><time>2026-04-19T13:21:03.479Z</time></trkpt><trkpt lat="45.0819679" lon="8.0420061"><ele>364.0</ele><time>2026-04-19T13:21:04.479Z</time></trkpt><trkpt lat="45.0818418" lon="8.0420773"><ele>364.0</ele><time>2026-04-19T13:21:05.479Z</time></trkpt><trkpt lat="45.081711" lon="8.0421301"><ele>364.0</ele><time>2026-04-19T13:21:06.479Z</time></trkpt><trkpt lat="45.0815602" lon="8.0421589"><ele>364.0</ele><time>2026-04-19T13:21:07.48Z</time></trkpt><trkpt lat="45.0814238" lon="8.0422008"><ele>361.5</ele><time>2026-04-19T13:21:08.479Z</time></trkpt><trkpt lat="45.0812816" lon="8.0422597"><ele>359.0</ele><time>2026-04-19T13:21:09.479Z</time></trkpt><trkpt lat="45.0811479" lon="8.0423347"><ele>356.5</ele><time>2026-04-19T13:21:10.48Z</time></trkpt><trkpt lat="45.0810408" lon="8.0424104"><ele>354.0</ele><time>2026-04-19T13:21:11.479Z</time></trkpt><trkpt lat="45.0809271" lon="8.0424976"><ele>354.0</ele><time>2026-04-19T13:21:12.479Z</time></trkpt><trkpt lat="45.0808164" lon="8.0426195"><ele>354.0</ele><time>2026-04-19T13:21:13.48Z</time></trkpt><trkpt lat="45.0807037" lon="8.0427581"><ele>354.0</ele><time>2026-04-19T13:21:14.479Z</time></trkpt><trkpt lat="45.0806108" lon="8.0428917"><ele>354.0</ele><time>2026-04-19T13:21:15.479Z</time></trkpt><trkpt lat="45.0804959" lon="8.0430411"><ele>350.75</ele><time>2026-04-19T13:21:16.48Z</time></trkpt><trkpt lat="45.0803826" lon="8.04319"><ele>347.5</ele><time>2026-04-19T13:21:17.48Z</time></trkpt><trkpt lat="45.0802723" lon="8.0433384"><ele>344.25</ele><time>2026-04-19T13:21:18.479Z</time></trkpt><trkpt lat="45.0801581" lon="8.0434562"><ele>341.0</ele><time>2026-04-19T13:21:19.48Z</time></trkpt><trkpt lat="45.080028" lon="8.0435562"><ele>337.6666666666667</ele><time>2026-04-19T13:21:20.479Z</time></trkpt><trkpt lat="45.0798797" lon="8.0435935"><ele>334.3333333333333</ele><time>2026-04-19T13:21:21.48Z</time></trkpt><trkpt lat="45.0797214" lon="8.0436489"><ele>331.0</ele><time>2026-04-19T13:21:22.479Z</time></trkpt><trkpt lat="45.0795595" lon="8.0437103"><ele>331.0</ele><time>2026-04-19T13:21:23.48Z</time></trkpt><trkpt lat="45.0794014" lon="8.0437912"><ele>331.0</ele><time>2026-04-19T13:21:24.479Z</time></trkpt><trkpt lat="45.0792437" lon="8.0438629"><ele>331.0</ele><time>2026-04-19T13:21:25.479Z</time></trkpt><trkpt lat="45.0790764" lon="8.0439287"><ele>329.3333333333333</ele><time>2026-04-19T13:21:26.479Z</time></trkpt><trkpt lat="45.0789079" lon="8.0439876"><ele>327.6666666666667</ele><time>2026-04-19T13:21:27.479Z</time></trkpt><trkpt lat="45.078724" lon="8.044051"><ele>326.0</ele><time>2026-04-19T13:21:28.48Z</time></trkpt><trkpt lat="45.0785484" lon="8.0441243"><ele>327.5</ele><time>2026-04-19T13:21:29.479Z</time></trkpt><trkpt lat="45.0783984" lon="8.0441798"><ele>329.0</ele><time>2026-04-19T13:21:30.48Z</time></trkpt><trkpt lat="45.0782812" lon="8.0442025"><ele>330.5</ele><time>2026-04-19T13:21:31.48Z</time></trkpt><trkpt lat="45.078142" lon="8.0442121"><ele>332.0</ele><time>2026-04-19T13:21:32.479Z</time></trkpt><trkpt lat="45.0779923" lon="8.0442087"><ele>332.0</ele><time>2026-04-19T13:21:33.479Z</time></trkpt><trkpt lat="45.0778236" lon="8.04419"><ele>332.0</ele><time>2026-04-19T13:21:34.48Z</time></trkpt><trkpt lat="45.0776502" lon="8.044167"><ele>332.0</ele><time>2026-04-19T13:21:35.479Z</time></trkpt><trkpt lat="45.0774709" lon="8.0441367"><ele>327.33333333333337</ele><time>2026-04-19T13:21:36.48Z</time></trkpt><trkpt lat="45.0772926" lon="8.0441054"><ele>322.6666666666667</ele><time>2026-04-19T13:21:37.48Z</time></trkpt><trkpt lat="45.0771117" lon="8.044067"><ele>318.0</ele><time>2026-04-19T13:21:38.479Z</time></trkpt><trkpt lat="45.0769258" lon="8.0440173"><ele>318.0</ele><time>2026-04-19T13:21:39.479Z</time></trkpt><trkpt lat="45.0767458" lon="8.0439783"><ele>318.0</ele><time>2026-04-19T13:21:40.479Z</time></trkpt><trkpt lat="45.0765614" lon="8.0439445"><ele>318.0</ele><time>2026-04-19T13:21:41.48Z</time></trkpt><trkpt lat="45.0763855" lon="8.043923"><ele>317.6666666666667</ele><time>2026-04-19T13:21:42.479Z</time></trkpt><trkpt lat="45.0762035" lon="8.0439004"><ele>317.33333333333337</ele><time>2026-04-19T13:21:43.48Z</time></trkpt><trkpt lat="45.0760212" lon="8.0438879"><ele>317.0</ele><time>2026-04-19T13:21:44.48Z</time></trkpt><trkpt lat="45.0758363" lon="8.0438739"><ele>319.0</ele><time>2026-04-19T13:21:45.48Z</time></trkpt><trkpt lat="45.0756547" lon="8.0438542"><ele>321.0</ele><time>2026-04-19T13:21:46.479Z</time></trkpt><trkpt lat="45.0754699" lon="8.0438207"><ele>323.0</ele><time>2026-04-19T13:21:47.48Z</time></trkpt><trkpt lat="45.07529" lon="8.043791"><ele>323.0</ele><time>2026-04-19T13:21:48.479Z</time></trkpt><trkpt lat="45.0751133" lon="8.0437552"><ele>323.0</ele><time>2026-04-19T13:21:49.479Z</time></trkpt><trkpt lat="45.0749405" lon="8.0437239"><ele>323.0</ele><time>2026-04-19T13:21:50.479Z</time></trkpt><trkpt lat="45.0747752" lon="8.0436931"><ele>323.0</ele><time>2026-04-19T13:21:51.479Z</time></trkpt><trkpt lat="45.0746138" lon="8.0436671"><ele>323.0</ele><time>2026-04-19T13:21:52.479Z</time></trkpt><trkpt lat="45.0744317" lon="8.0436649"><ele>323.0</ele><time>2026-04-19T13:21:53.48Z</time></trkpt><trkpt lat="45.0742395" lon="8.0436609"><ele>323.0</ele><time>2026-04-19T13:21:54.48Z</time></trkpt><trkpt lat="45.0740425" lon="8.0436508"><ele>323.0</ele><time>2026-04-19T13:21:55.48Z</time></trkpt><trkpt lat="45.0738394" lon="8.0436358"><ele>323.0</ele><time>2026-04-19T13:21:56.48Z</time></trkpt><trkpt lat="45.0736359" lon="8.0436149"><ele>323.0</ele><time>2026-04-19T13:21:57.479Z</time></trkpt><trkpt lat="45.0734409" lon="8.0435982"><ele>323.0</ele><time>2026-04-19T13:21:58.479Z</time></trkpt><trkpt lat="45.0732478" lon="8.0436214"><ele>323.0</ele><time>2026-04-19T13:21:59.48Z</time></trkpt><trkpt lat="45.0730572" lon="8.0436579"><ele>326.0</ele><time>2026-04-19T13:22:00.479Z</time></trkpt><trkpt lat="45.0728956" lon="8.0437266"><ele>329.0</ele><time>2026-04-19T13:22:01.48Z</time></trkpt><trkpt lat="45.0727197" lon="8.0438156"><ele>332.0</ele><time>2026-04-19T13:22:02.479Z</time></trkpt><trkpt lat="45.0725463" lon="8.0439216"><ele>338.0</ele><time>2026-04-19T13:22:03.479Z</time></trkpt><trkpt lat="45.0724228" lon="8.0440844"><ele>344.0</ele><time>2026-04-19T13:22:04.479Z</time></trkpt><trkpt lat="45.0723176" lon="8.0442514"><ele>350.0</ele><time>2026-04-19T13:22:05.479Z</time></trkpt><trkpt lat="45.0722128" lon="8.0444121"><ele>350.0</ele><time>2026-04-19T13:22:06.479Z</time></trkpt><trkpt lat="45.0721113" lon="8.0445387"><ele>350.0</ele><time>2026-04-19T13:22:07.479Z</time></trkpt><trkpt lat="45.0720321" lon="8.0446826"><ele>350.0</ele><time>2026-04-19T13:22:08.479Z</time></trkpt><trkpt lat="45.071922" lon="8.0446462"><ele>350.0</ele><time>2026-04-19T13:22:09.479Z</time></trkpt><trkpt lat="45.0718154" lon="8.0447106"><ele>350.0</ele><time>2026-04-19T13:22:10.479Z</time></trkpt><trkpt lat="45.0715943" lon="8.0447199"><ele>350.0</ele><time>2026-04-19T13:22:11.479Z</time></trkpt><trkpt lat="45.0714396" lon="8.0447406"><ele>350.0</ele><time>2026-04-19T13:22:12.479Z</time></trkpt><trkpt lat="45.0712793" lon="8.0447537"><ele>350.0</ele><time>2026-04-19T13:22:13.479Z</time></trkpt><trkpt lat="45.0711198" lon="8.0447437"><ele>350.0</ele><time>2026-04-19T13:22:14.479Z</time></trkpt><trkpt lat="45.0709736" lon="8.044725"><ele>350.0</ele><time>2026-04-19T13:22:15.479Z</time></trkpt><trkpt lat="45.0708268" lon="8.0447001"><ele>348.5</ele><time>2026-04-19T13:22:16.48Z</time></trkpt><trkpt lat="45.0706901" lon="8.0446643"><ele>347.0</ele><time>2026-04-19T13:22:17.479Z</time></trkpt><trkpt lat="45.0705824" lon="8.0445759"><ele>345.5</ele><time>2026-04-19T13:22:18.479Z</time></trkpt><trkpt lat="45.070465" lon="8.0444859"><ele>344.0</ele><time>2026-04-19T13:22:19.479Z</time></trkpt><trkpt lat="45.0703432" lon="8.0444023"><ele>344.0</ele><time>2026-04-19T13:22:20.479Z</time></trkpt><trkpt lat="45.0702121" lon="8.0443331"><ele>344.0</ele><time>2026-04-19T13:22:21.48Z</time></trkpt><trkpt lat="45.0700811" lon="8.0442741"><ele>344.0</ele><time>2026-04-19T13:22:22.479Z</time></trkpt><trkpt lat="45.0699318" lon="8.0442578"><ele>344.0</ele><time>2026-04-19T13:22:23.479Z</time></trkpt><trkpt lat="45.0697882" lon="8.0442579"><ele>341.75</ele><time>2026-04-19T13:22:24.479Z</time></trkpt><trkpt lat="45.0696511" lon="8.0442615"><ele>339.5</ele><time>2026-04-19T13:22:25.48Z</time></trkpt><trkpt lat="45.0695202" lon="8.0442577"><ele>337.25</ele><time>2026-04-19T13:22:26.479Z</time></trkpt><trkpt lat="45.0693563" lon="8.0441904"><ele>335.0</ele><time>2026-04-19T13:22:27.479Z</time></trkpt><trkpt lat="45.0692031" lon="8.0441227"><ele>331.0</ele><time>2026-04-19T13:22:28.479Z</time></trkpt><trkpt lat="45.0690295" lon="8.0440264"><ele>327.0</ele><time>2026-04-19T13:22:29.48Z</time></trkpt><trkpt lat="45.068857" lon="8.0439312"><ele>323.0</ele><time>2026-04-19T13:22:30.479Z</time></trkpt><trkpt lat="45.0686826" lon="8.0438336"><ele>323.0</ele><time>2026-04-19T13:22:31.479Z</time></trkpt><trkpt lat="45.0685068" lon="8.0437177"><ele>323.0</ele><time>2026-04-19T13:22:32.48Z</time></trkpt><trkpt lat="45.068336" lon="8.0436052"><ele>323.0</ele><time>2026-04-19T13:22:33.479Z</time></trkpt><trkpt lat="45.0681668" lon="8.043493"><ele>322.0</ele><time>2026-04-19T13:22:34.48Z</time></trkpt><trkpt lat="45.0680035" lon="8.0433966"><ele>321.0</ele><time>2026-04-19T13:22:35.48Z</time></trkpt><trkpt lat="45.0678286" lon="8.0433143"><ele>320.0</ele><time>2026-04-19T13:22:36.479Z</time></trkpt><trkpt lat="45.0676548" lon="8.0432264"><ele>320.0</ele><time>2026-04-19T13:22:37.479Z</time></trkpt><trkpt lat="45.0674801" lon="8.0431573"><ele>320.0</ele><time>2026-04-19T13:22:38.479Z</time></trkpt><trkpt lat="45.0673041" lon="8.0430985"><ele>320.0</ele><time>2026-04-19T13:22:39.48Z</time></trkpt><trkpt lat="45.0671408" lon="8.0430499"><ele>320.5</ele><time>2026-04-19T13:22:40.479Z</time></trkpt><trkpt lat="45.0669923" lon="8.0430447"><ele>321.0</ele><time>2026-04-19T13:22:41.48Z</time></trkpt><trkpt lat="45.0668445" lon="8.0430148"><ele>321.5</ele><time>2026-04-19T13:22:42.479Z</time></trkpt><trkpt lat="45.0667046" lon="8.0430368"><ele>322.0</ele><time>2026-04-19T13:22:43.479Z</time></trkpt><trkpt lat="45.0665626" lon="8.0430603"><ele>319.66666666666663</ele><time>2026-04-19T13:22:44.479Z</time></trkpt><trkpt lat="45.0664207" lon="8.043109"><ele>317.3333333333333</ele><time>2026-04-19T13:22:45.479Z</time></trkpt><trkpt lat="45.0662757" lon="8.0431673"><ele>315.0</ele><time>2026-04-19T13:22:46.479Z</time></trkpt><trkpt lat="45.066125" lon="8.0432645"><ele>315.6666666666667</ele><time>2026-04-19T13:22:47.479Z</time></trkpt><trkpt lat="45.0659783" lon="8.0434009"><ele>316.33333333333337</ele><time>2026-04-19T13:22:48.479Z</time></trkpt><trkpt lat="45.0658288" lon="8.043519"><ele>317.0</ele><time>2026-04-19T13:22:49.48Z</time></trkpt><trkpt lat="45.0656809" lon="8.0436251"><ele>312.33333333333337</ele><time>2026-04-19T13:22:50.48Z</time></trkpt><trkpt lat="45.0655163" lon="8.0437206"><ele>307.6666666666667</ele><time>2026-04-19T13:22:51.48Z</time></trkpt><trkpt lat="45.0653374" lon="8.0437817"><ele>303.0</ele><time>2026-04-19T13:22:52.48Z</time></trkpt><trkpt lat="45.0651547" lon="8.0438488"><ele>303.0</ele><time>2026-04-19T13:22:53.479Z</time></trkpt><trkpt lat="45.0649631" lon="8.0439078"><ele>303.0</ele><time>2026-04-19T13:22:54.479Z</time></trkpt><trkpt lat="45.0647744" lon="8.0439689"><ele>303.0</ele><time>2026-04-19T13:22:55.48Z</time></trkpt><trkpt lat="45.0645786" lon="8.0440311"><ele>302.3333333333333</ele><time>2026-04-19T13:22:56.479Z</time></trkpt><trkpt lat="45.0643926" lon="8.0440697"><ele>301.66666666666663</ele><time>2026-04-19T13:22:57.48Z</time></trkpt><trkpt lat="45.0642047" lon="8.044108"><ele>301.0</ele><time>2026-04-19T13:22:58.479Z</time></trkpt><trkpt lat="45.0640168" lon="8.04413"><ele>301.0</ele><time>2026-04-19T13:22:59.48Z</time></trkpt><trkpt lat="45.063838" lon="8.0441532"><ele>301.0</ele><time>2026-04-19T13:23:00.48Z</time></trkpt><trkpt lat="45.0636724" lon="8.044178"><ele>301.0</ele><time>2026-04-19T13:23:01.479Z</time></trkpt><trkpt lat="45.0635231" lon="8.0442151"><ele>301.0</ele><time>2026-04-19T13:23:02.48Z</time></trkpt><trkpt lat="45.0633769" lon="8.0442807"><ele>301.0</ele><time>2026-04-19T13:23:03.479Z</time></trkpt><trkpt lat="45.0632306" lon="8.0443739"><ele>301.0</ele><time>2026-04-19T13:23:04.48Z</time></trkpt><trkpt lat="45.0630815" lon="8.0444636"><ele>301.0</ele><time>2026-04-19T13:23:05.479Z</time></trkpt><trkpt lat="45.0629178" lon="8.0445289"><ele>301.0</ele><time>2026-04-19T13:23:06.48Z</time></trkpt><trkpt lat="45.0627477" lon="8.0445707"><ele>301.0</ele><time>2026-04-19T13:23:07.48Z</time></trkpt><trkpt lat="45.0625726" lon="8.0445789"><ele>299.3333333333333</ele><time>2026-04-19T13:23:08.479Z</time></trkpt><trkpt lat="45.0623932" lon="8.0445722"><ele>297.6666666666667</ele><time>2026-04-19T13:23:09.479Z</time></trkpt><trkpt lat="45.0621972" lon="8.0445774"><ele>296.0</ele><time>2026-04-19T13:23:10.48Z</time></trkpt><trkpt lat="45.0620094" lon="8.0445688"><ele>296.0</ele><time>2026-04-19T13:23:11.48Z</time></trkpt><trkpt lat="45.0618264" lon="8.0445665"><ele>296.0</ele><time>2026-04-19T13:23:12.479Z</time></trkpt><trkpt lat="45.0616384" lon="8.0445737"><ele>296.0</ele><time>2026-04-19T13:23:13.48Z</time></trkpt><trkpt lat="45.06144" lon="8.044585"><ele>294.0</ele><time>2026-04-19T13:23:14.479Z</time></trkpt><trkpt lat="45.0612382" lon="8.0445872"><ele>292.0</ele><time>2026-04-19T13:23:15.479Z</time></trkpt><trkpt lat="45.0610535" lon="8.0445919"><ele>290.0</ele><time>2026-04-19T13:23:16.479Z</time></trkpt><trkpt lat="45.0608682" lon="8.044614"><ele>292.0</ele><time>2026-04-19T13:23:17.479Z</time></trkpt><trkpt lat="45.0606748" lon="8.0446433"><ele>294.0</ele><time>2026-04-19T13:23:18.479Z</time></trkpt><trkpt lat="45.0604862" lon="8.0446791"><ele>296.0</ele><time>2026-04-19T13:23:19.479Z</time></trkpt><trkpt lat="45.0603017" lon="8.0447158"><ele>296.0</ele><time>2026-04-19T13:23:20.479Z</time></trkpt><trkpt lat="45.0601175" lon="8.0447516"><ele>296.0</ele><time>2026-04-19T13:23:21.48Z</time></trkpt><trkpt lat="45.0599456" lon="8.0448209"><ele>296.0</ele><time>2026-04-19T13:23:22.479Z</time></trkpt><trkpt lat="45.0597663" lon="8.0449192"><ele>297.0</ele><time>2026-04-19T13:23:23.479Z</time></trkpt><trkpt lat="45.05958" lon="8.045012"><ele>298.0</ele><time>2026-04-19T13:23:24.48Z</time></trkpt><trkpt lat="45.0594302" lon="8.0450984"><ele>299.0</ele><time>2026-04-19T13:23:25.479Z</time></trkpt><trkpt lat="45.0592655" lon="8.0451767"><ele>297.33333333333337</ele><time>2026-04-19T13:23:26.479Z</time></trkpt><trkpt lat="45.0591069" lon="8.0452582"><ele>295.6666666666667</ele><time>2026-04-19T13:23:27.479Z</time></trkpt><trkpt lat="45.0589379" lon="8.0453532"><ele>294.0</ele><time>2026-04-19T13:23:28.48Z</time></trkpt><trkpt lat="45.0587583" lon="8.0454532"><ele>294.0</ele><time>2026-04-19T13:23:29.479Z</time></trkpt><trkpt lat="45.0585853" lon="8.0455493"><ele>294.0</ele><time>2026-04-19T13:23:30.479Z</time></trkpt><trkpt lat="45.0583944" lon="8.0456645"><ele>294.0</ele><time>2026-04-19T13:23:31.479Z</time></trkpt><trkpt lat="45.058269" lon="8.045801"><ele>301.0</ele><time>2026-04-19T13:23:32.48Z</time></trkpt><trkpt lat="45.0581122" lon="8.0459327"><ele>308.0</ele><time>2026-04-19T13:23:33.479Z</time></trkpt><trkpt lat="45.0580131" lon="8.0461015"><ele>315.0</ele><time>2026-04-19T13:23:34.479Z</time></trkpt><trkpt lat="45.0578844" lon="8.0462759"><ele>315.0</ele><time>2026-04-19T13:23:35.479Z</time></trkpt><trkpt lat="45.0577573" lon="8.0464539"><ele>315.0</ele><time>2026-04-19T13:23:36.48Z</time></trkpt><trkpt lat="45.0576366" lon="8.0465999"><ele>315.0</ele><time>2026-04-19T13:23:37.48Z</time></trkpt><trkpt lat="45.0575132" lon="8.0467523"><ele>315.6666666666667</ele><time>2026-04-19T13:23:38.479Z</time></trkpt><trkpt lat="45.0573873" lon="8.04689"><ele>316.33333333333337</ele><time>2026-04-19T13:23:39.479Z</time></trkpt><trkpt lat="45.0572478" lon="8.0470023"><ele>317.0</ele><time>2026-04-19T13:23:40.48Z</time></trkpt><trkpt lat="45.0570897" lon="8.0470636"><ele>317.0</ele><time>2026-04-19T13:23:41.479Z</time></trkpt><trkpt lat="45.0569312" lon="8.0471219"><ele>317.0</ele><time>2026-04-19T13:23:42.479Z</time></trkpt><trkpt lat="45.0567803" lon="8.0471428"><ele>317.0</ele><time>2026-04-19T13:23:43.479Z</time></trkpt><trkpt lat="45.0566313" lon="8.0471711"><ele>314.0</ele><time>2026-04-19T13:23:44.48Z</time></trkpt><trkpt lat="45.05649" lon="8.047197"><ele>311.0</ele><time>2026-04-19T13:23:45.48Z</time></trkpt><trkpt lat="45.0563753" lon="8.0472283"><ele>308.0</ele><time>2026-04-19T13:23:46.479Z</time></trkpt><trkpt lat="45.0562565" lon="8.0472527"><ele>305.0</ele><time>2026-04-19T13:23:47.48Z</time></trkpt><trkpt lat="45.0561575" lon="8.0472817"><ele>305.0</ele><time>2026-04-19T13:23:48.479Z</time></trkpt><trkpt lat="45.0560812" lon="8.0473216"><ele>305.0</ele><time>2026-04-19T13:23:49.479Z</time></trkpt><trkpt lat="45.0559962" lon="8.0473881"><ele>305.0</ele><time>2026-04-19T13:23:50.479Z</time></trkpt><trkpt lat="45.0559141" lon="8.0474603"><ele>305.0</ele><time>2026-04-19T13:23:51.48Z</time></trkpt><trkpt lat="45.0558402" lon="8.047559"><ele>305.0</ele><time>2026-04-19T13:23:52.479Z</time></trkpt><trkpt lat="45.0557676" lon="8.0476659"><ele>306.6</ele><time>2026-04-19T13:23:53.479Z</time></trkpt><trkpt lat="45.0556809" lon="8.0477821"><ele>308.2</ele><time>2026-04-19T13:23:54.48Z</time></trkpt><trkpt lat="45.0556044" lon="8.0478989"><ele>309.8</ele><time>2026-04-19T13:23:55.48Z</time></trkpt><trkpt lat="45.0555146" lon="8.0479877"><ele>311.4</ele><time>2026-04-19T13:23:56.48Z</time></trkpt><trkpt lat="45.055421" lon="8.0480552"><ele>313.0</ele><time>2026-04-19T13:23:57.479Z</time></trkpt><trkpt lat="45.0553289" lon="8.0481213"><ele>313.0</ele><time>2026-04-19T13:23:58.479Z</time></trkpt><trkpt lat="45.0552255" lon="8.0481042"><ele>313.0</ele><time>2026-04-19T13:23:59.48Z</time></trkpt><trkpt lat="45.0551179" lon="8.0480722"><ele>313.0</ele><time>2026-04-19T13:24:00.479Z</time></trkpt><trkpt lat="45.0549893" lon="8.0479856"><ele>313.0</ele><time>2026-04-19T13:24:01.479Z</time></trkpt><trkpt lat="45.0548671" lon="8.047923"><ele>313.0</ele><time>2026-04-19T13:24:02.479Z</time></trkpt><trkpt lat="45.0547432" lon="8.0478606"><ele>313.0</ele><time>2026-04-19T13:24:03.479Z</time></trkpt><trkpt lat="45.0546212" lon="8.047798"><ele>313.0</ele><time>2026-04-19T13:24:04.48Z</time></trkpt><trkpt lat="45.0545002" lon="8.047744"><ele>313.0</ele><time>2026-04-19T13:24:05.479Z</time></trkpt><trkpt lat="45.0543753" lon="8.0476784"><ele>313.0</ele><time>2026-04-19T13:24:06.479Z</time></trkpt><trkpt lat="45.0542864" lon="8.0476277"><ele>313.0</ele><time>2026-04-19T13:24:07.479Z</time></trkpt><trkpt lat="45.0541926" lon="8.0475775"><ele>313.0</ele><time>2026-04-19T13:24:08.48Z</time></trkpt><trkpt lat="45.0541065" lon="8.0475703"><ele>313.0</ele><time>2026-04-19T13:24:09.479Z</time></trkpt><trkpt lat="45.0540105" lon="8.0475494"><ele>313.0</ele><time>2026-04-19T13:24:10.479Z</time></trkpt><trkpt lat="45.0539139" lon="8.0475837"><ele>311.5</ele><time>2026-04-19T13:24:11.479Z</time></trkpt><trkpt lat="45.0538219" lon="8.0476712"><ele>310.0</ele><time>2026-04-19T13:24:12.479Z</time></trkpt><trkpt lat="45.0537144" lon="8.0478226"><ele>308.5</ele><time>2026-04-19T13:24:13.479Z</time></trkpt><trkpt lat="45.0536323" lon="8.0478839"><ele>307.0</ele><time>2026-04-19T13:24:14.479Z</time></trkpt><trkpt lat="45.0535476" lon="8.0479552"><ele>307.0</ele><time>2026-04-19T13:24:15.479Z</time></trkpt><trkpt lat="45.0534747" lon="8.0480439"><ele>307.0</ele><time>2026-04-19T13:24:16.48Z</time></trkpt><trkpt lat="45.0533935" lon="8.0481186"><ele>307.0</ele><time>2026-04-19T13:24:17.479Z</time></trkpt><trkpt lat="45.0533119" lon="8.0482009"><ele>307.0</ele><time>2026-04-19T13:24:18.479Z</time></trkpt><trkpt lat="45.0532414" lon="8.0482647"><ele>307.0</ele><time>2026-04-19T13:24:19.479Z</time></trkpt><trkpt lat="45.0531884" lon="8.0483302"><ele>307.0</ele><time>2026-04-19T13:24:20.48Z</time></trkpt><trkpt lat="45.0531247" lon="8.0484009"><ele>307.16666666666663</ele><time>2026-04-19T13:24:21.479Z</time></trkpt><trkpt lat="45.0530566" lon="8.0484303"><ele>307.3333333333333</ele><time>2026-04-19T13:24:22.48Z</time></trkpt><trkpt lat="45.0529905" lon="8.0484669"><ele>307.5</ele><time>2026-04-19T13:24:23.479Z</time></trkpt><trkpt lat="45.0529342" lon="8.0485345"><ele>307.6666666666667</ele><time>2026-04-19T13:24:25.479Z</time></trkpt><trkpt lat="45.0528427" lon="8.0485615"><ele>307.83333333333337</ele><time>2026-04-19T13:24:27.48Z</time></trkpt><trkpt lat="45.0527361" lon="8.048575"><ele>308.0</ele><time>2026-04-19T13:24:28.479Z</time></trkpt><trkpt lat="45.052664" lon="8.0485857"><ele>308.0</ele><time>2026-04-19T13:24:29.479Z</time></trkpt><trkpt lat="45.0525736" lon="8.0486082"><ele>308.0</ele><time>2026-04-19T13:24:30.479Z</time></trkpt><trkpt lat="45.0524916" lon="8.0486751"><ele>308.0</ele><time>2026-04-19T13:24:31.48Z</time></trkpt><trkpt lat="45.0524306" lon="8.0487024"><ele>308.0</ele><time>2026-04-19T13:24:32.479Z</time></trkpt><trkpt lat="45.0523224" lon="8.0487794"><ele>308.0</ele><time>2026-04-19T13:24:33.48Z</time></trkpt><trkpt lat="45.0522315" lon="8.048832"><ele>305.2</ele><time>2026-04-19T13:24:34.479Z</time></trkpt><trkpt lat="45.0521273" lon="8.0488665"><ele>302.4</ele><time>2026-04-19T13:24:35.479Z</time></trkpt><trkpt lat="45.0520479" lon="8.0489434"><ele>299.59999999999997</ele><time>2026-04-19T13:24:36.479Z</time></trkpt><trkpt lat="45.0519613" lon="8.049009"><ele>296.8</ele><time>2026-04-19T13:24:37.479Z</time></trkpt><trkpt lat="45.0518846" lon="8.0490579"><ele>294.0</ele><time>2026-04-19T13:24:38.48Z</time></trkpt><trkpt lat="45.0517971" lon="8.0490872"><ele>294.2</ele><time>2026-04-19T13:24:39.479Z</time></trkpt><trkpt lat="45.0517096" lon="8.0491321"><ele>294.4</ele><time>2026-04-19T13:24:40.479Z</time></trkpt><trkpt lat="45.0516186" lon="8.0491909"><ele>294.6</ele><time>2026-04-19T13:24:41.479Z</time></trkpt><trkpt lat="45.0515601" lon="8.049296"><ele>294.8</ele><time>2026-04-19T13:24:42.479Z</time></trkpt><trkpt lat="45.0514771" lon="8.0493585"><ele>295.0</ele><time>2026-04-19T13:24:43.48Z</time></trkpt><trkpt lat="45.0513853" lon="8.0494186"><ele>295.0</ele><time>2026-04-19T13:24:44.48Z</time></trkpt><trkpt lat="45.0512885" lon="8.0494782"><ele>295.0</ele><time>2026-04-19T13:24:45.48Z</time></trkpt><trkpt lat="45.0511944" lon="8.0495149"><ele>295.0</ele><time>2026-04-19T13:24:46.479Z</time></trkpt><trkpt lat="45.0511032" lon="8.0495421"><ele>295.0</ele><time>2026-04-19T13:24:48.479Z</time></trkpt><trkpt lat="45.0510296" lon="8.0495624"><ele>295.0</ele><time>2026-04-19T13:24:50.479Z</time></trkpt><trkpt lat="45.0509726" lon="8.0496114"><ele>295.0</ele><time>2026-04-19T13:24:52.479Z</time></trkpt><trkpt lat="45.0509052" lon="8.0497114"><ele>295.0</ele><time>2026-04-19T13:24:55.48Z</time></trkpt><trkpt lat="45.0508318" lon="8.0498259"><ele>295.0</ele><time>2026-04-19T13:24:57.48Z</time></trkpt><trkpt lat="45.0507865" lon="8.049889"><ele>295.0</ele><time>2026-04-19T13:24:58.479Z</time></trkpt><trkpt lat="45.0507378" lon="8.0499673"><ele>295.0</ele><time>2026-04-19T13:24:59.48Z</time></trkpt><trkpt lat="45.0506873" lon="8.0500297"><ele>295.0</ele><time>2026-04-19T13:25:00.48Z</time></trkpt><trkpt lat="45.0505917" lon="8.0500977"><ele>295.0</ele><time>2026-04-19T13:25:02.479Z</time></trkpt><trkpt lat="45.050527" lon="8.0501262"><ele>295.0</ele><time>2026-04-19T13:25:04.479Z</time></trkpt><trkpt lat="45.0505352" lon="8.0502196"><ele>295.0</ele><time>2026-04-19T13:25:07.479Z</time></trkpt><trkpt lat="45.0506232" lon="8.0501879"><ele>295.0</ele><time>2026-04-19T13:25:11.48Z</time></trkpt><trkpt lat="45.0506793" lon="8.0501122"><ele>295.0</ele><time>2026-04-19T13:25:12.479Z</time></trkpt><trkpt lat="45.0507279" lon="8.0500389"><ele>295.0</ele><time>2026-04-19T13:25:13.48Z</time></trkpt><trkpt lat="45.0508293" lon="8.0499151"><ele>295.0</ele><time>2026-04-19T13:25:15.479Z</time></trkpt><trkpt lat="45.0509046" lon="8.0498021"><ele>295.0</ele><time>2026-04-19T13:25:17.479Z</time></trkpt><trkpt lat="45.0509538" lon="8.0497118"><ele>295.0</ele><time>2026-04-19T13:25:19.48Z</time></trkpt><trkpt lat="45.0509557" lon="8.0496117"><ele>295.0</ele><time>2026-04-19T13:25:21.479Z</time></trkpt><trkpt lat="45.0508955" lon="8.0495272"><ele>295.0</ele><time>2026-04-19T13:25:23.48Z</time></trkpt><trkpt lat="45.0508357" lon="8.0494889"><ele>295.0</ele><time>2026-04-19T13:25:24.479Z</time></trkpt><trkpt lat="45.0507246" lon="8.049455"><ele>295.0</ele><time>2026-04-19T13:25:26.48Z</time></trkpt><trkpt lat="45.0506415" lon="8.0494714"><ele>294.8</ele><time>2026-04-19T13:25:28.48Z</time></trkpt><trkpt lat="45.0505447" lon="8.0495731"><ele>294.6</ele><time>2026-04-19T13:25:30.479Z</time></trkpt><trkpt lat="45.0504729" lon="8.0496988"><ele>294.4</ele><time>2026-04-19T13:25:32.479Z</time></trkpt><trkpt lat="45.0503961" lon="8.0497957"><ele>294.2</ele><time>2026-04-19T13:25:34.48Z</time></trkpt><trkpt lat="45.0502915" lon="8.0498408"><ele>294.0</ele><time>2026-04-19T13:25:36.479Z</time></trkpt><trkpt lat="45.0501825" lon="8.0498653"><ele>294.0</ele><time>2026-04-19T13:25:38.479Z</time></trkpt><trkpt lat="45.0501218" lon="8.0499062"><ele>294.0</ele><time>2026-04-19T13:25:46.48Z</time></trkpt><trkpt lat="45.050055" lon="8.0499341"><ele>294.0</ele><time>2026-04-19T13:25:50.479Z</time></trkpt><trkpt lat="45.0499916" lon="8.0499384"><ele>294.0</ele><time>2026-04-19T13:25:51.479Z</time></trkpt><trkpt lat="45.0499237" lon="8.0499585"><ele>294.0</ele><time>2026-04-19T13:25:52.479Z</time></trkpt><trkpt lat="45.0498102" lon="8.0500014"><ele>294.0</ele><time>2026-04-19T13:25:54.479Z</time></trkpt><trkpt lat="45.0496875" lon="8.0500243"><ele>293.2</ele><time>2026-04-19T13:25:56.48Z</time></trkpt><trkpt lat="45.0496186" lon="8.0500325"><ele>292.4</ele><time>2026-04-19T13:25:57.479Z</time></trkpt><trkpt lat="45.0494975" lon="8.0500511"><ele>291.6</ele><time>2026-04-19T13:25:59.479Z</time></trkpt><trkpt lat="45.0494217" lon="8.0500227"><ele>290.8</ele><time>2026-04-19T13:26:01.479Z</time></trkpt><trkpt lat="45.0493621" lon="8.0500743"><ele>290.0</ele><time>2026-04-19T13:26:04.479Z</time></trkpt><trkpt lat="45.0494768" lon="8.0500293"><ele>290.0</ele><time>2026-04-19T13:26:10.479Z</time></trkpt><trkpt lat="45.049545" lon="8.0499969"><ele>290.0</ele><time>2026-04-19T13:26:12.479Z</time></trkpt><trkpt lat="45.0496648" lon="8.0499788"><ele>290.0</ele><time>2026-04-19T13:26:14.48Z</time></trkpt><trkpt lat="45.0497511" lon="8.0499733"><ele>290.0</ele><time>2026-04-19T13:26:15.479Z</time></trkpt><trkpt lat="45.0498184" lon="8.0499585"><ele>290.0</ele><time>2026-04-19T13:26:16.479Z</time></trkpt><trkpt lat="45.0498829" lon="8.049936"><ele>290.0</ele><time>2026-04-19T13:26:17.479Z</time></trkpt><trkpt lat="45.0499476" lon="8.0499131"><ele>290.8</ele><time>2026-04-19T13:26:18.479Z</time></trkpt><trkpt lat="45.0500355" lon="8.049883"><ele>291.6</ele><time>2026-04-19T13:26:20.479Z</time></trkpt><trkpt lat="45.0501217" lon="8.0499056"><ele>292.4</ele><time>2026-04-19T13:26:22.48Z</time></trkpt><trkpt lat="45.050148" lon="8.0500214"><ele>293.2</ele><time>2026-04-19T13:26:24.479Z</time></trkpt><trkpt lat="45.0501774" lon="8.0501906"><ele>294.0</ele><time>2026-04-19T13:26:26.48Z</time></trkpt><trkpt lat="45.0502132" lon="8.0502662"><ele>294.0</ele><time>2026-04-19T13:26:27.48Z</time></trkpt><trkpt lat="45.0502582" lon="8.0504199"><ele>294.0</ele><time>2026-04-19T13:26:29.48Z</time></trkpt><trkpt lat="45.0502711" lon="8.0505154"><ele>294.0</ele><time>2026-04-19T13:26:30.479Z</time></trkpt><trkpt lat="45.0502681" lon="8.0506073"><ele>294.0</ele><time>2026-04-19T13:26:31.479Z</time></trkpt><trkpt lat="45.050261" lon="8.0507109"><ele>294.0</ele><time>2026-04-19T13:26:32.479Z</time></trkpt><trkpt lat="45.050253" lon="8.0508135"><ele>294.0</ele><time>2026-04-19T13:26:33.479Z</time></trkpt><trkpt lat="45.0502441" lon="8.0509262"><ele>293.2</ele><time>2026-04-19T13:26:34.479Z</time></trkpt><trkpt lat="45.0502355" lon="8.0510479"><ele>292.4</ele><time>2026-04-19T13:26:35.479Z</time></trkpt><trkpt lat="45.0502227" lon="8.051172"><ele>291.6</ele><time>2026-04-19T13:26:36.479Z</time></trkpt><trkpt lat="45.0502027" lon="8.0512979"><ele>290.8</ele><time>2026-04-19T13:26:37.479Z</time></trkpt><trkpt lat="45.0501733" lon="8.0514371"><ele>290.0</ele><time>2026-04-19T13:26:38.479Z</time></trkpt><trkpt lat="45.0501153" lon="8.0515759"><ele>289.6</ele><time>2026-04-19T13:26:39.479Z</time></trkpt><trkpt lat="45.050042" lon="8.0517149"><ele>289.2</ele><time>2026-04-19T13:26:40.48Z</time></trkpt><trkpt lat="45.049987" lon="8.0518558"><ele>288.8</ele><time>2026-04-19T13:26:41.479Z</time></trkpt><trkpt lat="45.0499326" lon="8.0519841"><ele>288.4</ele><time>2026-04-19T13:26:42.479Z</time></trkpt><trkpt lat="45.0498698" lon="8.0521066"><ele>288.0</ele><time>2026-04-19T13:26:43.479Z</time></trkpt><trkpt lat="45.0497964" lon="8.0522336"><ele>286.4</ele><time>2026-04-19T13:26:44.479Z</time></trkpt><trkpt lat="45.049733" lon="8.0523357"><ele>284.8</ele><time>2026-04-19T13:26:45.479Z</time></trkpt><trkpt lat="45.0496581" lon="8.0524363"><ele>283.2</ele><time>2026-04-19T13:26:46.479Z</time></trkpt><trkpt lat="45.0495852" lon="8.0525396"><ele>281.6</ele><time>2026-04-19T13:26:47.479Z</time></trkpt><trkpt lat="45.0494941" lon="8.0526344"><ele>280.0</ele><time>2026-04-19T13:26:48.479Z</time></trkpt><trkpt lat="45.0493953" lon="8.0527393"><ele>280.0</ele><time>2026-04-19T13:26:49.479Z</time></trkpt><trkpt lat="45.0493265" lon="8.0528514"><ele>280.0</ele><time>2026-04-19T13:26:50.479Z</time></trkpt><trkpt lat="45.0492369" lon="8.0529451"><ele>280.0</ele><time>2026-04-19T13:26:51.48Z</time></trkpt><trkpt lat="45.0491406" lon="8.053026"><ele>280.0</ele><time>2026-04-19T13:26:52.48Z</time></trkpt><trkpt lat="45.0489898" lon="8.0531162"><ele>278.75</ele><time>2026-04-19T13:26:53.479Z</time></trkpt><trkpt lat="45.0488638" lon="8.0531702"><ele>277.5</ele><time>2026-04-19T13:26:54.479Z</time></trkpt><trkpt lat="45.0487215" lon="8.0532783"><ele>276.25</ele><time>2026-04-19T13:26:55.479Z</time></trkpt><trkpt lat="45.0486003" lon="8.0533576"><ele>275.0</ele><time>2026-04-19T13:26:56.479Z</time></trkpt><trkpt lat="45.0484746" lon="8.0534316"><ele>275.0</ele><time>2026-04-19T13:26:57.479Z</time></trkpt><trkpt lat="45.0483492" lon="8.0535058"><ele>275.0</ele><time>2026-04-19T13:26:58.479Z</time></trkpt><trkpt lat="45.0482238" lon="8.0535737"><ele>275.0</ele><time>2026-04-19T13:26:59.479Z</time></trkpt><trkpt lat="45.0481057" lon="8.0536278"><ele>275.0</ele><time>2026-04-19T13:27:00.48Z</time></trkpt><trkpt lat="45.0479868" lon="8.0536813"><ele>273.5</ele><time>2026-04-19T13:27:01.479Z</time></trkpt><trkpt lat="45.047875" lon="8.0537254"><ele>272.0</ele><time>2026-04-19T13:27:02.479Z</time></trkpt><trkpt lat="45.0477654" lon="8.0537912"><ele>270.5</ele><time>2026-04-19T13:27:03.48Z</time></trkpt><trkpt lat="45.0476559" lon="8.0538607"><ele>269.0</ele><time>2026-04-19T13:27:04.479Z</time></trkpt><trkpt lat="45.0475582" lon="8.0539593"><ele>269.0</ele><time>2026-04-19T13:27:05.479Z</time></trkpt><trkpt lat="45.0474675" lon="8.0540745"><ele>269.0</ele><time>2026-04-19T13:27:06.48Z</time></trkpt><trkpt lat="45.047381" lon="8.0541944"><ele>269.0</ele><time>2026-04-19T13:27:07.479Z</time></trkpt><trkpt lat="45.0472904" lon="8.0542942"><ele>269.0</ele><time>2026-04-19T13:27:08.479Z</time></trkpt><trkpt lat="45.0471995" lon="8.054401"><ele>268.8</ele><time>2026-04-19T13:27:09.48Z</time></trkpt><trkpt lat="45.047118" lon="8.0544735"><ele>268.59999999999997</ele><time>2026-04-19T13:27:10.48Z</time></trkpt><trkpt lat="45.0470245" lon="8.0545802"><ele>268.4</ele><time>2026-04-19T13:27:11.479Z</time></trkpt><trkpt lat="45.0469626" lon="8.0546957"><ele>268.2</ele><time>2026-04-19T13:27:12.48Z</time></trkpt><trkpt lat="45.0468882" lon="8.054811"><ele>268.0</ele><time>2026-04-19T13:27:13.479Z</time></trkpt><trkpt lat="45.0468177" lon="8.0549332"><ele>268.5</ele><time>2026-04-19T13:27:14.479Z</time></trkpt><trkpt lat="45.0467562" lon="8.0550027"><ele>269.0</ele><time>2026-04-19T13:27:15.479Z</time></trkpt><trkpt lat="45.0466926" lon="8.0550844"><ele>269.5</ele><time>2026-04-19T13:27:16.479Z</time></trkpt><trkpt lat="45.0466427" lon="8.0551516"><ele>270.0</ele><time>2026-04-19T13:27:17.479Z</time></trkpt><trkpt lat="45.0465836" lon="8.0552122"><ele>270.5</ele><time>2026-04-19T13:27:18.479Z</time></trkpt><trkpt lat="45.0464869" lon="8.0552233"><ele>271.0</ele><time>2026-04-19T13:27:20.479Z</time></trkpt><trkpt lat="45.0464264" lon="8.055146"><ele>266.25</ele><time>2026-04-19T13:27:21.479Z</time></trkpt><trkpt lat="45.0463646" lon="8.0549595"><ele>261.5</ele><time>2026-04-19T13:27:23.48Z</time></trkpt><trkpt lat="45.0463351" lon="8.0548345"><ele>256.75</ele><time>2026-04-19T13:27:24.48Z</time></trkpt><trkpt lat="45.0463477" lon="8.0546712"><ele>252.0</ele><time>2026-04-19T13:27:25.48Z</time></trkpt><trkpt lat="45.0463802" lon="8.0545224"><ele>252.0</ele><time>2026-04-19T13:27:26.48Z</time></trkpt><trkpt lat="45.0464259" lon="8.0543768"><ele>252.0</ele><time>2026-04-19T13:27:27.48Z</time></trkpt><trkpt lat="45.0464803" lon="8.0542203"><ele>252.0</ele><time>2026-04-19T13:27:28.479Z</time></trkpt><trkpt lat="45.0465553" lon="8.0540734"><ele>252.0</ele><time>2026-04-19T13:27:29.479Z</time></trkpt><trkpt lat="45.0466352" lon="8.0539247"><ele>252.0</ele><time>2026-04-19T13:27:30.48Z</time></trkpt><trkpt lat="45.0467185" lon="8.0537746"><ele>252.0</ele><time>2026-04-19T13:27:31.479Z</time></trkpt><trkpt lat="45.0468029" lon="8.0536306"><ele>252.0</ele><time>2026-04-19T13:27:32.479Z</time></trkpt><trkpt lat="45.0468909" lon="8.053486"><ele>252.0</ele><time>2026-04-19T13:27:33.479Z</time></trkpt><trkpt lat="45.0469973" lon="8.0533589"><ele>251.75</ele><time>2026-04-19T13:27:34.48Z</time></trkpt><trkpt lat="45.0470876" lon="8.0532177"><ele>251.5</ele><time>2026-04-19T13:27:35.479Z</time></trkpt><trkpt lat="45.0471886" lon="8.0530924"><ele>251.25</ele><time>2026-04-19T13:27:36.479Z</time></trkpt><trkpt lat="45.0472648" lon="8.0529455"><ele>251.0</ele><time>2026-04-19T13:27:37.479Z</time></trkpt><trkpt lat="45.0473654" lon="8.0528385"><ele>251.0</ele><time>2026-04-19T13:27:38.479Z</time></trkpt><trkpt lat="45.0474209" lon="8.0527288"><ele>251.00000000000003</ele><time>2026-04-19T13:27:39.48Z</time></trkpt><trkpt lat="45.047461" lon="8.0526302"><ele>251.00000000000003</ele><time>2026-04-19T13:27:40.479Z</time></trkpt><trkpt lat="45.0475143" lon="8.0525356"><ele>251.0</ele><time>2026-04-19T13:27:41.479Z</time></trkpt><trkpt lat="45.0473853" lon="8.0524127"><ele>251.0</ele><time>2026-04-19T13:27:43.479Z</time></trkpt><trkpt lat="45.047295" lon="8.0524099"><ele>251.0</ele><time>2026-04-19T13:27:44.479Z</time></trkpt><trkpt lat="45.0472006" lon="8.052473"><ele>251.00000000000003</ele><time>2026-04-19T13:27:45.479Z</time></trkpt><trkpt lat="45.0470927" lon="8.0525186"><ele>251.00000000000003</ele><time>2026-04-19T13:27:46.479Z</time></trkpt><trkpt lat="45.0469861" lon="8.0525776"><ele>251.0</ele><time>2026-04-19T13:27:47.48Z</time></trkpt><trkpt lat="45.0469031" lon="8.0526451"><ele>251.0</ele><time>2026-04-19T13:27:48.479Z</time></trkpt><trkpt lat="45.0468059" lon="8.0527041"><ele>251.0</ele><time>2026-04-19T13:27:49.479Z</time></trkpt><trkpt lat="45.046696" lon="8.052799"><ele>251.0</ele><time>2026-04-19T13:27:50.479Z</time></trkpt><trkpt lat="45.0465251" lon="8.0530088"><ele>251.0</ele><time>2026-04-19T13:27:51.479Z</time></trkpt><trkpt lat="45.0463904" lon="8.0531372"><ele>246.0</ele><time>2026-04-19T13:27:52.479Z</time></trkpt><trkpt lat="45.0462537" lon="8.053306"><ele>241.0</ele><time>2026-04-19T13:27:53.48Z</time></trkpt><trkpt lat="45.0461404" lon="8.0534763"><ele>236.0</ele><time>2026-04-19T13:27:54.479Z</time></trkpt><trkpt lat="45.0460273" lon="8.0536566"><ele>236.0</ele><time>2026-04-19T13:27:55.479Z</time></trkpt><trkpt lat="45.0459102" lon="8.0538479"><ele>236.0</ele><time>2026-04-19T13:27:56.479Z</time></trkpt><trkpt lat="45.0457969" lon="8.0540648"><ele>236.0</ele><time>2026-04-19T13:27:57.479Z</time></trkpt><trkpt lat="45.0457131" lon="8.0542855"><ele>238.33333333333334</ele><time>2026-04-19T13:27:58.479Z</time></trkpt><trkpt lat="45.0455993" lon="8.0544723"><ele>240.66666666666669</ele><time>2026-04-19T13:27:59.479Z</time></trkpt><trkpt lat="45.0454999" lon="8.0546648"><ele>243.0</ele><time>2026-04-19T13:28:00.48Z</time></trkpt><trkpt lat="45.0453771" lon="8.0548491"><ele>240.0</ele><time>2026-04-19T13:28:01.479Z</time></trkpt><trkpt lat="45.0452709" lon="8.0550367"><ele>237.0</ele><time>2026-04-19T13:28:02.48Z</time></trkpt><trkpt lat="45.0451703" lon="8.0552417"><ele>234.0</ele><time>2026-04-19T13:28:03.48Z</time></trkpt><trkpt lat="45.0450639" lon="8.0554074"><ele>234.0</ele><time>2026-04-19T13:28:04.48Z</time></trkpt><trkpt lat="45.044994" lon="8.0555788"><ele>234.0</ele><time>2026-04-19T13:28:05.479Z</time></trkpt><trkpt lat="45.0449206" lon="8.0557582"><ele>234.0</ele><time>2026-04-19T13:28:06.479Z</time></trkpt><trkpt lat="45.0448669" lon="8.0559465"><ele>234.0</ele><time>2026-04-19T13:28:07.479Z</time></trkpt><trkpt lat="45.0448646" lon="8.056143"><ele>231.75</ele><time>2026-04-19T13:28:08.479Z</time></trkpt><trkpt lat="45.044872" lon="8.0563394"><ele>229.5</ele><time>2026-04-19T13:28:09.48Z</time></trkpt><trkpt lat="45.044851" lon="8.0565363"><ele>227.25</ele><time>2026-04-19T13:28:10.48Z</time></trkpt><trkpt lat="45.0448338" lon="8.0567254"><ele>225.0</ele><time>2026-04-19T13:28:11.479Z</time></trkpt><trkpt lat="45.0447968" lon="8.0569192"><ele>224.0</ele><time>2026-04-19T13:28:12.479Z</time></trkpt><trkpt lat="45.0447657" lon="8.0571257"><ele>223.0</ele><time>2026-04-19T13:28:13.48Z</time></trkpt><trkpt lat="45.0447121" lon="8.0572864"><ele>222.0</ele><time>2026-04-19T13:28:14.48Z</time></trkpt><trkpt lat="45.0445995" lon="8.0573844"><ele>221.0</ele><time>2026-04-19T13:28:15.479Z</time></trkpt><trkpt lat="45.0445544" lon="8.0575375"><ele>221.0</ele><time>2026-04-19T13:28:16.479Z</time></trkpt><trkpt lat="45.0445414" lon="8.0576807"><ele>221.00000000000003</ele><time>2026-04-19T13:28:17.479Z</time></trkpt><trkpt lat="45.0445165" lon="8.0578302"><ele>221.00000000000003</ele><time>2026-04-19T13:28:18.479Z</time></trkpt><trkpt lat="45.0445586" lon="8.0579937"><ele>221.0</ele><time>2026-04-19T13:28:19.48Z</time></trkpt><trkpt lat="45.0445867" lon="8.0581437"><ele>221.0</ele><time>2026-04-19T13:28:20.479Z</time></trkpt><trkpt lat="45.044629" lon="8.0582771"><ele>220.4</ele><time>2026-04-19T13:28:21.479Z</time></trkpt><trkpt lat="45.0446589" lon="8.0584115"><ele>219.8</ele><time>2026-04-19T13:28:22.48Z</time></trkpt><trkpt lat="45.0446635" lon="8.0585438"><ele>219.20000000000002</ele><time>2026-04-19T13:28:23.479Z</time></trkpt><trkpt lat="45.0446448" lon="8.0586883"><ele>218.60000000000002</ele><time>2026-04-19T13:28:24.479Z</time></trkpt><trkpt lat="45.0446215" lon="8.0588327"><ele>218.0</ele><time>2026-04-19T13:28:25.479Z</time></trkpt><trkpt lat="45.0445024" lon="8.0589282"><ele>218.0</ele><time>2026-04-19T13:28:26.479Z</time></trkpt><trkpt lat="45.0444126" lon="8.0590434"><ele>218.0</ele><time>2026-04-19T13:28:27.479Z</time></trkpt><trkpt lat="45.0442772" lon="8.0591748"><ele>218.0</ele><time>2026-04-19T13:28:28.479Z</time></trkpt><trkpt lat="45.0441473" lon="8.0593027"><ele>218.0</ele><time>2026-04-19T13:28:29.479Z</time></trkpt><trkpt lat="45.0440217" lon="8.0594384"><ele>217.0</ele><time>2026-04-19T13:28:30.479Z</time></trkpt><trkpt lat="45.043898" lon="8.0595801"><ele>216.0</ele><time>2026-04-19T13:28:31.479Z</time></trkpt><trkpt lat="45.0437775" lon="8.0597209"><ele>215.0</ele><time>2026-04-19T13:28:32.479Z</time></trkpt><trkpt lat="45.043644" lon="8.0598637"><ele>214.66666666666669</ele><time>2026-04-19T13:28:33.479Z</time></trkpt><trkpt lat="45.0435217" lon="8.0600069"><ele>214.33333333333331</ele><time>2026-04-19T13:28:34.479Z</time></trkpt><trkpt lat="45.0433774" lon="8.0601546"><ele>214.0</ele><time>2026-04-19T13:28:35.479Z</time></trkpt><trkpt lat="45.0432695" lon="8.0603206"><ele>214.0</ele><time>2026-04-19T13:28:36.479Z</time></trkpt><trkpt lat="45.0430982" lon="8.0605066"><ele>214.0</ele><time>2026-04-19T13:28:37.479Z</time></trkpt><trkpt lat="45.0429644" lon="8.0606206"><ele>214.0</ele><time>2026-04-19T13:28:38.48Z</time></trkpt><trkpt lat="45.0428309" lon="8.0607733"><ele>214.33333333333331</ele><time>2026-04-19T13:28:39.48Z</time></trkpt><trkpt lat="45.0426821" lon="8.0609073"><ele>214.66666666666669</ele><time>2026-04-19T13:28:40.479Z</time></trkpt><trkpt lat="45.0425393" lon="8.0610414"><ele>215.0</ele><time>2026-04-19T13:28:41.48Z</time></trkpt><trkpt lat="45.0423996" lon="8.0611743"><ele>214.33333333333334</ele><time>2026-04-19T13:28:42.479Z</time></trkpt><trkpt lat="45.0422603" lon="8.0613044"><ele>213.66666666666669</ele><time>2026-04-19T13:28:43.479Z</time></trkpt><trkpt lat="45.0421111" lon="8.0614417"><ele>213.0</ele><time>2026-04-19T13:28:44.48Z</time></trkpt><trkpt lat="45.0419739" lon="8.0615774"><ele>213.0</ele><time>2026-04-19T13:28:45.479Z</time></trkpt><trkpt lat="45.0418351" lon="8.0617068"><ele>213.0</ele><time>2026-04-19T13:28:46.48Z</time></trkpt><trkpt lat="45.041696" lon="8.0618363"><ele>213.0</ele><time>2026-04-19T13:28:47.48Z</time></trkpt><trkpt lat="45.0415501" lon="8.061965"><ele>213.0</ele><time>2026-04-19T13:28:48.479Z</time></trkpt><trkpt lat="45.0414086" lon="8.0620885"><ele>213.0</ele><time>2026-04-19T13:28:49.479Z</time></trkpt><trkpt lat="45.0412593" lon="8.0622015"><ele>213.0</ele><time>2026-04-19T13:28:50.479Z</time></trkpt><trkpt lat="45.0411191" lon="8.0623001"><ele>213.0</ele><time>2026-04-19T13:28:51.48Z</time></trkpt><trkpt lat="45.040977" lon="8.0623895"><ele>213.0</ele><time>2026-04-19T13:28:52.479Z</time></trkpt><trkpt lat="45.0408375" lon="8.0624542"><ele>213.0</ele><time>2026-04-19T13:28:53.48Z</time></trkpt><trkpt lat="45.0407535" lon="8.0625122"><ele>213.0</ele><time>2026-04-19T13:28:54.48Z</time></trkpt><trkpt lat="45.0406459" lon="8.0625682"><ele>212.8</ele><time>2026-04-19T13:28:55.479Z</time></trkpt><trkpt lat="45.0405501" lon="8.062604"><ele>212.60000000000002</ele><time>2026-04-19T13:28:56.48Z</time></trkpt><trkpt lat="45.0404669" lon="8.0626617"><ele>212.39999999999998</ele><time>2026-04-19T13:28:57.479Z</time></trkpt><trkpt lat="45.0403937" lon="8.0626967"><ele>212.2</ele><time>2026-04-19T13:28:58.479Z</time></trkpt><trkpt lat="45.0403049" lon="8.0627585"><ele>212.0</ele><time>2026-04-19T13:28:59.479Z</time></trkpt><trkpt lat="45.0402016" lon="8.0628235"><ele>212.0</ele><time>2026-04-19T13:29:00.48Z</time></trkpt><trkpt lat="45.0400815" lon="8.0628881"><ele>212.0</ele><time>2026-04-19T13:29:01.48Z</time></trkpt><trkpt lat="45.039953" lon="8.0629629"><ele>212.0</ele><time>2026-04-19T13:29:02.479Z</time></trkpt><trkpt lat="45.0398254" lon="8.0630353"><ele>212.0</ele><time>2026-04-19T13:29:03.479Z</time></trkpt><trkpt lat="45.0396901" lon="8.0631272"><ele>212.33333333333334</ele><time>2026-04-19T13:29:04.479Z</time></trkpt><trkpt lat="45.039548" lon="8.0632089"><ele>212.66666666666669</ele><time>2026-04-19T13:29:05.48Z</time></trkpt><trkpt lat="45.0394012" lon="8.0632977"><ele>213.0</ele><time>2026-04-19T13:29:06.479Z</time></trkpt><trkpt lat="45.0392529" lon="8.0633898"><ele>212.0</ele><time>2026-04-19T13:29:07.479Z</time></trkpt><trkpt lat="45.0391058" lon="8.0634821"><ele>211.0</ele><time>2026-04-19T13:29:08.48Z</time></trkpt><trkpt lat="45.0389577" lon="8.0635834"><ele>210.0</ele><time>2026-04-19T13:29:09.479Z</time></trkpt><trkpt lat="45.038792" lon="8.063682"><ele>210.0</ele><time>2026-04-19T13:29:10.479Z</time></trkpt><trkpt lat="45.0386303" lon="8.0637984"><ele>210.0</ele><time>2026-04-19T13:29:11.479Z</time></trkpt><trkpt lat="45.0384802" lon="8.0638947"><ele>210.0</ele><time>2026-04-19T13:29:12.48Z</time></trkpt><trkpt lat="45.0383117" lon="8.06401"><ele>210.75</ele><time>2026-04-19T13:29:13.48Z</time></trkpt><trkpt lat="45.0381547" lon="8.0641214"><ele>211.5</ele><time>2026-04-19T13:29:14.479Z</time></trkpt><trkpt lat="45.038097" lon="8.0641703"><ele>212.25</ele><time>2026-04-19T13:29:15.48Z</time></trkpt><trkpt lat="45.0379781" lon="8.0642484"><ele>213.0</ele><time>2026-04-19T13:29:16.48Z</time></trkpt><trkpt lat="45.0378625" lon="8.0643196"><ele>213.0</ele><time>2026-04-19T13:29:17.479Z</time></trkpt><trkpt lat="45.0377394" lon="8.0643834"><ele>213.0</ele><time>2026-04-19T13:29:18.479Z</time></trkpt><trkpt lat="45.037663" lon="8.0644421"><ele>213.0</ele><time>2026-04-19T13:29:19.479Z</time></trkpt><trkpt lat="45.0375497" lon="8.0645202"><ele>213.0</ele><time>2026-04-19T13:29:20.479Z</time></trkpt><trkpt lat="45.0374371" lon="8.0645906"><ele>212.25</ele><time>2026-04-19T13:29:21.48Z</time></trkpt><trkpt lat="45.0373058" lon="8.064677"><ele>211.5</ele><time>2026-04-19T13:29:22.479Z</time></trkpt><trkpt lat="45.0371989" lon="8.0647529"><ele>210.75</ele><time>2026-04-19T13:29:23.479Z</time></trkpt><trkpt lat="45.0370572" lon="8.0648392"><ele>210.0</ele><time>2026-04-19T13:29:24.479Z</time></trkpt><trkpt lat="45.0369553" lon="8.0649086"><ele>209.6</ele><time>2026-04-19T13:29:25.479Z</time></trkpt><trkpt lat="45.036865" lon="8.0649773"><ele>209.2</ele><time>2026-04-19T13:29:26.48Z</time></trkpt><trkpt lat="45.0367756" lon="8.0650444"><ele>208.8</ele><time>2026-04-19T13:29:27.479Z</time></trkpt><trkpt lat="45.036676" lon="8.0651108"><ele>208.4</ele><time>2026-04-19T13:29:28.479Z</time></trkpt><trkpt lat="45.0365776" lon="8.0651705"><ele>208.0</ele><time>2026-04-19T13:29:29.48Z</time></trkpt><trkpt lat="45.0364803" lon="8.0652381"><ele>208.0</ele><time>2026-04-19T13:29:30.479Z</time></trkpt><trkpt lat="45.0363794" lon="8.0653055"><ele>208.0</ele><time>2026-04-19T13:29:31.479Z</time></trkpt><trkpt lat="45.0362886" lon="8.0653673"><ele>208.0</ele><time>2026-04-19T13:29:32.48Z</time></trkpt><trkpt lat="45.0361939" lon="8.0654405"><ele>208.0</ele><time>2026-04-19T13:29:33.48Z</time></trkpt><trkpt lat="45.0360886" lon="8.0654943"><ele>208.0</ele><time>2026-04-19T13:29:34.479Z</time></trkpt><trkpt lat="45.0359942" lon="8.0655527"><ele>208.0</ele><time>2026-04-19T13:29:35.479Z</time></trkpt><trkpt lat="45.0358922" lon="8.0656159"><ele>208.0</ele><time>2026-04-19T13:29:36.479Z</time></trkpt><trkpt lat="45.0357986" lon="8.0656882"><ele>208.0</ele><time>2026-04-19T13:29:37.48Z</time></trkpt><trkpt lat="45.0357133" lon="8.0657656"><ele>208.0</ele><time>2026-04-19T13:29:38.48Z</time></trkpt><trkpt lat="45.0356171" lon="8.0658273"><ele>208.0</ele><time>2026-04-19T13:29:39.479Z</time></trkpt><trkpt lat="45.0355257" lon="8.0659065"><ele>208.33333333333331</ele><time>2026-04-19T13:29:40.479Z</time></trkpt><trkpt lat="45.0354565" lon="8.0659586"><ele>208.66666666666666</ele><time>2026-04-19T13:29:41.479Z</time></trkpt><trkpt lat="45.0353931" lon="8.0660177"><ele>209.0</ele><time>2026-04-19T13:29:42.48Z</time></trkpt><trkpt lat="45.0353283" lon="8.0661303"><ele>209.33333333333331</ele><time>2026-04-19T13:29:43.479Z</time></trkpt><trkpt lat="45.0352854" lon="8.0662029"><ele>209.66666666666666</ele><time>2026-04-19T13:29:44.48Z</time></trkpt><trkpt lat="45.035218" lon="8.066313"><ele>210.0</ele><time>2026-04-19T13:29:45.479Z</time></trkpt><trkpt lat="45.0351476" lon="8.0663986"><ele>210.0</ele><time>2026-04-19T13:29:46.479Z</time></trkpt><trkpt lat="45.0350868" lon="8.0664821"><ele>210.0</ele><time>2026-04-19T13:29:47.48Z</time></trkpt><trkpt lat="45.0350206" lon="8.0665583"><ele>210.0</ele><time>2026-04-19T13:29:48.479Z</time></trkpt><trkpt lat="45.0349509" lon="8.0666398"><ele>210.0</ele><time>2026-04-19T13:29:49.479Z</time></trkpt><trkpt lat="45.0348887" lon="8.0666997"><ele>210.0</ele><time>2026-04-19T13:29:50.479Z</time></trkpt><trkpt lat="45.03482" lon="8.066755"><ele>210.0</ele><time>2026-04-19T13:29:51.48Z</time></trkpt><trkpt lat="45.0347523" lon="8.0668206"><ele>209.66666666666666</ele><time>2026-04-19T13:29:52.479Z</time></trkpt><trkpt lat="45.0347003" lon="8.0669183"><ele>209.33333333333331</ele><time>2026-04-19T13:29:53.48Z</time></trkpt><trkpt lat="45.0346514" lon="8.0670115"><ele>209.0</ele><time>2026-04-19T13:29:54.479Z</time></trkpt><trkpt lat="45.0345835" lon="8.0670886"><ele>208.66666666666666</ele><time>2026-04-19T13:29:55.479Z</time></trkpt><trkpt lat="45.0345153" lon="8.0671699"><ele>208.33333333333331</ele><time>2026-04-19T13:29:56.479Z</time></trkpt><trkpt lat="45.0344473" lon="8.0672364"><ele>208.0</ele><time>2026-04-19T13:29:57.48Z</time></trkpt><trkpt lat="45.0343813" lon="8.0673096"><ele>207.99999999999997</ele><time>2026-04-19T13:29:58.479Z</time></trkpt><trkpt lat="45.0343136" lon="8.0673969"><ele>208.0</ele><time>2026-04-19T13:29:59.479Z</time></trkpt><trkpt lat="45.0342434" lon="8.0674809"><ele>208.0</ele><time>2026-04-19T13:30:00.48Z</time></trkpt><trkpt lat="45.0341766" lon="8.0675644"><ele>208.0</ele><time>2026-04-19T13:30:01.479Z</time></trkpt><trkpt lat="45.0341037" lon="8.0676361"><ele>207.99999999999997</ele><time>2026-04-19T13:30:02.479Z</time></trkpt><trkpt lat="45.034052" lon="8.0677179"><ele>208.0</ele><time>2026-04-19T13:30:03.479Z</time></trkpt><trkpt lat="45.0340152" lon="8.0678048"><ele>207.57142857142856</ele><time>2026-04-19T13:30:04.479Z</time></trkpt><trkpt lat="45.0339657" lon="8.0678741"><ele>207.14285714285717</ele><time>2026-04-19T13:30:05.48Z</time></trkpt><trkpt lat="45.0339156" lon="8.0679397"><ele>206.71428571428572</ele><time>2026-04-19T13:30:06.48Z</time></trkpt><trkpt lat="45.0338619" lon="8.0679969"><ele>206.28571428571428</ele><time>2026-04-19T13:30:07.479Z</time></trkpt><trkpt lat="45.0338118" lon="8.0680626"><ele>205.85714285714283</ele><time>2026-04-19T13:30:08.48Z</time></trkpt><trkpt lat="45.0337411" lon="8.0680803"><ele>205.42857142857144</ele><time>2026-04-19T13:30:09.479Z</time></trkpt><trkpt lat="45.0336832" lon="8.0681154"><ele>205.0</ele><time>2026-04-19T13:30:10.48Z</time></trkpt><trkpt lat="45.0335899" lon="8.0681103"><ele>204.99999999999997</ele><time>2026-04-19T13:30:11.479Z</time></trkpt><trkpt lat="45.0335145" lon="8.0681013"><ele>205.0</ele><time>2026-04-19T13:30:12.479Z</time></trkpt><trkpt lat="45.0334492" lon="8.0680851"><ele>205.0</ele><time>2026-04-19T13:30:13.48Z</time></trkpt><trkpt lat="45.0333698" lon="8.0680506"><ele>205.0</ele><time>2026-04-19T13:30:14.479Z</time></trkpt><trkpt lat="45.0333054" lon="8.0679952"><ele>204.99999999999997</ele><time>2026-04-19T13:30:15.48Z</time></trkpt><trkpt lat="45.0332442" lon="8.0679337"><ele>205.0</ele><time>2026-04-19T13:30:16.479Z</time></trkpt><trkpt lat="45.0331679" lon="8.0678667"><ele>206.4</ele><time>2026-04-19T13:30:17.479Z</time></trkpt><trkpt lat="45.0330884" lon="8.0678061"><ele>207.8</ele><time>2026-04-19T13:30:18.479Z</time></trkpt><trkpt lat="45.033003" lon="8.0677542"><ele>209.2</ele><time>2026-04-19T13:30:19.479Z</time></trkpt><trkpt lat="45.0329228" lon="8.0676902"><ele>210.6</ele><time>2026-04-19T13:30:20.479Z</time></trkpt><trkpt lat="45.0328393" lon="8.0676297"><ele>212.0</ele><time>2026-04-19T13:30:21.479Z</time></trkpt><trkpt lat="45.0327578" lon="8.0675671"><ele>212.00000000000003</ele><time>2026-04-19T13:30:22.479Z</time></trkpt><trkpt lat="45.0326804" lon="8.0675157"><ele>212.0</ele><time>2026-04-19T13:30:23.479Z</time></trkpt><trkpt lat="45.0326057" lon="8.0674636"><ele>212.0</ele><time>2026-04-19T13:30:24.479Z</time></trkpt><trkpt lat="45.0325348" lon="8.0674245"><ele>212.0</ele><time>2026-04-19T13:30:25.479Z</time></trkpt><trkpt lat="45.0324419" lon="8.0673763"><ele>212.00000000000003</ele><time>2026-04-19T13:30:26.48Z</time></trkpt><trkpt lat="45.0323533" lon="8.0673316"><ele>212.0</ele><time>2026-04-19T13:30:27.48Z</time></trkpt><trkpt lat="45.0322672" lon="8.0672912"><ele>210.39999999999998</ele><time>2026-04-19T13:30:28.479Z</time></trkpt><trkpt lat="45.032165" lon="8.0672346"><ele>208.79999999999998</ele><time>2026-04-19T13:30:29.479Z</time></trkpt><trkpt lat="45.0320653" lon="8.0671929"><ele>207.2</ele><time>2026-04-19T13:30:30.479Z</time></trkpt><trkpt lat="45.0319653" lon="8.06715"><ele>205.6</ele><time>2026-04-19T13:30:31.479Z</time></trkpt><trkpt lat="45.0318775" lon="8.0671074"><ele>204.0</ele><time>2026-04-19T13:30:32.479Z</time></trkpt><trkpt lat="45.031772" lon="8.0670664"><ele>204.0</ele><time>2026-04-19T13:30:33.48Z</time></trkpt><trkpt lat="45.0316782" lon="8.0670346"><ele>204.0</ele><time>2026-04-19T13:30:34.479Z</time></trkpt><trkpt lat="45.0315852" lon="8.0670092"><ele>204.0</ele><time>2026-04-19T13:30:35.479Z</time></trkpt><trkpt lat="45.0314837" lon="8.0669893"><ele>204.0</ele><time>2026-04-19T13:30:36.479Z</time></trkpt><trkpt lat="45.0313773" lon="8.0669791"><ele>204.0</ele><time>2026-04-19T13:30:37.479Z</time></trkpt><trkpt lat="45.0312695" lon="8.0669784"><ele>204.39999999999998</ele><time>2026-04-19T13:30:38.479Z</time></trkpt><trkpt lat="45.0311586" lon="8.0669758"><ele>204.8</ele><time>2026-04-19T13:30:39.479Z</time></trkpt><trkpt lat="45.0310627" lon="8.0669806"><ele>205.2</ele><time>2026-04-19T13:30:40.479Z</time></trkpt><trkpt lat="45.030962" lon="8.0669821"><ele>205.60000000000002</ele><time>2026-04-19T13:30:41.48Z</time></trkpt><trkpt lat="45.0308638" lon="8.0669837"><ele>206.0</ele><time>2026-04-19T13:30:42.48Z</time></trkpt><trkpt lat="45.0307547" lon="8.0669637"><ele>206.60000000000002</ele><time>2026-04-19T13:30:43.48Z</time></trkpt><trkpt lat="45.0306653" lon="8.0669271"><ele>207.2</ele><time>2026-04-19T13:30:44.479Z</time></trkpt><trkpt lat="45.0305664" lon="8.0668954"><ele>207.8</ele><time>2026-04-19T13:30:45.479Z</time></trkpt><trkpt lat="45.030477" lon="8.0668661"><ele>208.39999999999998</ele><time>2026-04-19T13:30:46.479Z</time></trkpt><trkpt lat="45.0304034" lon="8.066842"><ele>209.0</ele><time>2026-04-19T13:30:47.48Z</time></trkpt><trkpt lat="45.0303113" lon="8.0668017"><ele>209.0</ele><time>2026-04-19T13:30:48.479Z</time></trkpt><trkpt lat="45.0302193" lon="8.0667486"><ele>209.0</ele><time>2026-04-19T13:30:49.479Z</time></trkpt><trkpt lat="45.0301372" lon="8.066709"><ele>209.0</ele><time>2026-04-19T13:30:50.479Z</time></trkpt><trkpt lat="45.0300474" lon="8.0666577"><ele>209.0</ele><time>2026-04-19T13:30:51.479Z</time></trkpt><trkpt lat="45.0299531" lon="8.0666216"><ele>209.0</ele><time>2026-04-19T13:30:52.479Z</time></trkpt><trkpt lat="45.0298588" lon="8.0665784"><ele>208.2</ele><time>2026-04-19T13:30:53.48Z</time></trkpt><trkpt lat="45.0297895" lon="8.0665568"><ele>207.39999999999998</ele><time>2026-04-19T13:30:54.479Z</time></trkpt><trkpt lat="45.0297043" lon="8.0665205"><ele>206.6</ele><time>2026-04-19T13:30:55.48Z</time></trkpt><trkpt lat="45.0295912" lon="8.0664776"><ele>205.8</ele><time>2026-04-19T13:30:56.48Z</time></trkpt><trkpt lat="45.0294997" lon="8.0664477"><ele>205.0</ele><time>2026-04-19T13:30:57.48Z</time></trkpt><trkpt lat="45.029407" lon="8.0664289"><ele>205.0</ele><time>2026-04-19T13:30:58.479Z</time></trkpt><trkpt lat="45.0293153" lon="8.0664039"><ele>205.0</ele><time>2026-04-19T13:30:59.48Z</time></trkpt><trkpt lat="45.0292246" lon="8.0663769"><ele>205.0</ele><time>2026-04-19T13:31:00.479Z</time></trkpt><trkpt lat="45.0291373" lon="8.0663442"><ele>205.0</ele><time>2026-04-19T13:31:01.479Z</time></trkpt><trkpt lat="45.0290487" lon="8.0663166"><ele>205.0</ele><time>2026-04-19T13:31:02.48Z</time></trkpt><trkpt lat="45.0289532" lon="8.0662917"><ele>204.8</ele><time>2026-04-19T13:31:03.48Z</time></trkpt><trkpt lat="45.0288647" lon="8.0662667"><ele>204.6</ele><time>2026-04-19T13:31:04.479Z</time></trkpt><trkpt lat="45.0287612" lon="8.0662325"><ele>204.39999999999998</ele><time>2026-04-19T13:31:05.479Z</time></trkpt><trkpt lat="45.0286595" lon="8.0662017"><ele>204.2</ele><time>2026-04-19T13:31:06.48Z</time></trkpt><trkpt lat="45.0285488" lon="8.0661724"><ele>204.0</ele><time>2026-04-19T13:31:07.479Z</time></trkpt><trkpt lat="45.0284405" lon="8.066141"><ele>204.0</ele><time>2026-04-19T13:31:08.479Z</time></trkpt><trkpt lat="45.0283169" lon="8.0661119"><ele>204.0</ele><time>2026-04-19T13:31:09.48Z</time></trkpt><trkpt lat="45.0281885" lon="8.0660826"><ele>204.0</ele><time>2026-04-19T13:31:10.48Z</time></trkpt><trkpt lat="45.0280635" lon="8.0660518"><ele>204.0</ele><time>2026-04-19T13:31:11.48Z</time></trkpt><trkpt lat="45.0279427" lon="8.0660247"><ele>203.75</ele><time>2026-04-19T13:31:12.48Z</time></trkpt><trkpt lat="45.0278147" lon="8.0659775"><ele>203.5</ele><time>2026-04-19T13:31:13.479Z</time></trkpt><trkpt lat="45.0276748" lon="8.065928"><ele>203.25</ele><time>2026-04-19T13:31:14.479Z</time></trkpt><trkpt lat="45.027592" lon="8.0659157"><ele>203.0</ele><time>2026-04-19T13:31:15.48Z</time></trkpt><trkpt lat="45.0274954" lon="8.0659049"><ele>203.5</ele><time>2026-04-19T13:31:16.479Z</time></trkpt><trkpt lat="45.0273949" lon="8.0659255"><ele>204.0</ele><time>2026-04-19T13:31:17.479Z</time></trkpt><trkpt lat="45.0272875" lon="8.0659559"><ele>204.5</ele><time>2026-04-19T13:31:18.479Z</time></trkpt><trkpt lat="45.0271592" lon="8.0659826"><ele>205.0</ele><time>2026-04-19T13:31:19.479Z</time></trkpt><trkpt lat="45.0270366" lon="8.066046"><ele>205.0</ele><time>2026-04-19T13:31:20.479Z</time></trkpt><trkpt lat="45.0269052" lon="8.0660872"><ele>205.0</ele><time>2026-04-19T13:31:21.479Z</time></trkpt><trkpt lat="45.0267727" lon="8.0661329"><ele>205.0</ele><time>2026-04-19T13:31:22.479Z</time></trkpt><trkpt lat="45.0266265" lon="8.0661889"><ele>205.0</ele><time>2026-04-19T13:31:23.479Z</time></trkpt><trkpt lat="45.0264884" lon="8.0662209"><ele>204.75</ele><time>2026-04-19T13:31:24.48Z</time></trkpt><trkpt lat="45.0263573" lon="8.0662549"><ele>204.5</ele><time>2026-04-19T13:31:25.479Z</time></trkpt><trkpt lat="45.0262321" lon="8.0662935"><ele>204.25</ele><time>2026-04-19T13:31:26.48Z</time></trkpt><trkpt lat="45.0261055" lon="8.0663502"><ele>204.0</ele><time>2026-04-19T13:31:27.48Z</time></trkpt><trkpt lat="45.0259983" lon="8.06639"><ele>204.0</ele><time>2026-04-19T13:31:28.479Z</time></trkpt><trkpt lat="45.0258728" lon="8.0664272"><ele>204.0</ele><time>2026-04-19T13:31:29.479Z</time></trkpt><trkpt lat="45.0257886" lon="8.0664137"><ele>204.0</ele><time>2026-04-19T13:31:30.479Z</time></trkpt><trkpt lat="45.0256756" lon="8.0664225"><ele>204.0</ele><time>2026-04-19T13:31:31.479Z</time></trkpt><trkpt lat="45.0255685" lon="8.066434"><ele>204.0</ele><time>2026-04-19T13:31:32.48Z</time></trkpt><trkpt lat="45.0255202" lon="8.0663403"><ele>203.5</ele><time>2026-04-19T13:31:34.479Z</time></trkpt><trkpt lat="45.0254194" lon="8.0663465"><ele>203.0</ele><time>2026-04-19T13:31:36.48Z</time></trkpt><trkpt lat="45.0252824" lon="8.0664635"><ele>202.5</ele><time>2026-04-19T13:31:38.48Z</time></trkpt><trkpt lat="45.0252077" lon="8.0665442"><ele>202.0</ele><time>2026-04-19T13:31:39.479Z</time></trkpt><trkpt lat="45.0250881" lon="8.0666623"><ele>204.0</ele><time>2026-04-19T13:31:40.479Z</time></trkpt><trkpt lat="45.0249748" lon="8.0667647"><ele>206.0</ele><time>2026-04-19T13:31:41.479Z</time></trkpt><trkpt lat="45.0248595" lon="8.0668623"><ele>208.0</ele><time>2026-04-19T13:31:42.48Z</time></trkpt><trkpt lat="45.024735" lon="8.0669519"><ele>210.0</ele><time>2026-04-19T13:31:43.479Z</time></trkpt><trkpt lat="45.0246059" lon="8.0670517"><ele>210.0</ele><time>2026-04-19T13:31:44.479Z</time></trkpt><trkpt lat="45.0244283" lon="8.0671629"><ele>210.0</ele><time>2026-04-19T13:31:45.479Z</time></trkpt><trkpt lat="45.0242663" lon="8.0672544"><ele>210.0</ele><time>2026-04-19T13:31:46.48Z</time></trkpt><trkpt lat="45.0241093" lon="8.0673468"><ele>209.0</ele><time>2026-04-19T13:31:47.479Z</time></trkpt><trkpt lat="45.0239444" lon="8.067436"><ele>208.0</ele><time>2026-04-19T13:31:48.479Z</time></trkpt><trkpt lat="45.0237673" lon="8.0675095"><ele>207.0</ele><time>2026-04-19T13:31:49.479Z</time></trkpt><trkpt lat="45.0235959" lon="8.0675681"><ele>206.33333333333331</ele><time>2026-04-19T13:31:50.479Z</time></trkpt><trkpt lat="45.0234059" lon="8.0676362"><ele>205.66666666666666</ele><time>2026-04-19T13:31:51.48Z</time></trkpt><trkpt lat="45.0232176" lon="8.0676995"><ele>205.0</ele><time>2026-04-19T13:31:52.479Z</time></trkpt><trkpt lat="45.0230358" lon="8.0677231"><ele>204.66666666666666</ele><time>2026-04-19T13:31:53.479Z</time></trkpt><trkpt lat="45.0228609" lon="8.0677434"><ele>204.33333333333331</ele><time>2026-04-19T13:31:54.479Z</time></trkpt><trkpt lat="45.022671" lon="8.0677711"><ele>204.0</ele><time>2026-04-19T13:31:55.479Z</time></trkpt><trkpt lat="45.0224901" lon="8.067802"><ele>203.33333333333331</ele><time>2026-04-19T13:31:56.479Z</time></trkpt><trkpt lat="45.0223136" lon="8.0677904"><ele>202.66666666666666</ele><time>2026-04-19T13:31:57.479Z</time></trkpt><trkpt lat="45.0221359" lon="8.0677692"><ele>202.0</ele><time>2026-04-19T13:31:58.479Z</time></trkpt><trkpt lat="45.0219557" lon="8.0677187"><ele>202.0</ele><time>2026-04-19T13:31:59.48Z</time></trkpt><trkpt lat="45.021772" lon="8.0676807"><ele>202.0</ele><time>2026-04-19T13:32:00.48Z</time></trkpt><trkpt lat="45.0215766" lon="8.0676364"><ele>202.0</ele><time>2026-04-19T13:32:01.479Z</time></trkpt><trkpt lat="45.0213968" lon="8.0675516"><ele>201.66666666666666</ele><time>2026-04-19T13:32:02.479Z</time></trkpt><trkpt lat="45.0212257" lon="8.0674665"><ele>201.33333333333331</ele><time>2026-04-19T13:32:03.479Z</time></trkpt><trkpt lat="45.0210362" lon="8.0674091"><ele>201.0</ele><time>2026-04-19T13:32:04.479Z</time></trkpt><trkpt lat="45.02087" lon="8.0673178"><ele>201.33333333333331</ele><time>2026-04-19T13:32:05.479Z</time></trkpt><trkpt lat="45.020692" lon="8.0671978"><ele>201.66666666666666</ele><time>2026-04-19T13:32:06.479Z</time></trkpt><trkpt lat="45.0205272" lon="8.0670839"><ele>202.0</ele><time>2026-04-19T13:32:07.479Z</time></trkpt><trkpt lat="45.0203655" lon="8.0669505"><ele>202.0</ele><time>2026-04-19T13:32:08.479Z</time></trkpt><trkpt lat="45.020201" lon="8.0668042"><ele>202.0</ele><time>2026-04-19T13:32:09.48Z</time></trkpt><trkpt lat="45.0200328" lon="8.0666436"><ele>202.0</ele><time>2026-04-19T13:32:10.479Z</time></trkpt><trkpt lat="45.019871" lon="8.0664994"><ele>200.33333333333331</ele><time>2026-04-19T13:32:11.479Z</time></trkpt><trkpt lat="45.0197116" lon="8.0663527"><ele>198.66666666666669</ele><time>2026-04-19T13:32:12.48Z</time></trkpt><trkpt lat="45.0195556" lon="8.0662141"><ele>197.0</ele><time>2026-04-19T13:32:13.479Z</time></trkpt><trkpt lat="45.0194019" lon="8.0660797"><ele>197.0</ele><time>2026-04-19T13:32:14.479Z</time></trkpt><trkpt lat="45.0192475" lon="8.0659571"><ele>197.0</ele><time>2026-04-19T13:32:15.479Z</time></trkpt><trkpt lat="45.0191039" lon="8.0658518"><ele>197.0</ele><time>2026-04-19T13:32:16.479Z</time></trkpt><trkpt lat="45.0189539" lon="8.0657589"><ele>198.33333333333334</ele><time>2026-04-19T13:32:17.479Z</time></trkpt><trkpt lat="45.0187998" lon="8.0657059"><ele>199.66666666666669</ele><time>2026-04-19T13:32:18.479Z</time></trkpt><trkpt lat="45.0186468" lon="8.0656563"><ele>201.0</ele><time>2026-04-19T13:32:19.48Z</time></trkpt><trkpt lat="45.0184954" lon="8.0656076"><ele>201.0</ele><time>2026-04-19T13:32:20.479Z</time></trkpt><trkpt lat="45.0183969" lon="8.0655716"><ele>201.0</ele><time>2026-04-19T13:32:21.48Z</time></trkpt><trkpt lat="45.0182989" lon="8.0655122"><ele>201.0</ele><time>2026-04-19T13:32:22.48Z</time></trkpt><trkpt lat="45.0181957" lon="8.0654547"><ele>201.0</ele><time>2026-04-19T13:32:23.48Z</time></trkpt><trkpt lat="45.0181103" lon="8.0653456"><ele>201.0</ele><time>2026-04-19T13:32:24.479Z</time></trkpt><trkpt lat="45.0180765" lon="8.0651634"><ele>200.5</ele><time>2026-04-19T13:32:25.48Z</time></trkpt><trkpt lat="45.0180357" lon="8.0649852"><ele>200.0</ele><time>2026-04-19T13:32:26.48Z</time></trkpt><trkpt lat="45.0179997" lon="8.0647858"><ele>199.5</ele><time>2026-04-19T13:32:27.48Z</time></trkpt><trkpt lat="45.0179636" lon="8.0645913"><ele>199.0</ele><time>2026-04-19T13:32:28.48Z</time></trkpt><trkpt lat="45.0179211" lon="8.0643542"><ele>199.0</ele><time>2026-04-19T13:32:29.479Z</time></trkpt><trkpt lat="45.0178762" lon="8.0641305"><ele>199.0</ele><time>2026-04-19T13:32:30.48Z</time></trkpt><trkpt lat="45.0178222" lon="8.0639182"><ele>199.0</ele><time>2026-04-19T13:32:31.48Z</time></trkpt><trkpt lat="45.0177688" lon="8.0637254"><ele>199.33333333333331</ele><time>2026-04-19T13:32:32.48Z</time></trkpt><trkpt lat="45.0176478" lon="8.0635366"><ele>199.66666666666669</ele><time>2026-04-19T13:32:33.479Z</time></trkpt><trkpt lat="45.0175575" lon="8.0633554"><ele>200.0</ele><time>2026-04-19T13:32:34.479Z</time></trkpt><trkpt lat="45.0174288" lon="8.063206"><ele>200.0</ele><time>2026-04-19T13:32:35.48Z</time></trkpt><trkpt lat="45.0173271" lon="8.0630952"><ele>200.0</ele><time>2026-04-19T13:32:36.48Z</time></trkpt><trkpt lat="45.0171064" lon="8.0630342"><ele>200.0</ele><time>2026-04-19T13:32:37.48Z</time></trkpt><trkpt lat="45.0169397" lon="8.0629735"><ele>200.0</ele><time>2026-04-19T13:32:38.479Z</time></trkpt><trkpt lat="45.0167641" lon="8.0629457"><ele>200.0</ele><time>2026-04-19T13:32:39.479Z</time></trkpt><trkpt lat="45.0165919" lon="8.0629234"><ele>200.0</ele><time>2026-04-19T13:32:40.479Z</time></trkpt><trkpt lat="45.0164036" lon="8.0629055"><ele>200.33333333333334</ele><time>2026-04-19T13:32:41.479Z</time></trkpt><trkpt lat="45.016212" lon="8.0628907"><ele>200.66666666666669</ele><time>2026-04-19T13:32:42.479Z</time></trkpt><trkpt lat="45.0160204" lon="8.0628734"><ele>201.0</ele><time>2026-04-19T13:32:43.479Z</time></trkpt><trkpt lat="45.0158282" lon="8.0628567"><ele>201.33333333333331</ele><time>2026-04-19T13:32:44.479Z</time></trkpt><trkpt lat="45.0156242" lon="8.0628394"><ele>201.66666666666666</ele><time>2026-04-19T13:32:45.48Z</time></trkpt><trkpt lat="45.0154193" lon="8.0628214"><ele>202.0</ele><time>2026-04-19T13:32:46.48Z</time></trkpt><trkpt lat="45.0152165" lon="8.0627966"><ele>202.0</ele><time>2026-04-19T13:32:47.48Z</time></trkpt><trkpt lat="45.0150011" lon="8.0627699"><ele>202.0</ele><time>2026-04-19T13:32:48.48Z</time></trkpt><trkpt lat="45.0147918" lon="8.0627335"><ele>202.0</ele><time>2026-04-19T13:32:49.479Z</time></trkpt><trkpt lat="45.014588" lon="8.0626859"><ele>201.0</ele><time>2026-04-19T13:32:50.479Z</time></trkpt><trkpt lat="45.0143744" lon="8.0626338"><ele>200.0</ele><time>2026-04-19T13:32:51.479Z</time></trkpt><trkpt lat="45.0141697" lon="8.0625855"><ele>199.0</ele><time>2026-04-19T13:32:52.479Z</time></trkpt><trkpt lat="45.0139442" lon="8.0625263"><ele>198.66666666666666</ele><time>2026-04-19T13:32:53.479Z</time></trkpt><trkpt lat="45.0137311" lon="8.0624672"><ele>198.33333333333331</ele><time>2026-04-19T13:32:54.479Z</time></trkpt><trkpt lat="45.0135196" lon="8.0624132"><ele>198.0</ele><time>2026-04-19T13:32:55.479Z</time></trkpt><trkpt lat="45.013303" lon="8.0623594"><ele>203.33333333333331</ele><time>2026-04-19T13:32:56.48Z</time></trkpt><trkpt lat="45.0130854" lon="8.0623097"><ele>208.66666666666666</ele><time>2026-04-19T13:32:57.48Z</time></trkpt><trkpt lat="45.0128694" lon="8.0622591"><ele>214.0</ele><time>2026-04-19T13:32:58.479Z</time></trkpt><trkpt lat="45.0126568" lon="8.0622057"><ele>211.66666666666666</ele><time>2026-04-19T13:32:59.479Z</time></trkpt><trkpt lat="45.0124411" lon="8.0621463"><ele>209.33333333333331</ele><time>2026-04-19T13:33:00.479Z</time></trkpt><trkpt lat="45.0122289" lon="8.0621007"><ele>207.0</ele><time>2026-04-19T13:33:01.479Z</time></trkpt><trkpt lat="45.0120205" lon="8.0620515"><ele>207.0</ele><time>2026-04-19T13:33:02.479Z</time></trkpt><trkpt lat="45.0118108" lon="8.0619915"><ele>207.0</ele><time>2026-04-19T13:33:03.48Z</time></trkpt><trkpt lat="45.0115947" lon="8.0619362"><ele>207.0</ele><time>2026-04-19T13:33:04.479Z</time></trkpt><trkpt lat="45.0113806" lon="8.0618662"><ele>204.66666666666669</ele><time>2026-04-19T13:33:05.48Z</time></trkpt><trkpt lat="45.0111651" lon="8.0617866"><ele>202.33333333333334</ele><time>2026-04-19T13:33:06.479Z</time></trkpt><trkpt lat="45.0109509" lon="8.061707"><ele>200.0</ele><time>2026-04-19T13:33:07.479Z</time></trkpt><trkpt lat="45.0107343" lon="8.0616257"><ele>201.33333333333334</ele><time>2026-04-19T13:33:08.479Z</time></trkpt><trkpt lat="45.0105184" lon="8.0615592"><ele>202.66666666666669</ele><time>2026-04-19T13:33:09.479Z</time></trkpt><trkpt lat="45.0103029" lon="8.0614807"><ele>204.0</ele><time>2026-04-19T13:33:10.479Z</time></trkpt><trkpt lat="45.0100834" lon="8.0614053"><ele>201.33333333333331</ele><time>2026-04-19T13:33:11.479Z</time></trkpt><trkpt lat="45.0098698" lon="8.0613294"><ele>198.66666666666666</ele><time>2026-04-19T13:33:12.479Z</time></trkpt><trkpt lat="45.009662" lon="8.0612561"><ele>196.0</ele><time>2026-04-19T13:33:13.48Z</time></trkpt><trkpt lat="45.0094537" lon="8.0611959"><ele>196.0</ele><time>2026-04-19T13:33:14.48Z</time></trkpt><trkpt lat="45.0092483" lon="8.0611574"><ele>196.0</ele><time>2026-04-19T13:33:15.479Z</time></trkpt><trkpt lat="45.0090421" lon="8.0611096"><ele>196.0</ele><time>2026-04-19T13:33:16.479Z</time></trkpt><trkpt lat="45.0088318" lon="8.0611272"><ele>197.0</ele><time>2026-04-19T13:33:17.48Z</time></trkpt><trkpt lat="45.0086176" lon="8.0611851"><ele>198.0</ele><time>2026-04-19T13:33:18.479Z</time></trkpt><trkpt lat="45.0083993" lon="8.0612186"><ele>199.0</ele><time>2026-04-19T13:33:19.479Z</time></trkpt><trkpt lat="45.008183" lon="8.0612558"><ele>199.0</ele><time>2026-04-19T13:33:20.48Z</time></trkpt><trkpt lat="45.0079696" lon="8.0612881"><ele>199.0</ele><time>2026-04-19T13:33:21.479Z</time></trkpt><trkpt lat="45.0077486" lon="8.0613006"><ele>199.0</ele><time>2026-04-19T13:33:22.479Z</time></trkpt><trkpt lat="45.0075225" lon="8.0613276"><ele>198.33333333333331</ele><time>2026-04-19T13:33:23.479Z</time></trkpt><trkpt lat="45.0073182" lon="8.061282"><ele>197.66666666666669</ele><time>2026-04-19T13:33:24.479Z</time></trkpt><trkpt lat="45.0071447" lon="8.061165"><ele>197.0</ele><time>2026-04-19T13:33:25.479Z</time></trkpt><trkpt lat="45.0069521" lon="8.0610918"><ele>197.0</ele><time>2026-04-19T13:33:26.48Z</time></trkpt><trkpt lat="45.0067525" lon="8.0610475"><ele>197.0</ele><time>2026-04-19T13:33:27.48Z</time></trkpt><trkpt lat="45.0065591" lon="8.0609994"><ele>197.0</ele><time>2026-04-19T13:33:28.479Z</time></trkpt><trkpt lat="45.0063584" lon="8.0610705"><ele>197.33333333333334</ele><time>2026-04-19T13:33:29.48Z</time></trkpt><trkpt lat="45.0061645" lon="8.0611218"><ele>197.66666666666669</ele><time>2026-04-19T13:33:30.479Z</time></trkpt><trkpt lat="45.0059566" lon="8.0611748"><ele>198.0</ele><time>2026-04-19T13:33:31.479Z</time></trkpt><trkpt lat="45.0057569" lon="8.0612392"><ele>198.0</ele><time>2026-04-19T13:33:32.48Z</time></trkpt><trkpt lat="45.0055694" lon="8.0612974"><ele>198.0</ele><time>2026-04-19T13:33:33.48Z</time></trkpt><trkpt lat="45.0053841" lon="8.0613487"><ele>198.0</ele><time>2026-04-19T13:33:34.48Z</time></trkpt><trkpt lat="45.0052063" lon="8.0613952"><ele>198.0</ele><time>2026-04-19T13:33:35.48Z</time></trkpt><trkpt lat="45.0050307" lon="8.061428"><ele>198.0</ele><time>2026-04-19T13:33:36.479Z</time></trkpt><trkpt lat="45.0048488" lon="8.0614364"><ele>198.0</ele><time>2026-04-19T13:33:37.48Z</time></trkpt><trkpt lat="45.004659" lon="8.06142"><ele>198.0</ele><time>2026-04-19T13:33:38.479Z</time></trkpt><trkpt lat="45.0044726" lon="8.0613899"><ele>198.0</ele><time>2026-04-19T13:33:39.48Z</time></trkpt><trkpt lat="45.0042841" lon="8.0613405"><ele>198.0</ele><time>2026-04-19T13:33:40.48Z</time></trkpt><trkpt lat="45.0040946" lon="8.0613123"><ele>198.0</ele><time>2026-04-19T13:33:41.479Z</time></trkpt><trkpt lat="45.0039028" lon="8.0612101"><ele>198.0</ele><time>2026-04-19T13:33:42.48Z</time></trkpt><trkpt lat="45.0037169" lon="8.0611252"><ele>198.0</ele><time>2026-04-19T13:33:43.479Z</time></trkpt><trkpt lat="45.0035324" lon="8.0610346"><ele>198.0</ele><time>2026-04-19T13:33:44.479Z</time></trkpt><trkpt lat="45.0033364" lon="8.0609344"><ele>198.0</ele><time>2026-04-19T13:33:45.479Z</time></trkpt><trkpt lat="45.0031472" lon="8.0608328"><ele>198.0</ele><time>2026-04-19T13:33:46.479Z</time></trkpt><trkpt lat="45.0029503" lon="8.0607436"><ele>196.66666666666669</ele><time>2026-04-19T13:33:47.48Z</time></trkpt><trkpt lat="45.0027646" lon="8.0606417"><ele>195.33333333333334</ele><time>2026-04-19T13:33:48.479Z</time></trkpt><trkpt lat="45.0025727" lon="8.0605398"><ele>194.0</ele><time>2026-04-19T13:33:49.479Z</time></trkpt><trkpt lat="45.002386" lon="8.0604341"><ele>194.0</ele><time>2026-04-19T13:33:50.479Z</time></trkpt><trkpt lat="45.0021925" lon="8.0603371"><ele>194.0</ele><time>2026-04-19T13:33:51.479Z</time></trkpt><trkpt lat="45.0020028" lon="8.0602431"><ele>194.0</ele><time>2026-04-19T13:33:52.479Z</time></trkpt><trkpt lat="45.0018161" lon="8.0601507"><ele>194.33333333333334</ele><time>2026-04-19T13:33:53.479Z</time></trkpt><trkpt lat="45.0016452" lon="8.0600634"><ele>194.66666666666669</ele><time>2026-04-19T13:33:54.48Z</time></trkpt><trkpt lat="45.0014598" lon="8.0599737"><ele>195.0</ele><time>2026-04-19T13:33:55.48Z</time></trkpt><trkpt lat="45.0012952" lon="8.0598638"><ele>195.33333333333331</ele><time>2026-04-19T13:33:56.479Z</time></trkpt><trkpt lat="45.0011258" lon="8.0597729"><ele>195.66666666666666</ele><time>2026-04-19T13:33:57.479Z</time></trkpt><trkpt lat="45.0009497" lon="8.0597047"><ele>196.0</ele><time>2026-04-19T13:33:58.48Z</time></trkpt><trkpt lat="45.0007687" lon="8.0596532"><ele>198.66666666666666</ele><time>2026-04-19T13:33:59.479Z</time></trkpt><trkpt lat="45.0005874" lon="8.0596194"><ele>201.33333333333331</ele><time>2026-04-19T13:34:00.479Z</time></trkpt><trkpt lat="45.0004082" lon="8.0596034"><ele>204.0</ele><time>2026-04-19T13:34:01.479Z</time></trkpt><trkpt lat="45.0002241" lon="8.0595959"><ele>204.0</ele><time>2026-04-19T13:34:02.479Z</time></trkpt><trkpt lat="45.0000454" lon="8.0595928"><ele>204.0</ele><time>2026-04-19T13:34:03.48Z</time></trkpt><trkpt lat="44.9998653" lon="8.0596405"><ele>204.0</ele><time>2026-04-19T13:34:04.479Z</time></trkpt><trkpt lat="44.9996839" lon="8.0596928"><ele>204.0</ele><time>2026-04-19T13:34:05.48Z</time></trkpt><trkpt lat="44.9995397" lon="8.0597002"><ele>204.0</ele><time>2026-04-19T13:34:06.479Z</time></trkpt><trkpt lat="44.9993495" lon="8.0597354"><ele>204.0</ele><time>2026-04-19T13:34:07.479Z</time></trkpt><trkpt lat="44.9991609" lon="8.0597525"><ele>202.0</ele><time>2026-04-19T13:34:08.479Z</time></trkpt><trkpt lat="44.9989591" lon="8.0597892"><ele>200.0</ele><time>2026-04-19T13:34:09.48Z</time></trkpt><trkpt lat="44.998795" lon="8.0598051"><ele>198.0</ele><time>2026-04-19T13:34:10.48Z</time></trkpt><trkpt lat="44.9986939" lon="8.0598336"><ele>198.0</ele><time>2026-04-19T13:34:11.479Z</time></trkpt><trkpt lat="44.9986072" lon="8.0598646"><ele>198.0</ele><time>2026-04-19T13:34:12.479Z</time></trkpt><trkpt lat="44.9984837" lon="8.0598798"><ele>198.0</ele><time>2026-04-19T13:34:13.479Z</time></trkpt><trkpt lat="44.9983999" lon="8.0598674"><ele>198.0</ele><time>2026-04-19T13:34:14.48Z</time></trkpt><trkpt lat="44.9983265" lon="8.0598187"><ele>198.0</ele><time>2026-04-19T13:34:15.48Z</time></trkpt><trkpt lat="44.9982569" lon="8.0597513"><ele>196.5</ele><time>2026-04-19T13:34:16.479Z</time></trkpt><trkpt lat="44.9982271" lon="8.0596246"><ele>195.0</ele><time>2026-04-19T13:34:17.479Z</time></trkpt><trkpt lat="44.9982551" lon="8.0594655"><ele>193.5</ele><time>2026-04-19T13:34:18.48Z</time></trkpt><trkpt lat="44.9982849" lon="8.0593035"><ele>192.0</ele><time>2026-04-19T13:34:19.48Z</time></trkpt><trkpt lat="44.9983051" lon="8.0591251"><ele>193.0</ele><time>2026-04-19T13:34:20.48Z</time></trkpt><trkpt lat="44.9983247" lon="8.0589236"><ele>194.0</ele><time>2026-04-19T13:34:21.48Z</time></trkpt><trkpt lat="44.9983263" lon="8.0587361"><ele>195.0</ele><time>2026-04-19T13:34:22.479Z</time></trkpt><trkpt lat="44.9982973" lon="8.0585257"><ele>196.0</ele><time>2026-04-19T13:34:23.479Z</time></trkpt><trkpt lat="44.9982767" lon="8.0583133"><ele>197.66666666666666</ele><time>2026-04-19T13:34:24.479Z</time></trkpt><trkpt lat="44.9982561" lon="8.0581008"><ele>199.33333333333331</ele><time>2026-04-19T13:34:25.479Z</time></trkpt><trkpt lat="44.9982538" lon="8.0578782"><ele>201.0</ele><time>2026-04-19T13:34:26.479Z</time></trkpt><trkpt lat="44.9982754" lon="8.0576689"><ele>201.0</ele><time>2026-04-19T13:34:27.479Z</time></trkpt><trkpt lat="44.9983285" lon="8.0574674"><ele>201.0</ele><time>2026-04-19T13:34:28.479Z</time></trkpt><trkpt lat="44.9984042" lon="8.057286"><ele>201.0</ele><time>2026-04-19T13:34:29.479Z</time></trkpt><trkpt lat="44.9984776" lon="8.057095"><ele>208.33333333333331</ele><time>2026-04-19T13:34:30.479Z</time></trkpt><trkpt lat="44.9985512" lon="8.0568981"><ele>215.66666666666666</ele><time>2026-04-19T13:34:31.479Z</time></trkpt><trkpt lat="44.9986448" lon="8.0566896"><ele>223.0</ele><time>2026-04-19T13:34:32.479Z</time></trkpt><trkpt lat="44.9987195" lon="8.0564935"><ele>223.0</ele><time>2026-04-19T13:34:33.479Z</time></trkpt><trkpt lat="44.9988" lon="8.0562887"><ele>223.0</ele><time>2026-04-19T13:34:34.479Z</time></trkpt><trkpt lat="44.998885" lon="8.056081"><ele>223.0</ele><time>2026-04-19T13:34:35.479Z</time></trkpt><trkpt lat="44.9989557" lon="8.0558829"><ele>221.0</ele><time>2026-04-19T13:34:36.479Z</time></trkpt><trkpt lat="44.9990592" lon="8.0556966"><ele>219.0</ele><time>2026-04-19T13:34:37.479Z</time></trkpt><trkpt lat="44.9991554" lon="8.0555117"><ele>217.0</ele><time>2026-04-19T13:34:38.48Z</time></trkpt><trkpt lat="44.9992743" lon="8.0553644"><ele>221.0</ele><time>2026-04-19T13:34:39.48Z</time></trkpt><trkpt lat="44.9993872" lon="8.0552097"><ele>225.0</ele><time>2026-04-19T13:34:40.479Z</time></trkpt><trkpt lat="44.9995099" lon="8.0550912"><ele>229.0</ele><time>2026-04-19T13:34:41.48Z</time></trkpt><trkpt lat="44.9996358" lon="8.0549788"><ele>228.39999999999998</ele><time>2026-04-19T13:34:42.48Z</time></trkpt><trkpt lat="44.9997348" lon="8.0548489"><ele>227.79999999999998</ele><time>2026-04-19T13:34:43.479Z</time></trkpt><trkpt lat="44.9998022" lon="8.0547566"><ele>227.20000000000002</ele><time>2026-04-19T13:34:44.479Z</time></trkpt><trkpt lat="44.9998549" lon="8.0546476"><ele>226.60000000000002</ele><time>2026-04-19T13:34:45.48Z</time></trkpt><trkpt lat="44.9998772" lon="8.0545274"><ele>226.0</ele><time>2026-04-19T13:34:46.479Z</time></trkpt><trkpt lat="44.9998592" lon="8.0544038"><ele>226.0</ele><time>2026-04-19T13:34:47.48Z</time></trkpt><trkpt lat="44.9998166" lon="8.0542862"><ele>226.0</ele><time>2026-04-19T13:34:48.48Z</time></trkpt><trkpt lat="44.9997452" lon="8.0541951"><ele>226.0</ele><time>2026-04-19T13:34:49.479Z</time></trkpt><trkpt lat="44.9996056" lon="8.05408"><ele>226.0</ele><time>2026-04-19T13:34:50.479Z</time></trkpt><trkpt lat="44.999487" lon="8.0539882"><ele>228.0</ele><time>2026-04-19T13:34:51.479Z</time></trkpt><trkpt lat="44.9993714" lon="8.0538818"><ele>230.0</ele><time>2026-04-19T13:34:52.48Z</time></trkpt><trkpt lat="44.9992564" lon="8.0537713"><ele>232.0</ele><time>2026-04-19T13:34:53.48Z</time></trkpt><trkpt lat="44.9991511" lon="8.0536358"><ele>234.0</ele><time>2026-04-19T13:34:54.479Z</time></trkpt><trkpt lat="44.9990408" lon="8.0536098"><ele>235.79999999999998</ele><time>2026-04-19T13:34:55.479Z</time></trkpt><trkpt lat="44.998931" lon="8.0536012"><ele>237.59999999999997</ele><time>2026-04-19T13:34:56.479Z</time></trkpt><trkpt lat="44.998831" lon="8.0536303"><ele>239.4</ele><time>2026-04-19T13:34:57.48Z</time></trkpt><trkpt lat="44.9987324" lon="8.0536947"><ele>241.2</ele><time>2026-04-19T13:34:58.479Z</time></trkpt><trkpt lat="44.9986305" lon="8.0537546"><ele>243.0</ele><time>2026-04-19T13:34:59.48Z</time></trkpt><trkpt lat="44.9985296" lon="8.0537986"><ele>243.0</ele><time>2026-04-19T13:35:00.48Z</time></trkpt><trkpt lat="44.9984126" lon="8.0538047"><ele>243.0</ele><time>2026-04-19T13:35:01.479Z</time></trkpt><trkpt lat="44.9982948" lon="8.053834"><ele>243.0</ele><time>2026-04-19T13:35:02.479Z</time></trkpt><trkpt lat="44.9981685" lon="8.0538363"><ele>243.0</ele><time>2026-04-19T13:35:03.479Z</time></trkpt><trkpt lat="44.9980597" lon="8.0538173"><ele>244.0</ele><time>2026-04-19T13:35:04.48Z</time></trkpt><trkpt lat="44.9979117" lon="8.0538406"><ele>245.0</ele><time>2026-04-19T13:35:05.48Z</time></trkpt><trkpt lat="44.9977957" lon="8.0538418"><ele>246.0</ele><time>2026-04-19T13:35:06.479Z</time></trkpt><trkpt lat="44.9976869" lon="8.0538171"><ele>247.0</ele><time>2026-04-19T13:35:07.479Z</time></trkpt><trkpt lat="44.9975981" lon="8.0537982"><ele>247.0</ele><time>2026-04-19T13:35:08.479Z</time></trkpt><trkpt lat="44.9975255" lon="8.0537412"><ele>247.0</ele><time>2026-04-19T13:35:09.479Z</time></trkpt><trkpt lat="44.9974712" lon="8.053666"><ele>247.0</ele><time>2026-04-19T13:35:10.48Z</time></trkpt><trkpt lat="44.9975629" lon="8.0534218"><ele>247.0</ele><time>2026-04-19T13:35:11.48Z</time></trkpt><trkpt lat="44.9975853" lon="8.0532495"><ele>248.5</ele><time>2026-04-19T13:35:12.479Z</time></trkpt><trkpt lat="44.9975996" lon="8.0530752"><ele>250.0</ele><time>2026-04-19T13:35:13.479Z</time></trkpt><trkpt lat="44.9976134" lon="8.0528934"><ele>251.5</ele><time>2026-04-19T13:35:14.479Z</time></trkpt><trkpt lat="44.9976291" lon="8.0527179"><ele>253.0</ele><time>2026-04-19T13:35:15.479Z</time></trkpt><trkpt lat="44.9976477" lon="8.0525487"><ele>251.16666666666666</ele><time>2026-04-19T13:35:16.479Z</time></trkpt><trkpt lat="44.9976483" lon="8.0524035"><ele>249.33333333333331</ele><time>2026-04-19T13:35:17.48Z</time></trkpt><trkpt lat="44.997651" lon="8.0522864"><ele>247.5</ele><time>2026-04-19T13:35:18.48Z</time></trkpt><trkpt lat="44.9976688" lon="8.0521658"><ele>245.66666666666669</ele><time>2026-04-19T13:35:19.479Z</time></trkpt><trkpt lat="44.9977259" lon="8.0520926"><ele>243.83333333333334</ele><time>2026-04-19T13:35:20.479Z</time></trkpt><trkpt lat="44.9978122" lon="8.0520596"><ele>242.0</ele><time>2026-04-19T13:35:22.479Z</time></trkpt><trkpt lat="44.9978824" lon="8.052109"><ele>242.0</ele><time>2026-04-19T13:35:23.479Z</time></trkpt><trkpt lat="44.998051" lon="8.0522804"><ele>242.0</ele><time>2026-04-19T13:35:24.479Z</time></trkpt><trkpt lat="44.9981592" lon="8.0523546"><ele>242.0</ele><time>2026-04-19T13:35:25.479Z</time></trkpt><trkpt lat="44.9982685" lon="8.0523752"><ele>242.0</ele><time>2026-04-19T13:35:26.48Z</time></trkpt><trkpt lat="44.9984096" lon="8.0524179"><ele>245.39999999999998</ele><time>2026-04-19T13:35:27.479Z</time></trkpt><trkpt lat="44.9985148" lon="8.0524089"><ele>248.79999999999998</ele><time>2026-04-19T13:35:28.479Z</time></trkpt><trkpt lat="44.9986064" lon="8.0523714"><ele>252.2</ele><time>2026-04-19T13:35:29.479Z</time></trkpt><trkpt lat="44.9986691" lon="8.0522641"><ele>255.6</ele><time>2026-04-19T13:35:30.479Z</time></trkpt><trkpt lat="44.9987474" lon="8.0522095"><ele>259.0</ele><time>2026-04-19T13:35:31.479Z</time></trkpt><trkpt lat="44.9988228" lon="8.0520786"><ele>259.0</ele><time>2026-04-19T13:35:32.479Z</time></trkpt><trkpt lat="44.9988848" lon="8.0519472"><ele>259.0</ele><time>2026-04-19T13:35:33.479Z</time></trkpt><trkpt lat="44.9989497" lon="8.0518167"><ele>259.0</ele><time>2026-04-19T13:35:34.479Z</time></trkpt><trkpt lat="44.9989845" lon="8.0516742"><ele>259.0</ele><time>2026-04-19T13:35:35.479Z</time></trkpt><trkpt lat="44.9990117" lon="8.0515396"><ele>259.0</ele><time>2026-04-19T13:35:36.479Z</time></trkpt><trkpt lat="44.9990346" lon="8.0514118"><ele>257.8</ele><time>2026-04-19T13:35:37.479Z</time></trkpt><trkpt lat="44.999056" lon="8.0513067"><ele>256.59999999999997</ele><time>2026-04-19T13:35:38.479Z</time></trkpt><trkpt lat="44.9990841" lon="8.0511675"><ele>255.4</ele><time>2026-04-19T13:35:40.479Z</time></trkpt><trkpt lat="44.9991159" lon="8.0510765"><ele>254.2</ele><time>2026-04-19T13:35:42.48Z</time></trkpt><trkpt lat="44.9992761" lon="8.0510768"><ele>253.0</ele><time>2026-04-19T13:35:44.48Z</time></trkpt><trkpt lat="44.9993618" lon="8.0510712"><ele>253.0</ele><time>2026-04-19T13:35:45.479Z</time></trkpt><trkpt lat="44.9994409" lon="8.0510456"><ele>253.0</ele><time>2026-04-19T13:35:46.479Z</time></trkpt><trkpt lat="44.9995267" lon="8.0510495"><ele>253.0</ele><time>2026-04-19T13:35:47.479Z</time></trkpt><trkpt lat="44.9996561" lon="8.0510199"><ele>253.0</ele><time>2026-04-19T13:35:49.48Z</time></trkpt><trkpt lat="44.9997495" lon="8.0510054"><ele>253.0</ele><time>2026-04-19T13:35:50.479Z</time></trkpt><trkpt lat="44.9998876" lon="8.0509443"><ele>253.0</ele><time>2026-04-19T13:35:51.479Z</time></trkpt><trkpt lat="44.9999854" lon="8.0509108"><ele>253.0</ele><time>2026-04-19T13:35:52.479Z</time></trkpt><trkpt lat="45.0001274" lon="8.0508359"><ele>253.0</ele><time>2026-04-19T13:35:53.479Z</time></trkpt><trkpt lat="45.0002338" lon="8.0507494"><ele>253.0</ele><time>2026-04-19T13:35:54.48Z</time></trkpt><trkpt lat="45.0003171" lon="8.0506568"><ele>251.4</ele><time>2026-04-19T13:35:55.48Z</time></trkpt><trkpt lat="45.0004073" lon="8.050579"><ele>249.8</ele><time>2026-04-19T13:35:56.479Z</time></trkpt><trkpt lat="45.0004959" lon="8.0505202"><ele>248.2</ele><time>2026-04-19T13:35:57.48Z</time></trkpt><trkpt lat="45.0005838" lon="8.0504718"><ele>246.6</ele><time>2026-04-19T13:35:58.479Z</time></trkpt><trkpt lat="45.0006605" lon="8.0504029"><ele>245.0</ele><time>2026-04-19T13:35:59.479Z</time></trkpt><trkpt lat="45.0006874" lon="8.050299"><ele>245.00000000000003</ele><time>2026-04-19T13:36:00.479Z</time></trkpt><trkpt lat="45.0007138" lon="8.0502155"><ele>245.0</ele><time>2026-04-19T13:36:01.479Z</time></trkpt><trkpt lat="45.0007509" lon="8.0501287"><ele>245.0</ele><time>2026-04-19T13:36:02.479Z</time></trkpt><trkpt lat="45.0007839" lon="8.0500287"><ele>245.0</ele><time>2026-04-19T13:36:03.479Z</time></trkpt><trkpt lat="45.0008089" lon="8.0499262"><ele>245.00000000000003</ele><time>2026-04-19T13:36:04.479Z</time></trkpt><trkpt lat="45.0008533" lon="8.0498392"><ele>245.0</ele><time>2026-04-19T13:36:05.479Z</time></trkpt><trkpt lat="45.0009169" lon="8.0497548"><ele>245.2</ele><time>2026-04-19T13:36:06.479Z</time></trkpt><trkpt lat="45.0009996" lon="8.0497814"><ele>245.4</ele><time>2026-04-19T13:36:08.479Z</time></trkpt><trkpt lat="45.0010878" lon="8.0498217"><ele>245.60000000000002</ele><time>2026-04-19T13:36:09.479Z</time></trkpt><trkpt lat="45.0011783" lon="8.049904"><ele>245.8</ele><time>2026-04-19T13:36:10.48Z</time></trkpt><trkpt lat="45.0012907" lon="8.0498829"><ele>246.0</ele><time>2026-04-19T13:36:11.479Z</time></trkpt><trkpt lat="45.0014192" lon="8.0498987"><ele>246.0</ele><time>2026-04-19T13:36:12.479Z</time></trkpt><trkpt lat="45.0015393" lon="8.0499094"><ele>246.00000000000003</ele><time>2026-04-19T13:36:13.48Z</time></trkpt><trkpt lat="45.0016271" lon="8.0498973"><ele>246.00000000000003</ele><time>2026-04-19T13:36:14.479Z</time></trkpt><trkpt lat="45.0017249" lon="8.049888"><ele>246.0</ele><time>2026-04-19T13:36:15.48Z</time></trkpt><trkpt lat="45.0017975" lon="8.0497723"><ele>246.0</ele><time>2026-04-19T13:36:17.479Z</time></trkpt><trkpt lat="45.0018398" lon="8.0496532"><ele>246.0</ele><time>2026-04-19T13:36:19.479Z</time></trkpt><trkpt lat="45.0016694" lon="8.0495729"><ele>246.00000000000003</ele><time>2026-04-19T13:36:21.479Z</time></trkpt><trkpt lat="45.0015943" lon="8.0495499"><ele>246.00000000000003</ele><time>2026-04-19T13:36:22.48Z</time></trkpt><trkpt lat="45.0015167" lon="8.0495306"><ele>246.0</ele><time>2026-04-19T13:36:23.479Z</time></trkpt><trkpt lat="45.001485" lon="8.0493984"><ele>246.0</ele><time>2026-04-19T13:36:24.479Z</time></trkpt><trkpt lat="45.0014563" lon="8.0492806"><ele>246.0</ele><time>2026-04-19T13:36:25.479Z</time></trkpt><trkpt lat="45.0014344" lon="8.0491653"><ele>246.0</ele><time>2026-04-19T13:36:26.479Z</time></trkpt><trkpt lat="45.001436" lon="8.0490459"><ele>246.0</ele><time>2026-04-19T13:36:27.479Z</time></trkpt><trkpt lat="45.0014459" lon="8.0489304"><ele>246.0</ele><time>2026-04-19T13:36:28.479Z</time></trkpt><trkpt lat="45.0014676" lon="8.0488161"><ele>246.0</ele><time>2026-04-19T13:36:29.48Z</time></trkpt><trkpt lat="45.0014891" lon="8.0487041"><ele>246.0</ele><time>2026-04-19T13:36:30.48Z</time></trkpt><trkpt lat="45.0015705" lon="8.0486917"><ele>244.60000000000002</ele><time>2026-04-19T13:36:31.479Z</time></trkpt><trkpt lat="45.0017113" lon="8.0488028"><ele>243.20000000000002</ele><time>2026-04-19T13:36:32.479Z</time></trkpt><trkpt lat="45.0018138" lon="8.0488032"><ele>241.79999999999998</ele><time>2026-04-19T13:36:33.48Z</time></trkpt><trkpt lat="45.0018789" lon="8.048735"><ele>240.39999999999998</ele><time>2026-04-19T13:36:34.48Z</time></trkpt><trkpt lat="45.0018907" lon="8.0486197"><ele>239.0</ele><time>2026-04-19T13:36:35.48Z</time></trkpt><trkpt lat="45.0019296" lon="8.0485374"><ele>239.0</ele><time>2026-04-19T13:36:36.479Z</time></trkpt><trkpt lat="45.0019624" lon="8.048458"><ele>238.99999999999997</ele><time>2026-04-19T13:36:37.479Z</time></trkpt><trkpt lat="45.0019453" lon="8.0483228"><ele>238.99999999999997</ele><time>2026-04-19T13:36:38.479Z</time></trkpt><trkpt lat="45.0019263" lon="8.0481599"><ele>239.0</ele><time>2026-04-19T13:36:39.48Z</time></trkpt><trkpt lat="45.0018705" lon="8.0480183"><ele>239.0</ele><time>2026-04-19T13:36:40.48Z</time></trkpt><trkpt lat="45.0017775" lon="8.0478638"><ele>235.0</ele><time>2026-04-19T13:36:41.479Z</time></trkpt><trkpt lat="45.0016501" lon="8.0476959"><ele>231.0</ele><time>2026-04-19T13:36:42.48Z</time></trkpt><trkpt lat="45.0015739" lon="8.0475407"><ele>227.0</ele><time>2026-04-19T13:36:43.479Z</time></trkpt><trkpt lat="45.0015105" lon="8.0473915"><ele>223.0</ele><time>2026-04-19T13:36:44.479Z</time></trkpt><trkpt lat="45.0014375" lon="8.0472827"><ele>219.8</ele><time>2026-04-19T13:36:45.479Z</time></trkpt><trkpt lat="45.0013743" lon="8.047182"><ele>216.60000000000002</ele><time>2026-04-19T13:36:46.479Z</time></trkpt><trkpt lat="45.0012961" lon="8.0470752"><ele>213.39999999999998</ele><time>2026-04-19T13:36:47.479Z</time></trkpt><trkpt lat="45.0011974" lon="8.0470441"><ele>210.2</ele><time>2026-04-19T13:36:48.48Z</time></trkpt><trkpt lat="45.0010827" lon="8.0470524"><ele>207.0</ele><time>2026-04-19T13:36:49.48Z</time></trkpt><trkpt lat="45.0009675" lon="8.0470427"><ele>207.0</ele><time>2026-04-19T13:36:50.479Z</time></trkpt><trkpt lat="45.0008502" lon="8.0470951"><ele>207.0</ele><time>2026-04-19T13:36:51.479Z</time></trkpt><trkpt lat="45.0007393" lon="8.0470891"><ele>207.0</ele><time>2026-04-19T13:36:52.479Z</time></trkpt><trkpt lat="45.0006433" lon="8.0470435"><ele>207.0</ele><time>2026-04-19T13:36:53.479Z</time></trkpt><trkpt lat="45.0005529" lon="8.0469777"><ele>207.0</ele><time>2026-04-19T13:36:54.479Z</time></trkpt><trkpt lat="45.0004953" lon="8.0468323"><ele>207.25</ele><time>2026-04-19T13:36:55.48Z</time></trkpt><trkpt lat="45.0004473" lon="8.0466913"><ele>207.5</ele><time>2026-04-19T13:36:56.48Z</time></trkpt><trkpt lat="45.0003936" lon="8.046528"><ele>207.75</ele><time>2026-04-19T13:36:57.479Z</time></trkpt><trkpt lat="45.0003522" lon="8.0463413"><ele>208.0</ele><time>2026-04-19T13:36:58.479Z</time></trkpt><trkpt lat="45.0003037" lon="8.0461588"><ele>208.0</ele><time>2026-04-19T13:36:59.479Z</time></trkpt><trkpt lat="45.000254" lon="8.0459819"><ele>208.0</ele><time>2026-04-19T13:37:00.479Z</time></trkpt><trkpt lat="45.0002008" lon="8.0458065"><ele>208.0</ele><time>2026-04-19T13:37:01.479Z</time></trkpt><trkpt lat="45.0001415" lon="8.0456362"><ele>208.0</ele><time>2026-04-19T13:37:02.48Z</time></trkpt><trkpt lat="45.0000689" lon="8.0454747"><ele>208.0</ele><time>2026-04-19T13:37:03.479Z</time></trkpt><trkpt lat="44.9999783" lon="8.0453201"><ele>208.0</ele><time>2026-04-19T13:37:04.48Z</time></trkpt><trkpt lat="44.9998833" lon="8.0451693"><ele>208.0</ele><time>2026-04-19T13:37:05.48Z</time></trkpt><trkpt lat="44.9997928" lon="8.0450093"><ele>208.0</ele><time>2026-04-19T13:37:06.48Z</time></trkpt><trkpt lat="44.9997133" lon="8.0448253"><ele>211.33333333333331</ele><time>2026-04-19T13:37:07.479Z</time></trkpt><trkpt lat="44.9996249" lon="8.0446435"><ele>214.66666666666669</ele><time>2026-04-19T13:37:08.48Z</time></trkpt><trkpt lat="44.9995703" lon="8.0444416"><ele>218.0</ele><time>2026-04-19T13:37:09.479Z</time></trkpt><trkpt lat="44.9995648" lon="8.044193"><ele>220.66666666666669</ele><time>2026-04-19T13:37:10.479Z</time></trkpt><trkpt lat="44.9995217" lon="8.0439662"><ele>223.33333333333331</ele><time>2026-04-19T13:37:11.479Z</time></trkpt><trkpt lat="44.9994885" lon="8.0437253"><ele>226.0</ele><time>2026-04-19T13:37:12.479Z</time></trkpt><trkpt lat="44.9994962" lon="8.0434692"><ele>225.66666666666666</ele><time>2026-04-19T13:37:13.479Z</time></trkpt><trkpt lat="44.9994901" lon="8.0432155"><ele>225.33333333333331</ele><time>2026-04-19T13:37:14.479Z</time></trkpt><trkpt lat="44.9994844" lon="8.0429525"><ele>225.0</ele><time>2026-04-19T13:37:15.48Z</time></trkpt><trkpt lat="44.9995184" lon="8.0426884"><ele>224.0</ele><time>2026-04-19T13:37:16.479Z</time></trkpt><trkpt lat="44.9995439" lon="8.0424134"><ele>223.0</ele><time>2026-04-19T13:37:17.479Z</time></trkpt><trkpt lat="44.9995631" lon="8.0421386"><ele>222.0</ele><time>2026-04-19T13:37:18.479Z</time></trkpt><trkpt lat="44.9995803" lon="8.0418648"><ele>222.66666666666669</ele><time>2026-04-19T13:37:19.479Z</time></trkpt><trkpt lat="44.9995992" lon="8.0415784"><ele>223.33333333333334</ele><time>2026-04-19T13:37:20.48Z</time></trkpt><trkpt lat="44.9996345" lon="8.0413321"><ele>224.0</ele><time>2026-04-19T13:37:21.48Z</time></trkpt><trkpt lat="44.9996485" lon="8.0410758"><ele>224.0</ele><time>2026-04-19T13:37:22.479Z</time></trkpt><trkpt lat="44.9996757" lon="8.0408353"><ele>224.0</ele><time>2026-04-19T13:37:23.479Z</time></trkpt><trkpt lat="44.9996878" lon="8.0406233"><ele>224.0</ele><time>2026-04-19T13:37:24.479Z</time></trkpt><trkpt lat="44.9996991" lon="8.0403831"><ele>224.66666666666669</ele><time>2026-04-19T13:37:25.48Z</time></trkpt><trkpt lat="44.9996548" lon="8.0401315"><ele>225.33333333333331</ele><time>2026-04-19T13:37:26.48Z</time></trkpt><trkpt lat="44.9995883" lon="8.0398951"><ele>226.0</ele><time>2026-04-19T13:37:27.48Z</time></trkpt><trkpt lat="44.9995225" lon="8.0396708"><ele>231.0</ele><time>2026-04-19T13:37:28.479Z</time></trkpt><trkpt lat="44.9994246" lon="8.0394324"><ele>236.0</ele><time>2026-04-19T13:37:29.479Z</time></trkpt><trkpt lat="44.9993335" lon="8.0391996"><ele>241.0</ele><time>2026-04-19T13:37:30.48Z</time></trkpt><trkpt lat="44.9992369" lon="8.0389807"><ele>236.33333333333331</ele><time>2026-04-19T13:37:31.479Z</time></trkpt><trkpt lat="44.9991433" lon="8.0387493"><ele>231.66666666666669</ele><time>2026-04-19T13:37:32.479Z</time></trkpt><trkpt lat="44.9990542" lon="8.0385367"><ele>227.0</ele><time>2026-04-19T13:37:33.479Z</time></trkpt><trkpt lat="44.9989632" lon="8.0383224"><ele>229.66666666666669</ele><time>2026-04-19T13:37:34.479Z</time></trkpt><trkpt lat="44.9988646" lon="8.0381285"><ele>232.33333333333331</ele><time>2026-04-19T13:37:35.48Z</time></trkpt><trkpt lat="44.9987483" lon="8.0379759"><ele>235.0</ele><time>2026-04-19T13:37:36.479Z</time></trkpt><trkpt lat="44.9986301" lon="8.0378283"><ele>235.0</ele><time>2026-04-19T13:37:37.48Z</time></trkpt><trkpt lat="44.9984965" lon="8.0377288"><ele>235.0</ele><time>2026-04-19T13:37:38.479Z</time></trkpt><trkpt lat="44.9983606" lon="8.0375981"><ele>235.0</ele><time>2026-04-19T13:37:39.479Z</time></trkpt><trkpt lat="44.9982752" lon="8.0374782"><ele>235.0</ele><time>2026-04-19T13:37:40.479Z</time></trkpt><trkpt lat="44.9981652" lon="8.0373488"><ele>235.75</ele><time>2026-04-19T13:37:41.479Z</time></trkpt><trkpt lat="44.998112" lon="8.0371371"><ele>236.5</ele><time>2026-04-19T13:37:42.479Z</time></trkpt><trkpt lat="44.9980812" lon="8.0369592"><ele>237.25</ele><time>2026-04-19T13:37:43.479Z</time></trkpt><trkpt lat="44.9980893" lon="8.0367784"><ele>238.0</ele><time>2026-04-19T13:37:44.479Z</time></trkpt><trkpt lat="44.9981244" lon="8.0366109"><ele>238.0</ele><time>2026-04-19T13:37:45.479Z</time></trkpt><trkpt lat="44.9982032" lon="8.0364336"><ele>238.0</ele><time>2026-04-19T13:37:46.479Z</time></trkpt><trkpt lat="44.9982862" lon="8.0362597"><ele>238.0</ele><time>2026-04-19T13:37:47.479Z</time></trkpt><trkpt lat="44.9983757" lon="8.0361172"><ele>238.0</ele><time>2026-04-19T13:37:48.479Z</time></trkpt><trkpt lat="44.9984569" lon="8.0359986"><ele>241.0</ele><time>2026-04-19T13:37:49.479Z</time></trkpt><trkpt lat="44.9985519" lon="8.0359276"><ele>244.0</ele><time>2026-04-19T13:37:50.48Z</time></trkpt><trkpt lat="44.9986601" lon="8.0358622"><ele>247.0</ele><time>2026-04-19T13:37:51.479Z</time></trkpt><trkpt lat="44.9986156" lon="8.0356843"><ele>250.0</ele><time>2026-04-19T13:37:52.48Z</time></trkpt><trkpt lat="44.9986001" lon="8.0355793"><ele>253.0</ele><time>2026-04-19T13:37:53.479Z</time></trkpt><trkpt lat="44.9985504" lon="8.0354598"><ele>252.25</ele><time>2026-04-19T13:37:54.479Z</time></trkpt><trkpt lat="44.9984695" lon="8.0353734"><ele>251.5</ele><time>2026-04-19T13:37:55.479Z</time></trkpt><trkpt lat="44.9983666" lon="8.0352769"><ele>250.75</ele><time>2026-04-19T13:37:56.479Z</time></trkpt><trkpt lat="44.9982433" lon="8.0351919"><ele>250.0</ele><time>2026-04-19T13:37:57.48Z</time></trkpt><trkpt lat="44.9981312" lon="8.0351051"><ele>250.0</ele><time>2026-04-19T13:37:58.479Z</time></trkpt><trkpt lat="44.9980203" lon="8.03504"><ele>250.0</ele><time>2026-04-19T13:37:59.479Z</time></trkpt><trkpt lat="44.997906" lon="8.0349665"><ele>250.0</ele><time>2026-04-19T13:38:00.479Z</time></trkpt><trkpt lat="44.9977359" lon="8.0348629"><ele>250.0</ele><time>2026-04-19T13:38:01.48Z</time></trkpt><trkpt lat="44.9976189" lon="8.0347767"><ele>248.0</ele><time>2026-04-19T13:38:02.479Z</time></trkpt><trkpt lat="44.997492" lon="8.0346799"><ele>246.0</ele><time>2026-04-19T13:38:03.479Z</time></trkpt><trkpt lat="44.9973721" lon="8.0345791"><ele>244.0</ele><time>2026-04-19T13:38:04.479Z</time></trkpt><trkpt lat="44.9972592" lon="8.034437"><ele>242.0</ele><time>2026-04-19T13:38:05.479Z</time></trkpt><trkpt lat="44.9971516" lon="8.0343239"><ele>242.0</ele><time>2026-04-19T13:38:06.479Z</time></trkpt><trkpt lat="44.9970178" lon="8.0343217"><ele>242.0</ele><time>2026-04-19T13:38:07.48Z</time></trkpt><trkpt lat="44.9969061" lon="8.0343073"><ele>242.0</ele><time>2026-04-19T13:38:08.479Z</time></trkpt><trkpt lat="44.9967894" lon="8.0343112"><ele>242.0</ele><time>2026-04-19T13:38:09.48Z</time></trkpt><trkpt lat="44.9966948" lon="8.0343595"><ele>245.0</ele><time>2026-04-19T13:38:10.48Z</time></trkpt><trkpt lat="44.9966002" lon="8.0344888"><ele>248.0</ele><time>2026-04-19T13:38:11.479Z</time></trkpt><trkpt lat="44.9965181" lon="8.0346214"><ele>251.0</ele><time>2026-04-19T13:38:12.479Z</time></trkpt><trkpt lat="44.9964541" lon="8.0347955"><ele>254.0</ele><time>2026-04-19T13:38:13.48Z</time></trkpt><trkpt lat="44.9963884" lon="8.0349855"><ele>256.5</ele><time>2026-04-19T13:38:14.479Z</time></trkpt><trkpt lat="44.9963163" lon="8.0351566"><ele>259.0</ele><time>2026-04-19T13:38:15.479Z</time></trkpt><trkpt lat="44.9962369" lon="8.0353306"><ele>261.5</ele><time>2026-04-19T13:38:16.479Z</time></trkpt><trkpt lat="44.9961697" lon="8.0354987"><ele>264.0</ele><time>2026-04-19T13:38:17.479Z</time></trkpt><trkpt lat="44.9960923" lon="8.035659"><ele>264.0</ele><time>2026-04-19T13:38:18.479Z</time></trkpt><trkpt lat="44.996029" lon="8.0357966"><ele>264.0</ele><time>2026-04-19T13:38:19.479Z</time></trkpt><trkpt lat="44.9959422" lon="8.035896"><ele>264.0</ele><time>2026-04-19T13:38:20.479Z</time></trkpt><trkpt lat="44.9958411" lon="8.0359056"><ele>264.0</ele><time>2026-04-19T13:38:21.479Z</time></trkpt><trkpt lat="44.9957607" lon="8.0358774"><ele>264.0</ele><time>2026-04-19T13:38:22.479Z</time></trkpt><trkpt lat="44.9956724" lon="8.0358096"><ele>260.25</ele><time>2026-04-19T13:38:23.479Z</time></trkpt><trkpt lat="44.9955875" lon="8.0357337"><ele>256.5</ele><time>2026-04-19T13:38:24.48Z</time></trkpt><trkpt lat="44.995487" lon="8.0356526"><ele>252.75</ele><time>2026-04-19T13:38:25.479Z</time></trkpt><trkpt lat="44.9953829" lon="8.0355519"><ele>249.0</ele><time>2026-04-19T13:38:26.479Z</time></trkpt><trkpt lat="44.9952581" lon="8.0354435"><ele>249.0</ele><time>2026-04-19T13:38:27.48Z</time></trkpt><trkpt lat="44.9951352" lon="8.0353477"><ele>249.0</ele><time>2026-04-19T13:38:28.479Z</time></trkpt><trkpt lat="44.9950147" lon="8.0352677"><ele>249.0</ele><time>2026-04-19T13:38:29.479Z</time></trkpt><trkpt lat="44.9948987" lon="8.0351817"><ele>249.0</ele><time>2026-04-19T13:38:30.479Z</time></trkpt><trkpt lat="44.9947617" lon="8.0351161"><ele>250.66666666666669</ele><time>2026-04-19T13:38:31.479Z</time></trkpt><trkpt lat="44.9946217" lon="8.0350666"><ele>252.33333333333334</ele><time>2026-04-19T13:38:32.48Z</time></trkpt><trkpt lat="44.994463" lon="8.0350363"><ele>254.0</ele><time>2026-04-19T13:38:33.479Z</time></trkpt><trkpt lat="44.9943044" lon="8.0349964"><ele>252.33333333333334</ele><time>2026-04-19T13:38:34.48Z</time></trkpt><trkpt lat="44.994149" lon="8.0349464"><ele>250.66666666666669</ele><time>2026-04-19T13:38:35.479Z</time></trkpt><trkpt lat="44.9939767" lon="8.0349299"><ele>249.0</ele><time>2026-04-19T13:38:36.479Z</time></trkpt><trkpt lat="44.9938291" lon="8.0349114"><ele>249.0</ele><time>2026-04-19T13:38:37.479Z</time></trkpt><trkpt lat="44.9936703" lon="8.0348651"><ele>249.0</ele><time>2026-04-19T13:38:38.479Z</time></trkpt><trkpt lat="44.9935199" lon="8.0348032"><ele>249.0</ele><time>2026-04-19T13:38:39.479Z</time></trkpt><trkpt lat="44.9933628" lon="8.0347401"><ele>250.0</ele><time>2026-04-19T13:38:40.479Z</time></trkpt><trkpt lat="44.9932473" lon="8.0347375"><ele>251.0</ele><time>2026-04-19T13:38:41.479Z</time></trkpt><trkpt lat="44.9931149" lon="8.0347315"><ele>252.0</ele><time>2026-04-19T13:38:42.479Z</time></trkpt><trkpt lat="44.9929925" lon="8.0347832"><ele>253.0</ele><time>2026-04-19T13:38:43.479Z</time></trkpt><trkpt lat="44.9928726" lon="8.0348194"><ele>253.0</ele><time>2026-04-19T13:38:44.48Z</time></trkpt><trkpt lat="44.9927413" lon="8.034845"><ele>253.0</ele><time>2026-04-19T13:38:45.479Z</time></trkpt><trkpt lat="44.9926778" lon="8.0347849"><ele>253.0</ele><time>2026-04-19T13:38:46.479Z</time></trkpt><trkpt lat="44.9925823" lon="8.0347571"><ele>253.0</ele><time>2026-04-19T13:38:47.479Z</time></trkpt><trkpt lat="44.992489" lon="8.0346573"><ele>253.0</ele><time>2026-04-19T13:38:48.479Z</time></trkpt><trkpt lat="44.9924092" lon="8.0345792"><ele>251.66666666666666</ele><time>2026-04-19T13:38:49.479Z</time></trkpt><trkpt lat="44.992346" lon="8.0345002"><ele>250.33333333333331</ele><time>2026-04-19T13:38:50.479Z</time></trkpt><trkpt lat="44.9922993" lon="8.0344344"><ele>249.0</ele><time>2026-04-19T13:38:51.479Z</time></trkpt><trkpt lat="44.9922251" lon="8.0343738"><ele>247.66666666666669</ele><time>2026-04-19T13:38:52.48Z</time></trkpt><trkpt lat="44.9921361" lon="8.0343023"><ele>246.33333333333334</ele><time>2026-04-19T13:38:53.479Z</time></trkpt><trkpt lat="44.9920498" lon="8.0342222"><ele>245.0</ele><time>2026-04-19T13:38:54.48Z</time></trkpt><trkpt lat="44.9919395" lon="8.0341242"><ele>243.25</ele><time>2026-04-19T13:38:55.479Z</time></trkpt><trkpt lat="44.9918311" lon="8.0340498"><ele>241.5</ele><time>2026-04-19T13:38:56.48Z</time></trkpt><trkpt lat="44.9916916" lon="8.0339706"><ele>239.75</ele><time>2026-04-19T13:38:57.48Z</time></trkpt><trkpt lat="44.9915506" lon="8.033939"><ele>238.0</ele><time>2026-04-19T13:38:58.479Z</time></trkpt><trkpt lat="44.991395" lon="8.0338973"><ele>238.0</ele><time>2026-04-19T13:38:59.479Z</time></trkpt><trkpt lat="44.9912458" lon="8.0338577"><ele>238.0</ele><time>2026-04-19T13:39:00.479Z</time></trkpt><trkpt lat="44.9911175" lon="8.0338735"><ele>238.0</ele><time>2026-04-19T13:39:01.479Z</time></trkpt><trkpt lat="44.9909818" lon="8.0339271"><ele>238.0</ele><time>2026-04-19T13:39:02.479Z</time></trkpt><trkpt lat="44.9908549" lon="8.0339641"><ele>238.0</ele><time>2026-04-19T13:39:03.479Z</time></trkpt><trkpt lat="44.9907331" lon="8.0340512"><ele>238.0</ele><time>2026-04-19T13:39:04.479Z</time></trkpt><trkpt lat="44.990602" lon="8.0341124"><ele>238.0</ele><time>2026-04-19T13:39:05.48Z</time></trkpt><trkpt lat="44.9904744" lon="8.0341314"><ele>238.0</ele><time>2026-04-19T13:39:06.48Z</time></trkpt><trkpt lat="44.9903957" lon="8.0339916"><ele>238.0</ele><time>2026-04-19T13:39:07.479Z</time></trkpt><trkpt lat="44.990311" lon="8.0338887"><ele>238.0</ele><time>2026-04-19T13:39:08.48Z</time></trkpt><trkpt lat="44.9902088" lon="8.0337561"><ele>238.0</ele><time>2026-04-19T13:39:09.479Z</time></trkpt><trkpt lat="44.9901641" lon="8.0335377"><ele>238.0</ele><time>2026-04-19T13:39:10.479Z</time></trkpt><trkpt lat="44.990109" lon="8.0333272"><ele>237.66666666666666</ele><time>2026-04-19T13:39:11.479Z</time></trkpt><trkpt lat="44.9900364" lon="8.0331262"><ele>237.33333333333331</ele><time>2026-04-19T13:39:12.479Z</time></trkpt><trkpt lat="44.9899534" lon="8.0329394"><ele>237.0</ele><time>2026-04-19T13:39:13.479Z</time></trkpt><trkpt lat="44.9898589" lon="8.0327742"><ele>242.25</ele><time>2026-04-19T13:39:14.479Z</time></trkpt><trkpt lat="44.9897622" lon="8.0326162"><ele>247.5</ele><time>2026-04-19T13:39:15.479Z</time></trkpt><trkpt lat="44.9896735" lon="8.0324756"><ele>252.75</ele><time>2026-04-19T13:39:16.48Z</time></trkpt><trkpt lat="44.9896092" lon="8.0323697"><ele>258.0</ele><time>2026-04-19T13:39:17.479Z</time></trkpt><trkpt lat="44.9895021" lon="8.0322615"><ele>258.8</ele><time>2026-04-19T13:39:18.479Z</time></trkpt><trkpt lat="44.9894337" lon="8.0321689"><ele>259.6</ele><time>2026-04-19T13:39:19.48Z</time></trkpt><trkpt lat="44.9893879" lon="8.0320364"><ele>260.4</ele><time>2026-04-19T13:39:20.479Z</time></trkpt><trkpt lat="44.9893457" lon="8.0319004"><ele>261.2</ele><time>2026-04-19T13:39:21.48Z</time></trkpt><trkpt lat="44.9893477" lon="8.0317342"><ele>262.0</ele><time>2026-04-19T13:39:22.479Z</time></trkpt><trkpt lat="44.9893564" lon="8.0315832"><ele>259.0</ele><time>2026-04-19T13:39:23.48Z</time></trkpt><trkpt lat="44.9893437" lon="8.0313917"><ele>256.0</ele><time>2026-04-19T13:39:24.479Z</time></trkpt><trkpt lat="44.9893366" lon="8.031187"><ele>253.0</ele><time>2026-04-19T13:39:25.48Z</time></trkpt><trkpt lat="44.989308" lon="8.0309897"><ele>250.0</ele><time>2026-04-19T13:39:26.48Z</time></trkpt><trkpt lat="44.9892672" lon="8.0307984"><ele>245.0</ele><time>2026-04-19T13:39:27.479Z</time></trkpt><trkpt lat="44.989241" lon="8.0305988"><ele>240.0</ele><time>2026-04-19T13:39:28.48Z</time></trkpt><trkpt lat="44.9892306" lon="8.030418"><ele>235.0</ele><time>2026-04-19T13:39:29.479Z</time></trkpt><trkpt lat="44.9892217" lon="8.0302227"><ele>230.0</ele><time>2026-04-19T13:39:30.479Z</time></trkpt><trkpt lat="44.9892191" lon="8.0300262"><ele>228.0</ele><time>2026-04-19T13:39:31.479Z</time></trkpt><trkpt lat="44.9892289" lon="8.0298314"><ele>226.0</ele><time>2026-04-19T13:39:32.479Z</time></trkpt><trkpt lat="44.9892422" lon="8.0296536"><ele>224.0</ele><time>2026-04-19T13:39:33.479Z</time></trkpt><trkpt lat="44.9892625" lon="8.0294589"><ele>222.0</ele><time>2026-04-19T13:39:34.48Z</time></trkpt><trkpt lat="44.989297" lon="8.0292669"><ele>223.0</ele><time>2026-04-19T13:39:35.479Z</time></trkpt><trkpt lat="44.9893216" lon="8.0291019"><ele>224.0</ele><time>2026-04-19T13:39:36.479Z</time></trkpt><trkpt lat="44.9893497" lon="8.0289456"><ele>225.0</ele><time>2026-04-19T13:39:37.48Z</time></trkpt><trkpt lat="44.9893744" lon="8.0287964"><ele>226.0</ele><time>2026-04-19T13:39:38.48Z</time></trkpt><trkpt lat="44.9893862" lon="8.0286462"><ele>227.0</ele><time>2026-04-19T13:39:39.479Z</time></trkpt><trkpt lat="44.9893901" lon="8.0284987"><ele>227.0</ele><time>2026-04-19T13:39:40.479Z</time></trkpt><trkpt lat="44.9893971" lon="8.0283384"><ele>227.0</ele><time>2026-04-19T13:39:41.48Z</time></trkpt><trkpt lat="44.9893959" lon="8.0282136"><ele>227.0</ele><time>2026-04-19T13:39:42.479Z</time></trkpt><trkpt lat="44.9893831" lon="8.0280606"><ele>227.0</ele><time>2026-04-19T13:39:43.479Z</time></trkpt><trkpt lat="44.989349" lon="8.0279181"><ele>227.0</ele><time>2026-04-19T13:39:44.48Z</time></trkpt><trkpt lat="44.989292" lon="8.0277559"><ele>228.39999999999998</ele><time>2026-04-19T13:39:45.48Z</time></trkpt><trkpt lat="44.9892583" lon="8.0275952"><ele>229.79999999999998</ele><time>2026-04-19T13:39:46.48Z</time></trkpt><trkpt lat="44.9892206" lon="8.0274559"><ele>231.2</ele><time>2026-04-19T13:39:47.479Z</time></trkpt><trkpt lat="44.9891865" lon="8.0272993"><ele>232.6</ele><time>2026-04-19T13:39:48.479Z</time></trkpt><trkpt lat="44.9891604" lon="8.0271537"><ele>234.0</ele><time>2026-04-19T13:39:49.479Z</time></trkpt><trkpt lat="44.9891231" lon="8.0270357"><ele>235.2</ele><time>2026-04-19T13:39:50.479Z</time></trkpt><trkpt lat="44.9891046" lon="8.0269103"><ele>236.39999999999998</ele><time>2026-04-19T13:39:51.479Z</time></trkpt><trkpt lat="44.9890981" lon="8.0267619"><ele>237.6</ele><time>2026-04-19T13:39:52.48Z</time></trkpt><trkpt lat="44.9890875" lon="8.0266415"><ele>238.8</ele><time>2026-04-19T13:39:53.479Z</time></trkpt><trkpt lat="44.9890615" lon="8.0265221"><ele>240.0</ele><time>2026-04-19T13:39:54.48Z</time></trkpt><trkpt lat="44.9890146" lon="8.0264304"><ele>240.0</ele><time>2026-04-19T13:39:55.48Z</time></trkpt><trkpt lat="44.9889788" lon="8.0263319"><ele>240.0</ele><time>2026-04-19T13:39:56.479Z</time></trkpt><trkpt lat="44.9889601" lon="8.0261988"><ele>240.0</ele><time>2026-04-19T13:39:57.48Z</time></trkpt><trkpt lat="44.9889444" lon="8.0260839"><ele>240.0</ele><time>2026-04-19T13:39:58.479Z</time></trkpt><trkpt lat="44.9889427" lon="8.0259375"><ele>240.0</ele><time>2026-04-19T13:39:59.48Z</time></trkpt><trkpt lat="44.9889466" lon="8.0258109"><ele>239.83333333333334</ele><time>2026-04-19T13:40:00.479Z</time></trkpt><trkpt lat="44.9889633" lon="8.0256442"><ele>239.66666666666669</ele><time>2026-04-19T13:40:01.48Z</time></trkpt><trkpt lat="44.9889608" lon="8.0255394"><ele>239.5</ele><time>2026-04-19T13:40:02.48Z</time></trkpt><trkpt lat="44.988985" lon="8.0254522"><ele>239.33333333333334</ele><time>2026-04-19T13:40:03.48Z</time></trkpt><trkpt lat="44.9890428" lon="8.0253719"><ele>239.16666666666669</ele><time>2026-04-19T13:40:04.479Z</time></trkpt><trkpt lat="44.9890708" lon="8.0252598"><ele>239.0</ele><time>2026-04-19T13:40:05.479Z</time></trkpt><trkpt lat="44.9891045" lon="8.0251647"><ele>239.00000000000003</ele><time>2026-04-19T13:40:06.479Z</time></trkpt><trkpt lat="44.989128" lon="8.0250648"><ele>239.0</ele><time>2026-04-19T13:40:07.479Z</time></trkpt><trkpt lat="44.989159" lon="8.0249595"><ele>239.0</ele><time>2026-04-19T13:40:08.48Z</time></trkpt><trkpt lat="44.9892157" lon="8.0248716"><ele>239.0</ele><time>2026-04-19T13:40:09.479Z</time></trkpt><trkpt lat="44.9892852" lon="8.0247859"><ele>239.00000000000003</ele><time>2026-04-19T13:40:10.479Z</time></trkpt><trkpt lat="44.9893433" lon="8.0247053"><ele>239.0</ele><time>2026-04-19T13:40:11.479Z</time></trkpt><trkpt lat="44.9893906" lon="8.0246241"><ele>239.83333333333334</ele><time>2026-04-19T13:40:12.48Z</time></trkpt><trkpt lat="44.9894339" lon="8.0245592"><ele>240.66666666666669</ele><time>2026-04-19T13:40:13.479Z</time></trkpt><trkpt lat="44.9894761" lon="8.0244754"><ele>241.5</ele><time>2026-04-19T13:40:14.479Z</time></trkpt><trkpt lat="44.9895143" lon="8.0243302"><ele>242.33333333333331</ele><time>2026-04-19T13:40:16.479Z</time></trkpt><trkpt lat="44.9895187" lon="8.0242264"><ele>243.16666666666666</ele><time>2026-04-19T13:40:17.479Z</time></trkpt><trkpt lat="44.989517" lon="8.0241009"><ele>244.0</ele><time>2026-04-19T13:40:18.48Z</time></trkpt><trkpt lat="44.9895288" lon="8.023981"><ele>244.6</ele><time>2026-04-19T13:40:19.479Z</time></trkpt><trkpt lat="44.9895306" lon="8.0238492"><ele>245.2</ele><time>2026-04-19T13:40:20.479Z</time></trkpt><trkpt lat="44.9895101" lon="8.0237001"><ele>245.79999999999998</ele><time>2026-04-19T13:40:21.479Z</time></trkpt><trkpt lat="44.9894878" lon="8.0235452"><ele>246.39999999999998</ele><time>2026-04-19T13:40:22.48Z</time></trkpt><trkpt lat="44.9894313" lon="8.023406"><ele>247.0</ele><time>2026-04-19T13:40:23.479Z</time></trkpt><trkpt lat="44.9893668" lon="8.0233006"><ele>244.75</ele><time>2026-04-19T13:40:24.48Z</time></trkpt><trkpt lat="44.989294" lon="8.0231688"><ele>242.5</ele><time>2026-04-19T13:40:25.479Z</time></trkpt><trkpt lat="44.9891921" lon="8.0230713"><ele>240.25</ele><time>2026-04-19T13:40:26.48Z</time></trkpt><trkpt lat="44.9890959" lon="8.0229636"><ele>238.0</ele><time>2026-04-19T13:40:27.48Z</time></trkpt><trkpt lat="44.9890057" lon="8.0228922"><ele>238.0</ele><time>2026-04-19T13:40:28.479Z</time></trkpt><trkpt lat="44.9889116" lon="8.0228221"><ele>238.0</ele><time>2026-04-19T13:40:29.479Z</time></trkpt><trkpt lat="44.9888079" lon="8.0227312"><ele>238.0</ele><time>2026-04-19T13:40:30.479Z</time></trkpt><trkpt lat="44.9887057" lon="8.0226585"><ele>238.0</ele><time>2026-04-19T13:40:31.479Z</time></trkpt><trkpt lat="44.988599" lon="8.022569"><ele>238.0</ele><time>2026-04-19T13:40:32.479Z</time></trkpt><trkpt lat="44.9885532" lon="8.0225055"><ele>238.0</ele><time>2026-04-19T13:40:33.479Z</time></trkpt><trkpt lat="44.9884554" lon="8.0224245"><ele>238.0</ele><time>2026-04-19T13:40:34.479Z</time></trkpt><trkpt lat="44.988346" lon="8.02234"><ele>238.0</ele><time>2026-04-19T13:40:35.479Z</time></trkpt><trkpt lat="44.98824" lon="8.022262"><ele>238.0</ele><time>2026-04-19T13:40:36.48Z</time></trkpt><trkpt lat="44.988134" lon="8.0221608"><ele>236.75</ele><time>2026-04-19T13:40:37.479Z</time></trkpt><trkpt lat="44.9880251" lon="8.0220608"><ele>235.5</ele><time>2026-04-19T13:40:38.479Z</time></trkpt><trkpt lat="44.9879108" lon="8.0219658"><ele>234.25</ele><time>2026-04-19T13:40:39.479Z</time></trkpt><trkpt lat="44.9877989" lon="8.0218485"><ele>233.0</ele><time>2026-04-19T13:40:40.479Z</time></trkpt><trkpt lat="44.9877491" lon="8.0217405"><ele>232.0</ele><time>2026-04-19T13:40:41.478Z</time></trkpt><trkpt lat="44.9876741" lon="8.0216207"><ele>231.0</ele><time>2026-04-19T13:40:42.479Z</time></trkpt><trkpt lat="44.9876429" lon="8.0215039"><ele>230.0</ele><time>2026-04-19T13:40:43.479Z</time></trkpt><trkpt lat="44.9875946" lon="8.0213109"><ele>229.0</ele><time>2026-04-19T13:40:44.48Z</time></trkpt><trkpt lat="44.9875915" lon="8.0211771"><ele>228.0</ele><time>2026-04-19T13:40:45.48Z</time></trkpt><trkpt lat="44.9875894" lon="8.0210324"><ele>228.0</ele><time>2026-04-19T13:40:46.48Z</time></trkpt><trkpt lat="44.987691" lon="8.020894"><ele>228.0</ele><time>2026-04-19T13:40:47.479Z</time></trkpt><trkpt lat="44.9877623" lon="8.0207879"><ele>228.0</ele><time>2026-04-19T13:40:48.479Z</time></trkpt><trkpt lat="44.98785" lon="8.0206946"><ele>228.0</ele><time>2026-04-19T13:40:49.479Z</time></trkpt><trkpt lat="44.9879427" lon="8.020614"><ele>226.83333333333334</ele><time>2026-04-19T13:40:50.479Z</time></trkpt><trkpt lat="44.9880358" lon="8.020534"><ele>225.66666666666669</ele><time>2026-04-19T13:40:51.479Z</time></trkpt><trkpt lat="44.9881467" lon="8.0205002"><ele>224.5</ele><time>2026-04-19T13:40:52.479Z</time></trkpt><trkpt lat="44.9882" lon="8.0204367"><ele>223.33333333333334</ele><time>2026-04-19T13:40:53.479Z</time></trkpt><trkpt lat="44.9882231" lon="8.0203261"><ele>222.16666666666669</ele><time>2026-04-19T13:40:54.48Z</time></trkpt><trkpt lat="44.9882389" lon="8.0202365"><ele>221.0</ele><time>2026-04-19T13:40:55.479Z</time></trkpt><trkpt lat="44.9881793" lon="8.0201418"><ele>221.0</ele><time>2026-04-19T13:40:56.479Z</time></trkpt><trkpt lat="44.9881448" lon="8.020054"><ele>221.00000000000003</ele><time>2026-04-19T13:40:57.479Z</time></trkpt><trkpt lat="44.9880346" lon="8.0200717"><ele>221.00000000000003</ele><time>2026-04-19T13:40:58.479Z</time></trkpt><trkpt lat="44.9879399" lon="8.0200947"><ele>221.0</ele><time>2026-04-19T13:40:59.479Z</time></trkpt><trkpt lat="44.9878239" lon="8.0201144"><ele>221.0</ele><time>2026-04-19T13:41:00.48Z</time></trkpt><trkpt lat="44.9877034" lon="8.0201234"><ele>221.0</ele><time>2026-04-19T13:41:01.479Z</time></trkpt><trkpt lat="44.9875867" lon="8.0201442"><ele>221.00000000000003</ele><time>2026-04-19T13:41:02.479Z</time></trkpt><trkpt lat="44.9874707" lon="8.0201512"><ele>221.00000000000003</ele><time>2026-04-19T13:41:03.479Z</time></trkpt><trkpt lat="44.9873786" lon="8.0201699"><ele>221.0</ele><time>2026-04-19T13:41:04.48Z</time></trkpt><trkpt lat="44.9872718" lon="8.0201791"><ele>221.0</ele><time>2026-04-19T13:41:05.48Z</time></trkpt><trkpt lat="44.9871702" lon="8.0201285"><ele>217.4</ele><time>2026-04-19T13:41:06.479Z</time></trkpt><trkpt lat="44.9870804" lon="8.0200514"><ele>213.8</ele><time>2026-04-19T13:41:08.479Z</time></trkpt><trkpt lat="44.9869563" lon="8.0200135"><ele>210.20000000000002</ele><time>2026-04-19T13:41:10.479Z</time></trkpt><trkpt lat="44.9868787" lon="8.0199823"><ele>206.60000000000002</ele><time>2026-04-19T13:41:11.479Z</time></trkpt><trkpt lat="44.9867754" lon="8.0199381"><ele>203.0</ele><time>2026-04-19T13:41:12.48Z</time></trkpt><trkpt lat="44.986667" lon="8.0198957"><ele>200.60000000000002</ele><time>2026-04-19T13:41:13.48Z</time></trkpt><trkpt lat="44.9865715" lon="8.0198522"><ele>198.20000000000002</ele><time>2026-04-19T13:41:14.48Z</time></trkpt><trkpt lat="44.9864646" lon="8.0198169"><ele>195.8</ele><time>2026-04-19T13:41:15.48Z</time></trkpt><trkpt lat="44.986396" lon="8.0197579"><ele>193.4</ele><time>2026-04-19T13:41:16.48Z</time></trkpt><trkpt lat="44.9863374" lon="8.0196885"><ele>191.0</ele><time>2026-04-19T13:41:17.48Z</time></trkpt><trkpt lat="44.9863061" lon="8.0195773"><ele>191.0</ele><time>2026-04-19T13:41:18.48Z</time></trkpt><trkpt lat="44.9863143" lon="8.0194406"><ele>191.0</ele><time>2026-04-19T13:41:19.479Z</time></trkpt><trkpt lat="44.9863213" lon="8.0192745"><ele>191.0</ele><time>2026-04-19T13:41:20.48Z</time></trkpt><trkpt lat="44.9863054" lon="8.0191323"><ele>191.0</ele><time>2026-04-19T13:41:21.48Z</time></trkpt><trkpt lat="44.9862825" lon="8.0189919"><ele>191.0</ele><time>2026-04-19T13:41:22.48Z</time></trkpt><trkpt lat="44.9862025" lon="8.018893"><ele>190.5</ele><time>2026-04-19T13:41:23.48Z</time></trkpt><trkpt lat="44.9861208" lon="8.0187877"><ele>190.0</ele><time>2026-04-19T13:41:24.479Z</time></trkpt><trkpt lat="44.9860248" lon="8.0186934"><ele>189.5</ele><time>2026-04-19T13:41:25.48Z</time></trkpt><trkpt lat="44.9859234" lon="8.0185999"><ele>189.0</ele><time>2026-04-19T13:41:26.479Z</time></trkpt><trkpt lat="44.9858141" lon="8.0185085"><ele>189.5</ele><time>2026-04-19T13:41:27.48Z</time></trkpt><trkpt lat="44.985702" lon="8.018408"><ele>190.0</ele><time>2026-04-19T13:41:28.48Z</time></trkpt><trkpt lat="44.9855938" lon="8.018305"><ele>190.5</ele><time>2026-04-19T13:41:29.48Z</time></trkpt><trkpt lat="44.9854846" lon="8.0182248"><ele>191.0</ele><time>2026-04-19T13:41:30.479Z</time></trkpt><trkpt lat="44.9853756" lon="8.0181662"><ele>191.0</ele><time>2026-04-19T13:41:31.48Z</time></trkpt><trkpt lat="44.9852621" lon="8.0181215"><ele>191.0</ele><time>2026-04-19T13:41:32.479Z</time></trkpt><trkpt lat="44.9851315" lon="8.0181396"><ele>191.0</ele><time>2026-04-19T13:41:33.479Z</time></trkpt><trkpt lat="44.9850166" lon="8.0181413"><ele>191.0</ele><time>2026-04-19T13:41:34.48Z</time></trkpt><trkpt lat="44.9849038" lon="8.0181202"><ele>192.16666666666666</ele><time>2026-04-19T13:41:35.48Z</time></trkpt><trkpt lat="44.9848241" lon="8.0180658"><ele>193.33333333333331</ele><time>2026-04-19T13:41:36.479Z</time></trkpt><trkpt lat="44.984753" lon="8.0179728"><ele>194.5</ele><time>2026-04-19T13:41:37.479Z</time></trkpt><trkpt lat="44.9846836" lon="8.0179167"><ele>195.66666666666666</ele><time>2026-04-19T13:41:38.48Z</time></trkpt><trkpt lat="44.9846123" lon="8.0178999"><ele>196.83333333333334</ele><time>2026-04-19T13:41:39.479Z</time></trkpt><trkpt lat="44.9845426" lon="8.0179038"><ele>198.0</ele><time>2026-04-19T13:41:40.48Z</time></trkpt><trkpt lat="44.9844509" lon="8.0180919"><ele>198.0</ele><time>2026-04-19T13:41:42.479Z</time></trkpt><trkpt lat="44.9844179" lon="8.0182173"><ele>198.0</ele><time>2026-04-19T13:41:43.479Z</time></trkpt><trkpt lat="44.9844088" lon="8.0183498"><ele>198.0</ele><time>2026-04-19T13:41:44.479Z</time></trkpt><trkpt lat="44.9844049" lon="8.0184951"><ele>198.0</ele><time>2026-04-19T13:41:45.479Z</time></trkpt><trkpt lat="44.9843991" lon="8.0186253"><ele>198.0</ele><time>2026-04-19T13:41:46.48Z</time></trkpt><trkpt lat="44.9843698" lon="8.0187588"><ele>202.75</ele><time>2026-04-19T13:41:47.479Z</time></trkpt><trkpt lat="44.984241" lon="8.0188264"><ele>207.5</ele><time>2026-04-19T13:41:48.479Z</time></trkpt><trkpt lat="44.9841668" lon="8.018913"><ele>212.25</ele><time>2026-04-19T13:41:49.479Z</time></trkpt><trkpt lat="44.9840575" lon="8.0189743"><ele>217.0</ele><time>2026-04-19T13:41:50.479Z</time></trkpt><trkpt lat="44.983953" lon="8.0190146"><ele>217.8</ele><time>2026-04-19T13:41:51.48Z</time></trkpt><trkpt lat="44.9838596" lon="8.0190056"><ele>218.6</ele><time>2026-04-19T13:41:52.479Z</time></trkpt><trkpt lat="44.9837667" lon="8.0189806"><ele>219.40000000000003</ele><time>2026-04-19T13:41:53.479Z</time></trkpt><trkpt lat="44.9836842" lon="8.0189469"><ele>220.20000000000002</ele><time>2026-04-19T13:41:54.479Z</time></trkpt><trkpt lat="44.9836021" lon="8.0189316"><ele>221.0</ele><time>2026-04-19T13:41:55.479Z</time></trkpt><trkpt lat="44.9834777" lon="8.0189292"><ele>221.0</ele><time>2026-04-19T13:41:56.48Z</time></trkpt><trkpt lat="44.9833636" lon="8.0188964"><ele>221.0</ele><time>2026-04-19T13:41:57.479Z</time></trkpt><trkpt lat="44.9832679" lon="8.0188327"><ele>221.0</ele><time>2026-04-19T13:41:58.479Z</time></trkpt><trkpt lat="44.9831261" lon="8.018769"><ele>221.0</ele><time>2026-04-19T13:41:59.48Z</time></trkpt><trkpt lat="44.9830625" lon="8.0186386"><ele>223.60000000000002</ele><time>2026-04-19T13:42:00.479Z</time></trkpt><trkpt lat="44.9829765" lon="8.0185257"><ele>226.20000000000002</ele><time>2026-04-19T13:42:01.479Z</time></trkpt><trkpt lat="44.9829139" lon="8.0184894"><ele>228.79999999999998</ele><time>2026-04-19T13:42:02.48Z</time></trkpt><trkpt lat="44.9828372" lon="8.0184397"><ele>231.39999999999998</ele><time>2026-04-19T13:42:03.48Z</time></trkpt><trkpt lat="44.9827481" lon="8.0184161"><ele>234.0</ele><time>2026-04-19T13:42:04.479Z</time></trkpt><trkpt lat="44.9826487" lon="8.0184044"><ele>234.0</ele><time>2026-04-19T13:42:05.479Z</time></trkpt><trkpt lat="44.9825975" lon="8.0185338"><ele>234.0</ele><time>2026-04-19T13:42:07.479Z</time></trkpt><trkpt lat="44.9825236" lon="8.0186911"><ele>234.0</ele><time>2026-04-19T13:42:09.479Z</time></trkpt><trkpt lat="44.9825564" lon="8.0188559"><ele>234.0</ele><time>2026-04-19T13:42:10.48Z</time></trkpt><trkpt lat="44.9825947" lon="8.0189783"><ele>234.0</ele><time>2026-04-19T13:42:11.479Z</time></trkpt><trkpt lat="44.9826369" lon="8.0191205"><ele>233.99999999999997</ele><time>2026-04-19T13:42:12.48Z</time></trkpt><trkpt lat="44.9826455" lon="8.0192654"><ele>233.99999999999997</ele><time>2026-04-19T13:42:13.479Z</time></trkpt><trkpt lat="44.9826285" lon="8.0193673"><ele>234.0</ele><time>2026-04-19T13:42:14.479Z</time></trkpt><trkpt lat="44.9826218" lon="8.0195223"><ele>234.0</ele><time>2026-04-19T13:42:15.48Z</time></trkpt><trkpt lat="44.9825926" lon="8.0196732"><ele>237.25</ele><time>2026-04-19T13:42:16.479Z</time></trkpt><trkpt lat="44.9825418" lon="8.019823"><ele>240.5</ele><time>2026-04-19T13:42:17.48Z</time></trkpt><trkpt lat="44.9824698" lon="8.0199661"><ele>243.75</ele><time>2026-04-19T13:42:18.479Z</time></trkpt><trkpt lat="44.982409" lon="8.0201216"><ele>247.0</ele><time>2026-04-19T13:42:19.479Z</time></trkpt><trkpt lat="44.9823545" lon="8.020272"><ele>250.25</ele><time>2026-04-19T13:42:20.479Z</time></trkpt><trkpt lat="44.9822966" lon="8.0204254"><ele>253.5</ele><time>2026-04-19T13:42:21.48Z</time></trkpt><trkpt lat="44.9822251" lon="8.0205679"><ele>256.75</ele><time>2026-04-19T13:42:22.479Z</time></trkpt><trkpt lat="44.9821541" lon="8.0207026"><ele>260.0</ele><time>2026-04-19T13:42:23.479Z</time></trkpt><trkpt lat="44.9820793" lon="8.0208576"><ele>260.6</ele><time>2026-04-19T13:42:24.479Z</time></trkpt><trkpt lat="44.9819992" lon="8.0209778"><ele>261.2</ele><time>2026-04-19T13:42:25.479Z</time></trkpt><trkpt lat="44.9819322" lon="8.021086"><ele>261.8</ele><time>2026-04-19T13:42:26.479Z</time></trkpt><trkpt lat="44.9818669" lon="8.0211977"><ele>262.4</ele><time>2026-04-19T13:42:27.479Z</time></trkpt><trkpt lat="44.9818125" lon="8.021305"><ele>263.0</ele><time>2026-04-19T13:42:28.479Z</time></trkpt><trkpt lat="44.9817621" lon="8.021394"><ele>263.0</ele><time>2026-04-19T13:42:29.48Z</time></trkpt><trkpt lat="44.981721" lon="8.0214946"><ele>263.0</ele><time>2026-04-19T13:42:30.479Z</time></trkpt><trkpt lat="44.9816776" lon="8.0215712"><ele>263.0</ele><time>2026-04-19T13:42:31.479Z</time></trkpt><trkpt lat="44.981582" lon="8.0215399"><ele>263.0</ele><time>2026-04-19T13:42:33.479Z</time></trkpt><trkpt lat="44.9814349" lon="8.021521"><ele>263.0</ele><time>2026-04-19T13:42:35.48Z</time></trkpt><trkpt lat="44.9813382" lon="8.0215394"><ele>261.6</ele><time>2026-04-19T13:42:36.479Z</time></trkpt><trkpt lat="44.981251" lon="8.0215819"><ele>260.20000000000005</ele><time>2026-04-19T13:42:37.479Z</time></trkpt><trkpt lat="44.9811738" lon="8.0216299"><ele>258.8</ele><time>2026-04-19T13:42:38.48Z</time></trkpt><trkpt lat="44.9810694" lon="8.0216729"><ele>257.40000000000003</ele><time>2026-04-19T13:42:39.479Z</time></trkpt><trkpt lat="44.9809663" lon="8.0216991"><ele>256.0</ele><time>2026-04-19T13:42:40.479Z</time></trkpt><trkpt lat="44.9808837" lon="8.0216898"><ele>256.75</ele><time>2026-04-19T13:42:41.479Z</time></trkpt><trkpt lat="44.9807843" lon="8.0216397"><ele>257.5</ele><time>2026-04-19T13:42:42.48Z</time></trkpt><trkpt lat="44.9806813" lon="8.0215585"><ele>258.25</ele><time>2026-04-19T13:42:43.479Z</time></trkpt><trkpt lat="44.9806163" lon="8.0215158"><ele>259.0</ele><time>2026-04-19T13:42:44.479Z</time></trkpt><trkpt lat="44.980485" lon="8.0213876"><ele>259.0</ele><time>2026-04-19T13:42:45.479Z</time></trkpt><trkpt lat="44.9803702" lon="8.0212937"><ele>259.0</ele><time>2026-04-19T13:42:46.48Z</time></trkpt><trkpt lat="44.9802568" lon="8.0212315"><ele>259.0</ele><time>2026-04-19T13:42:47.479Z</time></trkpt><trkpt lat="44.9801462" lon="8.0211616"><ele>259.0</ele><time>2026-04-19T13:42:48.479Z</time></trkpt><trkpt lat="44.980016" lon="8.0211332"><ele>258.75</ele><time>2026-04-19T13:42:49.479Z</time></trkpt><trkpt lat="44.9798903" lon="8.0211016"><ele>258.5</ele><time>2026-04-19T13:42:50.48Z</time></trkpt><trkpt lat="44.9797603" lon="8.021084"><ele>258.25</ele><time>2026-04-19T13:42:51.479Z</time></trkpt><trkpt lat="44.9796121" lon="8.0210641"><ele>258.0</ele><time>2026-04-19T13:42:52.48Z</time></trkpt><trkpt lat="44.9794704" lon="8.0210371"><ele>258.0</ele><time>2026-04-19T13:42:53.479Z</time></trkpt><trkpt lat="44.9793563" lon="8.0210265"><ele>258.0</ele><time>2026-04-19T13:42:54.479Z</time></trkpt><trkpt lat="44.9792204" lon="8.0210174"><ele>258.0</ele><time>2026-04-19T13:42:55.479Z</time></trkpt><trkpt lat="44.9790812" lon="8.0210111"><ele>258.0</ele><time>2026-04-19T13:42:56.479Z</time></trkpt><trkpt lat="44.978965" lon="8.0209538"><ele>257.0</ele><time>2026-04-19T13:42:57.479Z</time></trkpt><trkpt lat="44.9788612" lon="8.0208724"><ele>256.0</ele><time>2026-04-19T13:42:58.479Z</time></trkpt><trkpt lat="44.9787844" lon="8.020763"><ele>255.0</ele><time>2026-04-19T13:42:59.479Z</time></trkpt><trkpt lat="44.9786744" lon="8.0206652"><ele>254.0</ele><time>2026-04-19T13:43:00.479Z</time></trkpt><trkpt lat="44.9785721" lon="8.0205612"><ele>255.0</ele><time>2026-04-19T13:43:01.48Z</time></trkpt><trkpt lat="44.9784876" lon="8.0204837"><ele>255.99999999999997</ele><time>2026-04-19T13:43:02.479Z</time></trkpt><trkpt lat="44.9783948" lon="8.0204601"><ele>257.0</ele><time>2026-04-19T13:43:03.479Z</time></trkpt><trkpt lat="44.9782982" lon="8.020409"><ele>258.0</ele><time>2026-04-19T13:43:04.479Z</time></trkpt><trkpt lat="44.9781929" lon="8.0204383"><ele>259.0</ele><time>2026-04-19T13:43:05.48Z</time></trkpt><trkpt lat="44.9781048" lon="8.0204561"><ele>259.0</ele><time>2026-04-19T13:43:06.48Z</time></trkpt><trkpt lat="44.9779777" lon="8.0204894"><ele>259.0</ele><time>2026-04-19T13:43:07.48Z</time></trkpt><trkpt lat="44.9778913" lon="8.0205887"><ele>259.0</ele><time>2026-04-19T13:43:08.48Z</time></trkpt><trkpt lat="44.9777939" lon="8.0206527"><ele>259.0</ele><time>2026-04-19T13:43:09.48Z</time></trkpt><trkpt lat="44.9777018" lon="8.0207705"><ele>257.0</ele><time>2026-04-19T13:43:10.48Z</time></trkpt><trkpt lat="44.9776017" lon="8.0208693"><ele>255.0</ele><time>2026-04-19T13:43:11.48Z</time></trkpt><trkpt lat="44.9774978" lon="8.0209516"><ele>253.0</ele><time>2026-04-19T13:43:12.479Z</time></trkpt><trkpt lat="44.9773972" lon="8.0210259"><ele>251.0</ele><time>2026-04-19T13:43:13.479Z</time></trkpt><trkpt lat="44.9772898" lon="8.0211033"><ele>251.0</ele><time>2026-04-19T13:43:14.479Z</time></trkpt><trkpt lat="44.9771831" lon="8.0211809"><ele>251.0</ele><time>2026-04-19T13:43:15.479Z</time></trkpt><trkpt lat="44.9770666" lon="8.0212573"><ele>251.0</ele><time>2026-04-19T13:43:16.48Z</time></trkpt><trkpt lat="44.9769519" lon="8.0213247"><ele>251.0</ele><time>2026-04-19T13:43:17.479Z</time></trkpt><trkpt lat="44.9768378" lon="8.0213887"><ele>251.0</ele><time>2026-04-19T13:43:18.479Z</time></trkpt><trkpt lat="44.9767283" lon="8.0214556"><ele>251.0</ele><time>2026-04-19T13:43:19.479Z</time></trkpt><trkpt lat="44.9766047" lon="8.0215042"><ele>251.0</ele><time>2026-04-19T13:43:20.479Z</time></trkpt><trkpt lat="44.9764813" lon="8.0215551"><ele>251.0</ele><time>2026-04-19T13:43:21.48Z</time></trkpt><trkpt lat="44.9763688" lon="8.0216053"><ele>249.75</ele><time>2026-04-19T13:43:22.479Z</time></trkpt><trkpt lat="44.9762607" lon="8.0216659"><ele>248.5</ele><time>2026-04-19T13:43:23.479Z</time></trkpt><trkpt lat="44.9761427" lon="8.0217546"><ele>247.25</ele><time>2026-04-19T13:43:24.479Z</time></trkpt><trkpt lat="44.9760277" lon="8.0218218"><ele>246.0</ele><time>2026-04-19T13:43:25.48Z</time></trkpt><trkpt lat="44.9759062" lon="8.0218858"><ele>247.75</ele><time>2026-04-19T13:43:26.48Z</time></trkpt><trkpt lat="44.9757794" lon="8.0219306"><ele>249.5</ele><time>2026-04-19T13:43:27.479Z</time></trkpt><trkpt lat="44.9756503" lon="8.0219729"><ele>251.25</ele><time>2026-04-19T13:43:28.479Z</time></trkpt><trkpt lat="44.9755243" lon="8.0219902"><ele>253.0</ele><time>2026-04-19T13:43:29.479Z</time></trkpt><trkpt lat="44.9754" lon="8.0220117"><ele>253.0</ele><time>2026-04-19T13:43:30.479Z</time></trkpt><trkpt lat="44.9753203" lon="8.0220223"><ele>253.0</ele><time>2026-04-19T13:43:31.48Z</time></trkpt><trkpt lat="44.9752411" lon="8.0220456"><ele>253.0</ele><time>2026-04-19T13:43:32.479Z</time></trkpt><trkpt lat="44.9751111" lon="8.0220148"><ele>253.0</ele><time>2026-04-19T13:43:34.48Z</time></trkpt><trkpt lat="44.9750703" lon="8.0219373"><ele>253.0</ele><time>2026-04-19T13:43:35.48Z</time></trkpt><trkpt lat="44.9749499" lon="8.0218278"><ele>252.8</ele><time>2026-04-19T13:43:36.479Z</time></trkpt><trkpt lat="44.974859" lon="8.0217556"><ele>252.60000000000002</ele><time>2026-04-19T13:43:37.479Z</time></trkpt><trkpt lat="44.9747375" lon="8.0216929"><ele>252.39999999999998</ele><time>2026-04-19T13:43:38.48Z</time></trkpt><trkpt lat="44.9746429" lon="8.0216473"><ele>252.2</ele><time>2026-04-19T13:43:39.48Z</time></trkpt><trkpt lat="44.9745399" lon="8.0216121"><ele>252.0</ele><time>2026-04-19T13:43:40.479Z</time></trkpt><trkpt lat="44.9744335" lon="8.0215932"><ele>251.6</ele><time>2026-04-19T13:43:41.479Z</time></trkpt><trkpt lat="44.9743525" lon="8.021551"><ele>251.2</ele><time>2026-04-19T13:43:42.479Z</time></trkpt><trkpt lat="44.9742441" lon="8.0215161"><ele>250.8</ele><time>2026-04-19T13:43:43.479Z</time></trkpt><trkpt lat="44.9741412" lon="8.0214794"><ele>250.4</ele><time>2026-04-19T13:43:44.479Z</time></trkpt><trkpt lat="44.9740706" lon="8.0214828"><ele>250.0</ele><time>2026-04-19T13:43:45.479Z</time></trkpt><trkpt lat="44.9739645" lon="8.0215626"><ele>250.0</ele><time>2026-04-19T13:43:47.479Z</time></trkpt><trkpt lat="44.9738945" lon="8.021664"><ele>250.0</ele><time>2026-04-19T13:43:48.48Z</time></trkpt><trkpt lat="44.9737937" lon="8.0217557"><ele>250.0</ele><time>2026-04-19T13:43:49.48Z</time></trkpt><trkpt lat="44.9737209" lon="8.0218413"><ele>250.0</ele><time>2026-04-19T13:43:50.479Z</time></trkpt><trkpt lat="44.9736415" lon="8.0218876"><ele>250.0</ele><time>2026-04-19T13:43:51.48Z</time></trkpt><trkpt lat="44.9735585" lon="8.02188"><ele>249.99999999999997</ele><time>2026-04-19T13:43:53.479Z</time></trkpt><trkpt lat="44.9735063" lon="8.0218265"><ele>250.0</ele><time>2026-04-19T13:43:54.48Z</time></trkpt><trkpt lat="44.973426" lon="8.0217445"><ele>250.0</ele><time>2026-04-19T13:43:55.48Z</time></trkpt><trkpt lat="44.9733772" lon="8.0216724"><ele>250.0</ele><time>2026-04-19T13:43:56.48Z</time></trkpt><trkpt lat="44.9732791" lon="8.0215786"><ele>249.99999999999997</ele><time>2026-04-19T13:43:57.479Z</time></trkpt><trkpt lat="44.9731965" lon="8.0215143"><ele>250.0</ele><time>2026-04-19T13:43:58.479Z</time></trkpt><trkpt lat="44.973111" lon="8.0214247"><ele>254.75</ele><time>2026-04-19T13:43:59.479Z</time></trkpt><trkpt lat="44.9730123" lon="8.0213309"><ele>259.5</ele><time>2026-04-19T13:44:00.479Z</time></trkpt><trkpt lat="44.9729126" lon="8.0212647"><ele>264.25</ele><time>2026-04-19T13:44:01.479Z</time></trkpt><trkpt lat="44.9727975" lon="8.0211835"><ele>269.0</ele><time>2026-04-19T13:44:02.48Z</time></trkpt><trkpt lat="44.9726814" lon="8.0210966"><ele>269.0</ele><time>2026-04-19T13:44:03.479Z</time></trkpt><trkpt lat="44.9725641" lon="8.0210194"><ele>269.0</ele><time>2026-04-19T13:44:04.479Z</time></trkpt><trkpt lat="44.9724812" lon="8.0209741"><ele>269.0</ele><time>2026-04-19T13:44:05.479Z</time></trkpt><trkpt lat="44.9724056" lon="8.02094"><ele>269.0</ele><time>2026-04-19T13:44:06.479Z</time></trkpt><trkpt lat="44.9722656" lon="8.0208912"><ele>269.0</ele><time>2026-04-19T13:44:07.48Z</time></trkpt><trkpt lat="44.9721896" lon="8.020889"><ele>269.0</ele><time>2026-04-19T13:44:08.48Z</time></trkpt><trkpt lat="44.9721218" lon="8.0208791"><ele>269.0</ele><time>2026-04-19T13:44:09.479Z</time></trkpt><trkpt lat="44.9720475" lon="8.0208558"><ele>269.0</ele><time>2026-04-19T13:44:10.48Z</time></trkpt><trkpt lat="44.9719629" lon="8.0208526"><ele>269.0</ele><time>2026-04-19T13:44:11.479Z</time></trkpt><trkpt lat="44.97188" lon="8.0208314"><ele>269.0</ele><time>2026-04-19T13:44:12.48Z</time></trkpt><trkpt lat="44.9718073" lon="8.0208039"><ele>269.0</ele><time>2026-04-19T13:44:13.479Z</time></trkpt><trkpt lat="44.9717471" lon="8.0207674"><ele>267.0</ele><time>2026-04-19T13:44:14.479Z</time></trkpt><trkpt lat="44.9716688" lon="8.0207035"><ele>265.0</ele><time>2026-04-19T13:44:15.479Z</time></trkpt><trkpt lat="44.9715903" lon="8.0206489"><ele>263.0</ele><time>2026-04-19T13:44:16.479Z</time></trkpt><trkpt lat="44.9715073" lon="8.020556"><ele>261.0</ele><time>2026-04-19T13:44:17.479Z</time></trkpt><trkpt lat="44.9714328" lon="8.0204882"><ele>259.0</ele><time>2026-04-19T13:44:18.479Z</time></trkpt><trkpt lat="44.9713441" lon="8.0204283"><ele>259.0</ele><time>2026-04-19T13:44:19.479Z</time></trkpt><trkpt lat="44.9712578" lon="8.0204009"><ele>259.0</ele><time>2026-04-19T13:44:20.48Z</time></trkpt><trkpt lat="44.9711599" lon="8.0203882"><ele>259.0</ele><time>2026-04-19T13:44:21.479Z</time></trkpt><trkpt lat="44.971059" lon="8.0203778"><ele>259.0</ele><time>2026-04-19T13:44:22.479Z</time></trkpt><trkpt lat="44.9709527" lon="8.0203642"><ele>259.0</ele><time>2026-04-19T13:44:23.479Z</time></trkpt><trkpt lat="44.9708491" lon="8.0203532"><ele>258.66666666666663</ele><time>2026-04-19T13:44:24.479Z</time></trkpt><trkpt lat="44.9707619" lon="8.0203402"><ele>258.3333333333333</ele><time>2026-04-19T13:44:25.479Z</time></trkpt><trkpt lat="44.9706925" lon="8.0203242"><ele>258.0</ele><time>2026-04-19T13:44:26.479Z</time></trkpt><trkpt lat="44.9706229" lon="8.0202947"><ele>257.6666666666667</ele><time>2026-04-19T13:44:27.479Z</time></trkpt><trkpt lat="44.9705538" lon="8.0202483"><ele>257.33333333333337</ele><time>2026-04-19T13:44:28.479Z</time></trkpt><trkpt lat="44.9704841" lon="8.0201782"><ele>257.0</ele><time>2026-04-19T13:44:29.479Z</time></trkpt><trkpt lat="44.9704128" lon="8.0200824"><ele>255.8</ele><time>2026-04-19T13:44:30.479Z</time></trkpt><trkpt lat="44.9703464" lon="8.0199817"><ele>254.6</ele><time>2026-04-19T13:44:31.479Z</time></trkpt><trkpt lat="44.9702801" lon="8.0198676"><ele>253.40000000000003</ele><time>2026-04-19T13:44:32.479Z</time></trkpt><trkpt lat="44.9702299" lon="8.019744"><ele>252.20000000000002</ele><time>2026-04-19T13:44:33.479Z</time></trkpt><trkpt lat="44.9701626" lon="8.0196288"><ele>251.0</ele><time>2026-04-19T13:44:34.479Z</time></trkpt><trkpt lat="44.9700978" lon="8.0195164"><ele>251.0</ele><time>2026-04-19T13:44:35.479Z</time></trkpt><trkpt lat="44.9700294" lon="8.0194192"><ele>251.00000000000003</ele><time>2026-04-19T13:44:36.479Z</time></trkpt><trkpt lat="44.9699555" lon="8.0193012"><ele>251.00000000000003</ele><time>2026-04-19T13:44:37.48Z</time></trkpt><trkpt lat="44.9699031" lon="8.0192084"><ele>251.0</ele><time>2026-04-19T13:44:38.48Z</time></trkpt><trkpt lat="44.9698539" lon="8.0191056"><ele>251.0</ele><time>2026-04-19T13:44:39.479Z</time></trkpt><trkpt lat="44.9698267" lon="8.0190146"><ele>250.33333333333334</ele><time>2026-04-19T13:44:40.479Z</time></trkpt><trkpt lat="44.9698447" lon="8.0189044"><ele>249.66666666666669</ele><time>2026-04-19T13:44:41.48Z</time></trkpt><trkpt lat="44.9698568" lon="8.0187967"><ele>249.0</ele><time>2026-04-19T13:44:42.479Z</time></trkpt><trkpt lat="44.9698731" lon="8.0187025"><ele>248.33333333333331</ele><time>2026-04-19T13:44:43.479Z</time></trkpt><trkpt lat="44.9698577" lon="8.0185581"><ele>247.66666666666666</ele><time>2026-04-19T13:44:45.479Z</time></trkpt><trkpt lat="44.9698105" lon="8.01849"><ele>247.0</ele><time>2026-04-19T13:44:46.479Z</time></trkpt><trkpt lat="44.9697217" lon="8.0184409"><ele>246.99999999999997</ele><time>2026-04-19T13:44:47.479Z</time></trkpt><trkpt lat="44.9696303" lon="8.018393"><ele>247.0</ele><time>2026-04-19T13:44:48.48Z</time></trkpt><trkpt lat="44.9695517" lon="8.01837"><ele>247.0</ele><time>2026-04-19T13:44:49.479Z</time></trkpt><trkpt lat="44.9694305" lon="8.0183617"><ele>247.0</ele><time>2026-04-19T13:44:51.48Z</time></trkpt><trkpt lat="44.9693562" lon="8.018383"><ele>246.99999999999997</ele><time>2026-04-19T13:44:52.479Z</time></trkpt><trkpt lat="44.9692841" lon="8.0183924"><ele>247.0</ele><time>2026-04-19T13:44:53.48Z</time></trkpt><trkpt lat="44.9692099" lon="8.0184534"><ele>246.0</ele><time>2026-04-19T13:44:54.48Z</time></trkpt><trkpt lat="44.9691263" lon="8.0185613"><ele>245.0</ele><time>2026-04-19T13:44:55.48Z</time></trkpt><trkpt lat="44.9690485" lon="8.0186171"><ele>244.0</ele><time>2026-04-19T13:44:56.479Z</time></trkpt><trkpt lat="44.9689458" lon="8.0186875"><ele>243.0</ele><time>2026-04-19T13:44:57.479Z</time></trkpt><trkpt lat="44.9688456" lon="8.0187536"><ele>242.0</ele><time>2026-04-19T13:44:58.479Z</time></trkpt><trkpt lat="44.9687492" lon="8.0188133"><ele>242.00000000000003</ele><time>2026-04-19T13:44:59.48Z</time></trkpt><trkpt lat="44.9686558" lon="8.0188433"><ele>242.0</ele><time>2026-04-19T13:45:00.479Z</time></trkpt><trkpt lat="44.9686112" lon="8.0189235"><ele>242.0</ele><time>2026-04-19T13:45:01.479Z</time></trkpt><trkpt lat="44.9685185" lon="8.0189321"><ele>242.0</ele><time>2026-04-19T13:45:03.48Z</time></trkpt><trkpt lat="44.9684575" lon="8.0189567"><ele>242.00000000000003</ele><time>2026-04-19T13:45:04.479Z</time></trkpt><trkpt lat="44.9683907" lon="8.0189638"><ele>242.0</ele><time>2026-04-19T13:45:05.479Z</time></trkpt><trkpt lat="44.9683166" lon="8.0189851"><ele>240.2</ele><time>2026-04-19T13:45:07.479Z</time></trkpt><trkpt lat="44.9682218" lon="8.0190333"><ele>238.39999999999998</ele><time>2026-04-19T13:45:09.48Z</time></trkpt><trkpt lat="44.9681599" lon="8.0191369"><ele>236.60000000000002</ele><time>2026-04-19T13:45:11.48Z</time></trkpt><trkpt lat="44.9680738" lon="8.0192355"><ele>234.8</ele><time>2026-04-19T13:45:13.479Z</time></trkpt><trkpt lat="44.9679782" lon="8.0193261"><ele>233.0</ele><time>2026-04-19T13:45:15.479Z</time></trkpt><trkpt lat="44.967862" lon="8.0193624"><ele>233.0</ele><time>2026-04-19T13:45:17.479Z</time></trkpt><trkpt lat="44.967741" lon="8.019414"><ele>233.0</ele><time>2026-04-19T13:45:19.48Z</time></trkpt><trkpt lat="44.9676342" lon="8.0194741"><ele>233.0</ele><time>2026-04-19T13:45:21.479Z</time></trkpt><trkpt lat="44.9675315" lon="8.0195512"><ele>233.0</ele><time>2026-04-19T13:45:23.479Z</time></trkpt><trkpt lat="44.967472" lon="8.0195867"><ele>233.0</ele><time>2026-04-19T13:45:24.479Z</time></trkpt><trkpt lat="44.9673796" lon="8.0196957"><ele>233.0</ele><time>2026-04-19T13:45:26.48Z</time></trkpt><trkpt lat="44.9672738" lon="8.0197921"><ele>233.0</ele><time>2026-04-19T13:45:28.48Z</time></trkpt><trkpt lat="44.9672152" lon="8.0198547"><ele>233.0</ele><time>2026-04-19T13:45:29.48Z</time></trkpt><trkpt lat="44.9671663" lon="8.0199138"><ele>233.0</ele><time>2026-04-19T13:45:30.48Z</time></trkpt><trkpt lat="44.9670735" lon="8.0199719"><ele>233.0</ele><time>2026-04-19T13:45:32.479Z</time></trkpt><trkpt lat="44.9669768" lon="8.0200799"><ele>233.2</ele><time>2026-04-19T13:45:34.479Z</time></trkpt><trkpt lat="44.9669199" lon="8.020128"><ele>233.4</ele><time>2026-04-19T13:45:35.48Z</time></trkpt><trkpt lat="44.9668174" lon="8.0201877"><ele>233.59999999999997</ele><time>2026-04-19T13:45:37.48Z</time></trkpt><trkpt lat="44.9667419" lon="8.0202865"><ele>233.79999999999998</ele><time>2026-04-19T13:45:39.479Z</time></trkpt><trkpt lat="44.9666742" lon="8.0203367"><ele>234.0</ele><time>2026-04-19T13:45:41.479Z</time></trkpt><trkpt lat="44.9666072" lon="8.0204345"><ele>234.39999999999998</ele><time>2026-04-19T13:45:43.479Z</time></trkpt><trkpt lat="44.9665447" lon="8.0205165"><ele>234.79999999999998</ele><time>2026-04-19T13:45:45.479Z</time></trkpt><trkpt lat="44.9664641" lon="8.0205946"><ele>235.20000000000002</ele><time>2026-04-19T13:45:47.479Z</time></trkpt><trkpt lat="44.9664003" lon="8.0207015"><ele>235.60000000000002</ele><time>2026-04-19T13:45:49.479Z</time></trkpt><trkpt lat="44.9663316" lon="8.0207473"><ele>236.0</ele><time>2026-04-19T13:45:51.48Z</time></trkpt><trkpt lat="44.9662382" lon="8.0208755"><ele>236.5</ele><time>2026-04-19T13:45:53.48Z</time></trkpt><trkpt lat="44.9661783" lon="8.0210035"><ele>237.0</ele><time>2026-04-19T13:45:55.479Z</time></trkpt><trkpt lat="44.9661106" lon="8.0211317"><ele>237.5</ele><time>2026-04-19T13:45:57.479Z</time></trkpt><trkpt lat="44.9660324" lon="8.0212518"><ele>238.0</ele><time>2026-04-19T13:45:59.48Z</time></trkpt><trkpt lat="44.9659426" lon="8.0213551"><ele>238.0</ele><time>2026-04-19T13:46:01.48Z</time></trkpt><trkpt lat="44.9658763" lon="8.0214548"><ele>238.0</ele><time>2026-04-19T13:46:03.479Z</time></trkpt><trkpt lat="44.9658058" lon="8.0215382"><ele>238.0</ele><time>2026-04-19T13:46:05.479Z</time></trkpt><trkpt lat="44.965707" lon="8.0216149"><ele>238.0</ele><time>2026-04-19T13:46:07.48Z</time></trkpt><trkpt lat="44.965597" lon="8.0216991"><ele>238.0</ele><time>2026-04-19T13:46:09.479Z</time></trkpt><trkpt lat="44.965531" lon="8.0217527"><ele>236.8</ele><time>2026-04-19T13:46:10.479Z</time></trkpt><trkpt lat="44.965469" lon="8.0217802"><ele>235.60000000000002</ele><time>2026-04-19T13:46:11.48Z</time></trkpt><trkpt lat="44.9653561" lon="8.0218364"><ele>234.39999999999998</ele><time>2026-04-19T13:46:13.479Z</time></trkpt><trkpt lat="44.9652892" lon="8.0218777"><ele>233.2</ele><time>2026-04-19T13:46:14.479Z</time></trkpt><trkpt lat="44.9652201" lon="8.0218974"><ele>232.0</ele><time>2026-04-19T13:46:15.479Z</time></trkpt><trkpt lat="44.9651207" lon="8.0220022"><ele>232.39999999999998</ele><time>2026-04-19T13:46:17.479Z</time></trkpt><trkpt lat="44.9650259" lon="8.0221076"><ele>232.79999999999998</ele><time>2026-04-19T13:46:19.48Z</time></trkpt><trkpt lat="44.9649297" lon="8.0221214"><ele>233.2</ele><time>2026-04-19T13:46:21.479Z</time></trkpt><trkpt lat="44.9648345" lon="8.0221131"><ele>233.6</ele><time>2026-04-19T13:46:23.479Z</time></trkpt><trkpt lat="44.9647492" lon="8.0221186"><ele>234.0</ele><time>2026-04-19T13:46:25.479Z</time></trkpt><trkpt lat="44.9646426" lon="8.0221324"><ele>234.0</ele><time>2026-04-19T13:46:26.479Z</time></trkpt><trkpt lat="44.964574" lon="8.0221001"><ele>233.99999999999997</ele><time>2026-04-19T13:46:28.479Z</time></trkpt><trkpt lat="44.9645087" lon="8.0221013"><ele>233.99999999999997</ele><time>2026-04-19T13:46:29.479Z</time></trkpt><trkpt lat="44.9644422" lon="8.0220855"><ele>234.0</ele><time>2026-04-19T13:46:30.479Z</time></trkpt><trkpt lat="44.9643093" lon="8.0220658"><ele>234.0</ele><time>2026-04-19T13:46:32.48Z</time></trkpt><trkpt lat="44.9641707" lon="8.0220513"><ele>235.16666666666666</ele><time>2026-04-19T13:46:34.48Z</time></trkpt><trkpt lat="44.9640979" lon="8.0220444"><ele>236.33333333333331</ele><time>2026-04-19T13:46:35.48Z</time></trkpt><trkpt lat="44.9640326" lon="8.0220678"><ele>237.5</ele><time>2026-04-19T13:46:36.479Z</time></trkpt><trkpt lat="44.9639637" lon="8.0220631"><ele>238.66666666666666</ele><time>2026-04-19T13:46:38.479Z</time></trkpt><trkpt lat="44.9638414" lon="8.0220223"><ele>239.83333333333331</ele><time>2026-04-19T13:46:40.48Z</time></trkpt><trkpt lat="44.9637712" lon="8.0219402"><ele>241.0</ele><time>2026-04-19T13:46:42.48Z</time></trkpt><trkpt lat="44.9637111" lon="8.021902"><ele>241.0</ele><time>2026-04-19T13:46:43.479Z</time></trkpt><trkpt lat="44.9635944" lon="8.0218307"><ele>241.00000000000003</ele><time>2026-04-19T13:46:45.48Z</time></trkpt><trkpt lat="44.9635429" lon="8.0217703"><ele>241.00000000000003</ele><time>2026-04-19T13:46:46.479Z</time></trkpt><trkpt lat="44.9634318" lon="8.0216984"><ele>241.0</ele><time>2026-04-19T13:46:48.48Z</time></trkpt><trkpt lat="44.9633269" lon="8.0216745"><ele>241.0</ele><time>2026-04-19T13:46:50.48Z</time></trkpt><trkpt lat="44.963236" lon="8.0217136"><ele>242.0</ele><time>2026-04-19T13:46:52.48Z</time></trkpt><trkpt lat="44.9631232" lon="8.0217549"><ele>243.00000000000003</ele><time>2026-04-19T13:46:54.48Z</time></trkpt><trkpt lat="44.963054" lon="8.021836"><ele>244.00000000000003</ele><time>2026-04-19T13:46:56.48Z</time></trkpt><trkpt lat="44.9629897" lon="8.0219609"><ele>245.0</ele><time>2026-04-19T13:46:58.48Z</time></trkpt><trkpt lat="44.9629528" lon="8.0220476"><ele>246.0</ele><time>2026-04-19T13:46:59.479Z</time></trkpt><trkpt lat="44.9629523" lon="8.0221377"><ele>246.00000000000003</ele><time>2026-04-19T13:47:07.479Z</time></trkpt><trkpt lat="44.9629217" lon="8.0222181"><ele>246.0</ele><time>2026-04-19T13:47:53.479Z</time></trkpt><trkpt lat="44.9628761" lon="8.0223198"><ele>246.00000000000003</ele><time>2026-04-19T13:47:56.479Z</time></trkpt><trkpt lat="44.9628363" lon="8.0223999"><ele>246.00000000000003</ele><time>2026-04-19T13:47:58.48Z</time></trkpt><trkpt lat="44.9627962" lon="8.0224815"><ele>246.0</ele><time>2026-04-19T13:48:00.479Z</time></trkpt><trkpt lat="44.962762" lon="8.0225673"><ele>246.00000000000003</ele><time>2026-04-19T13:48:02.479Z</time></trkpt><trkpt lat="44.962734" lon="8.0226669"><ele>246.00000000000003</ele><time>2026-04-19T13:48:04.479Z</time></trkpt><trkpt lat="44.9627077" lon="8.0227784"><ele>245.66666666666666</ele><time>2026-04-19T13:48:06.479Z</time></trkpt><trkpt lat="44.9626749" lon="8.0228792"><ele>245.33333333333331</ele><time>2026-04-19T13:48:08.479Z</time></trkpt><trkpt lat="44.9626304" lon="8.0229686"><ele>245.0</ele><time>2026-04-19T13:48:10.479Z</time></trkpt><trkpt lat="44.9625789" lon="8.0230685"><ele>244.66666666666666</ele><time>2026-04-19T13:48:12.479Z</time></trkpt><trkpt lat="44.9625037" lon="8.0231741"><ele>244.33333333333331</ele><time>2026-04-19T13:48:14.479Z</time></trkpt><trkpt lat="44.962505" lon="8.0232718"><ele>244.0</ele><time>2026-04-19T13:48:16.479Z</time></trkpt><trkpt lat="44.9624464" lon="8.0233994"><ele>243.83333333333331</ele><time>2026-04-19T13:48:18.479Z</time></trkpt><trkpt lat="44.9623853" lon="8.0235509"><ele>243.66666666666666</ele><time>2026-04-19T13:48:20.48Z</time></trkpt><trkpt lat="44.9623422" lon="8.023625"><ele>243.5</ele><time>2026-04-19T13:48:21.479Z</time></trkpt><trkpt lat="44.9623055" lon="8.0237061"><ele>243.33333333333331</ele><time>2026-04-19T13:48:22.48Z</time></trkpt><trkpt lat="44.962263" lon="8.0237929"><ele>243.16666666666666</ele><time>2026-04-19T13:48:23.479Z</time></trkpt><trkpt lat="44.9622246" lon="8.0238715"><ele>243.0</ele><time>2026-04-19T13:48:24.479Z</time></trkpt><trkpt lat="44.9621579" lon="8.0240141"><ele>243.0</ele><time>2026-04-19T13:48:26.479Z</time></trkpt><trkpt lat="44.962096" lon="8.0241655"><ele>243.0</ele><time>2026-04-19T13:48:28.479Z</time></trkpt><trkpt lat="44.9620625" lon="8.0242425"><ele>243.0</ele><time>2026-04-19T13:48:29.479Z</time></trkpt><trkpt lat="44.9620153" lon="8.0243183"><ele>243.0</ele><time>2026-04-19T13:48:30.48Z</time></trkpt><trkpt lat="44.9619771" lon="8.0244089"><ele>243.0</ele><time>2026-04-19T13:48:31.479Z</time></trkpt><trkpt lat="44.9619374" lon="8.024506"><ele>243.0</ele><time>2026-04-19T13:48:32.48Z</time></trkpt><trkpt lat="44.9618954" lon="8.0246079"><ele>243.0</ele><time>2026-04-19T13:48:33.48Z</time></trkpt><trkpt lat="44.9618549" lon="8.0247102"><ele>243.0</ele><time>2026-04-19T13:48:34.48Z</time></trkpt><trkpt lat="44.961814" lon="8.0248269"><ele>243.0</ele><time>2026-04-19T13:48:35.48Z</time></trkpt><trkpt lat="44.9617635" lon="8.024939"><ele>243.0</ele><time>2026-04-19T13:48:36.48Z</time></trkpt><trkpt lat="44.9617553" lon="8.0250855"><ele>243.0</ele><time>2026-04-19T13:48:37.48Z</time></trkpt><trkpt lat="44.9617121" lon="8.0252077"><ele>244.0</ele><time>2026-04-19T13:48:38.479Z</time></trkpt><trkpt lat="44.9616071" lon="8.025266"><ele>245.0</ele><time>2026-04-19T13:48:39.48Z</time></trkpt><trkpt lat="44.9615067" lon="8.0253627"><ele>246.0</ele><time>2026-04-19T13:48:40.479Z</time></trkpt><trkpt lat="44.9613971" lon="8.0254092"><ele>247.0</ele><time>2026-04-19T13:48:41.48Z</time></trkpt><trkpt lat="44.9613193" lon="8.0254802"><ele>248.0</ele><time>2026-04-19T13:48:42.48Z</time></trkpt><trkpt lat="44.9612346" lon="8.025525"><ele>248.0</ele><time>2026-04-19T13:48:43.479Z</time></trkpt><trkpt lat="44.9611498" lon="8.0255737"><ele>248.0</ele><time>2026-04-19T13:48:44.479Z</time></trkpt><trkpt lat="44.9610594" lon="8.0256016"><ele>248.0</ele><time>2026-04-19T13:48:45.479Z</time></trkpt><trkpt lat="44.9609758" lon="8.0256522"><ele>248.0</ele><time>2026-04-19T13:48:46.479Z</time></trkpt><trkpt lat="44.960879" lon="8.0256936"><ele>248.0</ele><time>2026-04-19T13:48:47.479Z</time></trkpt><trkpt lat="44.9607874" lon="8.0257454"><ele>249.25</ele><time>2026-04-19T13:48:48.479Z</time></trkpt><trkpt lat="44.9606807" lon="8.0257797"><ele>250.5</ele><time>2026-04-19T13:48:49.479Z</time></trkpt><trkpt lat="44.9605816" lon="8.0258432"><ele>251.75</ele><time>2026-04-19T13:48:50.479Z</time></trkpt><trkpt lat="44.9604457" lon="8.0258765"><ele>253.0</ele><time>2026-04-19T13:48:51.479Z</time></trkpt><trkpt lat="44.9603365" lon="8.0258995"><ele>253.0</ele><time>2026-04-19T13:48:52.479Z</time></trkpt><trkpt lat="44.9602137" lon="8.0259093"><ele>253.0</ele><time>2026-04-19T13:48:53.479Z</time></trkpt><trkpt lat="44.9600738" lon="8.0259237"><ele>253.0</ele><time>2026-04-19T13:48:54.479Z</time></trkpt><trkpt lat="44.9599454" lon="8.0258439"><ele>253.0</ele><time>2026-04-19T13:48:55.479Z</time></trkpt><trkpt lat="44.9598096" lon="8.0257641"><ele>249.5</ele><time>2026-04-19T13:48:56.479Z</time></trkpt><trkpt lat="44.95968" lon="8.0256938"><ele>246.0</ele><time>2026-04-19T13:48:57.48Z</time></trkpt><trkpt lat="44.959554" lon="8.0256246"><ele>242.5</ele><time>2026-04-19T13:48:58.479Z</time></trkpt><trkpt lat="44.9594255" lon="8.0255657"><ele>239.0</ele><time>2026-04-19T13:48:59.479Z</time></trkpt><trkpt lat="44.9593113" lon="8.0254794"><ele>242.0</ele><time>2026-04-19T13:49:00.479Z</time></trkpt><trkpt lat="44.9591923" lon="8.0253779"><ele>245.0</ele><time>2026-04-19T13:49:01.48Z</time></trkpt><trkpt lat="44.9590757" lon="8.0252654"><ele>248.0</ele><time>2026-04-19T13:49:02.48Z</time></trkpt><trkpt lat="44.958968" lon="8.0251705"><ele>251.0</ele><time>2026-04-19T13:49:03.479Z</time></trkpt><trkpt lat="44.9588638" lon="8.0250629"><ele>248.0</ele><time>2026-04-19T13:49:04.479Z</time></trkpt><trkpt lat="44.9587548" lon="8.0249543"><ele>245.0</ele><time>2026-04-19T13:49:05.479Z</time></trkpt><trkpt lat="44.9586414" lon="8.0248429"><ele>242.0</ele><time>2026-04-19T13:49:06.48Z</time></trkpt><trkpt lat="44.9585384" lon="8.0247196"><ele>239.0</ele><time>2026-04-19T13:49:07.48Z</time></trkpt><trkpt lat="44.9584341" lon="8.0246003"><ele>242.25</ele><time>2026-04-19T13:49:08.479Z</time></trkpt><trkpt lat="44.9583269" lon="8.0244846"><ele>245.5</ele><time>2026-04-19T13:49:09.479Z</time></trkpt><trkpt lat="44.9582167" lon="8.0243751"><ele>248.75</ele><time>2026-04-19T13:49:10.48Z</time></trkpt><trkpt lat="44.9581052" lon="8.024296"><ele>252.0</ele><time>2026-04-19T13:49:11.479Z</time></trkpt><trkpt lat="44.957997" lon="8.0242267"><ele>251.5</ele><time>2026-04-19T13:49:12.479Z</time></trkpt><trkpt lat="44.9578765" lon="8.0241382"><ele>251.0</ele><time>2026-04-19T13:49:13.48Z</time></trkpt><trkpt lat="44.9577489" lon="8.0240875"><ele>250.5</ele><time>2026-04-19T13:49:14.48Z</time></trkpt><trkpt lat="44.9576256" lon="8.0240166"><ele>250.0</ele><time>2026-04-19T13:49:15.48Z</time></trkpt><trkpt lat="44.9574907" lon="8.0239616"><ele>251.75</ele><time>2026-04-19T13:49:16.48Z</time></trkpt><trkpt lat="44.9573398" lon="8.0239216"><ele>253.5</ele><time>2026-04-19T13:49:17.479Z</time></trkpt><trkpt lat="44.9571983" lon="8.0239044"><ele>255.25</ele><time>2026-04-19T13:49:18.48Z</time></trkpt><trkpt lat="44.957049" lon="8.023899"><ele>257.0</ele><time>2026-04-19T13:49:19.479Z</time></trkpt><trkpt lat="44.956906" lon="8.0239421"><ele>257.0</ele><time>2026-04-19T13:49:20.479Z</time></trkpt><trkpt lat="44.9567653" lon="8.0239997"><ele>257.0</ele><time>2026-04-19T13:49:21.48Z</time></trkpt><trkpt lat="44.9566324" lon="8.0240562"><ele>257.0</ele><time>2026-04-19T13:49:22.479Z</time></trkpt><trkpt lat="44.9565005" lon="8.024175"><ele>257.0</ele><time>2026-04-19T13:49:23.479Z</time></trkpt><trkpt lat="44.956379" lon="8.0243134"><ele>253.33333333333334</ele><time>2026-04-19T13:49:24.479Z</time></trkpt><trkpt lat="44.9562523" lon="8.0244342"><ele>249.66666666666669</ele><time>2026-04-19T13:49:25.479Z</time></trkpt><trkpt lat="44.9561123" lon="8.0245612"><ele>246.0</ele><time>2026-04-19T13:49:26.479Z</time></trkpt><trkpt lat="44.9559784" lon="8.0246772"><ele>246.75</ele><time>2026-04-19T13:49:27.479Z</time></trkpt><trkpt lat="44.9558463" lon="8.0247891"><ele>247.5</ele><time>2026-04-19T13:49:28.479Z</time></trkpt><trkpt lat="44.9557173" lon="8.0249112"><ele>248.25</ele><time>2026-04-19T13:49:29.48Z</time></trkpt><trkpt lat="44.9556064" lon="8.0250201"><ele>249.0</ele><time>2026-04-19T13:49:30.48Z</time></trkpt><trkpt lat="44.9554887" lon="8.0251226"><ele>249.0</ele><time>2026-04-19T13:49:31.48Z</time></trkpt><trkpt lat="44.9553654" lon="8.0251981"><ele>249.0</ele><time>2026-04-19T13:49:32.48Z</time></trkpt><trkpt lat="44.9552376" lon="8.0252601"><ele>249.0</ele><time>2026-04-19T13:49:33.479Z</time></trkpt><trkpt lat="44.9551172" lon="8.0253271"><ele>249.0</ele><time>2026-04-19T13:49:34.479Z</time></trkpt><trkpt lat="44.9549758" lon="8.0253702"><ele>247.5</ele><time>2026-04-19T13:49:35.48Z</time></trkpt><trkpt lat="44.9548431" lon="8.0254354"><ele>246.0</ele><time>2026-04-19T13:49:36.48Z</time></trkpt><trkpt lat="44.9547148" lon="8.0254964"><ele>244.5</ele><time>2026-04-19T13:49:37.48Z</time></trkpt><trkpt lat="44.9546055" lon="8.0255503"><ele>243.0</ele><time>2026-04-19T13:49:38.479Z</time></trkpt><trkpt lat="44.9544866" lon="8.0256023"><ele>243.0</ele><time>2026-04-19T13:49:39.479Z</time></trkpt><trkpt lat="44.9543689" lon="8.0256596"><ele>243.0</ele><time>2026-04-19T13:49:40.48Z</time></trkpt><trkpt lat="44.9542417" lon="8.0257097"><ele>243.0</ele><time>2026-04-19T13:49:41.479Z</time></trkpt><trkpt lat="44.9541189" lon="8.0257652"><ele>243.0</ele><time>2026-04-19T13:49:42.48Z</time></trkpt><trkpt lat="44.95399" lon="8.0258246"><ele>243.0</ele><time>2026-04-19T13:49:43.48Z</time></trkpt><trkpt lat="44.9538544" lon="8.0258917"><ele>243.0</ele><time>2026-04-19T13:49:44.479Z</time></trkpt><trkpt lat="44.953747" lon="8.0259383"><ele>243.0</ele><time>2026-04-19T13:49:45.479Z</time></trkpt><trkpt lat="44.9536298" lon="8.025988"><ele>243.0</ele><time>2026-04-19T13:49:46.479Z</time></trkpt><trkpt lat="44.9535062" lon="8.0260376"><ele>243.0</ele><time>2026-04-19T13:49:47.48Z</time></trkpt><trkpt lat="44.9533793" lon="8.0260789"><ele>243.0</ele><time>2026-04-19T13:49:48.48Z</time></trkpt><trkpt lat="44.9532625" lon="8.0261371"><ele>243.0</ele><time>2026-04-19T13:49:49.479Z</time></trkpt><trkpt lat="44.9531345" lon="8.0261909"><ele>243.0</ele><time>2026-04-19T13:49:50.48Z</time></trkpt><trkpt lat="44.9530147" lon="8.0262389"><ele>243.75</ele><time>2026-04-19T13:49:51.479Z</time></trkpt><trkpt lat="44.9528983" lon="8.0262949"><ele>244.5</ele><time>2026-04-19T13:49:52.479Z</time></trkpt><trkpt lat="44.9527748" lon="8.0263346"><ele>245.25</ele><time>2026-04-19T13:49:53.479Z</time></trkpt><trkpt lat="44.9526635" lon="8.0264033"><ele>246.0</ele><time>2026-04-19T13:49:54.48Z</time></trkpt><trkpt lat="44.9525503" lon="8.026435"><ele>246.60000000000002</ele><time>2026-04-19T13:49:55.479Z</time></trkpt><trkpt lat="44.9524323" lon="8.0264777"><ele>247.20000000000002</ele><time>2026-04-19T13:49:56.479Z</time></trkpt><trkpt lat="44.9523257" lon="8.0265171"><ele>247.79999999999998</ele><time>2026-04-19T13:49:57.48Z</time></trkpt><trkpt lat="44.9522306" lon="8.0265945"><ele>248.39999999999998</ele><time>2026-04-19T13:49:58.48Z</time></trkpt><trkpt lat="44.9521493" lon="8.0265946"><ele>249.0</ele><time>2026-04-19T13:49:59.479Z</time></trkpt><trkpt lat="44.9520503" lon="8.0266238"><ele>250.6</ele><time>2026-04-19T13:50:00.479Z</time></trkpt><trkpt lat="44.9519596" lon="8.0266718"><ele>252.2</ele><time>2026-04-19T13:50:01.479Z</time></trkpt><trkpt lat="44.9518582" lon="8.0266957"><ele>253.79999999999998</ele><time>2026-04-19T13:50:02.479Z</time></trkpt><trkpt lat="44.9517539" lon="8.0267307"><ele>255.39999999999998</ele><time>2026-04-19T13:50:03.48Z</time></trkpt><trkpt lat="44.9516676" lon="8.0267839"><ele>257.0</ele><time>2026-04-19T13:50:04.479Z</time></trkpt><trkpt lat="44.9516009" lon="8.0268462"><ele>257.0</ele><time>2026-04-19T13:50:05.48Z</time></trkpt><trkpt lat="44.9515256" lon="8.026916"><ele>257.0</ele><time>2026-04-19T13:50:06.479Z</time></trkpt><trkpt lat="44.9515025" lon="8.0270261"><ele>257.0</ele><time>2026-04-19T13:50:07.479Z</time></trkpt><trkpt lat="44.9514788" lon="8.027137"><ele>257.0</ele><time>2026-04-19T13:50:08.479Z</time></trkpt><trkpt lat="44.951482" lon="8.0272349"><ele>257.0</ele><time>2026-04-19T13:50:09.479Z</time></trkpt><trkpt lat="44.951483" lon="8.0273432"><ele>257.0</ele><time>2026-04-19T13:50:10.479Z</time></trkpt><trkpt lat="44.9514559" lon="8.027503"><ele>257.8</ele><time>2026-04-19T13:50:12.479Z</time></trkpt><trkpt lat="44.9513775" lon="8.0275355"><ele>258.6</ele><time>2026-04-19T13:50:14.479Z</time></trkpt><trkpt lat="44.9513075" lon="8.0275841"><ele>259.40000000000003</ele><time>2026-04-19T13:50:15.48Z</time></trkpt><trkpt lat="44.9512073" lon="8.0276299"><ele>260.2</ele><time>2026-04-19T13:50:16.479Z</time></trkpt><trkpt lat="44.9511039" lon="8.0276679"><ele>261.0</ele><time>2026-04-19T13:50:17.48Z</time></trkpt><trkpt lat="44.9510092" lon="8.0277095"><ele>261.0</ele><time>2026-04-19T13:50:18.479Z</time></trkpt><trkpt lat="44.9509095" lon="8.027761"><ele>261.0</ele><time>2026-04-19T13:50:19.479Z</time></trkpt><trkpt lat="44.9507954" lon="8.0277943"><ele>261.0</ele><time>2026-04-19T13:50:20.479Z</time></trkpt><trkpt lat="44.9507156" lon="8.0277968"><ele>261.0</ele><time>2026-04-19T13:50:21.48Z</time></trkpt><trkpt lat="44.9506267" lon="8.0277848"><ele>261.0</ele><time>2026-04-19T13:50:22.479Z</time></trkpt><trkpt lat="44.9505527" lon="8.0277097"><ele>258.5</ele><time>2026-04-19T13:50:23.479Z</time></trkpt><trkpt lat="44.950472" lon="8.0276639"><ele>256.0</ele><time>2026-04-19T13:50:24.48Z</time></trkpt><trkpt lat="44.9504161" lon="8.0275958"><ele>253.5</ele><time>2026-04-19T13:50:25.479Z</time></trkpt><trkpt lat="44.9503284" lon="8.0274849"><ele>251.0</ele><time>2026-04-19T13:50:27.479Z</time></trkpt><trkpt lat="44.9502804" lon="8.0273918"><ele>248.5</ele><time>2026-04-19T13:50:29.479Z</time></trkpt><trkpt lat="44.9502339" lon="8.0273051"><ele>246.0</ele><time>2026-04-19T13:50:31.48Z</time></trkpt><trkpt lat="44.9502008" lon="8.0271869"><ele>245.71428571428575</ele><time>2026-04-19T13:50:33.48Z</time></trkpt><trkpt lat="44.9501795" lon="8.02707"><ele>245.42857142857144</ele><time>2026-04-19T13:50:35.479Z</time></trkpt><trkpt lat="44.9501808" lon="8.026937"><ele>245.14285714285714</ele><time>2026-04-19T13:50:37.479Z</time></trkpt><trkpt lat="44.9501838" lon="8.026844"><ele>244.85714285714286</ele><time>2026-04-19T13:50:39.479Z</time></trkpt><trkpt lat="44.9501451" lon="8.0267709"><ele>244.57142857142856</ele><time>2026-04-19T13:51:13.479Z</time></trkpt><trkpt lat="44.9500783" lon="8.0267862"><ele>244.28571428571425</ele><time>2026-04-19T13:51:17.479Z</time></trkpt><trkpt lat="44.9500644" lon="8.0268732"><ele>243.99999999999997</ele><time>2026-04-19T13:51:20.479Z</time></trkpt><trkpt lat="44.9501386" lon="8.0269178"><ele>244.0</ele><time>2026-04-19T13:51:25.479Z</time></trkpt></trkseg></trk></gpx>